# Wetter Temperatur Luftdruck Luftfeuchtigkeit Sichtweite Windgeschwindigkeit Windrichtung Zeit
1 Clear 12 1015 54 10000 5.1 140 01:52 05.04.2020
2 Clear 13 1015 50 10000 5.1 140 01:33 05.04.2020
3 Clear 13 1015 47 10000 4.1 140 00:48 05.04.2020
4 Clear 12 1015 47 10000 4.1 130 00:22 05.04.2020
5 Clear 12 1015 47 10000 4.1 130 00:22 05.04.2020
6 Clear 13 1015 47 10000 3.6 120 23:57 04.04.2020
7 Clear 13 1015 44 10000 4.1 110 23:38 04.04.2020
8 Clear 13 1015 44 10000 4.1 110 23:20 04.04.2020
9 Clear 14 1015 44 10000 4.1 100 22:56 04.04.2020
10 Clear 14 1015 41 10000 4.1 110 22:37 04.04.2020
11 Clear 15 1015 41 10000 4.1 110 22:19 04.04.2020
12 Clear 15 1015 36 10000 3.6 110 21:55 04.04.2020
13 Clear 16 1015 34 10000 3.6 110 21:36 04.04.2020
14 Clear 16 1015 34 10000 3.6 110 21:18 04.04.2020
15 Clear 19 1014 30 10000 4.6 120 20:42 04.04.2020
16 Clear 19 1014 30 10000 4.6 120 20:23 04.04.2020
17 Clear 20 1014 62 10000 5.1 110 19:59 04.04.2020
18 Clear 21 1014 63 10000 5.7 110 19:38 04.04.2020
19 Clear 21 1014 63 10000 5.1 100 19:19 04.04.2020
20 Clear 21 1014 62 10000 5.1 100 18:57 04.04.2020
21 Clear 22 1014 26 10000 5.1 90 18:38 04.04.2020
22 Clear 22 1014 28 10000 5.1 110 18:19 04.04.2020
23 Clear 23 1014 28 10000 5.1 110 17:56 04.04.2020
24 Clear 22 1015 28 10000 4.6 100 17:38 04.04.2020
25 Clear 22 1015 28 10000 4.6 100 17:18 04.04.2020
26 Clear 22 1015 32 10000 4.1 120 16:42 04.04.2020
27 Clear 22 1015 32 10000 4.1 120 16:42 04.04.2020
28 Clear 22 1015 32 10000 4.1 120 16:22 04.04.2020
29 Clear 21 1016 37 10000 4.1 110 15:56 04.04.2020
30 Clear 21 1016 40 10000 4.1 90 15:38 04.04.2020
31 Clear 21 1016 39 10000 4.1 110 15:19 04.04.2020
32 Clear 20 1016 39 10000 4.6 120 14:43 04.04.2020
33 Clear 19 1017 39 10000 5.1 110 14:23 04.04.2020
34 Clear 19 1017 42 10000 5.1 120 13:56 04.04.2020
35 Clear 19 1017 42 10000 5.1 120 13:38 04.04.2020
36 Clear 18 1017 42 10000 5.1 120 13:19 04.04.2020
37 Clear 17 1017 48 10000 4.1 110 12:45 04.04.2020
38 Clear 17 1017 48 10000 4.1 110 12:27 04.04.2020
39 Clear 14 1018 50 10000 3.6 120 11:59 04.04.2020
40 Clear 14 1018 54 10000 3.6 120 11:39 04.04.2020
41 Clear 13 1018 54 10000 3.6 120 11:21 04.04.2020
42 Clear 11 1017 62 10000 3.1 120 10:56 04.04.2020
43 Clear 11 1018 66 10000 3.6 110 10:38 04.04.2020
44 Clear 10 1018 66 10000 3.6 110 10:19 04.04.2020
45 Clear 8 1017 75 10000 2.6 90 09:55 04.04.2020
46 Clear 7 1017 75 10000 2.6 90 09:37 04.04.2020
47 Clear 7 1017 75 10000 2.6 90 09:37 04.04.2020
48 Clear 7 1017 75 10000 2.6 90 09:18 04.04.2020
49 Clear 4 1017 100 10000 1.5 70 08:42 04.04.2020
50 Clear 4 1017 100 10000 1.5 70 08:21 04.04.2020
51 Clear 4 1017 93 10000 1 80 07:47 04.04.2020
52 Clear 4 1017 93 10000 2.52 95 07:27 04.04.2020
53 Clear 4 1017 93 10000 2.52 95 06:57 04.04.2020
54 Clear 5 1018 87 10000 2.1 50 06:20 04.04.2020
55 Clear 5 1018 87 10000 1.5 40 05:43 04.04.2020
56 Clear 5 1018 87 10000 1.5 40 05:24 04.04.2020
57 Fog 5 1018 87 10000 2.1 40 04:33 04.04.2020
58 Clear 6 1018 87 10000 1.5 20 03:55 04.04.2020
59 Clear 6 1018 93 10000 1 10 03:22 04.04.2020
60 Clear 7 1018 87 10000 1 20 02:38 04.04.2020
61 Clear 7 1018 87 10000 1 20 02:20 04.04.2020
62 Clear 8 1019 81 10000 1 30 01:26 04.04.2020
63 Clear 9 1019 76 10000 2.1 40 00:50 04.04.2020
64 Clear 9 1019 76 10000 2.1 40 00:30 04.04.2020
65 Clear 9 1019 76 10000 2.1 40 00:30 04.04.2020
66 Clear 10 1019 76 10000 2.6 30 23:41 03.04.2020
67 Clear 10 1019 76 10000 2.6 30 23:21 03.04.2020
68 Clear 10 1019 76 10000 2.6 10 22:59 03.04.2020
69 Clear 10 1019 71 10000 3.1 360 22:39 03.04.2020
70 Clear 10 1019 71 10000 3.1 360 22:39 03.04.2020
71 Clear 11 1019 66 10000 3.1 360 22:19 03.04.2020
72 Clear 11 1019 66 10000 3.6 10 21:45 03.04.2020
73 Clear 11 1019 66 10000 3.6 10 21:26 03.04.2020
74 Clear 12 1018 58 10000 4.1 10 20:57 03.04.2020
75 Clear 13 1018 54 10000 3.6 10 20:39 03.04.2020
76 Clear 14 1018 54 10000 3.6 10 20:21 03.04.2020
77 Clear 14 1018 47 10000 3.6 20 19:58 03.04.2020
78 Clear 15 1018 44 10000 4.1 20 19:39 03.04.2020
79 Clear 15 1018 44 10000 4.1 20 19:21 03.04.2020
80 Clear 15 1018 44 10000 5.1 30 18:59 03.04.2020
81 Clear 15 1018 44 10000 3.6 20 18:41 03.04.2020
82 Clear 16 1018 44 10000 3.6 20 18:41 03.04.2020
83 Clear 16 1018 44 10000 3.6 20 18:23 03.04.2020
84 Clear 16 1018 41 10000 3.6 60 17:57 03.04.2020
85 Clear 17 1018 41 10000 4.1 10 17:39 03.04.2020
86 Clear 17 1018 41 10000 4.1 10 17:18 03.04.2020
87 Clear 16 1019 41 10000 4.1 0 16:45 03.04.2020
88 Clear 16 1019 47 10000 4.6 20 16:22 03.04.2020
89 Clear 16 1019 47 10000 4.6 20 15:58 03.04.2020
90 Clear 15 1019 44 10000 5.7 40 15:40 03.04.2020
91 Clear 15 1019 44 10000 5.7 40 15:21 03.04.2020
92 Clear 16 1018 44 0 0.89 341 14:56 03.04.2020
93 Clear 14 1020 47 10000 4.1 60 14:38 03.04.2020
94 Clear 15 1020 47 10000 4.1 60 14:20 03.04.2020
95 Clear 14 1020 47 10000 4.1 60 13:43 03.04.2020
96 Clear 14 1020 47 10000 4.1 60 13:25 03.04.2020
97 Clouds 13 1021 50 10000 4.6 30 12:56 03.04.2020
98 Clear 13 1021 46 10000 4.1 70 12:37 03.04.2020
99 Clear 12 1021 53 10000 4.1 60 12:18 03.04.2020
100 Clear 12 1021 53 10000 4.1 60 12:18 03.04.2020
101 Clear 12 1021 53 10000 4.1 60 11:54 03.04.2020
102 Clear 11 1021 53 10000 2.6 30 11:36 03.04.2020
103 Clear 11 1020 57 10000 2.6 40 11:18 03.04.2020
104 Clear 10 1020 57 10000 2.6 40 10:54 03.04.2020
105 Clear 9 1020 61 10000 3.1 30 10:36 03.04.2020
106 Clear 8 1020 70 10000 3.1 20 10:18 03.04.2020
107 Clear 6 1020 75 10000 1.5 10 09:40 03.04.2020
108 Clear 6 1020 75 10000 1.5 10 09:40 03.04.2020
109 Clear 6 1020 75 10000 1.5 10 09:22 03.04.2020
110 Clear 4 1020 86 10000 1 320 08:57 03.04.2020
111 Clear 3 1019 84 10000 0.5 0 08:39 03.04.2020
112 Clear 3 1019 84 10000 0.5 0 08:20 03.04.2020
113 Clear 3 1019 84 10000 1 330 07:50 03.04.2020
114 Clear 3 1019 84 10000 1 330 07:31 03.04.2020
115 Clear 3 1018 84 10000 1 340 06:49 03.04.2020
116 Clear 3 1018 84 10000 1 340 06:24 03.04.2020
117 Clear 4 1018 82 10000 1.5 340 05:40 03.04.2020
118 Clear 6 1018 70 10000 2.1 350 03:45 03.04.2020
119 Clear 7 1018 70 10000 2.6 360 02:56 03.04.2020
120 Clear 7 1018 65 10000 3.1 360 02:28 03.04.2020
121 Clear 8 1018 65 10000 3.1 340 01:23 03.04.2020
122 Clear 9 1017 66 10000 2.6 330 00:40 03.04.2020
123 Clear 9 1017 66 10000 3.1 340 00:20 03.04.2020
124 Clear 10 1017 57 10000 3.1 340 23:42 02.04.2020
125 Clear 10 1017 57 10000 3.1 340 23:23 02.04.2020
126 Clear 10 1017 57 10000 3.6 340 22:58 02.04.2020
127 Clear 11 1016 53 10000 3.6 350 22:39 02.04.2020
128 Clear 11 1016 74 10000 3.1 340 22:20 02.04.2020
129 Clear 12 1015 37 10000 4.1 350 21:39 02.04.2020
130 Clouds 13 1015 35 10000 4.1 350 21:20 02.04.2020
131 Clouds 13 1015 35 10000 4.1 350 20:58 02.04.2020
132 Clouds 14 1015 33 10000 5.1 360 20:40 02.04.2020
133 Clouds 15 1015 33 10000 5.1 360 20:21 02.04.2020
134 Clouds 16 1014 44 10000 5.7 10 19:44 02.04.2020
135 Clouds 16 1014 44 10000 5.7 10 19:21 02.04.2020
136 Clouds 16 1014 47 10000 5.1 360 19:00 02.04.2020
137 Clouds 16 1014 51 10000 4.6 10 18:41 02.04.2020
138 Clouds 17 1014 48 10000 2.6 0 18:20 02.04.2020
139 Clouds 17 1014 48 10000 2.6 0 17:57 02.04.2020
140 Clouds 17 1014 45 10000 2.6 360 17:39 02.04.2020
141 Clouds 17 1014 45 10000 2.6 360 17:20 02.04.2020
142 Clouds 16 1014 48 10000 1.5 0 16:55 02.04.2020
143 Clouds 18 1014 42 10000 1.5 10 16:37 02.04.2020
144 Clouds 18 1014 42 10000 1.5 10 16:19 02.04.2020
145 Clouds 18 1014 45 10000 1 0 15:45 02.04.2020
146 Clouds 17 1014 48 10000 1 0 15:22 02.04.2020
147 Clouds 17 1014 48 10000 1 0 14:59 02.04.2020
148 Clouds 16 1015 51 10000 2.1 100 14:40 02.04.2020
149 Clouds 16 1015 51 10000 2.1 100 14:20 02.04.2020
150 Clouds 16 1015 51 10000 1 0 13:57 02.04.2020
151 Clouds 16 1015 54 10000 2.1 120 13:38 02.04.2020
152 Clouds 16 1015 54 10000 2.1 120 13:38 02.04.2020
153 Clouds 16 1015 54 10000 2.1 120 13:20 02.04.2020
154 Clouds 15 1015 54 10000 1.5 0 12:56 02.04.2020
155 Clouds 15 1015 58 10000 1 0 12:37 02.04.2020
156 Clear 14 1015 58 10000 1.5 0 12:19 02.04.2020
157 Clear 14 1015 58 10000 1.5 0 11:56 02.04.2020
158 Clear 13 1015 62 10000 1.5 0 11:37 02.04.2020
159 Clear 13 1015 62 10000 1.5 0 11:37 02.04.2020
160 Clear 12 1015 62 10000 1.5 0 11:18 02.04.2020
161 Clear 11 1015 66 10000 1.5 50 10:54 02.04.2020
162 Clear 10 1015 71 10000 2.1 40 10:36 02.04.2020
163 Clear 10 1015 76 10000 1 40 10:18 02.04.2020
164 Clear 8 1015 87 10000 0.5 0 09:43 02.04.2020
165 Clouds 7 1015 87 10000 0.5 0 09:24 02.04.2020
166 Clouds 6 1014 93 10000 1 110 08:58 02.04.2020
167 Fog 6 1014 93 10000 0.5 120 08:40 02.04.2020
168 Fog 5 1014 93 10000 0.5 120 08:20 02.04.2020
169 Clouds 6 1014 93 10000 0.47 101 07:43 02.04.2020
170 Clouds 6 1014 93 10000 0.47 101 07:20 02.04.2020
171 Clouds 7 1014 87 10000 1 310 06:57 02.04.2020
172 Clouds 7 1014 87 10000 1 310 06:21 02.04.2020
173 Clouds 8 1014 75 10000 2.6 170 05:42 02.04.2020
174 Clouds 10 1014 76 10000 3.6 150 03:24 02.04.2020
175 Clouds 11 1014 66 10000 2.1 180 01:31 02.04.2020
176 Clouds 12 1014 54 10000 2.6 60 00:42 02.04.2020
177 Clouds 13 1014 54 10000 2.6 60 00:24 02.04.2020
178 Clouds 13 1014 62 10000 2.6 30 23:41 01.04.2020
179 Clouds 13 1014 62 10000 2.6 30 23:20 01.04.2020
180 Clouds 13 1014 76 10000 1.63 70 22:58 01.04.2020
181 Clouds 13 1014 71 10000 0.5 320 22:39 01.04.2020
182 Clouds 13 1014 71 10000 0.5 320 22:39 01.04.2020
183 Clouds 13 1013 66 10000 1 340 22:21 01.04.2020
184 Clouds 14 1013 62 10000 1 300 21:42 01.04.2020
185 Clouds 14 1013 62 10000 1 300 21:42 01.04.2020
186 Clouds 15 1013 62 10000 1 300 21:22 01.04.2020
187 Rain 15 1013 62 10000 1 300 21:22 01.04.2020
188 Rain 15 1013 62 10000 1 300 21:22 01.04.2020
189 Clouds 16 1013 55 10000 1 190 20:58 01.04.2020
190 Clouds 16 1013 55 10000 1.5 150 20:40 01.04.2020
191 Clouds 16 1013 55 10000 1.5 150 20:21 01.04.2020
192 Clouds 17 1013 51 10000 2.6 140 20:00 01.04.2020
193 Clouds 17 1013 48 10000 3.1 140 19:41 01.04.2020
194 Clouds 18 1013 48 10000 3.1 140 19:20 01.04.2020
195 Clouds 18 1013 51 10000 3.6 100 18:44 01.04.2020
196 Clouds 18 1013 51 10000 3.6 100 18:26 01.04.2020
197 Clouds 18 1013 51 10000 3.6 130 17:58 01.04.2020
198 Clouds 18 1013 51 10000 4.1 90 17:38 01.04.2020
199 Clouds 17 1014 51 10000 3.6 130 17:20 01.04.2020
200 Clouds 18 1014 51 10000 3.6 130 16:59 01.04.2020
201 Clouds 17 1014 55 10000 3.6 120 16:39 01.04.2020
202 Clouds 17 1014 55 10000 3.6 120 16:21 01.04.2020
203 Clouds 17 1014 48 10000 5.1 130 15:57 01.04.2020
204 Clouds 17 1014 55 10000 5.1 120 15:38 01.04.2020
205 Clouds 18 1014 55 10000 5.7 120 15:19 01.04.2020
206 Clouds 17 1014 55 10000 5.7 120 14:55 01.04.2020
207 Clouds 17 1014 55 10000 5.7 120 14:55 01.04.2020
208 Clouds 17 1014 51 10000 5.1 140 14:37 01.04.2020
209 Clouds 17 1015 59 10000 5.1 130 14:19 01.04.2020
210 Clouds 17 1015 59 10000 5.1 130 13:56 01.04.2020
211 Clouds 17 1015 55 10000 6.2 120 13:37 01.04.2020
212 Clouds 17 1015 59 10000 6.2 110 13:18 01.04.2020
213 Clouds 16 1015 62 10000 6.7 120 12:42 01.04.2020
214 Clouds 15 1015 62 10000 6.7 120 12:24 01.04.2020
215 Clouds 14 1015 62 10000 5.7 110 11:59 01.04.2020
216 Clouds 14 1015 62 10000 5.7 100 11:39 01.04.2020
217 Clouds 14 1015 62 10000 5.7 100 11:20 01.04.2020
218 Clouds 13 1015 62 10000 5.7 100 10:56 01.04.2020
219 Clouds 12 1015 62 10000 4.6 90 10:37 01.04.2020
220 Clouds 11 1015 66 10000 4.6 80 10:18 01.04.2020
221 Clouds 10 1015 66 10000 3.6 70 09:40 01.04.2020
222 Clouds 10 1015 66 10000 3.6 70 09:40 01.04.2020
223 Clouds 10 1015 66 10000 3.6 70 09:21 01.04.2020
224 Clouds 9 1015 66 10000 3.6 80 08:57 01.04.2020
225 Clouds 8 1015 70 10000 3.6 70 08:38 01.04.2020
226 Clouds 8 1015 70 10000 2.6 80 08:18 01.04.2020
227 Clouds 7 1015 70 10000 2.1 70 07:41 01.04.2020
228 Clouds 7 1015 70 10000 3.1 50 07:19 01.04.2020
229 Clouds 7 1015 65 10000 3.6 40 06:47 01.04.2020
230 Clouds 7 1015 65 10000 2.1 60 06:21 01.04.2020
231 Clouds 7 1015 65 10000 2.6 60 05:50 01.04.2020
232 Clouds 7 1015 89 10000 2.6 30 04:29 01.04.2020
233 Clouds 7 1015 56 10000 1.5 60 03:21 01.04.2020
234 Clouds 8 1015 49 10000 2.6 50 02:41 01.04.2020
235 Clouds 9 1015 45 10000 2.6 60 01:53 01.04.2020
236 Clouds 9 1015 45 10000 3.1 50 01:27 01.04.2020
237 Clouds 10 1015 43 10000 3.1 50 00:47 01.04.2020
238 Clouds 10 1015 43 10000 3.1 50 00:23 01.04.2020
239 Clouds 10 1015 43 10000 4.1 40 23:59 31.03.2020
240 Clouds 11 1015 43 10000 4.1 40 23:40 31.03.2020
241 Clouds 11 1015 43 10000 4.1 40 23:21 31.03.2020
242 Clouds 12 1015 60 10000 2.6 30 22:41 31.03.2020
243 Clouds 12 1015 60 10000 3.6 40 22:21 31.03.2020
244 Clouds 12 1015 60 10000 3.6 40 21:58 31.03.2020
245 Clouds 12 1015 47 10000 3.6 30 21:40 31.03.2020
246 Clouds 13 1015 47 10000 3.6 30 21:21 31.03.2020
247 Clouds 13 1015 47 10000 2.6 40 20:57 31.03.2020
248 Clouds 13 1015 47 10000 2.6 40 20:57 31.03.2020
249 Clouds 13 1015 47 10000 2.6 40 20:37 31.03.2020
250 Clouds 15 1014 41 10000 4.1 70 20:19 31.03.2020
251 Clouds 15 1014 41 10000 4.1 70 19:56 31.03.2020
252 Clouds 15 1014 41 10000 4.1 60 19:38 31.03.2020
253 Clouds 15 1015 44 10000 4.6 80 19:19 31.03.2020
254 Clouds 16 1015 44 10000 4.1 70 18:44 31.03.2020
255 Clouds 16 1015 44 10000 4.1 70 18:20 31.03.2020
256 Clouds 16 1015 44 10000 4.1 70 17:57 31.03.2020
257 Clouds 16 1015 44 10000 5.7 50 17:39 31.03.2020
258 Clouds 16 1015 44 10000 4.6 60 17:21 31.03.2020
259 Clouds 16 1015 44 10000 4.6 60 16:56 31.03.2020
260 Clouds 16 1015 44 10000 5.7 60 16:36 31.03.2020
261 Clouds 15 1015 44 10000 5.7 60 16:18 31.03.2020
262 Clouds 15 1015 50 10000 5.7 60 15:54 31.03.2020
263 Clouds 14 1015 47 10000 5.7 50 15:36 31.03.2020
264 Clouds 13 1015 47 10000 5.7 50 15:18 31.03.2020
265 Clouds 13 1016 53 10000 6.2 40 14:41 31.03.2020
266 Clouds 12 1016 53 10000 6.2 40 14:22 31.03.2020
267 Clouds 12 1016 53 10000 5.7 60 13:58 31.03.2020
268 Clouds 11 1017 53 10000 4.1 70 13:39 31.03.2020
269 Clouds 11 1017 57 10000 5.1 50 13:19 31.03.2020
270 Clouds 10 1017 57 10000 4.6 50 12:44 31.03.2020
271 Clouds 8 1017 65 10000 4.1 60 12:20 31.03.2020
272 Clouds 8 1017 65 10000 4.1 60 11:56 31.03.2020
273 Clouds 8 1017 61 10000 4.6 60 11:37 31.03.2020
274 Clouds 8 1017 61 10000 4.6 60 11:18 31.03.2020
275 Clouds 6 1018 70 10000 4.1 50 10:55 31.03.2020
276 Clouds 6 1018 70 10000 4.1 50 10:55 31.03.2020
277 Clouds 5 1017 75 10000 4.6 50 10:37 31.03.2020
278 Clouds 4 1017 80 10000 3.1 50 10:18 31.03.2020
279 Clouds 5 1017 75 10000 4.6 50 10:18 31.03.2020
280 Clouds 4 1017 80 10000 2.6 30 09:43 31.03.2020
281 Clouds 4 1017 80 10000 2.6 30 09:25 31.03.2020
282 Clouds 3 1017 86 10000 3.1 40 08:58 31.03.2020
283 Clouds 2 1017 93 10000 2.6 50 08:39 31.03.2020
284 Clouds 2 1017 93 10000 2.6 50 08:20 31.03.2020
285 Clouds 2 1017 93 10000 2.6 30 07:56 31.03.2020
286 Clouds 2 1017 93 10000 1.5 30 07:38 31.03.2020
287 Clouds 2 1017 100 6000 1 30 07:19 31.03.2020
288 Mist 2 1017 100 4100 2.94 39 06:47 31.03.2020
289 Mist 2 1017 100 4100 2.94 39 06:23 31.03.2020
290 Mist 2 1017 93 4900 1.92 53 05:40 31.03.2020
291 Fog 2 1018 100 1000 1.92 53 03:43 31.03.2020
292 Fog 2 1018 100 1800 1 0 02:25 31.03.2020
293 Fog 2 1018 100 1800 2.1 20 01:46 31.03.2020
294 Fog 2 1018 93 1200 1.02 90 00:51 31.03.2020
295 Mist 3 1018 100 4300 1 60 00:25 31.03.2020
296 Mist 3 1018 100 4300 1 60 23:58 30.03.2020
297 Clouds 3 1018 93 8000 1.5 50 23:38 30.03.2020
298 Clouds 3 1018 93 8000 1.5 50 23:18 30.03.2020
299 Clouds 4 1019 93 10000 1 40 22:55 30.03.2020
300 Clouds 4 1019 93 10000 1.5 40 22:36 30.03.2020
301 Clouds 4 1019 93 10000 1.5 40 22:18 30.03.2020
302 Clouds 4 1018 93 10000 3.6 50 21:55 30.03.2020
303 Clouds 4 1018 93 10000 2.6 60 21:36 30.03.2020
304 Clouds 4 1018 93 10000 2.6 60 21:18 30.03.2020
305 Clouds 5 1018 93 10000 4.1 50 20:42 30.03.2020
306 Clouds 5 1018 93 10000 4.1 50 20:24 30.03.2020
307 Clouds 5 1018 93 10000 4.1 50 20:24 30.03.2020
308 Clouds 5 1018 93 10000 4.1 50 20:24 30.03.2020
309 Clouds 4 1018 86 10000 4.6 40 19:59 30.03.2020
310 Rain 4 1018 86 10000 5.1 50 19:40 30.03.2020
311 Rain 4 1018 86 10000 5.1 50 19:21 30.03.2020
312 Rain 5 1018 86 10000 5.7 40 18:56 30.03.2020
313 Rain 5 1018 86 10000 6.2 40 18:38 30.03.2020
314 Rain 5 1018 86 10000 6.2 40 18:38 30.03.2020
315 Rain 4 1018 86 10000 5.1 30 18:19 30.03.2020
316 Rain 5 1018 86 10000 5.1 30 17:56 30.03.2020
317 Rain 5 1018 86 10000 5.1 30 17:56 30.03.2020
318 Rain 5 1018 86 10000 7.2 40 17:37 30.03.2020
319 Rain 4 1018 86 10000 7.2 30 17:18 30.03.2020
320 Rain 4 1018 86 10000 7.2 30 16:54 30.03.2020
321 Rain 4 1019 93 9000 5.1 20 16:36 30.03.2020
322 Rain 4 1019 93 9000 5.1 20 16:18 30.03.2020
323 Rain 4 1019 93 10000 5.7 20 15:41 30.03.2020
324 Rain 4 1019 93 10000 5.7 20 15:22 30.03.2020
325 Rain 4 1019 93 8000 5.1 20 14:59 30.03.2020
326 Rain 3 1020 100 10000 5.7 20 14:38 30.03.2020
327 Rain 3 1020 100 10000 5.7 20 14:19 30.03.2020
328 Rain 3 1020 100 7000 6.2 10 13:58 30.03.2020
329 Rain 3 1020 93 5000 6.7 10 13:39 30.03.2020
330 Rain 3 1020 93 5000 6.7 10 13:20 30.03.2020
331 Snow 3 1020 93 4700 7.7 10 12:45 30.03.2020
332 Snow 3 1020 93 4700 7.7 10 12:22 30.03.2020
333 Snow 3 1021 93 4700 8.2 10 11:59 30.03.2020
334 Snow 3 1021 93 4700 8.2 10 11:59 30.03.2020
335 Rain 3 1021 93 6000 6.7 10 11:41 30.03.2020
336 Rain 3 1021 93 6000 6.7 10 11:22 30.03.2020
337 Rain 2 1021 93 6000 8.2 10 10:55 30.03.2020
338 Snow 2 1021 93 10000 6.7 10 10:37 30.03.2020
339 Snow 2 1021 93 10000 6.7 10 10:18 30.03.2020
340 Rain 3 1021 86 10000 6.7 20 09:40 30.03.2020
341 Rain 3 1021 86 10000 6.7 20 09:20 30.03.2020
342 Rain 3 1021 86 10000 6.7 20 09:20 30.03.2020
343 Snow 2 1021 93 10000 4.6 10 08:57 30.03.2020
344 Snow 3 1021 82 3400 2.1 350 08:38 30.03.2020
345 Snow 3 1021 82 3400 2.1 350 08:19 30.03.2020
346 Snow 3 1021 93 6000 4.6 350 07:43 30.03.2020
347 Snow 3 1021 82 9000 6.7 360 07:21 30.03.2020
348 Clouds 4 1021 82 10000 6.7 350 06:43 30.03.2020
349 Rain 4 1021 69 10000 7.7 360 06:25 30.03.2020
350 Rain 4 1022 69 10000 7.7 10 05:43 30.03.2020
351 Clouds 5 1022 56 10000 7.2 360 04:29 30.03.2020
352 Clouds 5 1022 56 10000 6.7 360 03:54 30.03.2020
353 Clouds 6 1023 48 10000 7.7 20 02:44 30.03.2020
354 Clouds 6 1023 45 10000 7.7 10 01:55 30.03.2020
355 Clouds 6 1023 48 10000 6.2 20 00:57 30.03.2020
356 Clouds 6 1023 48 10000 5.7 10 00:27 30.03.2020
357 Rain 7 1023 45 10000 6.2 10 23:55 29.03.2020
358 Rain 7 1023 45 10000 7.2 20 23:36 29.03.2020
359 Rain 7 1023 45 10000 6.2 20 23:18 29.03.2020
360 Rain 7 1023 45 10000 6.7 20 22:40 29.03.2020
361 Rain 7 1023 45 10000 6.7 30 22:20 29.03.2020
362 Rain 7 1023 45 10000 6.7 30 21:59 29.03.2020
363 Rain 8 1023 52 10000 5.7 30 21:37 29.03.2020
364 Rain 8 1023 52 10000 5.7 30 21:19 29.03.2020
365 Rain 7 1022 70 10000 7.7 50 20:55 29.03.2020
366 Rain 7 1022 70 10000 7.7 50 20:37 29.03.2020
367 Rain 8 1022 52 10000 9.8 30 20:18 29.03.2020
368 Rain 8 1022 52 10000 9.8 30 20:18 29.03.2020
369 Rain 8 1022 52 10000 9.8 30 19:55 29.03.2020
370 Rain 8 1022 52 10000 9.8 30 19:55 29.03.2020
371 Rain 8 1022 52 10000 7.2 40 19:37 29.03.2020
372 Rain 8 1022 52 10000 8.7 40 19:18 29.03.2020
373 Clouds 8 1022 52 10000 10.3 30 18:55 29.03.2020
374 Clouds 8 1022 52 10000 10.3 30 18:37 29.03.2020
375 Clouds 8 1022 79 10000 9.3 30 18:18 29.03.2020
376 Clouds 9 1022 79 10000 9.8 30 17:42 29.03.2020
377 Clouds 10 1021 57 10000 8.7 360 17:24 29.03.2020
378 Clouds 10 1022 57 10000 10.3 20 16:59 29.03.2020
379 Clouds 10 1021 57 10000 8.2 20 16:41 29.03.2020
380 Clouds 10 1021 57 10000 8.2 20 16:21 29.03.2020
381 Clouds 11 1022 53 10000 8.7 30 15:59 29.03.2020
382 Clouds 11 1022 53 10000 8.7 30 15:59 29.03.2020
383 Clouds 11 1021 57 10000 8.2 30 15:40 29.03.2020
384 Clouds 12 1022 62 10000 7.7 30 15:21 29.03.2020
385 Clouds 12 1022 62 10000 7.7 30 14:57 29.03.2020
386 Clouds 12 1022 66 10000 8.2 20 14:37 29.03.2020
387 Clouds 12 1022 66 10000 7.7 30 14:19 29.03.2020
388 Clouds 12 1022 62 10000 8.2 20 13:55 29.03.2020
389 Clouds 12 1022 62 10000 8.2 20 13:37 29.03.2020
390 Clouds 11 1022 66 10000 7.2 40 13:18 29.03.2020
391 Clouds 11 1022 66 10000 8.7 20 12:54 29.03.2020
392 Clouds 11 1022 66 10000 7.2 40 12:54 29.03.2020
393 Clouds 11 1022 66 10000 8.7 20 12:36 29.03.2020
394 Clouds 11 1022 66 10000 8.7 20 12:36 29.03.2020
395 Clouds 11 1022 66 10000 7.7 30 12:18 29.03.2020
396 Clouds 11 1022 66 10000 7.7 30 12:18 29.03.2020
397 Clouds 10 1022 70 10000 7.7 20 11:38 29.03.2020
398 Clouds 10 1022 70 10000 7.7 20 11:20 29.03.2020
399 Clouds 9 1021 70 9000 5.1 20 10:40 29.03.2020
400 Clouds 9 1021 70 9000 5.1 20 10:21 29.03.2020
401 Clouds 8 1021 81 6000 4.6 20 09:57 29.03.2020
402 Mist 7 1021 87 4500 3.1 360 09:38 29.03.2020
403 Mist 7 1021 87 4500 3.1 360 09:18 29.03.2020
404 Mist 7 1021 87 4500 3.1 360 09:18 29.03.2020
405 Mist 6 1020 93 3500 2.6 360 08:45 29.03.2020
406 Mist 6 1020 93 3500 2.6 360 08:26 29.03.2020
407 Mist 6 1020 93 4800 2.1 350 07:48 29.03.2020
408 Mist 6 1020 93 4800 1.5 340 07:23 29.03.2020
409 Mist 5 1020 93 4300 1 0 06:40 29.03.2020
410 Fog 6 1020 93 2600 1 270 04:56 29.03.2020
411 Fog 6 1020 93 3700 1 290 03:41 29.03.2020
412 Fog 6 1020 93 3700 1 290 03:20 29.03.2020
413 Mist 7 1020 87 4700 1 310 01:43 29.03.2020
414 Mist 7 1020 87 4700 1 310 01:22 29.03.2020
415 Clear 8 1020 81 6000 1.5 240 00:45 29.03.2020
416 Clear 8 1020 81 6000 1.5 330 00:27 29.03.2020
417 Clear 9 1020 76 6000 2.6 320 23:41 28.03.2020
418 Clear 9 1020 71 7000 2.6 330 23:22 28.03.2020
419 Clear 9 1020 76 8000 2.6 320 22:46 28.03.2020
420 Clear 10 1020 76 8000 2.6 320 22:25 28.03.2020
421 Clear 10 1020 71 9000 2.1 310 21:59 28.03.2020
422 Clear 10 1020 66 10000 2.6 310 21:40 28.03.2020
423 Clear 10 1020 66 10000 2.6 310 21:21 28.03.2020
424 Clear 11 1020 62 10000 3.1 310 20:57 28.03.2020
425 Clear 11 1019 58 10000 4.1 310 20:38 28.03.2020
426 Clouds 13 1019 54 10000 4.1 310 20:20 28.03.2020
427 Clouds 13 1019 54 10000 4.1 310 19:55 28.03.2020
428 Clouds 14 1019 54 10000 4.6 310 19:36 28.03.2020
429 Clouds 14 1018 51 10000 5.7 300 19:18 28.03.2020
430 Clouds 16 1018 42 10000 6.2 300 18:42 28.03.2020
431 Clouds 16 1018 39 10000 3.1 350 18:20 28.03.2020
432 Clouds 17 1018 36 10000 2.6 20 17:43 28.03.2020
433 Clouds 17 1018 36 10000 2.6 20 17:24 28.03.2020
434 Clouds 18 1018 34 10000 3.1 310 16:59 28.03.2020
435 Clouds 18 1018 34 10000 2.1 0 16:39 28.03.2020
436 Clouds 17 1018 34 10000 2.1 0 16:18 28.03.2020
437 Clouds 18 1018 34 10000 2.6 40 15:41 28.03.2020
438 Clouds 18 1018 34 10000 2.6 40 15:21 28.03.2020
439 Clouds 18 1018 36 10000 1.5 40 14:59 28.03.2020
440 Clouds 17 1019 36 10000 3.6 10 14:40 28.03.2020
441 Clouds 17 1019 36 10000 3.6 10 14:21 28.03.2020
442 Clouds 17 1019 38 10000 2.6 0 13:43 28.03.2020
443 Clouds 17 1019 38 10000 2.6 0 13:23 28.03.2020
444 Clouds 16 1019 41 10000 4.1 20 12:41 28.03.2020
445 Clouds 15 1020 44 10000 2.1 40 12:23 28.03.2020
446 Clouds 15 1020 44 10000 2.1 40 11:55 28.03.2020
447 Clouds 14 1020 50 10000 0.5 0 11:37 28.03.2020
448 Clouds 13 1019 50 10000 0.5 0 11:18 28.03.2020
449 Clouds 12 1019 66 10000 1.5 30 10:39 28.03.2020
450 Clouds 11 1019 66 10000 1.5 30 10:20 28.03.2020
451 Clouds 9 1019 70 10000 2.6 40 09:43 28.03.2020
452 Clouds 8 1019 70 10000 2.6 40 09:24 28.03.2020
453 Clouds 7 1019 75 10000 1.77 8 08:58 28.03.2020
454 Clouds 6 1018 86 10000 1 320 08:40 28.03.2020
455 Clouds 5 1018 86 10000 1 320 08:21 28.03.2020
456 Clouds 3 1018 93 9000 0.5 0 07:44 28.03.2020
457 Clouds 3 1018 93 9000 0.5 0 07:26 28.03.2020
458 Clouds 3 1018 86 10000 1 300 06:36 28.03.2020
459 Clouds 4 1018 86 10000 1 290 05:43 28.03.2020
460 Clouds 4 1017 86 10000 1 270 05:21 28.03.2020
461 Clouds 4 1017 86 10000 1 270 04:41 28.03.2020
462 Clouds 4 1017 87 10000 1 280 03:54 28.03.2020
463 Clouds 5 1018 80 10000 1 280 02:21 28.03.2020
464 Clouds 6 1018 75 10000 1.77 23 01:30 28.03.2020
465 Clouds 6 1018 70 10000 1 310 00:59 28.03.2020
466 Clouds 7 1018 65 10000 1.5 280 00:37 28.03.2020
467 Clouds 7 1018 86 10000 1.5 330 23:57 27.03.2020
468 Clouds 7 1017 86 10000 1.5 330 23:39 27.03.2020
469 Clouds 7 1017 86 10000 1.5 330 23:21 27.03.2020
470 Clouds 8 1017 80 10000 1 270 22:56 27.03.2020
471 Clouds 9 1017 80 10000 1 0 22:37 27.03.2020
472 Clouds 9 1017 80 10000 2.1 330 22:19 27.03.2020
473 Clouds 10 1017 80 10000 2.6 340 21:43 27.03.2020
474 Clouds 10 1017 80 10000 2.6 340 21:24 27.03.2020
475 Clouds 10 1017 80 10000 2.1 330 20:58 27.03.2020
476 Clouds 11 1016 80 10000 2.6 360 20:40 27.03.2020
477 Clouds 11 1016 63 10000 2.6 360 20:20 27.03.2020
478 Clouds 12 1016 63 10000 3.1 360 19:57 27.03.2020
479 Clouds 13 1016 35 10000 4.1 360 19:38 27.03.2020
480 Clouds 13 1016 35 10000 4.1 360 19:20 27.03.2020
481 Clouds 14 1015 33 10000 4.6 360 18:44 27.03.2020
482 Clouds 14 1015 33 10000 4.6 360 18:44 27.03.2020
483 Clouds 15 1015 33 10000 4.6 360 18:23 27.03.2020
484 Clouds 15 1015 63 10000 4.1 30 17:57 27.03.2020
485 Clouds 16 1015 63 10000 3.6 10 17:38 27.03.2020
486 Clouds 16 1015 43 10000 3.1 40 17:19 27.03.2020
487 Clouds 16 1015 31 10000 2.1 30 16:44 27.03.2020
488 Clouds 16 1015 31 10000 2.1 30 16:25 27.03.2020
489 Clouds 16 1015 31 10000 2.1 30 16:25 27.03.2020
490 Clouds 16 1015 31 10000 3.6 30 15:46 27.03.2020
491 Clouds 17 1015 31 10000 3.6 30 15:27 27.03.2020
492 Clouds 16 1015 43 10000 2.6 30 14:59 27.03.2020
493 Clouds 16 1016 43 10000 4.1 20 14:40 27.03.2020
494 Clouds 16 1016 43 10000 4.1 20 14:22 27.03.2020
495 Clouds 16 1016 40 10000 3.1 0 13:54 27.03.2020
496 Clouds 15 1016 33 10000 3.6 40 13:36 27.03.2020
497 Clouds 15 1016 33 10000 3.1 40 13:18 27.03.2020
498 Clouds 14 1017 43 10000 2.6 50 12:42 27.03.2020
499 Clouds 13 1017 46 10000 2.6 10 12:19 27.03.2020
500 Clouds 13 1017 53 10000 1.5 40 11:44 27.03.2020
501 Clouds 11 1017 61 10000 2.1 40 11:25 27.03.2020
502 Clouds 11 1017 61 10000 2.1 40 10:59 27.03.2020
503 Clouds 10 1017 66 10000 1.5 0 10:41 27.03.2020
504 Clouds 10 1017 66 10000 1.5 0 10:22 27.03.2020
505 Clouds 8 1017 81 10000 2.1 40 09:58 27.03.2020
506 Clouds 8 1017 81 9000 1.5 20 09:39 27.03.2020
507 Clouds 6 1016 86 8000 1.68 27 09:21 27.03.2020
508 Clouds 6 1016 86 8000 1.68 27 08:58 27.03.2020
509 Clouds 4 1016 93 7000 1.68 27 08:39 27.03.2020
510 Clouds 3 1016 93 7000 0.66 69 08:21 27.03.2020
511 Clouds 2 1016 93 7000 0.66 69 07:53 27.03.2020
512 Mist 1 1016 86 5000 0.66 69 07:28 27.03.2020
513 Clouds 1 1016 100 7000 1 0 06:57 27.03.2020
514 Clouds 1 1015 82 9000 0.66 69 06:37 27.03.2020
515 Clouds 2 1015 82 8000 0.5 0 05:37 27.03.2020
516 Clear 3 1015 81 10000 1.22 85 02:49 27.03.2020
517 Clear 4 1015 78 10000 1 10 01:36 27.03.2020
518 Clear 4 1015 76 10000 1.74 65 00:53 27.03.2020
519 Clear 4 1015 76 10000 1.74 65 00:32 27.03.2020
520 Clear 6 1015 76 10000 1.5 120 23:44 26.03.2020
521 Clear 7 1015 76 10000 2.6 30 23:23 26.03.2020
522 Clear 7 1015 71 10000 2.6 30 22:59 26.03.2020
523 Clear 7 1015 71 10000 1.5 60 22:39 26.03.2020
524 Clear 8 1015 71 10000 1.5 60 22:20 26.03.2020
525 Clear 8 1014 71 10000 3.1 30 21:57 26.03.2020
526 Clear 9 1014 49 10000 2.6 20 21:39 26.03.2020
527 Clear 9 1014 49 10000 2.6 20 21:20 26.03.2020
528 Clear 9 1014 49 10000 3.1 20 20:58 26.03.2020
529 Clear 10 1013 46 10000 3.6 10 20:38 26.03.2020
530 Clear 10 1013 46 10000 3.6 10 20:38 26.03.2020
531 Clouds 10 1013 46 10000 3.6 10 20:20 26.03.2020
532 Clouds 10 1013 46 10000 3.6 10 20:20 26.03.2020
533 Clouds 11 1013 46 10000 3.6 350 19:56 26.03.2020
534 Clouds 11 1012 40 10000 4.1 360 19:37 26.03.2020
535 Clouds 11 1012 40 10000 4.1 360 19:19 26.03.2020
536 Clouds 12 1012 34 10000 4.6 20 18:55 26.03.2020
537 Clouds 12 1012 34 10000 4.6 20 18:36 26.03.2020
538 Clouds 12 1012 34 10000 5.1 30 18:18 26.03.2020
539 Clouds 13 1011 37 10000 5.7 20 17:42 26.03.2020
540 Clouds 13 1011 34 10000 4.6 350 17:18 26.03.2020
541 Clouds 14 1011 32 10000 4.1 20 16:45 26.03.2020
542 Clouds 14 1011 32 10000 4.1 20 16:45 26.03.2020
543 Clouds 14 1011 32 10000 4.1 20 16:26 26.03.2020
544 Clouds 14 1011 35 10000 4.1 10 15:58 26.03.2020
545 Clouds 14 1011 32 10000 4.6 360 15:39 26.03.2020
546 Clouds 14 1011 32 10000 4.1 30 15:21 26.03.2020
547 Clouds 14 1011 32 10000 4.1 30 14:57 26.03.2020
548 Clouds 14 1012 32 10000 2.1 0 14:38 26.03.2020
549 Clear 14 1012 35 10000 3.1 0 14:18 26.03.2020
550 Clear 13 1012 37 10000 4.1 40 13:41 26.03.2020
551 Clear 13 1012 37 10000 4.1 40 13:23 26.03.2020
552 Clear 12 1012 43 10000 4.1 40 12:56 26.03.2020
553 Clear 12 1012 43 10000 3.1 60 12:37 26.03.2020
554 Clear 11 1012 46 10000 3.1 50 12:18 26.03.2020
555 Clear 11 1012 49 10000 3.1 50 11:44 26.03.2020
556 Clear 8 1013 52 10000 4.1 40 11:20 26.03.2020
557 Clear 8 1013 52 10000 4.1 40 10:55 26.03.2020
558 Clear 9 1012 49 10000 4.6 20 10:36 26.03.2020
559 Clear 8 1012 49 10000 4.6 20 10:18 26.03.2020
560 Clear 6 1012 52 10000 5.1 20 09:42 26.03.2020
561 Clear 6 1012 52 10000 5.1 20 09:19 26.03.2020
562 Clear 5 1012 60 10000 5.1 20 08:44 26.03.2020
563 Clear 4 1012 60 10000 5.1 20 08:26 26.03.2020
564 Clear 3 1012 64 10000 4.1 360 07:57 26.03.2020
565 Clear 3 1012 64 10000 3.6 10 07:38 26.03.2020
566 Clear 3 1012 64 10000 3.1 360 07:20 26.03.2020
567 Clear 3 1012 64 10000 3.6 360 06:38 26.03.2020
568 Clear 4 1011 64 10000 3.6 350 05:51 26.03.2020
569 Clear 6 1012 60 10000 2.6 360 03:47 26.03.2020
570 Clear 6 1012 60 10000 2.6 360 03:26 26.03.2020
571 Clear 6 1012 60 10000 2.1 350 02:52 26.03.2020
572 Clear 8 1013 61 10000 4.1 360 01:19 26.03.2020
573 Clear 8 1013 61 10000 3.6 350 00:33 26.03.2020
574 Clear 9 1014 57 10000 4.1 360 23:44 25.03.2020
575 Clear 9 1014 57 10000 4.1 360 23:26 25.03.2020
576 Clear 10 1014 53 10000 3.1 360 22:55 25.03.2020
577 Clear 10 1014 53 10000 3.1 360 22:37 25.03.2020
578 Clear 10 1014 53 10000 3.1 360 22:18 25.03.2020
579 Clear 12 1014 50 10000 4.1 360 21:43 25.03.2020
580 Clear 12 1014 50 10000 4.1 360 21:24 25.03.2020
581 Clear 12 1014 54 10000 4.1 10 20:59 25.03.2020
582 Clear 13 1013 43 10000 4.6 360 20:39 25.03.2020
583 Clear 13 1013 61 10000 3.1 20 20:19 25.03.2020
584 Clear 14 1013 61 10000 3.1 20 19:55 25.03.2020
585 Clear 14 1013 38 10000 3.1 40 19:37 25.03.2020
586 Clear 15 1013 36 10000 3.6 40 19:18 25.03.2020
587 Clear 16 1013 36 10000 3.6 60 18:43 25.03.2020
588 Clear 16 1013 36 10000 3.6 60 18:25 25.03.2020
589 Clear 16 1013 36 10000 3.6 80 17:58 25.03.2020
590 Clear 17 1014 61 10000 4.1 40 17:40 25.03.2020
591 Clear 17 1014 61 10000 4.1 40 17:22 25.03.2020
592 Clear 18 1014 33 10000 3.6 60 16:58 25.03.2020
593 Clear 16 1014 38 10000 4.1 70 16:39 25.03.2020
594 Clear 16 1014 38 10000 4.1 70 16:20 25.03.2020
595 Clear 17 1014 38 10000 5.1 60 15:42 25.03.2020
596 Clear 17 1014 41 10000 4.6 90 15:21 25.03.2020
597 Clear 17 1014 41 10000 4.6 90 14:57 25.03.2020
598 Clear 17 1014 41 10000 4.6 90 14:57 25.03.2020
599 Clear 17 1015 41 10000 5.7 70 14:39 25.03.2020
600 Clear 17 1015 41 10000 5.7 70 14:39 25.03.2020
601 Clouds 15 1015 44 10000 6.2 80 14:19 25.03.2020
602 Clouds 15 1015 44 10000 6.7 90 13:44 25.03.2020
603 Clouds 16 1015 44 10000 6.7 90 13:24 25.03.2020
604 Clouds 16 1015 44 10000 6.7 90 13:24 25.03.2020
605 Clouds 15 1015 47 10000 5.7 100 12:39 25.03.2020
606 Clouds 15 1015 47 10000 5.7 100 12:39 25.03.2020
607 Clouds 14 1016 50 10000 5.7 70 12:21 25.03.2020
608 Clear 14 1016 50 10000 5.7 70 11:57 25.03.2020
609 Clear 13 1016 54 10000 6.2 90 11:39 25.03.2020
610 Clouds 12 1016 57 10000 4.6 90 11:20 25.03.2020
611 Clouds 12 1016 57 10000 4.6 90 11:20 25.03.2020
612 Clouds 12 1016 57 10000 4.6 90 10:58 25.03.2020
613 Clouds 11 1016 61 10000 6.2 90 10:39 25.03.2020
614 Clouds 11 1016 61 10000 6.2 90 10:39 25.03.2020
615 Clouds 11 1016 61 10000 6.2 90 10:39 25.03.2020
616 Clouds 10 1016 66 10000 5.1 100 10:18 25.03.2020
617 Clouds 9 1016 70 10000 4.6 90 09:43 25.03.2020
618 Clouds 9 1016 70 10000 4.6 90 09:25 25.03.2020
619 Clouds 7 1016 70 10000 4.1 80 08:58 25.03.2020
620 Clouds 7 1016 81 10000 4.1 70 08:40 25.03.2020
621 Clear 5 1016 87 10000 3.1 80 08:20 25.03.2020
622 Clear 5 1016 87 10000 3.1 80 07:55 25.03.2020
623 Clear 5 1016 81 10000 3.6 80 07:36 25.03.2020
624 Clear 5 1016 81 10000 3.6 80 07:18 25.03.2020
625 Clear 5 1015 87 10000 3.6 90 06:41 25.03.2020
626 Clear 5 1015 87 10000 3.6 90 06:22 25.03.2020
627 Clear 4 1015 86 10000 1.5 50 05:47 25.03.2020
628 Clear 5 1016 56 10000 3.1 40 04:42 25.03.2020
629 Clear 6 1016 52 10000 2.6 40 03:57 25.03.2020
630 Clear 7 1016 56 10000 3.1 30 03:30 25.03.2020
631 Clear 8 1017 57 10000 2.1 40 01:39 25.03.2020
632 Clear 10 1017 53 10000 2.6 20 00:50 25.03.2020
633 Clear 11 1017 54 10000 3.1 30 00:26 25.03.2020
634 Clear 11 1017 54 10000 3.1 30 23:53 24.03.2020
635 Clear 11 1017 54 10000 3.6 30 23:28 24.03.2020
636 Clear 12 1017 54 10000 3.6 30 22:58 24.03.2020
637 Clear 12 1017 54 10000 3.6 30 22:38 24.03.2020
638 Clear 12 1017 58 10000 4.1 30 22:19 24.03.2020
639 Clear 13 1017 54 10000 3.6 30 22:19 24.03.2020
640 Clear 12 1017 66 10000 1 0 21:57 24.03.2020
641 Clear 13 1017 66 10000 1 0 21:39 24.03.2020
642 Clear 13 1017 62 10000 1.5 340 21:18 24.03.2020
643 Clear 14 1017 58 10000 2.6 360 20:57 24.03.2020
644 Clear 14 1017 58 10000 2.6 360 20:39 24.03.2020
645 Clear 15 1017 58 10000 2.6 360 20:21 24.03.2020
646 Clear 17 1017 48 10000 2.6 40 19:45 24.03.2020
647 Clear 17 1017 42 10000 3.1 50 19:19 24.03.2020
648 Clear 18 1017 42 10000 3.1 50 18:56 24.03.2020
649 Clear 18 1017 42 10000 3.1 50 18:56 24.03.2020
650 Clear 19 1017 42 10000 3.1 70 18:37 24.03.2020
651 Clear 19 1017 42 10000 3.1 70 18:37 24.03.2020
652 Clear 19 1017 39 10000 3.1 70 18:19 24.03.2020
653 Clear 19 1017 42 10000 3.6 80 17:42 24.03.2020
654 Clear 19 1017 42 10000 3.6 80 17:42 24.03.2020
655 Clear 20 1018 39 10000 3.6 70 17:24 24.03.2020
656 Clear 19 1018 39 10000 3.6 70 16:59 24.03.2020
657 Clear 19 1018 45 10000 4.1 50 16:41 24.03.2020
658 Clear 20 1018 45 10000 4.1 50 16:23 24.03.2020
659 Clear 20 1018 45 10000 4.1 50 16:23 24.03.2020
660 Clear 20 1018 42 10000 5.1 50 15:59 24.03.2020
661 Clear 19 1019 45 10000 3.6 40 15:39 24.03.2020
662 Clouds 19 1019 48 10000 3.1 40 15:21 24.03.2020
663 Clear 19 1019 45 10000 3.6 40 15:21 24.03.2020
664 Clouds 19 1019 48 10000 3.1 40 15:21 24.03.2020
665 Clear 20 1019 45 10000 1.5 0 14:43 24.03.2020
666 Clear 20 1019 45 10000 1.5 0 14:21 24.03.2020
667 Clear 19 1020 52 10000 2.1 80 13:55 24.03.2020
668 Clear 19 1020 52 10000 2.1 80 13:36 24.03.2020
669 Clear 19 1020 52 10000 2.1 0 13:18 24.03.2020
670 Clear 19 1020 52 10000 1.5 0 12:41 24.03.2020
671 Clear 19 1020 52 10000 1.5 0 12:41 24.03.2020
672 Clear 18 1020 55 10000 1.5 0 12:22 24.03.2020
673 Clear 17 1021 63 10000 1.5 0 11:41 24.03.2020
674 Clear 15 1021 62 10000 2.6 160 11:20 24.03.2020
675 Clear 15 1021 62 10000 2.6 160 10:55 24.03.2020
676 Clear 14 1021 71 10000 3.1 160 10:36 24.03.2020
677 Clear 13 1021 76 10000 4.1 160 10:18 24.03.2020
678 Clear 12 1021 76 10000 4.1 150 09:43 24.03.2020
679 Clear 12 1021 76 10000 4.1 150 09:24 24.03.2020
680 Clear 9 1021 93 10000 1.5 110 08:40 24.03.2020
681 Clear 8 1021 93 10000 1.5 110 08:21 24.03.2020
682 Clear 7 1021 93 10000 1.5 120 07:52 24.03.2020
683 Clear 7 1020 93 10000 1.5 100 07:25 24.03.2020
684 Clear 7 1020 93 10000 1.5 100 06:59 24.03.2020
685 Clear 7 1020 93 10000 2.1 100 06:34 24.03.2020
686 Fog 7 1020 93 8000 1 160 05:30 24.03.2020
687 Clear 7 1020 93 6000 2.57 116 04:49 24.03.2020
688 Clear 8 1020 93 7000 1 120 03:19 24.03.2020
689 Fog 9 1020 93 5000 1 110 01:59 24.03.2020
690 Clear 10 1021 93 7000 1 100 00:52 24.03.2020
691 Clear 10 1021 93 8000 2.1 50 00:26 24.03.2020
692 Clear 10 1020 93 10000 1 340 23:50 23.03.2020
693 Clear 11 1020 93 10000 1 340 23:29 23.03.2020
694 Rain 11 1020 87 10000 1 40 22:59 23.03.2020
695 Rain 11 1020 87 10000 2.6 20 22:40 23.03.2020
696 Rain 12 1020 82 10000 1.5 30 22:22 23.03.2020
697 Rain 12 1020 76 10000 3.1 10 21:44 23.03.2020
698 Rain 12 1020 76 10000 3.1 10 21:21 23.03.2020
699 Rain 12 1020 76 10000 1 0 20:59 23.03.2020
700 Rain 13 1019 71 10000 1 50 20:41 23.03.2020
701 Clear 14 1019 67 10000 1.5 110 20:23 23.03.2020
702 Clouds 15 1019 63 10000 1.5 130 19:55 23.03.2020
703 Clouds 15 1019 63 10000 1.5 130 19:37 23.03.2020
704 Clouds 16 1019 55 10000 2.6 130 19:18 23.03.2020
705 Clouds 17 1019 52 10000 2.6 120 18:43 23.03.2020
706 Clouds 17 1018 52 10000 3.6 120 18:24 23.03.2020
707 Clouds 17 1018 52 10000 3.6 120 17:57 23.03.2020
708 Clouds 17 1018 52 10000 3.6 120 17:57 23.03.2020
709 Clouds 17 1019 55 10000 3.6 110 17:38 23.03.2020
710 Clear 18 1019 55 10000 4.1 100 17:19 23.03.2020
711 Clouds 18 1019 55 10000 5.1 110 16:43 23.03.2020
712 Clouds 18 1019 55 10000 5.1 110 16:25 23.03.2020
713 Clouds 19 1019 55 10000 3.6 70 15:44 23.03.2020
714 Clouds 19 1019 59 10000 2.1 120 15:21 23.03.2020
715 Clouds 18 1019 59 10000 2.1 120 14:57 23.03.2020
716 Clouds 18 1019 59 10000 3.1 140 14:37 23.03.2020
717 Clouds 18 1019 63 10000 2.1 140 14:18 23.03.2020
718 Clouds 18 1019 63 10000 2.1 140 14:18 23.03.2020
719 Clouds 17 1019 63 10000 1.5 0 13:41 23.03.2020
720 Clouds 17 1019 63 10000 1.5 0 13:41 23.03.2020
721 Clouds 17 1019 63 10000 1.5 0 13:22 23.03.2020
722 Clouds 17 1019 67 10000 1.5 200 12:58 23.03.2020
723 Clouds 17 1019 67 10000 2.6 190 12:40 23.03.2020
724 Clouds 16 1019 67 10000 2.6 210 12:22 23.03.2020
725 Clouds 16 1019 72 10000 2.1 170 11:42 23.03.2020
726 Clouds 14 1019 82 10000 2.6 180 11:22 23.03.2020
727 Clouds 13 1019 87 10000 2.6 160 10:58 23.03.2020
728 Clouds 14 1019 87 10000 2.6 160 10:40 23.03.2020
729 Clouds 13 1019 93 8000 2.6 150 10:21 23.03.2020
730 Clouds 12 1019 93 8000 2.6 150 09:57 23.03.2020
731 Mist 12 1019 100 5000 3.1 150 09:39 23.03.2020
732 Clouds 11 1019 100 6000 3.1 140 09:18 23.03.2020
733 Mist 10 1018 100 4600 3.6 130 08:37 23.03.2020
734 Mist 10 1018 100 4600 3.6 130 08:19 23.03.2020
735 Mist 9 1018 100 3700 3.1 130 07:50 23.03.2020
736 Mist 9 1018 100 3700 3.1 130 07:50 23.03.2020
737 Mist 9 1018 100 4000 2.1 120 07:31 23.03.2020
738 Mist 9 1017 100 2900 2.1 130 06:53 23.03.2020
739 Fog 9 1017 100 900 2.1 150 06:25 23.03.2020
740 Fog 9 1016 100 550 3.1 150 05:42 23.03.2020
741 Clouds 9 1016 93 10000 1 0 03:45 23.03.2020
742 Clouds 9 1016 93 10000 3.55 117 02:40 23.03.2020
743 Clouds 9 1015 93 10000 1.5 50 01:34 23.03.2020
744 Clear 10 1015 87 10000 1.5 10 00:43 23.03.2020
745 Clear 10 1015 87 10000 1.5 360 23:53 22.03.2020
746 Clear 11 1015 81 10000 1.5 30 23:27 22.03.2020
747 Clear 12 1015 76 10000 1 30 22:56 22.03.2020
748 Clear 12 1015 71 10000 2.1 20 22:36 22.03.2020
749 Clear 12 1015 71 10000 3.1 20 22:18 22.03.2020
750 Clear 13 1014 67 10000 3.1 30 21:39 22.03.2020
751 Clear 14 1014 67 10000 2.6 30 21:20 22.03.2020
752 Clear 14 1014 59 10000 2.6 30 20:56 22.03.2020
753 Clear 14 1014 59 10000 2.6 30 20:38 22.03.2020
754 Clear 15 1014 55 10000 2.6 30 20:20 22.03.2020
755 Clear 15 1014 55 10000 2.6 30 19:55 22.03.2020
756 Clear 16 1013 48 10000 2.1 60 19:37 22.03.2020
757 Clear 17 1013 42 10000 1.5 0 19:18 22.03.2020
758 Clear 17 1013 42 10000 1.5 0 19:18 22.03.2020
759 Clear 18 1013 42 10000 1.5 0 18:55 22.03.2020
760 Clear 18 1013 45 10000 1.5 120 18:37 22.03.2020
761 Clear 19 1013 42 10000 1 0 18:18 22.03.2020
762 Clear 19 1013 42 10000 1 0 17:55 22.03.2020
763 Clear 19 1013 40 10000 3.1 90 17:36 22.03.2020
764 Clear 19 1013 42 10000 3.6 70 17:18 22.03.2020
765 Clear 19 1012 42 10000 3.6 60 16:41 22.03.2020
766 Clear 19 1012 42 10000 3.6 60 16:22 22.03.2020
767 Clear 19 1013 45 10000 2.6 120 15:58 22.03.2020
768 Clear 19 1013 45 10000 2.6 50 15:39 22.03.2020
769 Clear 19 1013 42 10000 2.1 80 14:47 22.03.2020
770 Clouds 19 1013 48 10000 2.6 80 14:20 22.03.2020
771 Clouds 19 1013 48 10000 2.6 80 13:58 22.03.2020
772 Clouds 19 1013 45 10000 2.6 90 13:40 22.03.2020
773 Clouds 18 1014 51 10000 2.6 50 13:19 22.03.2020
774 Clouds 18 1014 55 10000 2.1 0 12:44 22.03.2020
775 Clouds 17 1014 55 10000 1.5 110 12:21 22.03.2020
776 Clouds 16 1014 55 10000 1.5 110 11:57 22.03.2020
777 Clouds 16 1014 63 10000 1.5 100 11:39 22.03.2020
778 Clouds 14 1014 67 10000 2.1 40 11:20 22.03.2020
779 Clouds 14 1014 71 10000 2.1 30 10:43 22.03.2020
780 Clouds 14 1014 71 10000 2.1 30 10:24 22.03.2020
781 Clouds 12 1013 81 9000 2.1 70 09:49 22.03.2020
782 Clouds 11 1013 87 6000 2.6 40 09:30 22.03.2020
783 Mist 9 1013 87 3600 3.1 30 08:55 22.03.2020
784 Fog 8 1013 100 2600 1.5 0 08:37 22.03.2020
785 Fog 7 1013 100 2600 1.5 0 08:18 22.03.2020
786 Fog 6 1013 100 2200 1.5 40 07:49 22.03.2020
787 Fog 7 1012 93 3500 1 0 07:18 22.03.2020
788 Mist 7 1012 93 3800 1.5 30 05:55 22.03.2020
789 Fog 8 1012 93 4200 1 20 04:58 22.03.2020
790 Mist 9 1012 87 5000 1.5 50 02:43 22.03.2020
791 Mist 10 1012 87 5000 2.6 50 01:21 22.03.2020
792 Clouds 10 1012 87 6000 2.6 30 00:36 22.03.2020
793 Clouds 11 1012 87 6000 2.6 50 23:58 21.03.2020
794 Clouds 11 1012 81 7000 3.1 40 23:40 21.03.2020
795 Clouds 11 1012 81 7000 3.1 30 23:18 21.03.2020
796 Clouds 12 1011 76 8000 3.6 30 22:38 21.03.2020
797 Clouds 12 1011 76 8000 3.6 30 22:38 21.03.2020
798 Clouds 13 1011 67 10000 4.1 40 22:20 21.03.2020
799 Clouds 13 1011 67 10000 4.1 40 21:59 21.03.2020
800 Clouds 13 1011 62 10000 4.1 30 21:39 21.03.2020
801 Clouds 14 1011 62 10000 4.1 30 21:21 21.03.2020
802 Clouds 14 1011 54 10000 1 160 20:46 21.03.2020
803 Clouds 14 1011 54 10000 1 160 20:23 21.03.2020
804 Clouds 15 1010 48 10000 1 130 19:57 21.03.2020
805 Clouds 16 1010 42 10000 2.1 130 19:39 21.03.2020
806 Clouds 17 1010 39 10000 3.1 130 19:20 21.03.2020
807 Clouds 18 1010 39 10000 3.1 130 18:54 21.03.2020
808 Clouds 19 1010 39 10000 4.6 100 18:36 21.03.2020
809 Clouds 20 1010 37 10000 3.6 80 18:18 21.03.2020
810 Clouds 20 1010 40 10000 4.1 80 17:42 21.03.2020
811 Clouds 20 1010 37 10000 4.6 100 17:23 21.03.2020
812 Clouds 20 1010 40 10000 3.6 120 16:43 21.03.2020
813 Clouds 20 1010 40 10000 3.6 120 16:43 21.03.2020
814 Clouds 20 1010 40 10000 3.6 120 16:24 21.03.2020
815 Clouds 20 1010 40 10000 3.6 120 16:24 21.03.2020
816 Clouds 19 1011 45 10000 3.6 120 15:59 21.03.2020
817 Clouds 20 1011 45 10000 4.6 110 15:41 21.03.2020
818 Clouds 20 1011 45 10000 4.6 110 15:23 21.03.2020
819 Clouds 19 1011 45 10000 5.1 120 14:58 21.03.2020
820 Clouds 19 1012 45 10000 5.7 110 14:40 21.03.2020
821 Clouds 19 1012 45 10000 5.7 110 14:20 21.03.2020
822 Clouds 18 1012 45 10000 4.1 110 13:58 21.03.2020
823 Clouds 18 1012 51 10000 5.1 110 13:39 21.03.2020
824 Clouds 17 1013 51 10000 6.2 110 13:21 21.03.2020
825 Clouds 17 1013 51 10000 6.2 110 12:57 21.03.2020
826 Clouds 17 1013 51 10000 6.2 110 12:37 21.03.2020
827 Clouds 16 1013 54 10000 6.7 100 12:19 21.03.2020
828 Clouds 16 1013 54 10000 6.7 100 11:55 21.03.2020
829 Clouds 15 1013 58 10000 6.7 130 11:37 21.03.2020
830 Clouds 14 1013 58 10000 7.2 120 11:18 21.03.2020
831 Clouds 14 1014 54 10000 5.7 130 10:56 21.03.2020
832 Clouds 14 1014 54 10000 5.7 130 10:38 21.03.2020
833 Clouds 13 1014 54 10000 5.7 130 10:19 21.03.2020
834 Clouds 13 1014 54 10000 5.7 130 10:19 21.03.2020
835 Clouds 11 1014 58 10000 4.1 100 09:41 21.03.2020
836 Clouds 11 1014 58 10000 4.1 100 09:23 21.03.2020
837 Clouds 9 1014 61 10000 3.1 100 08:59 21.03.2020
838 Clouds 8 1014 70 10000 2.1 100 08:41 21.03.2020
839 Clouds 8 1014 70 10000 2.1 100 08:22 21.03.2020
840 Clouds 7 1014 70 10000 2.6 90 07:42 21.03.2020
841 Clouds 7 1014 70 10000 2.6 90 07:23 21.03.2020
842 Clouds 8 1014 66 10000 2.6 100 06:45 21.03.2020
843 Clouds 8 1014 66 10000 2.6 100 06:26 21.03.2020
844 Clouds 8 1014 61 10000 3.1 90 05:46 21.03.2020
845 Clouds 8 1014 61 10000 2.1 90 04:42 21.03.2020
846 Clouds 9 1015 66 10000 2.6 110 02:40 21.03.2020
847 Clouds 10 1015 62 10000 3.6 120 02:18 21.03.2020
848 Clouds 10 1015 62 10000 3.6 120 01:31 21.03.2020
849 Clear 11 1015 54 10000 2.6 140 00:47 21.03.2020
850 Clear 11 1015 54 10000 2.6 140 00:24 21.03.2020
851 Clear 12 1015 54 10000 2.6 120 23:48 20.03.2020
852 Clear 12 1015 54 10000 2.6 120 23:24 20.03.2020
853 Clear 12 1015 47 10000 2.6 130 22:55 20.03.2020
854 Clear 12 1015 47 10000 2.6 130 22:36 20.03.2020
855 Clear 13 1015 47 10000 2.6 130 22:18 20.03.2020
856 Clear 13 1015 50 10000 2.6 140 21:54 20.03.2020
857 Clear 13 1015 44 10000 2.6 110 21:36 20.03.2020
858 Clear 14 1015 44 10000 2.6 110 21:18 20.03.2020
859 Clear 15 1015 39 10000 2.6 110 20:41 20.03.2020
860 Clear 15 1015 39 10000 2.6 110 20:41 20.03.2020
861 Clouds 15 1015 39 10000 2.6 110 20:21 20.03.2020
862 Clouds 16 1015 39 10000 3.1 110 19:58 20.03.2020
863 Clouds 17 1015 39 10000 3.1 120 19:40 20.03.2020
864 Clouds 18 1014 37 10000 4.6 110 19:18 20.03.2020
865 Clouds 19 1014 37 10000 4.6 120 18:39 20.03.2020
866 Clouds 19 1014 37 10000 4.6 120 18:39 20.03.2020
867 Clouds 19 1014 37 10000 4.6 120 18:39 20.03.2020
868 Clouds 20 1015 40 10000 4.1 130 18:20 20.03.2020
869 Clouds 20 1015 40 10000 4.1 130 17:57 20.03.2020
870 Clouds 20 1015 42 10000 3.6 140 17:39 20.03.2020
871 Clouds 20 1015 42 10000 4.1 130 17:21 20.03.2020
872 Clouds 21 1015 48 10000 4.1 130 16:43 20.03.2020
873 Clouds 20 1015 48 10000 4.1 130 16:22 20.03.2020
874 Clouds 21 1015 48 10000 4.6 100 15:59 20.03.2020
875 Clouds 20 1015 45 10000 5.1 120 15:41 20.03.2020
876 Clouds 20 1015 45 10000 5.1 120 15:21 20.03.2020
877 Clouds 20 1016 45 10000 6.7 120 14:43 20.03.2020
878 Clouds 19 1016 45 10000 6.7 120 14:23 20.03.2020
879 Clouds 19 1016 42 10000 6.7 110 13:55 20.03.2020
880 Clouds 18 1016 45 10000 6.7 120 13:37 20.03.2020
881 Clouds 18 1016 45 10000 6.7 120 13:19 20.03.2020
882 Clouds 17 1017 44 10000 7.7 120 12:39 20.03.2020
883 Clouds 17 1017 44 10000 7.7 120 12:20 20.03.2020
884 Clouds 17 1017 44 10000 7.7 120 12:20 20.03.2020
885 Clouds 17 1017 44 10000 7.7 120 12:20 20.03.2020
886 Clouds 16 1017 44 10000 6.7 120 11:54 20.03.2020
887 Clouds 16 1017 44 10000 6.7 120 11:36 20.03.2020
888 Clear 14 1017 47 10000 5.7 110 11:18 20.03.2020
889 Clear 14 1017 50 10000 4.6 110 10:41 20.03.2020
890 -273 0 0 0 0 0 10:20 20.03.2020
891 Clear 12 1017 58 10000 3.6 90 09:47 20.03.2020
892 Clear 11 1017 58 10000 3.6 90 09:22 20.03.2020
893 Clear 10 1017 71 10000 1.5 70 08:59 20.03.2020
894 Clear 9 1017 76 10000 1.5 50 08:40 20.03.2020
895 Clouds 9 1017 76 10000 1.5 50 08:20 20.03.2020
896 Clouds 8 1017 66 10000 2.1 90 07:48 20.03.2020
897 Clouds 8 1017 66 10000 2.1 90 07:26 20.03.2020
898 Clouds 8 1017 66 10000 2.1 90 06:49 20.03.2020
899 Clouds 8 1017 66 10000 2.1 100 06:31 20.03.2020
900 Clouds 9 1017 93 10000 1 70 04:51 20.03.2020
901 Clouds 9 1017 87 10000 2.1 90 03:20 20.03.2020
902 Clouds 10 1017 81 10000 3.95 110 01:51 20.03.2020
903 Clouds 12 1017 71 10000 1.5 100 00:46 20.03.2020
904 Clouds 12 1017 71 10000 1.5 100 00:26 20.03.2020
905 Clouds 12 1018 71 10000 2.6 110 23:45 19.03.2020
906 Clouds 12 1018 71 10000 2.6 110 23:26 19.03.2020
907 Clouds 12 1018 71 10000 2.6 110 23:26 19.03.2020
908 Clouds 13 1018 71 10000 2.1 110 22:56 19.03.2020
909 Clouds 13 1018 76 10000 1.5 90 22:38 19.03.2020
910 Clouds 14 1018 76 10000 1 110 22:18 19.03.2020
911 Clouds 13 1018 66 10000 1 140 21:41 19.03.2020
912 Clouds 14 1018 62 10000 1.5 110 21:20 19.03.2020
913 Clouds 14 1018 62 10000 1.5 110 20:56 19.03.2020
914 Clouds 14 1018 62 10000 1.5 110 20:56 19.03.2020
915 Clouds 15 1018 62 10000 1.5 90 20:38 19.03.2020
916 Clear 15 1018 62 10000 1.5 90 20:19 19.03.2020
917 Clear 15 1017 55 10000 2.1 110 19:55 19.03.2020
918 Clear 16 1017 55 10000 2.1 110 19:37 19.03.2020
919 Clear 16 1017 55 10000 2.1 110 19:18 19.03.2020
920 Clear 17 1018 45 10000 2.1 90 18:42 19.03.2020
921 Clear 18 1018 45 10000 2.1 90 18:22 19.03.2020
922 Clear 18 1018 45 10000 3.1 110 17:56 19.03.2020
923 Clear 19 1018 45 10000 3.6 120 17:38 19.03.2020
924 Clear 19 1018 42 10000 4.1 120 17:18 19.03.2020
925 Clear 20 1018 42 10000 5.1 120 16:43 19.03.2020
926 Clear 20 1018 42 10000 5.1 120 16:22 19.03.2020
927 Clear 20 1019 42 10000 4.6 110 15:44 19.03.2020
928 Clear 20 1019 42 10000 4.6 110 15:25 19.03.2020
929 Clear 20 1019 45 10000 4.1 100 14:55 19.03.2020
930 Clear 20 1019 45 10000 4.1 100 14:37 19.03.2020
931 Clear 20 1019 45 10000 4.1 100 14:18 19.03.2020
932 Clear 20 1020 48 10000 3.6 100 13:39 19.03.2020
933 Clear 20 1020 45 10000 3.6 120 13:19 19.03.2020
934 Clear 19 1021 48 10000 4.6 140 12:44 19.03.2020
935 Clear 19 1021 48 10000 4.6 140 12:24 19.03.2020
936 Clear 17 1021 55 10000 6.2 130 11:59 19.03.2020
937 Clear 17 1021 55 10000 6.2 130 11:41 19.03.2020
938 Clear 16 1021 59 10000 5.7 130 11:22 19.03.2020
939 Clear 15 1021 67 10000 5.7 130 10:44 19.03.2020
940 Clear 15 1021 67 10000 5.7 130 10:22 19.03.2020
941 Clear 13 1021 71 10000 5.1 130 09:58 19.03.2020
942 Clear 12 1021 81 10000 3.1 110 09:40 19.03.2020
943 Clear 12 1021 81 10000 3.1 110 09:20 19.03.2020
944 Clear 10 1021 93 10000 3.1 110 08:47 19.03.2020
945 Clear 9 1021 93 8000 2.1 90 08:23 19.03.2020
946 Mist 8 1021 100 4600 1.5 90 07:48 19.03.2020
947 Mist 8 1021 100 4600 1.5 90 07:30 19.03.2020
948 Fog 8 1021 93 4300 1.5 10 06:51 19.03.2020
949 Fog 8 1021 100 3000 1 10 06:18 19.03.2020
950 Fog 9 1021 100 4900 1.84 102 05:23 19.03.2020
951 Clear 9 1021 100 6000 2.1 110 04:41 19.03.2020
952 Fog 9 1022 100 7000 1.84 102 03:39 19.03.2020
953 Fog 10 1023 93 10000 2.06 101 01:45 19.03.2020
954 Fog 11 1023 93 10000 2.01 100 00:38 19.03.2020
955 Clear 12 1024 93 10000 2.01 100 23:58 18.03.2020
956 Clear 12 1024 93 10000 2.01 100 23:39 18.03.2020
957 Clear 12 1024 87 10000 2.21 64 23:18 18.03.2020
958 Clear 13 1024 87 10000 1 0 22:42 18.03.2020
959 Clear 13 1024 87 10000 1 0 22:22 18.03.2020
960 Clear 13 1024 82 10000 1 0 21:54 18.03.2020
961 Clear 13 1024 87 10000 0.5 40 21:36 18.03.2020
962 Clear 14 1024 71 10000 2.21 64 21:18 18.03.2020
963 Clear 15 1024 72 10000 1 90 20:41 18.03.2020
964 Clear 15 1024 72 10000 1 90 20:21 18.03.2020
965 Clear 16 1024 59 10000 1.5 130 19:59 18.03.2020
966 Clear 17 1024 59 10000 2.1 120 19:40 18.03.2020
967 Clear 17 1024 59 10000 2.1 120 19:21 18.03.2020
968 Clear 17 1024 55 10000 2.6 80 19:21 18.03.2020
969 Clear 18 1024 55 10000 2.6 80 18:55 18.03.2020
970 Clear 19 1024 52 10000 2.1 80 18:36 18.03.2020
971 Clear 19 1024 55 10000 3.1 50 18:18 18.03.2020
972 Clear 20 1024 55 10000 3.1 60 17:41 18.03.2020
973 Clear 20 1025 55 10000 3.1 20 17:22 18.03.2020
974 Clear 21 1025 55 10000 3.1 20 16:59 18.03.2020
975 Clear 21 1025 55 10000 3.6 40 16:40 18.03.2020
976 Clear 21 1025 55 10000 3.6 40 16:20 18.03.2020
977 Clear 21 1025 55 10000 2.6 50 15:46 18.03.2020
978 Clear 21 1025 55 10000 2.6 50 15:27 18.03.2020
979 Clear 20 1025 59 10000 2.6 40 14:58 18.03.2020
980 Clear 20 1026 59 10000 1 0 14:40 18.03.2020
981 Clear 19 1026 59 10000 1 0 14:21 18.03.2020
982 Clear 19 1027 59 10000 1.5 90 13:40 18.03.2020
983 Clear 18 1027 63 10000 2.1 90 13:19 18.03.2020
984 Clear 18 1028 63 10000 3.1 90 12:42 18.03.2020
985 Clear 18 1028 67 10000 2.6 90 12:21 18.03.2020
986 Clear 16 1028 67 10000 3.1 120 11:57 18.03.2020
987 Clear 16 1028 67 10000 3.1 120 11:37 18.03.2020
988 Clear 15 1028 67 10000 3.1 100 11:18 18.03.2020
989 Clear 15 1028 67 10000 3.1 100 10:54 18.03.2020
990 Clear 14 1029 82 10000 3.1 100 10:36 18.03.2020
991 Clear 14 1029 82 10000 3.1 100 10:36 18.03.2020
992 Clear 13 1028 87 10000 2.6 110 10:18 18.03.2020
993 Clear 11 1028 100 10000 2.1 110 09:41 18.03.2020
994 Clear 11 1028 100 10000 2.1 110 09:22 18.03.2020
995 Fog 8 1028 100 2100 1 90 08:40 18.03.2020
996 Fog 8 1028 100 2100 1 90 08:21 18.03.2020
997 Fog 7 1028 100 350 1 100 07:49 18.03.2020
998 Fog 6 1029 100 650 1.5 110 07:31 18.03.2020
999 Fog 7 1029 100 1700 1.5 90 06:55 18.03.2020
1000 Fog 6 1029 100 450 1.81 88 06:37 18.03.2020
1001 Fog 7 1029 93 550 1.81 88 05:37 18.03.2020
1002 Fog 8 1029 93 750 0.5 110 04:32 18.03.2020
1003 Fog 8 1029 100 1700 1 50 03:21 18.03.2020
1004 Fog 8 1029 93 1400 1.99 99 02:35 18.03.2020
1005 Fog 8 1030 100 1700 1.57 93 01:32 18.03.2020
1006 Fog 9 1030 100 1200 1.47 84 00:42 18.03.2020
1007 Fog 9 1031 100 1000 0.5 350 00:21 18.03.2020
1008 Fog 9 1031 100 1000 0.5 350 23:41 17.03.2020
1009 Fog 9 1031 93 750 0.5 300 23:20 17.03.2020
1010 Fog 10 1031 93 900 1.2 352 22:42 17.03.2020
1011 Fog 10 1031 93 10000 1.2 352 22:24 17.03.2020
1012 Fog 11 1031 87 10000 1 20 21:43 17.03.2020
1013 Fog 11 1031 87 10000 1 20 21:23 17.03.2020
1014 Clouds 12 1030 87 10000 1 0 20:57 17.03.2020
1015 Clouds 12 1030 82 10000 1.2 352 20:37 17.03.2020
1016 Clouds 12 1030 82 10000 0.45 106 20:19 17.03.2020
1017 Clouds 14 1030 82 10000 1.5 0 19:41 17.03.2020
1018 Clouds 14 1030 82 10000 1.5 310 19:18 17.03.2020
1019 Clouds 14 1030 82 10000 1.5 310 18:57 17.03.2020
1020 Clouds 15 1029 76 10000 1.5 280 18:39 17.03.2020
1021 Clouds 15 1029 72 10000 2.1 280 18:21 17.03.2020
1022 Clouds 15 1029 72 10000 2.1 280 18:21 17.03.2020
1023 Clouds 15 1029 72 10000 2.1 280 17:55 17.03.2020
1024 Clouds 15 1029 72 10000 1 130 17:36 17.03.2020
1025 Clouds 15 1029 72 10000 1 120 17:18 17.03.2020
1026 Clouds 15 1029 72 10000 1.5 0 16:41 17.03.2020
1027 Clouds 15 1029 72 10000 1.5 0 16:19 17.03.2020
1028 Clouds 15 1029 72 10000 1 0 15:44 17.03.2020
1029 Clouds 15 1029 72 10000 1 0 15:22 17.03.2020
1030 Clouds 15 1029 72 10000 1.5 20 14:44 17.03.2020
1031 Clouds 15 1029 72 10000 1.5 20 14:25 17.03.2020
1032 Clouds 15 1030 71 10000 2.49 147 13:57 17.03.2020
1033 Clouds 15 1030 67 10000 1 0 13:39 17.03.2020
1034 Clouds 15 1030 67 10000 1 0 13:21 17.03.2020
1035 Clouds 15 1030 67 10000 1 0 13:21 17.03.2020
1036 Clouds 15 1030 72 10000 2.6 90 12:43 17.03.2020
1037 Clouds 15 1030 72 10000 2.6 90 12:24 17.03.2020
1038 Clouds 14 1029 76 10000 1.5 0 11:48 17.03.2020
1039 Clouds 14 1029 76 10000 1.5 0 11:29 17.03.2020
1040 Clouds 13 1029 76 10000 2.1 120 10:58 17.03.2020
1041 Clouds 13 1029 82 10000 2.1 100 10:39 17.03.2020
1042 Clouds 12 1029 82 10000 2.1 100 10:21 17.03.2020
1043 Clouds 12 1029 87 10000 2.1 100 09:59 17.03.2020
1044 Clouds 12 1029 87 10000 1.5 90 09:40 17.03.2020
1045 Clouds 11 1029 93 10000 1.5 70 09:19 17.03.2020
1046 Clouds 11 1028 93 10000 2.1 90 08:48 17.03.2020
1047 Clouds 11 1028 93 10000 2.1 90 08:23 17.03.2020
1048 Clouds 11 1028 93 10000 1.5 130 07:50 17.03.2020
1049 Clouds 11 1027 93 10000 1.5 0 07:26 17.03.2020
1050 Clouds 11 1027 93 10000 1.5 0 06:58 17.03.2020
1051 Mist 11 1027 93 5000 1.5 100 06:33 17.03.2020
1052 Rain 11 1027 93 7000 2.1 110 05:49 17.03.2020
1053 Clouds 11 1026 87 10000 1 110 03:43 17.03.2020
1054 Clouds 11 1026 87 10000 1.5 130 02:46 17.03.2020
1055 Clouds 11 1025 87 10000 3.1 120 01:43 17.03.2020
1056 Clouds 11 1025 87 10000 3.1 120 01:24 17.03.2020
1057 Clouds 11 1025 87 10000 3.1 110 00:31 17.03.2020
1058 Clouds 11 1025 93 10000 3.6 110 23:45 16.03.2020
1059 Clouds 12 1024 93 10000 3.1 80 23:25 16.03.2020
1060 Clouds 12 1024 93 10000 2.6 40 22:41 16.03.2020
1061 Clouds 11 1024 93 10000 2.6 40 22:23 16.03.2020
1062 Clouds 12 1024 93 10000 2.1 20 21:57 16.03.2020
1063 Clouds 12 1024 93 10000 2.1 20 21:57 16.03.2020
1064 Clouds 12 1023 93 10000 1.5 10 21:38 16.03.2020
1065 Clouds 12 1023 93 10000 1.5 10 21:20 16.03.2020
1066 Clouds 12 1022 93 10000 2.1 20 20:55 16.03.2020
1067 Clouds 12 1022 93 10000 2.1 20 20:37 16.03.2020
1068 Clouds 12 1022 93 10000 2.6 20 20:18 16.03.2020
1069 Clouds 12 1022 93 10000 2.6 20 20:18 16.03.2020
1070 Clouds 12 1022 93 10000 2.1 10 19:40 16.03.2020
1071 Clouds 12 1021 93 10000 2.1 330 19:20 16.03.2020
1072 Clouds 12 1021 87 10000 1.5 10 18:41 16.03.2020
1073 Clouds 12 1021 93 10000 2.1 360 18:20 16.03.2020
1074 Clouds 12 1021 93 10000 3.1 360 17:47 16.03.2020
1075 Clouds 12 1021 93 10000 3.1 360 17:26 16.03.2020
1076 Clouds 12 1020 87 10000 3.1 360 16:59 16.03.2020
1077 Clouds 12 1020 87 10000 3.1 360 16:41 16.03.2020
1078 Clouds 12 1020 87 10000 3.1 360 16:22 16.03.2020
1079 Clouds 12 1019 87 10000 3.6 360 15:44 16.03.2020
1080 Clouds 12 1019 87 10000 3.6 360 15:25 16.03.2020
1081 Clouds 12 1019 87 10000 3.1 350 14:49 16.03.2020
1082 Clouds 12 1019 93 10000 3.1 350 14:27 16.03.2020
1083 Clouds 12 1019 93 10000 3.1 350 13:55 16.03.2020
1084 Clouds 12 1018 87 10000 3.6 350 13:37 16.03.2020
1085 Clouds 12 1018 93 10000 3.6 20 13:18 16.03.2020
1086 Clouds 11 1018 93 10000 3.6 360 12:42 16.03.2020
1087 Clouds 11 1018 93 10000 3.6 360 12:23 16.03.2020
1088 Drizzle 11 1017 93 10000 4.1 360 11:46 16.03.2020
1089 Drizzle 11 1017 93 10000 4.1 360 11:27 16.03.2020
1090 Rain 11 1017 100 10000 3.6 360 10:55 16.03.2020
1091 Rain 11 1017 100 10000 4.1 360 10:37 16.03.2020
1092 Rain 11 1017 100 10000 4.1 360 10:18 16.03.2020
1093 Clouds 10 1016 93 10000 3.6 320 09:40 16.03.2020
1094 Clouds 10 1016 93 10000 3.6 320 09:20 16.03.2020
1095 Rain 10 1015 100 10000 2.6 330 08:47 16.03.2020
1096 Rain 9 1015 100 10000 2.6 330 08:24 16.03.2020
1097 Rain 9 1014 100 7000 2.1 340 07:45 16.03.2020
1098 Rain 9 1014 100 7000 2.1 340 07:21 16.03.2020
1099 Rain 9 1013 100 10000 3.1 350 06:46 16.03.2020
1100 Rain 9 1013 100 10000 3.1 350 06:23 16.03.2020
1101 Rain 10 1013 100 10000 3.6 10 04:53 16.03.2020
1102 Rain 10 1013 93 6000 4.1 10 01:49 16.03.2020
1103 Rain 10 1013 100 4500 3.1 340 00:48 16.03.2020
1104 Rain 10 1013 100 4500 3.1 340 00:28 16.03.2020
1105 Rain 10 1013 93 5000 3.1 340 23:41 15.03.2020
1106 Rain 11 1013 93 3700 5.1 310 23:19 15.03.2020
1107 Rain 12 1012 81 10000 2.6 310 22:42 15.03.2020
1108 Rain 12 1012 81 10000 2.6 310 22:21 15.03.2020
1109 Rain 13 1011 81 10000 1 0 21:39 15.03.2020
1110 Rain 13 1011 81 10000 1 0 21:21 15.03.2020
1111 Rain 13 1011 71 10000 1 0 20:58 15.03.2020
1112 Rain 13 1011 87 10000 2.1 310 20:40 15.03.2020
1113 Clouds 14 1011 87 10000 2.1 310 20:19 15.03.2020
1114 Clouds 14 1010 67 10000 3.1 10 19:55 15.03.2020
1115 Clouds 14 1010 67 10000 3.1 10 19:55 15.03.2020
1116 Clouds 14 1010 58 10000 3.6 310 19:37 15.03.2020
1117 Clouds 16 1010 51 10000 4.1 300 19:18 15.03.2020
1118 Clouds 17 1010 39 10000 2.1 270 18:42 15.03.2020
1119 Clouds 16 1010 39 10000 2.1 270 18:24 15.03.2020
1120 Clouds 17 1010 37 10000 1 0 17:59 15.03.2020
1121 Clouds 17 1010 37 10000 2.6 250 17:39 15.03.2020
1122 Clouds 19 1010 37 10000 2.6 250 17:20 15.03.2020
1123 Clouds 19 1011 39 10000 4.1 240 16:55 15.03.2020
1124 Clouds 20 1011 39 10000 4.6 260 16:37 15.03.2020
1125 Clouds 21 1011 37 10000 5.1 260 16:18 15.03.2020
1126 Clouds 20 1011 34 10000 5.1 230 15:42 15.03.2020
1127 Clouds 20 1011 34 10000 5.1 230 15:22 15.03.2020
1128 Clouds 20 1011 34 10000 5.1 220 14:47 15.03.2020
1129 Clouds 20 1011 34 10000 5.1 220 14:28 15.03.2020
1130 Clouds 19 1012 34 10000 5.1 210 13:59 15.03.2020
1131 Clouds 19 1012 42 10000 3.6 200 13:39 15.03.2020
1132 Clouds 18 1012 45 10000 4.6 190 13:21 15.03.2020
1133 Clouds 17 1012 51 10000 3.1 150 12:44 15.03.2020
1134 Clouds 17 1012 51 10000 3.1 150 12:26 15.03.2020
1135 Clouds 16 1013 54 10000 3.6 130 11:59 15.03.2020
1136 Clouds 15 1013 58 10000 4.1 140 11:40 15.03.2020
1137 Clouds 13 1013 58 10000 4.1 140 11:22 15.03.2020
1138 Clouds 13 1013 62 10000 4.6 150 10:56 15.03.2020
1139 Clouds 11 1013 71 10000 5.1 140 10:37 15.03.2020
1140 Clouds 11 1013 71 10000 5.1 140 10:19 15.03.2020
1141 Clouds 8 1014 75 10000 4.6 120 09:40 15.03.2020
1142 Clouds 8 1014 75 10000 4.6 120 09:22 15.03.2020
1143 Clouds 5 1014 87 10000 4.1 120 08:44 15.03.2020
1144 Clouds 5 1014 87 10000 4.1 120 08:21 15.03.2020
1145 Clouds 4 1014 93 10000 3.6 120 07:51 15.03.2020
1146 Clouds 3 1014 93 10000 3.6 120 07:31 15.03.2020
1147 Clouds 3 1015 100 10000 3.1 110 06:53 15.03.2020
1148 Clouds 4 1016 93 10000 2.6 120 06:18 15.03.2020
1149 Clear 4 1016 100 9000 2.1 120 05:19 15.03.2020
1150 Clear 4 1017 93 10000 1.5 140 04:43 15.03.2020
1151 Clear 4 1017 93 10000 1.5 140 04:24 15.03.2020
1152 Clear 4 1017 100 9000 1.5 130 03:48 15.03.2020
1153 Clear 5 1019 100 10000 1.5 100 02:38 15.03.2020
1154 Clear 5 1020 93 10000 1 140 01:34 15.03.2020
1155 Fog 6 1020 93 9000 1.5 120 00:46 15.03.2020
1156 Clouds 6 1021 93 10000 1 130 00:24 15.03.2020
1157 Clouds 6 1021 93 10000 1 130 23:55 14.03.2020
1158 Clouds 6 1021 93 10000 0.5 0 23:36 14.03.2020
1159 Fog 7 1022 87 10000 1 180 23:18 14.03.2020
1160 Clouds 7 1022 93 10000 0.5 180 22:41 14.03.2020
1161 Clouds 7 1022 93 10000 0.5 180 22:23 14.03.2020
1162 Clouds 8 1022 87 10000 1 0 21:56 14.03.2020
1163 Clouds 8 1022 87 10000 1 240 21:36 14.03.2020
1164 Clouds 8 1022 87 10000 1 240 21:18 14.03.2020
1165 Clouds 9 1022 81 10000 2.1 240 20:58 14.03.2020
1166 Clouds 10 1022 76 10000 2.1 240 20:40 14.03.2020
1167 Clouds 10 1022 76 10000 2.1 240 20:19 14.03.2020
1168 Clouds 12 1022 71 10000 3.6 270 19:43 14.03.2020
1169 Clouds 12 1022 66 10000 4.1 260 19:25 14.03.2020
1170 Clouds 13 1022 62 10000 2.6 240 18:41 14.03.2020
1171 Clouds 13 1022 62 10000 2.6 240 18:23 14.03.2020
1172 Clouds 13 1022 62 10000 4.1 280 17:56 14.03.2020
1173 Clouds 14 1022 62 10000 3.1 240 17:38 14.03.2020
1174 Clouds 14 1022 62 10000 4.1 260 17:20 14.03.2020
1175 Clouds 14 1022 62 10000 4.1 260 16:40 14.03.2020
1176 Clouds 14 1022 58 10000 5.1 250 16:22 14.03.2020
1177 Clouds 14 1022 58 10000 5.1 250 15:56 14.03.2020
1178 Clouds 14 1023 58 10000 3.6 230 15:26 14.03.2020
1179 Clouds 14 1023 66 10000 4.6 250 14:55 14.03.2020
1180 Clouds 14 1023 66 10000 4.1 230 14:36 14.03.2020
1181 Clouds 14 1024 62 10000 4.6 250 14:18 14.03.2020
1182 Clouds 14 1024 58 10000 4.1 230 13:42 14.03.2020
1183 Clouds 14 1024 66 10000 3.6 220 13:23 14.03.2020
1184 Clouds 13 1024 66 10000 3.1 210 12:47 14.03.2020
1185 Clouds 13 1024 66 10000 3.1 210 12:27 14.03.2020
1186 Clouds 12 1024 71 10000 3.6 210 11:57 14.03.2020
1187 Clouds 11 1024 81 10000 3.1 190 11:38 14.03.2020
1188 Clouds 10 1024 87 10000 2.6 190 11:20 14.03.2020
1189 Clouds 9 1024 87 10000 2.1 180 10:44 14.03.2020
1190 Clouds 8 1024 93 10000 1 0 10:25 14.03.2020
1191 Clouds 8 1024 93 10000 1 0 09:57 14.03.2020
1192 Clouds 7 1024 93 10000 1 0 09:39 14.03.2020
1193 Clouds 7 1024 93 10000 1 0 09:39 14.03.2020
1194 Clouds 7 1024 93 10000 1 0 09:19 14.03.2020
1195 Clouds 6 1023 93 10000 1 150 08:42 14.03.2020
1196 Clouds 5 1023 93 10000 1 150 08:21 14.03.2020
1197 Clouds 4 1023 100 10000 0.99 163 07:39 14.03.2020
1198 Clouds 4 1023 100 10000 0.99 163 07:20 14.03.2020
1199 Clouds 3 1023 100 10000 0.99 163 06:41 14.03.2020
1200 Clouds 3 1023 93 10000 0.99 163 05:47 14.03.2020
1201 Clouds 3 1023 93 10000 0.99 163 05:47 14.03.2020
1202 Clouds 3 1023 93 10000 0.21 160 04:42 14.03.2020
1203 Clouds 3 1023 93 10000 1.5 220 03:24 14.03.2020
1204 Clouds 4 1023 93 10000 1.5 250 02:25 14.03.2020
1205 Clear 5 1024 93 10000 1 270 00:57 14.03.2020
1206 Clear 6 1024 81 10000 0.5 310 23:51 13.03.2020
1207 Clear 6 1024 81 10000 0.5 310 23:30 13.03.2020
1208 Clear 7 1024 81 10000 1.5 330 22:52 13.03.2020
1209 Clear 7 1024 81 10000 1.5 330 22:52 13.03.2020
1210 Clear 7 1024 81 10000 1.5 330 22:26 13.03.2020
1211 Clear 8 1023 81 10000 2.1 320 21:44 13.03.2020
1212 Clear 8 1023 76 10000 3.1 320 21:22 13.03.2020
1213 Clear 9 1023 76 10000 3.1 320 20:59 13.03.2020
1214 Clear 9 1023 66 10000 3.6 310 20:41 13.03.2020
1215 Clouds 9 1023 66 10000 3.6 310 20:21 13.03.2020
1216 Clouds 11 1023 57 10000 3.1 360 19:49 13.03.2020
1217 Clouds 10 1023 57 10000 3.1 360 19:30 13.03.2020
1218 Clouds 13 1023 50 10000 3.6 360 18:51 13.03.2020
1219 Clouds 13 1023 50 10000 3.6 360 18:32 13.03.2020
1220 Clouds 13 1023 44 10000 4.1 360 17:59 13.03.2020
1221 Clouds 13 1023 44 10000 2.6 50 17:41 13.03.2020
1222 Clouds 14 1023 44 10000 3.1 60 17:20 13.03.2020
1223 Clouds 14 1023 44 10000 2.1 10 16:42 13.03.2020
1224 Clouds 14 1023 44 10000 2.1 10 16:24 13.03.2020
1225 Clouds 14 1024 47 10000 3.1 50 15:59 13.03.2020
1226 Clouds 14 1024 44 10000 1 0 15:39 13.03.2020
1227 Clouds 14 1024 47 10000 1.5 0 15:20 13.03.2020
1228 Clouds 14 1025 54 10000 2.6 30 14:43 13.03.2020
1229 Clouds 14 1025 54 10000 2.6 30 14:22 13.03.2020
1230 Clouds 13 1025 50 10000 3.1 30 13:58 13.03.2020
1231 Clouds 13 1025 50 10000 2.1 40 13:39 13.03.2020
1232 Clouds 13 1026 54 10000 3.1 60 13:20 13.03.2020
1233 Clouds 13 1026 54 10000 3.1 60 12:55 13.03.2020
1234 Clouds 13 1026 58 10000 2.6 0 12:36 13.03.2020
1235 Clouds 13 1026 58 10000 1.5 0 12:18 13.03.2020
1236 Clouds 12 1026 62 10000 2.1 80 11:42 13.03.2020
1237 Clouds 11 1026 66 10000 2.1 60 11:24 13.03.2020
1238 Clear 11 1026 71 10000 1.5 70 10:48 13.03.2020
1239 Clear 10 1026 71 10000 1.5 70 10:29 13.03.2020
1240 Clear 9 1026 81 10000 1 0 09:59 13.03.2020
1241 Clear 8 1026 100 10000 1.71 80 09:41 13.03.2020
1242 Clear 7 1026 100 10000 1.71 80 09:22 13.03.2020
1243 Clear 5 1026 100 10000 1.71 80 08:45 13.03.2020
1244 Clear 4 1026 100 10000 1.8 78 08:23 13.03.2020
1245 Clouds 3 1026 93 10000 1 180 07:50 13.03.2020
1246 Clouds 4 1026 93 10000 1.38 36 07:28 13.03.2020
1247 Clouds 4 1025 93 10000 1.38 36 06:53 13.03.2020
1248 Clouds 4 1025 93 10000 1.38 36 06:32 13.03.2020
1249 Clouds 4 1025 93 10000 1 250 05:55 13.03.2020
1250 Clouds 5 1025 93 10000 1.5 250 05:24 13.03.2020
1251 Clouds 6 1025 93 10000 1 280 04:38 13.03.2020
1252 Clouds 6 1025 93 10000 1.5 330 03:42 13.03.2020
1253 Clouds 8 1025 87 10000 2.1 350 01:47 13.03.2020
1254 Clouds 8 1026 87 10000 2.1 330 01:19 13.03.2020
1255 Clouds 9 1026 87 10000 2.1 330 00:53 13.03.2020
1256 Clouds 9 1026 87 10000 1.5 310 00:24 13.03.2020
1257 Clouds 10 1025 81 10000 2.1 330 23:55 12.03.2020
1258 Clouds 10 1025 81 10000 2.1 330 23:28 12.03.2020
1259 Clouds 10 1025 76 10000 1.5 310 22:57 12.03.2020
1260 Clouds 10 1024 76 10000 2.1 310 22:39 12.03.2020
1261 Clouds 11 1024 76 10000 2.1 310 22:21 12.03.2020
1262 Clouds 11 1024 76 10000 2.6 310 21:44 12.03.2020
1263 Clouds 11 1024 76 10000 2.6 310 21:26 12.03.2020
1264 Clouds 11 1024 76 10000 2.6 320 20:57 12.03.2020
1265 Clouds 12 1024 76 10000 2.6 310 20:38 12.03.2020
1266 Clouds 12 1023 76 10000 2.1 320 20:19 12.03.2020
1267 Clouds 12 1023 81 10000 3.6 330 19:40 12.03.2020
1268 Clouds 12 1023 71 10000 4.6 330 19:20 12.03.2020
1269 Clouds 13 1023 67 10000 4.1 320 18:44 12.03.2020
1270 Clouds 13 1022 62 10000 4.1 320 18:24 12.03.2020
1271 Clouds 13 1022 62 10000 4.1 320 17:57 12.03.2020
1272 Clouds 14 1022 67 10000 4.1 300 17:38 12.03.2020
1273 Clouds 14 1022 62 10000 5.1 310 17:19 12.03.2020
1274 Clouds 14 1022 62 10000 5.1 310 16:55 12.03.2020
1275 Clouds 14 1022 62 10000 4.1 310 16:37 12.03.2020
1276 Clouds 14 1022 72 10000 3.1 290 16:18 12.03.2020
1277 Clouds 14 1022 76 10000 4.1 290 15:44 12.03.2020
1278 Clouds 14 1022 76 10000 4.1 290 15:26 12.03.2020
1279 Rain 14 1023 93 10000 4.6 300 14:40 12.03.2020
1280 Rain 14 1023 93 10000 4.6 300 14:21 12.03.2020
1281 Clouds 15 1023 77 10000 5.1 260 13:42 12.03.2020
1282 Clouds 14 1023 77 10000 5.1 260 13:23 12.03.2020
1283 Rain 14 1023 82 10000 5.1 250 12:56 12.03.2020
1284 Rain 14 1023 82 10000 5.1 250 12:38 12.03.2020
1285 Rain 14 1023 87 10000 3.6 260 12:20 12.03.2020
1286 Rain 14 1023 87 10000 3.6 260 11:56 12.03.2020
1287 Rain 13 1023 93 10000 3.1 230 11:37 12.03.2020
1288 Clouds 13 1023 93 10000 3.6 230 11:19 12.03.2020
1289 Clouds 12 1023 93 10000 3.6 230 10:57 12.03.2020
1290 Clouds 12 1023 93 10000 3.1 220 10:57 12.03.2020
1291 Clouds 12 1023 93 10000 3.1 220 10:39 12.03.2020
1292 Clouds 12 1023 93 10000 3.1 220 10:21 12.03.2020
1293 Clouds 11 1023 100 10000 3.1 220 09:43 12.03.2020
1294 Clouds 11 1023 100 10000 3.1 220 09:43 12.03.2020
1295 Clouds 10 1023 100 10000 3.1 220 09:25 12.03.2020
1296 Clouds 10 1023 93 10000 1.5 220 08:41 12.03.2020
1297 Clouds 9 1023 93 10000 1.5 220 08:20 12.03.2020
1298 Clouds 9 1022 100 10000 1.5 200 07:53 12.03.2020
1299 Clouds 8 1022 100 9000 1 210 07:23 12.03.2020
1300 Fog 8 1022 100 1700 1 230 06:52 12.03.2020
1301 Fog 8 1021 93 1100 1.61 244 05:43 12.03.2020
1302 Fog 8 1021 93 1600 1.53 222 05:21 12.03.2020
1303 Clouds 9 1022 100 10000 1.5 240 02:38 12.03.2020
1304 Clouds 9 1022 93 10000 0.82 275 01:31 12.03.2020
1305 Clouds 10 1023 93 10000 1.5 330 00:44 12.03.2020
1306 Clouds 10 1023 93 10000 1.5 330 00:26 12.03.2020
1307 Clear 10 1022 93 10000 0.82 275 23:45 11.03.2020
1308 Clear 10 1022 93 10000 1.5 180 23:24 11.03.2020
1309 Clear 11 1022 87 10000 2.6 160 22:48 11.03.2020
1310 Clear 11 1022 87 10000 2.6 160 22:29 11.03.2020
1311 Clear 11 1022 93 10000 2.1 140 21:59 11.03.2020
1312 Clear 11 1022 87 10000 3.1 150 21:41 11.03.2020
1313 Clear 11 1022 87 10000 3.1 150 21:22 11.03.2020
1314 Clear 12 1022 87 10000 2.6 140 21:22 11.03.2020
1315 Clear 12 1022 87 10000 2.6 140 20:58 11.03.2020
1316 Clouds 12 1022 82 10000 2.6 140 20:39 11.03.2020
1317 Clouds 13 1022 82 10000 2.6 150 20:19 11.03.2020
1318 Clouds 13 1022 82 10000 3.1 130 19:44 11.03.2020
1319 Clouds 14 1022 82 10000 3.1 130 19:25 11.03.2020
1320 Clouds 14 1022 77 10000 2.6 150 18:58 11.03.2020
1321 Clouds 15 1022 77 10000 2.53 325 18:39 11.03.2020
1322 Clouds 15 1022 82 10000 2.53 325 18:20 11.03.2020
1323 Clouds 15 1022 82 10000 0.5 0 17:56 11.03.2020
1324 Clouds 15 1022 82 10000 0.5 0 17:37 11.03.2020
1325 Clouds 16 1022 82 10000 1 0 17:19 11.03.2020
1326 Clouds 16 1023 82 10000 1.5 250 16:45 11.03.2020
1327 Clouds 15 1023 82 10000 1.5 250 16:21 11.03.2020
1328 Clouds 15 1023 82 10000 1.5 250 15:44 11.03.2020
1329 Clouds 15 1023 82 10000 1.5 250 15:23 11.03.2020
1330 Clouds 15 1024 82 10000 2.1 250 14:56 11.03.2020
1331 Clouds 15 1024 82 10000 2.6 240 14:38 11.03.2020
1332 Clouds 15 1024 82 10000 2.6 240 14:19 11.03.2020
1333 Clouds 15 1025 87 10000 3.1 210 13:44 11.03.2020
1334 Clouds 15 1025 87 10000 3.1 210 13:25 11.03.2020
1335 Clouds 15 1025 87 10000 2.6 210 12:57 11.03.2020
1336 Clouds 14 1025 87 10000 2.6 210 12:39 11.03.2020
1337 Clouds 14 1025 82 10000 3.1 210 12:19 11.03.2020
1338 Clouds 14 1025 82 10000 3.1 220 11:41 11.03.2020
1339 Clouds 14 1025 82 10000 3.1 220 11:22 11.03.2020
1340 Clouds 13 1025 87 10000 3.6 230 10:49 11.03.2020
1341 Clouds 13 1025 87 10000 3.6 210 10:21 11.03.2020
1342 Clouds 13 1025 87 10000 3.6 210 10:00 11.03.2020
1343 Clouds 12 1025 93 10000 3.1 220 09:41 11.03.2020
1344 Clouds 12 1025 93 10000 3.1 220 09:22 11.03.2020
1345 Clouds 12 1025 93 10000 3.1 220 09:22 11.03.2020
1346 Clouds 11 1025 93 10000 2.6 230 08:44 11.03.2020
1347 Clouds 11 1025 100 10000 3.6 240 08:26 11.03.2020
1348 Clouds 11 1025 100 10000 3.6 240 07:48 11.03.2020
1349 Clouds 11 1025 100 10000 3.6 240 07:22 11.03.2020
1350 Clouds 11 1025 100 10000 3.6 250 06:53 11.03.2020
1351 Clouds 11 1025 100 6000 3.6 230 06:33 11.03.2020
1352 Clouds 11 1025 100 10000 3.6 250 05:33 11.03.2020
1353 Clouds 11 1025 100 10000 3.6 240 03:26 11.03.2020
1354 Clouds 12 1026 93 6000 5.1 250 01:54 11.03.2020
1355 Clouds 12 1026 93 7000 4.6 230 01:24 11.03.2020
1356 Clouds 12 1026 93 7000 4.6 240 00:40 11.03.2020
1357 Drizzle 12 1026 93 4600 4.1 240 23:50 10.03.2020
1358 Clouds 12 1026 93 10000 4.1 240 23:28 10.03.2020
1359 Clouds 12 1026 93 8000 3.6 240 22:58 10.03.2020
1360 Clouds 12 1026 93 10000 3.1 250 22:37 10.03.2020
1361 Clouds 12 1026 93 10000 3.1 250 22:19 10.03.2020
1362 Clouds 12 1025 93 10000 3.6 240 21:56 10.03.2020
1363 Drizzle 12 1026 93 7000 4.6 240 21:38 10.03.2020
1364 Drizzle 12 1026 93 7000 4.6 240 21:18 10.03.2020
1365 Rain 12 1025 93 8000 3.6 250 20:42 10.03.2020
1366 Rain 12 1025 93 8000 3.6 250 20:20 10.03.2020
1367 Drizzle 12 1025 93 6000 5.1 240 19:58 10.03.2020
1368 Clouds 12 1025 93 10000 4.6 240 19:40 10.03.2020
1369 Clouds 12 1025 93 10000 4.6 250 19:22 10.03.2020
1370 Clouds 12 1025 93 10000 4.6 250 18:56 10.03.2020
1371 Clouds 12 1025 87 10000 4.1 240 18:37 10.03.2020
1372 Drizzle 13 1025 87 10000 5.1 270 18:18 10.03.2020
1373 Clouds 13 1025 82 10000 5.1 270 17:41 10.03.2020
1374 Clouds 13 1025 82 10000 5.7 260 17:22 10.03.2020
1375 Clouds 13 1025 82 10000 5.7 260 16:54 10.03.2020
1376 Clouds 14 1025 76 10000 6.2 270 16:36 10.03.2020
1377 Clouds 14 1025 71 10000 5.1 270 16:18 10.03.2020
1378 Clouds 14 1024 71 10000 7.2 270 15:41 10.03.2020
1379 Clouds 14 1025 76 10000 6.2 270 15:20 10.03.2020
1380 Clouds 14 1025 76 10000 6.2 270 14:57 10.03.2020
1381 Clouds 14 1025 82 10000 5.7 280 14:39 10.03.2020
1382 Clouds 14 1025 82 10000 5.7 280 14:18 10.03.2020
1383 Clouds 14 1025 76 10000 6.2 260 13:43 10.03.2020
1384 Clouds 14 1025 76 10000 6.2 260 13:25 10.03.2020
1385 Clouds 14 1025 71 10000 7.2 280 12:42 10.03.2020
1386 Clouds 14 1025 76 10000 7.7 270 12:21 10.03.2020
1387 Clouds 14 1025 76 10000 7.7 270 11:59 10.03.2020
1388 Clouds 13 1025 82 10000 7.7 260 11:41 10.03.2020
1389 Clouds 13 1024 82 10000 7.2 250 11:23 10.03.2020
1390 Clouds 13 1024 82 10000 7.2 250 10:54 10.03.2020
1391 Clouds 12 1025 87 10000 6.2 250 10:36 10.03.2020
1392 Clouds 12 1024 93 10000 5.7 250 10:18 10.03.2020
1393 Clouds 11 1024 100 10000 4.6 230 09:44 10.03.2020
1394 Clouds 11 1024 93 9000 3.6 220 09:20 10.03.2020
1395 Clouds 11 1024 93 9000 3.6 220 08:53 10.03.2020
1396 Clouds 11 1024 93 10000 3.6 210 08:34 10.03.2020
1397 Clouds 10 1024 100 9000 3.6 220 07:53 10.03.2020
1398 Clouds 10 1024 100 10000 3.6 230 07:35 10.03.2020
1399 Clouds 10 1024 93 7000 4.1 210 06:57 10.03.2020
1400 Clouds 10 1024 93 9000 3.6 210 06:37 10.03.2020
1401 Clouds 10 1024 93 9000 3.6 210 05:42 10.03.2020
1402 Clouds 10 1024 93 8000 3.6 220 04:56 10.03.2020
1403 Clouds 10 1024 93 8000 4.1 220 04:25 10.03.2020
1404 Clouds 10 1024 93 8000 4.1 220 04:25 10.03.2020
1405 Clouds 10 1025 100 10000 3.6 200 02:46 10.03.2020
1406 Clouds 9 1026 100 10000 3.1 190 01:31 10.03.2020
1407 Rain 9 1026 100 10000 2.6 190 00:50 10.03.2020
1408 Rain 9 1026 100 10000 2.6 200 00:27 10.03.2020
1409 Rain 9 1026 100 8000 3.1 210 23:41 09.03.2020
1410 Rain 9 1026 100 7000 2.6 220 23:22 09.03.2020
1411 Rain 9 1026 100 7000 2.6 220 22:56 09.03.2020
1412 Rain 9 1027 93 7000 3.1 230 22:37 09.03.2020
1413 Rain 9 1026 93 10000 2.6 220 22:18 09.03.2020
1414 Rain 9 1026 93 10000 3.1 210 21:42 09.03.2020
1415 Rain 9 1026 87 10000 3.1 230 21:21 09.03.2020
1416 Rain 9 1026 87 10000 3.1 230 20:58 09.03.2020
1417 Clouds 9 1026 81 10000 3.6 250 20:39 09.03.2020
1418 Clouds 9 1026 81 10000 3.6 250 20:20 09.03.2020
1419 Rain 10 1026 71 10000 1.5 260 19:45 09.03.2020
1420 Rain 10 1026 71 10000 1.5 260 19:26 09.03.2020
1421 Clouds 10 1026 71 10000 2.6 310 18:59 09.03.2020
1422 Clouds 11 1026 71 10000 3.1 310 18:39 09.03.2020
1423 Clouds 11 1026 71 10000 4.6 300 18:20 09.03.2020
1424 Clouds 11 1025 71 10000 4.6 290 17:58 09.03.2020
1425 Clouds 11 1025 71 10000 4.6 290 17:38 09.03.2020
1426 Clouds 11 1025 71 10000 4.6 290 17:38 09.03.2020
1427 Clouds 11 1026 66 10000 5.7 300 17:20 09.03.2020
1428 Clouds 12 1026 66 10000 5.7 300 16:58 09.03.2020
1429 Rain 11 1025 66 10000 6.7 300 16:40 09.03.2020
1430 Rain 12 1025 66 10000 6.7 300 16:22 09.03.2020
1431 Clouds 12 1025 58 10000 6.7 320 15:58 09.03.2020
1432 Clouds 13 1025 58 10000 6.7 320 15:38 09.03.2020
1433 Clouds 12 1025 66 10000 6.7 300 15:20 09.03.2020
1434 Clouds 12 1025 66 10000 6.7 300 15:20 09.03.2020
1435 Clouds 12 1025 71 10000 4.1 340 14:55 09.03.2020
1436 Clouds 13 1026 58 10000 7.7 320 14:37 09.03.2020
1437 Clouds 12 1026 58 10000 7.7 320 14:18 09.03.2020
1438 Clouds 12 1026 62 10000 5.7 320 13:55 09.03.2020
1439 Clouds 12 1026 62 10000 5.7 320 13:36 09.03.2020
1440 Clouds 12 1026 58 10000 6.7 320 13:18 09.03.2020
1441 Clouds 12 1025 62 10000 8.2 310 12:41 09.03.2020
1442 Rain 12 1026 71 10000 6.2 310 12:22 09.03.2020
1443 Rain 12 1026 87 10000 5.1 310 11:42 09.03.2020
1444 Rain 11 1026 81 6000 4.6 330 11:22 09.03.2020
1445 Clouds 12 1025 76 10000 4.1 280 10:59 09.03.2020
1446 Clouds 11 1025 76 10000 4.1 280 10:40 09.03.2020
1447 Clouds 10 1025 87 10000 3.1 280 10:20 09.03.2020
1448 Clouds 10 1025 87 10000 3.1 280 10:20 09.03.2020
1449 Clouds 10 1025 81 10000 2.6 270 09:44 09.03.2020
1450 Clouds 10 1024 87 10000 4.6 290 09:24 09.03.2020
1451 Clouds 10 1024 87 10000 4.6 290 09:24 09.03.2020
1452 Clouds 9 1024 93 10000 2.1 260 08:59 09.03.2020
1453 Clouds 8 1024 93 10000 2.1 260 08:41 09.03.2020
1454 Clouds 8 1024 87 10000 1.5 290 08:23 09.03.2020
1455 Rain 8 1023 87 10000 3.1 270 07:40 09.03.2020
1456 Clouds 8 1023 87 10000 4.1 270 07:21 09.03.2020
1457 Rain 8 1023 93 10000 3.6 260 06:43 09.03.2020
1458 Rain 8 1023 93 10000 3.6 260 06:23 09.03.2020
1459 Rain 8 1022 87 10000 3.6 260 05:47 09.03.2020
1460 Rain 8 1022 93 10000 4.1 260 05:18 09.03.2020
1461 Rain 8 1022 93 10000 3.6 250 04:40 09.03.2020
1462 Rain 8 1022 93 10000 4.1 250 04:21 09.03.2020
1463 Rain 8 1022 87 10000 3.6 250 02:58 09.03.2020
1464 Rain 9 1022 93 10000 3.6 250 01:18 09.03.2020
1465 Clouds 9 1022 93 10000 4.1 240 00:37 09.03.2020
1466 Rain 9 1022 93 10000 3.6 250 00:19 09.03.2020
1467 Rain 9 1022 87 10000 4.6 260 23:42 08.03.2020
1468 Rain 10 1022 87 10000 5.7 250 23:21 08.03.2020
1469 Rain 10 1021 87 10000 4.1 270 22:55 08.03.2020
1470 Rain 10 1021 93 7000 5.1 260 22:37 08.03.2020
1471 Rain 11 1021 93 7000 5.1 260 22:18 08.03.2020
1472 Rain 11 1021 93 10000 5.1 260 21:42 08.03.2020
1473 Rain 11 1021 87 6000 5.1 260 21:23 08.03.2020
1474 Clouds 11 1021 87 10000 5.1 250 20:58 08.03.2020
1475 Rain 11 1020 81 10000 5.1 240 20:38 08.03.2020
1476 Rain 11 1020 81 10000 5.1 240 20:20 08.03.2020
1477 Clouds 11 1020 81 10000 5.1 250 19:40 08.03.2020
1478 Rain 11 1020 87 10000 6.7 260 19:20 08.03.2020
1479 Rain 12 1020 87 10000 6.7 260 18:57 08.03.2020
1480 Rain 12 1020 87 10000 6.7 260 18:38 08.03.2020
1481 Clouds 12 1020 87 10000 5.7 260 18:20 08.03.2020
1482 Clouds 12 1020 93 10000 6.7 240 17:41 08.03.2020
1483 Clouds 12 1020 87 10000 5.7 240 17:22 08.03.2020
1484 Clouds 12 1020 87 10000 5.7 240 16:59 08.03.2020
1485 Drizzle 11 1020 93 7000 5.7 240 16:40 08.03.2020
1486 Drizzle 11 1020 93 7000 5.7 240 16:22 08.03.2020
1487 Rain 11 1021 93 9000 5.7 230 15:41 08.03.2020
1488 Rain 12 1021 93 9000 5.7 230 15:22 08.03.2020
1489 Clouds 12 1021 81 10000 7.7 230 14:59 08.03.2020
1490 Clouds 12 1021 71 10000 7.2 230 14:38 08.03.2020
1491 Clouds 12 1021 71 10000 7.2 230 14:19 08.03.2020
1492 Clouds 12 1022 76 10000 5.7 220 13:42 08.03.2020
1493 Clouds 12 1022 76 10000 5.7 220 13:42 08.03.2020
1494 Clouds 12 1022 76 10000 5.7 220 13:21 08.03.2020
1495 Clouds 12 1022 81 10000 4.6 210 12:56 08.03.2020
1496 Clouds 12 1022 81 10000 4.6 210 12:36 08.03.2020
1497 Clouds 11 1022 93 10000 3.6 190 12:18 08.03.2020
1498 Clouds 11 1023 87 10000 4.1 200 11:41 08.03.2020
1499 Clouds 10 1023 100 10000 4.1 190 11:21 08.03.2020
1500 Mist 9 1023 100 5000 3.1 190 10:57 08.03.2020
1501 Mist 9 1023 100 5000 3.1 190 10:39 08.03.2020
1502 Mist 9 1023 100 5000 3.1 190 10:20 08.03.2020
1503 Fog 8 1023 100 800 2.6 180 09:38 08.03.2020
1504 Fog 8 1023 100 800 2.6 180 09:20 08.03.2020
1505 Fog 7 1023 100 650 1.5 200 08:43 08.03.2020
1506 Fog 7 1023 100 650 2.1 190 08:21 08.03.2020
1507 Fog 7 1023 100 650 2.1 190 07:46 08.03.2020
1508 Fog 7 1023 100 750 2.1 210 07:27 08.03.2020
1509 Fog 7 1023 100 650 2.1 200 06:43 08.03.2020
1510 Fog 7 1023 93 700 2.6 200 06:24 08.03.2020
1511 Fog 7 1023 100 800 3.1 190 05:43 08.03.2020
1512 Fog 8 1024 100 700 2.6 210 03:52 08.03.2020
1513 Fog 8 1024 93 1000 3.1 200 02:40 08.03.2020
1514 Clouds 8 1025 100 10000 3.1 190 01:37 08.03.2020
1515 Clouds 8 1025 93 8000 2.6 190 01:18 08.03.2020
1516 Clouds 9 1025 93 10000 2.6 180 00:30 08.03.2020
1517 Clouds 9 1026 93 10000 2.1 200 23:49 07.03.2020
1518 Clouds 9 1026 93 10000 2.6 220 23:27 07.03.2020
1519 Clouds 9 1026 93 10000 2.1 220 22:58 07.03.2020
1520 Clouds 10 1026 93 10000 2.6 230 22:37 07.03.2020
1521 Clouds 10 1026 93 10000 2.6 230 22:19 07.03.2020
1522 Clouds 10 1026 93 10000 2.6 220 21:43 07.03.2020
1523 Clouds 10 1026 93 10000 2.6 220 21:43 07.03.2020
1524 Clouds 10 1026 93 10000 3.1 230 21:22 07.03.2020
1525 Clouds 10 1026 93 10000 2.1 240 20:41 07.03.2020
1526 Clouds 10 1026 93 10000 2.1 240 20:41 07.03.2020
1527 Rain 10 1026 93 10000 2.6 240 20:21 07.03.2020
1528 Rain 11 1026 87 10000 3.1 260 19:42 07.03.2020
1529 Clouds 11 1026 87 10000 3.1 260 19:23 07.03.2020
1530 Clouds 11 1025 81 10000 3.6 260 18:59 07.03.2020
1531 Clouds 12 1025 81 10000 3.6 260 18:39 07.03.2020
1532 Clouds 12 1025 76 10000 4.1 270 18:20 07.03.2020
1533 Clouds 13 1025 66 10000 2.6 300 17:42 07.03.2020
1534 Clouds 13 1025 66 10000 4.1 300 17:20 07.03.2020
1535 Clouds 13 1025 66 10000 3.6 290 16:56 07.03.2020
1536 Clouds 13 1025 66 10000 3.6 290 16:38 07.03.2020
1537 Clouds 13 1025 66 10000 2.1 290 16:19 07.03.2020
1538 Clouds 13 1025 66 10000 2.6 320 15:42 07.03.2020
1539 Clouds 13 1025 66 10000 2.1 290 15:22 07.03.2020
1540 Clouds 13 1025 66 10000 3.1 290 14:59 07.03.2020
1541 Clouds 13 1025 66 10000 3.1 290 14:41 07.03.2020
1542 Clouds 13 1025 66 10000 2.1 300 14:23 07.03.2020
1543 Clouds 12 1026 66 10000 3.1 290 13:42 07.03.2020
1544 Clouds 12 1026 66 10000 2.6 310 13:21 07.03.2020
1545 Clouds 12 1026 66 10000 3.1 320 12:58 07.03.2020
1546 Clouds 12 1026 71 10000 1.5 330 12:38 07.03.2020
1547 Clouds 12 1026 71 10000 1.5 330 12:18 07.03.2020
1548 Clouds 11 1026 66 10000 2.1 310 11:42 07.03.2020
1549 Clouds 11 1026 71 10000 2.1 310 11:24 07.03.2020
1550 Clouds 10 1026 76 10000 1 0 10:57 07.03.2020
1551 Clouds 10 1026 76 10000 1 0 10:38 07.03.2020
1552 Clouds 9 1025 87 10000 1 0 10:18 07.03.2020
1553 Clouds 8 1025 93 10000 1.5 250 09:40 07.03.2020
1554 Clouds 7 1025 93 10000 2.6 260 09:20 07.03.2020
1555 Clouds 7 1025 93 10000 2.6 260 09:20 07.03.2020
1556 Clouds 6 1024 100 10000 1.5 240 08:57 07.03.2020
1557 Clouds 5 1024 100 10000 1.5 240 08:39 07.03.2020
1558 Clouds 5 1024 93 10000 1 230 08:20 07.03.2020
1559 Clouds 5 1024 93 10000 2.6 250 07:44 07.03.2020
1560 Clouds 5 1023 93 10000 2.1 240 07:21 07.03.2020
1561 Rain 5 1023 100 7000 2.1 290 06:42 07.03.2020
1562 Rain 5 1023 100 7000 2.1 290 06:23 07.03.2020
1563 Clouds 5 1022 93 10000 1 210 05:40 07.03.2020
1564 Clouds 5 1022 100 10000 2.1 330 03:36 07.03.2020
1565 Clouds 6 1022 87 10000 2.1 260 02:43 07.03.2020
1566 Rain 6 1022 93 10000 3.6 310 01:51 07.03.2020
1567 Clouds 6 1021 93 10000 2.1 290 00:43 07.03.2020
1568 Clouds 6 1021 87 10000 2.6 310 00:23 07.03.2020
1569 Clouds 6 1021 87 10000 2.6 310 00:23 07.03.2020
1570 Clouds 6 1021 87 10000 2.6 310 00:23 07.03.2020
1571 Clouds 6 1021 87 10000 2.6 310 00:23 07.03.2020
1572 Rain 7 1021 87 10000 3.1 310 23:58 06.03.2020
1573 Rain 7 1020 87 10000 4.1 320 23:38 06.03.2020
1574 Rain 7 1020 87 10000 4.1 320 23:38 06.03.2020
1575 Rain 7 1020 87 10000 4.1 320 23:20 06.03.2020
1576 Rain 7 1020 87 10000 3.1 280 22:44 06.03.2020
1577 Rain 7 1020 81 10000 6.7 310 22:19 06.03.2020
1578 Clouds 7 1019 87 10000 4.1 300 21:46 06.03.2020
1579 Clouds 7 1019 87 10000 3.6 290 21:20 06.03.2020
1580 Rain 8 1018 81 10000 5.1 300 20:43 06.03.2020
1581 Rain 8 1018 75 10000 6.2 320 20:22 06.03.2020
1582 Clouds 8 1017 75 10000 4.6 310 19:55 06.03.2020
1583 Clouds 8 1017 66 10000 6.7 310 19:36 06.03.2020
1584 Clouds 9 1017 66 10000 6.7 310 19:18 06.03.2020
1585 Rain 9 1015 61 10000 6.2 310 18:42 06.03.2020
1586 Rain 9 1015 61 10000 6.2 310 18:20 06.03.2020
1587 Rain 9 1014 61 10000 11.3 330 17:56 06.03.2020
1588 Rain 10 1014 61 10000 11.3 330 17:38 06.03.2020
1589 Rain 10 1013 62 10000 8.2 320 17:19 06.03.2020
1590 Rain 10 1012 53 10000 11.3 320 16:42 06.03.2020
1591 Rain 10 1012 53 10000 11.3 320 16:21 06.03.2020
1592 Rain 10 1011 57 10000 9.8 320 15:58 06.03.2020
1593 Rain 10 1011 57 10000 9.8 320 15:39 06.03.2020
1594 Rain 10 1011 66 10000 8.7 320 15:20 06.03.2020
1595 Rain 10 1011 70 10000 8.2 290 14:39 06.03.2020
1596 Rain 10 1011 70 10000 8.2 290 14:20 06.03.2020
1597 Rain 11 1010 66 10000 7.7 310 13:43 06.03.2020
1598 Rain 10 1010 66 10000 7.7 310 13:43 06.03.2020
1599 Rain 9 1011 81 10000 7.7 290 13:23 06.03.2020
1600 Rain 9 1010 66 10000 8.7 310 12:58 06.03.2020
1601 Rain 9 1010 81 10000 6.7 290 12:38 06.03.2020
1602 Rain 9 1010 81 10000 6.7 290 12:19 06.03.2020
1603 Rain 8 1009 87 10000 8.2 310 11:57 06.03.2020
1604 Rain 9 1009 87 10000 8.2 310 11:57 06.03.2020
1605 Rain 9 1009 87 10000 8.2 310 11:38 06.03.2020
1606 Rain 9 1009 87 10000 8.7 300 11:19 06.03.2020
1607 Rain 8 1008 81 10000 7.7 320 10:39 06.03.2020
1608 Rain 8 1007 76 10000 7.7 290 10:20 06.03.2020
1609 Clouds 8 1007 87 10000 5.7 280 09:55 06.03.2020
1610 Rain 8 1007 87 10000 4.1 250 09:36 06.03.2020
1611 Rain 8 1007 87 10000 4.1 250 09:18 06.03.2020
1612 Rain 8 1006 81 10000 4.6 320 08:42 06.03.2020
1613 Rain 8 1006 81 10000 4.6 320 08:42 06.03.2020
1614 Rain 8 1006 81 10000 7.7 280 08:24 06.03.2020
1615 Rain 8 1005 81 10000 7.2 290 07:47 06.03.2020
1616 Rain 8 1005 87 10000 5.7 270 07:26 06.03.2020
1617 Rain 8 1005 87 8000 10.3 300 06:53 06.03.2020
1618 Rain 8 1005 87 8000 10.3 300 06:53 06.03.2020
1619 Rain 8 1004 87 10000 6.7 270 06:34 06.03.2020
1620 Rain 8 1004 87 10000 5.1 260 05:42 06.03.2020
1621 Rain 8 1004 93 9000 6.2 250 05:21 06.03.2020
1622 Rain 8 1005 93 10000 4.1 240 04:53 06.03.2020
1623 Rain 7 1008 93 9000 5.1 280 01:56 06.03.2020
1624 Rain 7 1009 93 10000 3.1 250 01:38 06.03.2020
1625 Rain 7 1009 93 10000 3.1 250 01:19 06.03.2020
1626 Rain 8 1009 87 10000 4.6 270 00:32 06.03.2020
1627 Rain 8 1009 87 6000 6.7 270 23:50 05.03.2020
1628 Rain 9 1009 76 7000 4.6 250 23:29 05.03.2020
1629 Clouds 9 1009 70 10000 3.6 260 22:57 05.03.2020
1630 Clouds 9 1009 66 10000 5.1 270 22:38 05.03.2020
1631 Clouds 9 1009 66 10000 5.1 270 22:20 05.03.2020
1632 Clouds 9 1009 66 10000 6.7 270 21:56 05.03.2020
1633 Clouds 9 1009 66 10000 7.2 280 21:37 05.03.2020
1634 Clouds 9 1009 66 10000 7.2 280 21:37 05.03.2020
1635 Clouds 9 1009 66 10000 7.2 280 21:19 05.03.2020
1636 Clouds 9 1008 66 10000 7.2 290 20:55 05.03.2020
1637 Clouds 9 1008 66 10000 9.3 290 20:36 05.03.2020
1638 Clouds 9 1008 66 10000 9.3 290 20:18 05.03.2020
1639 Rain 10 1007 71 10000 8.7 290 19:55 05.03.2020
1640 Rain 10 1007 71 10000 8.7 290 19:37 05.03.2020
1641 Clouds 10 1007 61 10000 10.8 290 19:18 05.03.2020
1642 Rain 10 1006 71 10000 9.3 280 18:38 05.03.2020
1643 Rain 10 1006 71 10000 9.3 280 18:19 05.03.2020
1644 Rain 11 1005 76 10000 10.8 280 17:59 05.03.2020
1645 Rain 11 1005 76 10000 10.8 280 17:40 05.03.2020
1646 Drizzle 11 1004 81 10000 13.4 280 17:21 05.03.2020
1647 Rain 11 1004 81 9000 11.3 280 16:42 05.03.2020
1648 Rain 11 1004 81 9000 11.3 280 16:42 05.03.2020
1649 Rain 11 1003 71 10000 12.3 280 16:24 05.03.2020
1650 Rain 11 1003 81 9000 10.8 290 15:59 05.03.2020
1651 Rain 11 1003 81 9000 10.8 290 15:40 05.03.2020
1652 Rain 12 1002 76 10000 12.3 270 15:21 05.03.2020
1653 Clouds 12 1001 81 10000 12.3 270 14:54 05.03.2020
1654 Rain 12 1000 71 10000 13.4 270 14:36 05.03.2020
1655 Rain 12 1000 71 10000 13.4 270 14:18 05.03.2020
1656 Rain 12 1000 76 10000 12.9 250 13:41 05.03.2020
1657 Drizzle 12 1001 81 10000 13.4 250 13:21 05.03.2020
1658 Rain 12 1001 87 10000 10.8 230 12:56 05.03.2020
1659 Rain 12 1001 87 10000 10.8 230 12:38 05.03.2020
1660 Rain 11 1001 81 10000 8.7 230 12:18 05.03.2020
1661 Rain 11 1001 87 10000 7.2 230 11:56 05.03.2020
1662 Rain 11 1001 87 10000 7.2 230 11:37 05.03.2020
1663 Rain 11 1001 87 10000 7.7 230 11:18 05.03.2020
1664 Rain 11 1001 87 10000 7.7 230 11:18 05.03.2020
1665 Rain 11 1002 87 10000 7.7 250 10:56 05.03.2020
1666 Rain 11 1002 87 10000 7.7 250 10:38 05.03.2020
1667 Rain 11 1002 93 9000 8.7 250 10:19 05.03.2020
1668 Rain 12 1002 87 10000 7.7 270 09:44 05.03.2020
1669 Rain 12 1002 87 1900 9.8 290 09:26 05.03.2020
1670 Rain 13 1001 87 4400 10.3 230 08:44 05.03.2020
1671 Rain 13 1000 82 10000 5.1 210 08:25 05.03.2020
1672 Rain 13 1000 82 10000 4.1 210 07:47 05.03.2020
1673 Rain 13 1001 82 10000 5.1 210 07:22 05.03.2020
1674 Rain 13 1001 87 10000 5.1 190 06:48 05.03.2020
1675 Rain 13 1001 87 10000 5.1 180 06:22 05.03.2020
1676 Rain 12 1002 87 10000 5.1 180 05:39 05.03.2020
1677 Rain 12 1003 87 10000 4.1 180 04:55 05.03.2020
1678 Clouds 12 1004 87 10000 2.6 200 04:22 05.03.2020
1679 Rain 12 1006 87 10000 3.6 180 03:34 05.03.2020
1680 Clouds 12 1008 93 10000 5.1 190 01:55 05.03.2020
1681 Clouds 12 1009 93 10000 4.6 190 01:20 05.03.2020
1682 Clouds 12 1010 93 10000 4.6 210 00:26 05.03.2020
1683 Clouds 13 1011 93 10000 5.1 210 23:42 04.03.2020
1684 Clouds 13 1011 93 10000 4.6 210 23:23 04.03.2020
1685 Clouds 13 1011 100 10000 5.1 220 22:58 04.03.2020
1686 Clouds 13 1011 100 10000 5.1 220 22:39 04.03.2020
1687 Clouds 13 1012 100 10000 5.1 230 22:19 04.03.2020
1688 Drizzle 13 1012 100 10000 5.1 240 21:57 04.03.2020
1689 Drizzle 13 1012 100 10000 5.1 240 21:39 04.03.2020
1690 Rain 13 1012 100 7000 5.1 250 21:20 04.03.2020
1691 Rain 13 1013 100 7000 5.1 250 20:54 04.03.2020
1692 Rain 13 1013 100 9000 4.6 250 20:36 04.03.2020
1693 Rain 13 1013 100 9000 4.6 250 20:18 04.03.2020
1694 Rain 13 1013 100 4000 4.6 250 19:42 04.03.2020
1695 Drizzle 13 1013 100 7000 4.1 260 19:22 04.03.2020
1696 Drizzle 13 1013 100 5000 4.6 260 18:54 04.03.2020
1697 Drizzle 13 1013 93 9000 4.6 270 18:36 04.03.2020
1698 Drizzle 13 1013 93 9000 4.6 270 18:18 04.03.2020
1699 Clouds 14 1013 93 10000 5.1 270 17:40 04.03.2020
1700 Clouds 14 1013 93 10000 5.1 270 17:40 04.03.2020
1701 Clouds 14 1013 93 10000 6.2 270 17:21 04.03.2020
1702 Clouds 14 1013 93 10000 6.7 270 16:59 04.03.2020
1703 Clouds 14 1013 93 10000 6.7 270 16:40 04.03.2020
1704 Rain 14 1013 93 5000 6.2 280 16:22 04.03.2020
1705 Drizzle 14 1013 93 5000 8.2 270 15:55 04.03.2020
1706 Drizzle 14 1013 93 5000 7.7 270 15:36 04.03.2020
1707 Drizzle 14 1013 93 5000 7.7 270 15:18 04.03.2020
1708 Rain 13 1013 93 5000 5.7 280 14:41 04.03.2020
1709 Drizzle 13 1013 93 7000 8.2 280 14:21 04.03.2020
1710 Clouds 13 1013 93 10000 8.2 280 13:59 04.03.2020
1711 Clouds 13 1013 93 10000 8.2 280 13:39 04.03.2020
1712 Rain 13 1014 100 3300 5.7 270 13:21 04.03.2020
1713 Drizzle 12 1014 100 3100 3.6 200 12:56 04.03.2020
1714 Drizzle 12 1014 100 3100 3.6 200 12:38 04.03.2020
1715 Drizzle 11 1014 100 3100 3.1 190 12:20 04.03.2020
1716 Drizzle 10 1014 100 2700 2.6 160 11:54 04.03.2020
1717 Drizzle 9 1014 93 1800 3.1 160 11:36 04.03.2020
1718 Drizzle 9 1014 93 1800 3.1 160 11:18 04.03.2020
1719 Drizzle 8 1014 100 2500 3.1 150 10:41 04.03.2020
1720 Clouds 7 1014 93 10000 3.6 160 10:22 04.03.2020
1721 Rain 7 1015 100 10000 3.6 170 09:44 04.03.2020
1722 Clouds 7 1015 93 10000 4.1 170 09:23 04.03.2020
1723 Rain 7 1015 93 10000 3.6 170 08:59 04.03.2020
1724 Rain 7 1015 93 10000 3.6 170 08:40 04.03.2020
1725 Clouds 6 1015 93 10000 4.6 170 08:22 04.03.2020
1726 Clouds 6 1015 93 10000 3.6 160 07:44 04.03.2020
1727 Rain 6 1015 93 10000 2.6 140 07:25 04.03.2020
1728 Rain 6 1016 93 10000 2.1 140 06:49 04.03.2020
1729 Rain 6 1016 93 10000 2.6 130 06:26 04.03.2020
1730 Rain 6 1016 93 10000 2.6 150 05:55 04.03.2020
1731 -273 0 0 0 0 0 04:59 04.03.2020
1732 Clouds 5 1016 93 10000 3.1 170 04:58 04.03.2020
1733 Clouds 5 1016 93 10000 3.1 170 04:58 04.03.2020
1734 Clouds 5 1017 93 10000 3.1 180 03:49 04.03.2020
1735 Clouds 5 1017 93 10000 2.1 190 03:30 04.03.2020
1736 Clouds 5 1017 93 10000 4.1 190 02:58 04.03.2020
1737 Clouds 5 1017 93 10000 3.1 180 02:23 04.03.2020
1738 Clouds 5 1018 93 10000 1 140 01:56 04.03.2020
1739 Clouds 5 1018 93 10000 2.1 220 01:22 04.03.2020
1740 Clouds 5 1018 93 10000 1.5 190 00:36 04.03.2020
1741 Clouds 5 1018 93 10000 1.5 190 00:18 04.03.2020
1742 Clouds 5 1018 93 10000 1.5 210 23:40 03.03.2020
1743 Clouds 6 1017 87 10000 1 180 23:22 03.03.2020
1744 Clouds 7 1017 81 10000 1.5 0 22:41 03.03.2020
1745 Clouds 7 1017 87 10000 2.1 350 22:20 03.03.2020
1746 Clouds 7 1017 87 10000 2.6 300 21:59 03.03.2020
1747 Clouds 7 1017 87 10000 2.6 300 21:40 03.03.2020
1748 Clouds 7 1017 87 10000 2.6 300 21:40 03.03.2020
1749 Clouds 8 1016 87 10000 3.1 290 21:21 03.03.2020
1750 Clouds 8 1016 81 10000 3.6 320 20:56 03.03.2020
1751 Clouds 8 1015 81 10000 5.1 330 20:38 03.03.2020
1752 Clouds 8 1015 81 10000 5.1 330 20:18 03.03.2020
1753 Clouds 8 1014 81 10000 3.6 320 19:55 03.03.2020
1754 Clouds 8 1013 87 10000 5.1 320 19:36 03.03.2020
1755 Clouds 8 1013 87 10000 5.1 320 19:18 03.03.2020
1756 Clouds 8 1012 87 10000 5.1 330 18:55 03.03.2020
1757 Clouds 9 1011 81 10000 4.6 330 18:37 03.03.2020
1758 Clouds 9 1011 81 10000 4.6 330 18:18 03.03.2020
1759 Clouds 9 1010 87 10000 5.7 330 17:40 03.03.2020
1760 Clouds 9 1008 87 10000 6.2 340 17:21 03.03.2020
1761 Clouds 10 1006 87 10000 6.7 10 16:59 03.03.2020
1762 Clouds 10 1006 87 10000 6.7 10 16:38 03.03.2020
1763 Clouds 10 1006 87 10000 6.7 10 16:38 03.03.2020
1764 Clouds 10 1003 93 10000 5.7 20 16:20 03.03.2020
1765 Rain 10 1002 100 10000 10.8 20 15:57 03.03.2020
1766 Rain 10 1002 100 10000 10.8 20 15:39 03.03.2020
1767 Rain 10 1000 93 5000 7.7 20 15:19 03.03.2020
1768 Rain 10 999 93 3500 2.1 0 14:41 03.03.2020
1769 Rain 10 999 100 5000 3.6 170 14:20 03.03.2020
1770 Rain 9 1000 93 10000 5.1 170 13:57 03.03.2020
1771 Rain 9 1000 93 10000 5.1 170 13:39 03.03.2020
1772 Clouds 9 1001 87 10000 5.1 170 13:20 03.03.2020
1773 Clouds 9 1001 93 10000 6.2 180 12:47 03.03.2020
1774 Rain 8 1002 93 10000 5.7 190 12:26 03.03.2020
1775 Rain 8 1003 93 10000 5.7 200 11:57 03.03.2020
1776 Rain 8 1003 93 10000 5.7 200 11:37 03.03.2020
1777 Rain 8 1003 93 10000 5.7 200 11:37 03.03.2020
1778 Rain 8 1004 93 10000 6.7 200 11:18 03.03.2020
1779 Rain 8 1004 93 10000 4.1 170 10:56 03.03.2020
1780 Rain 8 1004 93 10000 4.1 170 10:37 03.03.2020
1781 Rain 7 1005 100 10000 3.1 180 10:18 03.03.2020
1782 Rain 7 1005 93 10000 4.1 170 09:44 03.03.2020
1783 Rain 7 1006 93 8000 4.1 160 09:22 03.03.2020
1784 Rain 7 1007 93 9000 4.1 160 08:56 03.03.2020
1785 Rain 7 1007 93 9000 4.1 160 08:37 03.03.2020
1786 Rain 7 1007 93 7000 3.6 170 08:19 03.03.2020
1787 Rain 7 1008 93 10000 4.1 190 07:42 03.03.2020
1788 Rain 6 1009 100 10000 3.6 200 07:19 03.03.2020
1789 Rain 6 1009 93 10000 4.1 190 06:41 03.03.2020
1790 Rain 6 1009 93 10000 4.1 190 06:22 03.03.2020
1791 Rain 6 1010 93 10000 3.6 190 05:47 03.03.2020
1792 Rain 6 1010 93 10000 2.6 190 04:58 03.03.2020
1793 Rain 6 1011 87 10000 2.1 200 03:52 03.03.2020
1794 Rain 6 1012 93 9000 5.1 270 01:40 03.03.2020
1795 Rain 6 1011 81 10000 4.1 240 00:48 03.03.2020
1796 Rain 6 1011 81 10000 3.6 270 00:26 03.03.2020
1797 Clouds 7 1011 81 10000 3.6 280 23:52 02.03.2020
1798 Rain 7 1011 87 10000 4.1 250 23:24 02.03.2020
1799 Clouds 6 1011 87 10000 2.6 270 22:58 02.03.2020
1800 Clouds 6 1011 87 10000 2.6 270 22:39 02.03.2020
1801 Rain 7 1010 81 10000 3.1 280 22:20 02.03.2020
1802 Rain 7 1010 87 10000 4.1 260 21:58 02.03.2020
1803 Rain 6 1010 87 10000 4.1 260 21:39 02.03.2020
1804 Rain 7 1010 81 10000 7.7 270 21:21 02.03.2020
1805 Rain 7 1009 93 10000 3.1 270 20:57 02.03.2020
1806 Rain 7 1009 93 10000 3.1 270 20:57 02.03.2020
1807 Rain 7 1009 87 10000 4.6 300 20:38 02.03.2020
1808 Rain 8 1009 87 10000 4.6 300 20:19 02.03.2020
1809 Rain 7 1008 81 10000 4.6 290 19:55 02.03.2020
1810 Rain 8 1008 81 10000 6.7 300 19:36 02.03.2020
1811 Rain 8 1008 81 10000 6.7 300 19:18 02.03.2020
1812 Rain 8 1006 81 10000 4.6 310 18:44 02.03.2020
1813 Rain 9 1006 70 10000 9.3 290 18:19 02.03.2020
1814 Rain 9 1005 70 10000 7.7 310 17:58 02.03.2020
1815 Rain 9 1005 70 10000 7.7 310 17:39 02.03.2020
1816 Rain 9 1004 66 10000 9.8 280 17:21 02.03.2020
1817 Clouds 10 1004 61 10000 9.3 300 16:54 02.03.2020
1818 Rain 10 1003 66 10000 8.7 300 16:36 02.03.2020
1819 Rain 10 1003 66 10000 8.7 300 16:18 02.03.2020
1820 Rain 10 1003 66 10000 8.7 300 16:18 02.03.2020
1821 Rain 10 1003 66 10000 9.3 300 15:42 02.03.2020
1822 Rain 11 1002 66 10000 13.4 290 15:19 02.03.2020
1823 Rain 10 1001 76 10000 7.7 290 14:40 02.03.2020
1824 Rain 10 1001 66 10000 11.8 300 14:20 02.03.2020
1825 Rain 10 1001 81 10000 7.2 300 13:58 02.03.2020
1826 Rain 10 1001 81 10000 7.2 300 13:38 02.03.2020
1827 Rain 9 1000 81 10000 13.4 310 13:18 02.03.2020
1828 Rain 11 999 76 10000 9.8 290 12:43 02.03.2020
1829 Rain 11 999 76 10000 11.8 310 12:19 02.03.2020
1830 Rain 11 997 71 10000 9.8 280 11:55 02.03.2020
1831 Rain 10 997 71 10000 9.8 280 11:36 02.03.2020
1832 Rain 10 997 71 10000 11.3 300 11:18 02.03.2020
1833 Rain 10 996 87 10000 7.2 280 10:42 02.03.2020
1834 Rain 9 996 87 10000 6.7 300 10:20 02.03.2020
1835 Rain 9 994 87 10000 5.1 270 09:56 02.03.2020
1836 Rain 9 994 87 10000 6.7 290 09:37 02.03.2020
1837 Rain 9 994 87 10000 6.7 290 09:18 02.03.2020
1838 Rain 9 992 87 7000 9.8 300 08:41 02.03.2020
1839 Rain 9 990 93 10000 10.3 300 08:19 02.03.2020
1840 Rain 10 990 87 10000 9.3 280 07:41 02.03.2020
1841 Rain 10 989 93 10000 7.2 260 06:57 02.03.2020
1842 Rain 10 989 93 10000 7.2 260 06:37 02.03.2020
1843 Rain 9 988 100 10000 3.6 170 05:52 02.03.2020
1844 Rain 9 989 100 10000 5.7 150 04:19 02.03.2020
1845 Rain 9 991 93 8000 5.1 150 03:19 02.03.2020
1846 Rain 9 994 93 10000 5.7 160 02:36 02.03.2020
1847 Rain 10 995 87 9000 5.1 160 01:42 02.03.2020
1848 Rain 10 996 87 10000 6.2 160 01:23 02.03.2020
1849 Rain 10 999 87 10000 6.2 170 00:23 02.03.2020
1850 Rain 10 1000 87 10000 6.2 180 23:56 01.03.2020
1851 Rain 10 1001 87 10000 5.7 180 23:38 01.03.2020
1852 Clouds 10 1001 87 10000 5.7 180 23:19 01.03.2020
1853 Clouds 10 1002 87 10000 4.6 190 22:42 01.03.2020
1854 Clouds 10 1002 81 10000 3.6 190 22:19 01.03.2020
1855 Clouds 10 1003 87 10000 4.1 180 21:44 01.03.2020
1856 Clouds 10 1003 81 10000 4.1 190 21:25 01.03.2020
1857 Clouds 10 1004 81 10000 3.6 190 20:59 01.03.2020
1858 Clouds 10 1004 81 10000 3.6 190 20:41 01.03.2020
1859 Clouds 10 1004 81 10000 3.1 190 20:22 01.03.2020
1860 Clouds 11 1004 76 10000 3.6 200 19:43 01.03.2020
1861 Clouds 11 1004 76 10000 4.1 240 19:24 01.03.2020
1862 Clouds 11 1005 76 10000 3.6 240 18:59 01.03.2020
1863 Clouds 11 1005 76 10000 3.6 240 18:40 01.03.2020
1864 Clouds 12 1005 71 10000 4.6 250 18:19 01.03.2020
1865 Clouds 12 1005 71 10000 5.7 260 17:57 01.03.2020
1866 Clouds 12 1005 71 10000 5.7 260 17:39 01.03.2020
1867 Clouds 12 1005 66 10000 6.7 270 17:20 01.03.2020
1868 Clouds 12 1005 58 10000 8.7 270 16:57 01.03.2020
1869 Clouds 13 1005 58 10000 8.7 270 16:38 01.03.2020
1870 Clouds 13 1005 62 10000 9.8 260 16:18 01.03.2020
1871 Clouds 13 1005 58 10000 8.7 270 15:56 01.03.2020
1872 Clouds 13 1004 58 10000 10.8 270 15:37 01.03.2020
1873 Clouds 13 1004 58 10000 10.8 270 15:19 01.03.2020
1874 Clouds 14 1004 58 10000 11.3 280 14:55 01.03.2020
1875 Clouds 13 1004 66 10000 12.9 270 14:37 01.03.2020
1876 Clouds 13 1004 66 10000 12.9 270 14:18 01.03.2020
1877 Rain 14 1004 62 10000 13.4 260 13:44 01.03.2020
1878 Rain 13 1003 66 10000 13.4 260 13:22 01.03.2020
1879 Rain 13 1003 66 10000 13.9 260 12:59 01.03.2020
1880 Rain 13 1003 66 10000 13.9 260 12:41 01.03.2020
1881 Rain 13 1002 76 10000 11.8 230 12:21 01.03.2020
1882 Rain 13 1002 76 10000 11.8 230 12:21 01.03.2020
1883 Rain 11 1002 81 10000 6.7 240 11:42 01.03.2020
1884 Rain 11 1003 81 10000 12.9 230 11:24 01.03.2020
1885 Rain 11 1003 76 10000 10.3 210 10:57 01.03.2020
1886 Rain 11 1002 76 10000 6.7 180 10:38 01.03.2020
1887 Rain 10 1002 76 10000 6.7 180 10:20 01.03.2020
1888 Clouds 10 1002 87 10000 6.2 170 09:55 01.03.2020
1889 Rain 9 1003 87 10000 5.7 180 09:37 01.03.2020
1890 Rain 9 1003 87 10000 5.7 180 09:18 01.03.2020
1891 Rain 9 1002 87 10000 5.7 180 08:41 01.03.2020
1892 Rain 9 1002 87 10000 6.2 170 08:20 01.03.2020
1893 Rain 9 1004 87 10000 4.6 190 07:42 01.03.2020
1894 Rain 9 1004 93 10000 5.1 180 07:24 01.03.2020
1895 Rain 9 1004 93 10000 5.1 180 07:24 01.03.2020
1896 Rain 9 1005 93 10000 4.1 180 06:54 01.03.2020
1897 Clouds 9 1005 87 10000 3.6 210 06:36 01.03.2020
1898 Rain 9 1006 93 10000 3.1 180 04:26 01.03.2020
1899 Clouds 10 1008 87 10000 3.1 170 02:54 01.03.2020
1900 Rain 10 1008 87 10000 4.1 220 01:53 01.03.2020
1901 Clouds 10 1008 87 10000 4.6 210 01:28 01.03.2020
1902 Rain 10 1008 81 10000 4.6 220 00:43 01.03.2020
1903 Clouds 10 1008 81 10000 4.1 220 00:21 01.03.2020
1904 Clouds 10 1009 81 10000 5.7 250 23:51 29.02.2020
1905 Clouds 10 1009 81 10000 5.1 250 23:33 29.02.2020
1906 Rain 10 1009 76 10000 6.7 240 22:44 29.02.2020
1907 Clouds 10 1009 81 10000 3.6 200 22:25 29.02.2020
1908 Clouds 10 1009 81 10000 3.6 190 21:44 29.02.2020
1909 Clouds 10 1009 76 10000 3.6 220 21:26 29.02.2020
1910 Clouds 10 1009 76 10000 3.6 230 20:45 29.02.2020
1911 Clouds 10 1009 81 10000 3.1 250 20:22 29.02.2020
1912 Clouds 11 1008 76 10000 4.1 240 19:58 29.02.2020
1913 Clouds 11 1008 76 10000 4.1 240 19:39 29.02.2020
1914 Clouds 11 1008 76 10000 4.1 220 19:21 29.02.2020
1915 Clouds 11 1008 76 10000 5.7 250 18:44 29.02.2020
1916 Clouds 11 1007 81 10000 5.1 260 18:25 29.02.2020
1917 Clouds 11 1007 81 10000 4.6 250 17:58 29.02.2020
1918 Clouds 11 1007 81 10000 4.6 250 17:40 29.02.2020
1919 Clouds 12 1007 66 10000 6.2 270 17:21 29.02.2020
1920 Clouds 13 1006 66 10000 7.7 260 16:57 29.02.2020
1921 Clouds 13 1006 66 10000 7.7 260 16:39 29.02.2020
1922 Clouds 13 1006 66 10000 8.7 260 16:18 29.02.2020
1923 Clouds 14 1006 62 10000 7.2 270 15:41 29.02.2020
1924 Clouds 14 1005 62 10000 10.3 270 15:23 29.02.2020
1925 Clouds 14 1005 62 10000 9.3 270 14:55 29.02.2020
1926 Clouds 14 1005 58 10000 11.8 260 14:37 29.02.2020
1927 Clouds 14 1005 58 10000 11.8 260 14:19 29.02.2020
1928 Clouds 13 1005 67 10000 9.3 260 13:42 29.02.2020
1929 Clouds 14 1005 62 10000 10.3 260 13:23 29.02.2020
1930 Clouds 13 1005 71 10000 8.2 250 12:43 29.02.2020
1931 Clouds 13 1005 76 10000 8.2 250 12:23 29.02.2020
1932 Clouds 13 1004 82 10000 8.7 230 11:58 29.02.2020
1933 Clouds 13 1004 82 10000 8.7 230 11:39 29.02.2020
1934 Rain 12 1004 81 10000 7.7 230 11:21 29.02.2020
1935 Rain 12 1004 81 10000 7.7 230 10:47 29.02.2020
1936 Rain 12 1004 81 9000 10.3 250 10:28 29.02.2020
1937 Clouds 13 1003 71 10000 8.2 250 09:50 29.02.2020
1938 Rain 12 1002 66 10000 3.1 230 09:27 29.02.2020
1939 Rain 12 1002 66 10000 3.1 230 09:27 29.02.2020
1940 Rain 12 1001 62 10000 3.6 180 08:55 29.02.2020
1941 Rain 12 1001 62 10000 2.6 210 08:37 29.02.2020
1942 Clouds 12 1001 62 10000 2.6 210 08:19 29.02.2020
1943 Clouds 12 1001 62 10000 4.1 190 07:41 29.02.2020
1944 Clouds 12 1001 66 10000 4.6 200 07:19 29.02.2020
1945 Clouds 12 1001 66 10000 5.1 170 06:50 29.02.2020
1946 Clouds 11 1002 71 10000 5.1 180 06:25 29.02.2020
1947 Clouds 11 1002 76 10000 5.7 170 05:48 29.02.2020
1948 Clouds 10 1003 76 10000 6.2 160 04:50 29.02.2020
1949 Clouds 10 1004 81 10000 6.2 150 03:43 29.02.2020
1950 Clouds 10 1005 81 10000 6.2 150 03:22 29.02.2020
1951 Clouds 10 1006 81 10000 6.7 150 02:39 29.02.2020
1952 Clouds 10 1008 87 10000 5.1 140 01:26 29.02.2020
1953 Clouds 10 1009 87 10000 4.6 140 00:37 29.02.2020
1954 Clouds 10 1010 87 10000 5.1 140 23:56 28.02.2020
1955 Clouds 10 1010 87 10000 5.1 140 23:36 28.02.2020
1956 Clouds 10 1011 81 10000 5.1 140 23:18 28.02.2020
1957 Clouds 10 1012 87 10000 4.6 140 22:41 28.02.2020
1958 Clouds 10 1012 87 10000 2.6 140 22:19 28.02.2020
1959 Clouds 10 1013 87 10000 3.1 130 21:41 28.02.2020
1960 Clouds 11 1013 87 10000 3.1 130 21:21 28.02.2020
1961 Clouds 11 1014 87 10000 2.6 130 20:54 28.02.2020
1962 Clouds 11 1014 87 10000 2.6 130 20:36 28.02.2020
1963 Clouds 11 1014 87 10000 2.6 130 20:18 28.02.2020
1964 Clouds 11 1015 87 10000 2.1 140 19:55 28.02.2020
1965 Clouds 12 1015 81 10000 1.5 160 19:37 28.02.2020
1966 Clouds 12 1015 81 10000 1.5 160 19:18 28.02.2020
1967 Clouds 12 1015 76 10000 1.5 170 18:43 28.02.2020
1968 Clouds 13 1015 76 10000 2.1 190 18:22 28.02.2020
1969 Clouds 13 1016 76 10000 2.1 200 17:41 28.02.2020
1970 Clouds 14 1016 71 10000 3.6 220 17:23 28.02.2020
1971 Clouds 14 1017 76 10000 5.1 220 16:55 28.02.2020
1972 Clouds 14 1017 76 10000 4.1 230 16:36 28.02.2020
1973 Clouds 14 1017 76 10000 4.1 230 16:18 28.02.2020
1974 Clouds 14 1018 76 10000 4.6 230 15:42 28.02.2020
1975 Clouds 14 1018 76 10000 6.2 250 15:20 28.02.2020
1976 Clouds 14 1018 76 10000 7.2 240 14:58 28.02.2020
1977 Clouds 14 1018 76 10000 7.2 240 14:39 28.02.2020
1978 Clouds 14 1018 76 10000 6.2 240 14:19 28.02.2020
1979 Clouds 14 1019 76 10000 6.7 250 13:57 28.02.2020
1980 Clouds 14 1019 76 10000 6.7 250 13:39 28.02.2020
1981 Clouds 14 1019 82 10000 6.2 240 13:19 28.02.2020
1982 Clouds 14 1019 82 10000 6.2 240 12:41 28.02.2020
1983 Clouds 13 1019 87 10000 6.2 240 12:22 28.02.2020
1984 Clouds 13 1019 93 10000 4.6 230 11:43 28.02.2020
1985 Clouds 12 1020 100 10000 3.1 210 11:24 28.02.2020
1986 Clouds 11 1020 100 10000 2.6 190 10:59 28.02.2020
1987 Clouds 11 1020 100 10000 2.6 190 10:39 28.02.2020
1988 Clouds 11 1020 93 10000 3.1 190 10:39 28.02.2020
1989 Clouds 10 1020 93 10000 3.1 190 10:20 28.02.2020
1990 Drizzle 9 1020 100 2900 2.6 190 09:45 28.02.2020
1991 Clouds 8 1020 100 10000 3.6 180 09:21 28.02.2020
1992 Rain 8 1020 93 2000 3.6 170 08:56 28.02.2020
1993 Drizzle 9 1020 93 3000 3.6 160 08:37 28.02.2020
1994 Drizzle 8 1020 93 3000 3.6 160 08:18 28.02.2020
1995 Drizzle 9 1020 93 3900 3.6 160 07:40 28.02.2020
1996 Mist 8 1020 93 5000 3.1 160 07:20 28.02.2020
1997 Clouds 8 1020 100 10000 3.1 160 06:44 28.02.2020
1998 Clouds 8 1020 100 10000 2.6 180 05:51 28.02.2020
1999 Clouds 8 1020 93 10000 1.5 190 04:34 28.02.2020
2000 Clouds 7 1020 100 10000 2.6 190 03:48 28.02.2020
2001 Clouds 7 1021 100 10000 1.5 130 02:46 28.02.2020
2002 Clouds 7 1021 100 10000 0.5 120 02:25 28.02.2020
2003 Clouds 6 1021 93 10000 1.5 220 00:46 28.02.2020
2004 Clouds 7 1021 93 10000 2.1 240 00:25 28.02.2020
2005 Clouds 6 1021 100 10000 1.5 230 23:42 27.02.2020
2006 Clouds 7 1021 93 10000 1.5 230 23:19 27.02.2020
2007 Clouds 7 1020 93 10000 1 260 22:43 27.02.2020
2008 Clouds 8 1020 93 10000 1.5 260 22:24 27.02.2020
2009 Clouds 8 1020 87 10000 3.1 280 21:56 27.02.2020
2010 Clouds 9 1020 87 10000 3.1 280 21:38 27.02.2020
2011 Clouds 9 1020 87 10000 3.1 290 21:18 27.02.2020
2012 Clouds 10 1019 81 10000 2.6 290 20:56 27.02.2020
2013 Clouds 10 1019 81 10000 2.6 290 20:37 27.02.2020
2014 Clouds 10 1019 87 10000 2.6 290 20:37 27.02.2020
2015 Clouds 10 1019 87 10000 2.6 290 20:19 27.02.2020
2016 Clouds 10 1018 87 10000 4.1 290 19:42 27.02.2020
2017 Clouds 10 1017 87 10000 4.1 300 19:23 27.02.2020
2018 Clouds 11 1017 81 10000 6.7 300 18:58 27.02.2020
2019 Clouds 11 1017 81 10000 6.7 300 18:40 27.02.2020
2020 Rain 12 1016 81 10000 4.6 310 18:20 27.02.2020
2021 Clouds 12 1015 81 10000 6.7 310 17:56 27.02.2020
2022 Rain 13 1015 87 10000 7.7 320 17:38 27.02.2020
2023 Rain 13 1015 87 10000 7.7 320 17:19 27.02.2020
2024 Rain 13 1014 93 10000 7.7 300 16:54 27.02.2020
2025 Rain 14 1013 82 10000 10.8 280 16:36 27.02.2020
2026 Rain 14 1013 82 10000 10.8 280 16:18 27.02.2020
2027 Clouds 14 1012 82 10000 11.3 280 15:40 27.02.2020
2028 Rain 13 1012 93 10000 9.3 280 15:21 27.02.2020
2029 Rain 13 1012 93 10000 9.3 280 15:21 27.02.2020
2030 Clouds 14 1011 87 10000 10.8 280 14:59 27.02.2020
2031 Clouds 14 1011 87 10000 10.8 280 14:39 27.02.2020
2032 Rain 13 1011 93 10000 10.3 280 14:21 27.02.2020
2033 Rain 13 1011 93 10000 10.8 270 13:55 27.02.2020
2034 Clouds 13 1011 93 10000 10.8 270 13:37 27.02.2020
2035 Clouds 13 1011 93 10000 10.8 270 13:19 27.02.2020
2036 Rain 13 1011 93 3900 10.3 270 12:43 27.02.2020
2037 Rain 13 1010 93 3000 10.8 260 12:19 27.02.2020
2038 Rain 12 1010 100 2900 11.3 270 11:46 27.02.2020
2039 Rain 12 1010 93 2500 10.8 260 11:23 27.02.2020
2040 Drizzle 12 1010 93 4500 11.3 260 10:56 27.02.2020
2041 Rain 12 1009 93 2900 11.8 270 10:37 27.02.2020
2042 Rain 12 1009 93 2900 11.8 270 10:18 27.02.2020
2043 Rain 12 1009 93 4300 11.3 270 09:41 27.02.2020
2044 Rain 11 1009 93 5000 12.3 260 09:22 27.02.2020
2045 Rain 11 1009 93 2800 9.3 260 08:44 27.02.2020
2046 Rain 10 1009 93 3500 6.2 220 08:25 27.02.2020
2047 Rain 10 1009 100 4100 7.2 210 07:48 27.02.2020
2048 Rain 9 1009 100 5000 7.2 210 07:28 27.02.2020
2049 Rain 9 1009 100 5000 5.7 210 06:59 27.02.2020
2050 Rain 9 1010 100 6000 6.7 210 06:20 27.02.2020
2051 Rain 8 1012 100 10000 5.1 180 04:22 27.02.2020
2052 Rain 8 1015 93 9000 4.1 180 02:54 27.02.2020
2053 Clouds 8 1017 100 10000 3.6 180 00:47 27.02.2020
2054 Clouds 8 1018 100 10000 2.1 180 00:29 27.02.2020
2055 Clouds 8 1018 93 10000 2.1 190 23:41 26.02.2020
2056 Rain 8 1019 93 10000 1.5 0 23:20 26.02.2020
2057 Rain 8 1019 87 10000 2.6 210 22:59 26.02.2020
2058 Rain 8 1019 87 10000 2.6 210 22:40 26.02.2020
2059 Rain 7 1019 93 10000 2.6 200 22:21 26.02.2020
2060 Rain 8 1019 87 10000 2.6 200 21:57 26.02.2020
2061 Rain 8 1019 87 10000 2.6 200 21:38 26.02.2020
2062 Rain 8 1019 87 10000 2.6 200 21:19 26.02.2020
2063 Rain 8 1019 87 10000 2.1 210 20:55 26.02.2020
2064 Clouds 8 1020 87 10000 1.5 230 20:37 26.02.2020
2065 Clouds 8 1020 87 10000 1.5 230 20:18 26.02.2020
2066 Rain 8 1020 87 10000 2.6 260 19:47 26.02.2020
2067 Rain 8 1019 87 10000 2.6 260 19:21 26.02.2020
2068 Rain 8 1019 76 10000 3.6 260 18:59 26.02.2020
2069 Rain 9 1019 76 10000 3.6 260 18:41 26.02.2020
2070 Rain 8 1019 76 10000 4.6 270 18:22 26.02.2020
2071 Clouds 9 1019 76 10000 5.7 280 17:58 26.02.2020
2072 Clouds 9 1019 76 10000 5.7 280 17:39 26.02.2020
2073 Rain 9 1019 81 10000 5.1 290 17:18 26.02.2020
2074 Rain 9 1019 81 10000 4.6 310 16:43 26.02.2020
2075 Rain 9 1019 71 10000 7.2 290 16:22 26.02.2020
2076 Rain 9 1019 76 10000 5.7 300 15:56 26.02.2020
2077 Rain 10 1019 76 10000 5.7 300 15:38 26.02.2020
2078 Rain 10 1019 76 10000 6.7 300 15:19 26.02.2020
2079 Rain 10 1019 71 10000 6.2 300 14:42 26.02.2020
2080 Rain 10 1019 76 10000 5.1 310 14:22 26.02.2020
2081 Rain 10 1019 76 10000 6.2 330 13:43 26.02.2020
2082 Rain 10 1019 71 10000 6.7 330 13:22 26.02.2020
2083 Rain 9 1019 81 10000 6.7 330 12:42 26.02.2020
2084 Rain 10 1019 71 10000 5.7 300 12:23 26.02.2020
2085 Rain 9 1019 87 9000 8.7 300 11:59 26.02.2020
2086 Rain 9 1019 76 10000 5.1 310 11:41 26.02.2020
2087 Rain 9 1019 76 10000 5.1 310 11:22 26.02.2020
2088 Rain 9 1019 76 10000 5.1 310 11:22 26.02.2020
2089 Rain 8 1018 81 10000 6.7 290 10:56 26.02.2020
2090 Rain 9 1018 76 10000 6.2 290 10:38 26.02.2020
2091 Rain 9 1018 76 10000 6.2 290 10:20 26.02.2020
2092 Rain 9 1018 76 10000 6.2 290 10:20 26.02.2020
2093 Rain 8 1018 75 10000 6.7 300 09:41 26.02.2020
2094 Clouds 8 1017 81 10000 5.1 310 09:21 26.02.2020
2095 Clouds 8 1017 81 10000 5.1 310 09:21 26.02.2020
2096 Clouds 8 1017 81 10000 5.1 310 09:21 26.02.2020
2097 Rain 7 1017 81 10000 5.7 310 08:54 26.02.2020
2098 Rain 7 1017 81 10000 5.7 310 08:54 26.02.2020
2099 Rain 7 1016 87 10000 4.1 300 08:36 26.02.2020
2100 Rain 7 1016 87 10000 4.1 300 08:18 26.02.2020
2101 Rain 8 1016 81 10000 5.7 300 07:41 26.02.2020
2102 -273 0 0 0 0 0 07:21 26.02.2020
2103 Rain 8 1015 81 10000 7.2 300 06:46 26.02.2020
2104 Rain 8 1015 81 10000 8.2 290 06:23 26.02.2020
2105 Rain 8 1015 81 10000 6.7 280 05:48 26.02.2020
2106 Rain 8 1015 76 10000 7.2 280 05:18 26.02.2020
2107 Rain 8 1015 87 10000 7.7 270 03:27 26.02.2020
2108 Rain 8 1016 87 10000 5.1 260 01:59 26.02.2020
2109 Rain 8 1016 93 5000 5.1 280 01:26 26.02.2020
2110 Rain 8 1016 93 10000 5.1 260 00:44 26.02.2020
2111 Rain 9 1016 81 10000 5.7 260 00:20 26.02.2020
2112 Rain 9 1016 81 10000 6.7 270 23:42 25.02.2020
2113 Rain 9 1016 81 10000 6.2 280 23:24 25.02.2020
2114 Clouds 9 1016 87 10000 5.1 260 22:56 25.02.2020
2115 Rain 9 1016 87 10000 5.1 270 22:37 25.02.2020
2116 Rain 9 1016 87 10000 5.1 270 22:18 25.02.2020
2117 Rain 9 1016 87 8000 6.2 260 21:38 25.02.2020
2118 Clouds 9 1016 87 10000 4.6 250 21:20 25.02.2020
2119 Rain 9 1016 87 10000 5.1 240 20:57 25.02.2020
2120 Rain 9 1016 87 10000 5.1 240 20:39 25.02.2020
2121 Rain 9 1016 87 10000 5.7 270 20:19 25.02.2020
2122 Rain 10 1016 81 10000 8.2 270 19:54 25.02.2020
2123 Clouds 10 1015 76 10000 5.7 260 19:36 25.02.2020
2124 Clouds 10 1015 76 10000 5.7 260 19:18 25.02.2020
2125 Clouds 10 1015 81 10000 5.7 270 18:40 25.02.2020
2126 Clouds 11 1015 76 10000 7.2 270 18:21 25.02.2020
2127 Clouds 12 1015 66 10000 7.2 290 17:56 25.02.2020
2128 Clouds 13 1015 66 10000 7.7 280 17:37 25.02.2020
2129 Clouds 13 1015 66 10000 7.7 280 17:18 25.02.2020
2130 Clouds 12 1015 66 10000 9.3 290 16:56 25.02.2020
2131 Clouds 12 1015 66 10000 9.3 290 16:37 25.02.2020
2132 Clouds 13 1015 71 10000 7.7 290 16:19 25.02.2020
2133 Clouds 13 1015 76 10000 7.7 280 15:45 25.02.2020
2134 Clouds 13 1015 87 10000 6.7 290 15:20 25.02.2020
2135 Clouds 13 1015 87 10000 6.7 290 15:20 25.02.2020
2136 Rain 13 1015 87 10000 8.2 290 14:59 25.02.2020
2137 Rain 13 1015 87 10000 8.2 290 14:39 25.02.2020
2138 Rain 13 1015 93 10000 7.2 290 14:18 25.02.2020
2139 Rain 13 1015 93 5000 6.7 300 13:58 25.02.2020
2140 Rain 13 1015 93 5000 6.7 300 13:40 25.02.2020
2141 Rain 14 1015 82 10000 6.7 260 13:20 25.02.2020
2142 Rain 14 1016 82 10000 5.7 270 12:56 25.02.2020
2143 Rain 14 1016 82 10000 5.7 270 12:37 25.02.2020
2144 Rain 13 1016 82 10000 5.7 270 12:19 25.02.2020
2145 Clouds 13 1016 82 10000 6.7 270 11:55 25.02.2020
2146 Rain 13 1016 87 10000 6.2 280 11:37 25.02.2020
2147 Rain 13 1016 87 10000 6.2 280 11:18 25.02.2020
2148 Rain 12 1016 93 10000 6.7 280 10:41 25.02.2020
2149 Rain 12 1016 100 5000 6.2 280 10:23 25.02.2020
2150 Rain 12 1016 100 3400 6.7 260 09:42 25.02.2020
2151 Rain 11 1016 93 5000 6.7 250 09:23 25.02.2020
2152 Rain 11 1016 93 10000 6.7 250 08:58 25.02.2020
2153 Rain 11 1016 93 10000 6.7 250 08:39 25.02.2020
2154 Drizzle 11 1016 93 7000 6.2 250 08:21 25.02.2020
2155 Rain 11 1017 100 7000 6.7 250 07:48 25.02.2020
2156 Rain 11 1017 100 10000 6.2 240 07:21 25.02.2020
2157 Rain 11 1017 93 6000 5.1 250 06:51 25.02.2020
2158 Rain 11 1017 93 6000 5.1 250 06:51 25.02.2020
2159 Drizzle 11 1017 93 6000 6.2 250 05:41 25.02.2020
2160 Clouds 11 1018 81 10000 4.6 230 03:54 25.02.2020
2161 Clouds 10 1019 81 10000 3.6 220 02:32 25.02.2020
2162 Clouds 10 1021 81 10000 3.1 220 00:57 25.02.2020
2163 Clouds 10 1021 81 10000 3.6 230 00:30 25.02.2020
2164 Clouds 10 1021 81 10000 3.6 230 23:46 24.02.2020
2165 Clouds 10 1021 81 10000 3.1 220 23:28 24.02.2020
2166 Clouds 10 1021 76 10000 4.1 220 22:43 24.02.2020
2167 Clouds 10 1022 81 10000 3.1 240 22:21 24.02.2020
2168 Clouds 10 1022 81 10000 3.6 260 21:58 24.02.2020
2169 Clouds 10 1022 81 10000 3.6 260 21:39 24.02.2020
2170 Clouds 10 1022 81 10000 3.1 260 21:20 24.02.2020
2171 Clouds 10 1022 81 10000 3.1 270 20:59 24.02.2020
2172 Clouds 10 1022 81 10000 3.1 270 20:59 24.02.2020
2173 Clouds 10 1022 81 10000 3.1 270 20:41 24.02.2020
2174 Clouds 10 1022 81 10000 2.6 260 20:19 24.02.2020
2175 Clouds 10 1023 81 10000 3.1 270 19:58 24.02.2020
2176 Clouds 10 1023 81 10000 3.1 270 19:40 24.02.2020
2177 Clouds 10 1023 81 10000 4.1 270 19:21 24.02.2020
2178 Clouds 10 1022 81 10000 4.1 270 18:55 24.02.2020
2179 Clouds 10 1023 76 10000 6.2 270 18:37 24.02.2020
2180 Clouds 11 1023 76 10000 6.2 270 18:18 24.02.2020
2181 Clear 12 1022 66 10000 5.1 260 17:40 24.02.2020
2182 Clear 13 1022 62 10000 5.1 270 17:20 24.02.2020
2183 Clear 13 1022 62 10000 5.1 270 17:20 24.02.2020
2184 Clear 14 1022 62 10000 4.1 250 16:58 24.02.2020
2185 Clear 14 1022 62 10000 4.1 250 16:39 24.02.2020
2186 Clear 14 1023 62 10000 3.6 240 16:20 24.02.2020
2187 Clear 14 1023 62 10000 3.6 240 16:20 24.02.2020
2188 Clear 14 1023 66 10000 2.1 240 15:58 24.02.2020
2189 Clear 14 1024 66 10000 2.1 210 15:39 24.02.2020
2190 Clear 13 1024 66 10000 2.1 210 15:21 24.02.2020
2191 Clear 13 1024 71 10000 2.6 180 14:58 24.02.2020
2192 Clouds 12 1025 71 10000 2.1 210 14:39 24.02.2020
2193 Clouds 12 1025 71 10000 2.1 210 14:18 24.02.2020
2194 Clouds 12 1026 71 10000 3.1 190 13:56 24.02.2020
2195 Clouds 11 1026 76 10000 2.6 170 13:36 24.02.2020
2196 Clouds 10 1026 76 10000 2.6 170 13:18 24.02.2020
2197 Clouds 9 1027 76 10000 1.5 120 12:42 24.02.2020
2198 Clouds 9 1027 76 10000 1.5 120 12:42 24.02.2020
2199 Clouds 9 1027 81 10000 2.6 170 12:24 24.02.2020
2200 Clouds 8 1027 81 10000 2.1 220 11:56 24.02.2020
2201 Clouds 8 1027 81 10000 2.1 220 11:38 24.02.2020
2202 Clouds 8 1028 87 10000 2.1 170 11:19 24.02.2020
2203 Clouds 8 1028 87 10000 3.1 210 10:41 24.02.2020
2204 Clouds 7 1028 87 10000 2.6 140 10:22 24.02.2020
2205 Clouds 7 1028 87 10000 2.1 130 09:40 24.02.2020
2206 Clouds 7 1028 87 10000 2.6 140 09:19 24.02.2020
2207 Clouds 7 1028 87 10000 2.1 150 08:53 24.02.2020
2208 Clouds 7 1028 87 10000 2.1 170 08:30 24.02.2020
2209 Clouds 8 1028 87 10000 1.5 180 07:56 24.02.2020
2210 Clouds 8 1029 87 10000 0.5 0 07:36 24.02.2020
2211 Clouds 8 1029 87 10000 1.62 135 06:55 24.02.2020
2212 Clouds 8 1029 87 10000 1.5 0 06:28 24.02.2020
2213 Clouds 8 1029 87 10000 1.62 135 05:46 24.02.2020
2214 Clouds 8 1029 87 10000 1.62 135 05:46 24.02.2020
2215 Clouds 8 1029 87 10000 1.5 0 05:25 24.02.2020
2216 Clouds 7 1031 93 10000 0.5 0 02:58 24.02.2020
2217 Clouds 7 1031 100 10000 1 0 02:31 24.02.2020
2218 Clouds 6 1032 100 9000 1.5 0 01:31 24.02.2020
2219 Fog 6 1032 93 4000 1 230 00:47 24.02.2020
2220 Fog 6 1032 93 1700 1.5 230 00:21 24.02.2020
2221 Clouds 6 1032 100 6000 1.5 220 23:55 23.02.2020
2222 Fog 6 1033 93 1100 1.5 250 23:36 23.02.2020
2223 Fog 6 1033 93 1100 1.5 250 23:18 23.02.2020
2224 Fog 6 1033 93 5000 1.5 0 22:42 23.02.2020
2225 Mist 7 1033 93 5000 1 270 22:22 23.02.2020
2226 Fog 8 1033 93 3300 1.5 260 21:55 23.02.2020
2227 Clear 8 1033 87 10000 1.5 250 21:36 23.02.2020
2228 Clear 8 1033 87 10000 1.5 250 21:18 23.02.2020
2229 Clear 9 1033 93 10000 1.5 280 20:55 23.02.2020
2230 Clear 9 1033 87 10000 2.1 260 20:36 23.02.2020
2231 Clear 9 1033 87 10000 2.1 260 20:18 23.02.2020
2232 Clear 10 1033 81 10000 2.1 270 19:41 23.02.2020
2233 Clear 11 1032 76 10000 3.1 270 19:20 23.02.2020
2234 Clear 12 1032 76 10000 2.6 240 18:59 23.02.2020
2235 Clear 12 1032 76 10000 2.6 240 18:40 23.02.2020
2236 Clear 14 1032 62 10000 3.1 270 18:20 23.02.2020
2237 Clear 14 1032 62 10000 3.1 250 17:58 23.02.2020
2238 Clear 14 1032 62 10000 3.1 250 17:39 23.02.2020
2239 Clear 15 1032 59 10000 3.1 250 17:21 23.02.2020
2240 Clear 15 1032 59 10000 3.1 250 17:21 23.02.2020
2241 Clear 16 1032 63 10000 2.6 260 16:56 23.02.2020
2242 Clear 15 1032 59 10000 2.6 270 16:36 23.02.2020
2243 Clear 16 1032 59 10000 2.6 270 16:18 23.02.2020
2244 Clear 16 1032 59 10000 3.1 260 15:40 23.02.2020
2245 Clear 16 1032 59 10000 3.1 270 15:22 23.02.2020
2246 Clear 16 1033 63 10000 3.1 270 14:59 23.02.2020
2247 Clear 15 1033 63 10000 3.1 270 14:41 23.02.2020
2248 Clouds 14 1033 62 10000 3.1 240 14:23 23.02.2020
2249 Clouds 14 1033 67 10000 3.1 230 13:58 23.02.2020
2250 Clouds 14 1033 67 10000 3.1 230 13:39 23.02.2020
2251 Clouds 13 1034 71 10000 3.6 210 13:21 23.02.2020
2252 Clouds 13 1034 71 10000 2.6 230 12:44 23.02.2020
2253 Clouds 12 1034 81 10000 3.1 230 12:23 23.02.2020
2254 Clouds 11 1034 81 10000 4.1 230 11:59 23.02.2020
2255 Clouds 11 1034 87 10000 2.6 210 11:38 23.02.2020
2256 Clouds 10 1034 87 10000 2.6 210 11:19 23.02.2020
2257 Clouds 10 1034 87 10000 3.1 180 10:56 23.02.2020
2258 Clouds 10 1034 87 10000 3.1 180 10:56 23.02.2020
2259 Clouds 10 1034 87 10000 3.1 180 10:37 23.02.2020
2260 Clouds 9 1034 87 10000 2.1 150 10:19 23.02.2020
2261 Clouds 8 1034 93 10000 2.1 130 09:40 23.02.2020
2262 Clouds 8 1034 93 10000 2.1 140 09:21 23.02.2020
2263 Clouds 7 1033 100 10000 2.1 160 08:57 23.02.2020
2264 Clouds 7 1033 100 10000 2.1 160 08:39 23.02.2020
2265 Clouds 6 1033 100 10000 2.6 180 08:19 23.02.2020
2266 Clouds 7 1033 100 10000 2.1 180 07:40 23.02.2020
2267 Clouds 6 1033 100 10000 1.5 160 06:52 23.02.2020
2268 Clouds 5 1033 100 10000 1.5 170 05:50 23.02.2020
2269 Mist 4 1033 93 5000 1.5 240 04:44 23.02.2020
2270 Fog 4 1033 93 9000 1 180 03:25 23.02.2020
2271 Clouds 4 1034 93 9000 1 180 02:27 23.02.2020
2272 Clouds 5 1034 100 9000 1 180 01:25 23.02.2020
2273 Clouds 5 1035 93 10000 0.5 0 00:48 23.02.2020
2274 Clouds 6 1035 93 10000 1.5 200 00:26 23.02.2020
2275 Fog 6 1035 93 8000 1 260 23:47 22.02.2020
2276 Fog 7 1035 93 4700 0.5 0 23:29 22.02.2020
2277 Fog 7 1035 93 10000 0.34 303 22:59 22.02.2020
2278 Fog 7 1035 93 10000 0.34 303 22:39 22.02.2020
2279 Clouds 8 1035 87 10000 0.34 303 22:18 22.02.2020
2280 Clouds 8 1035 87 10000 0.5 0 21:41 22.02.2020
2281 Clouds 9 1035 81 10000 1 0 21:23 22.02.2020
2282 Clouds 9 1035 81 10000 1 0 20:46 22.02.2020
2283 Clouds 10 1035 76 10000 2.1 330 20:24 22.02.2020
2284 Clear 11 1034 71 10000 3.6 320 19:56 22.02.2020
2285 Clear 11 1034 71 10000 3.6 320 19:37 22.02.2020
2286 Clear 11 1034 71 10000 4.1 310 19:18 22.02.2020
2287 Clear 12 1033 66 10000 3.1 250 18:39 22.02.2020
2288 Clear 12 1033 66 10000 3.1 250 18:39 22.02.2020
2289 Clear 14 1033 62 10000 3.6 240 18:21 22.02.2020
2290 Clear 15 1033 59 10000 3.1 250 17:57 22.02.2020
2291 Clear 15 1033 59 10000 3.1 250 17:39 22.02.2020
2292 Clear 16 1033 59 10000 3.1 260 17:21 22.02.2020
2293 Clear 16 1032 59 10000 3.6 220 16:57 22.02.2020
2294 Clear 16 1032 59 10000 3.6 240 16:38 22.02.2020
2295 Clear 16 1032 59 10000 3.6 240 16:19 22.02.2020
2296 Clear 16 1033 59 10000 2.1 300 15:43 22.02.2020
2297 Clear 16 1033 59 10000 3.6 300 15:24 22.02.2020
2298 Clear 16 1033 59 10000 2.6 240 14:43 22.02.2020
2299 Clouds 16 1033 59 10000 2.1 0 14:23 22.02.2020
2300 Clouds 15 1034 58 10000 3.6 300 13:58 22.02.2020
2301 Clouds 15 1034 58 10000 3.6 300 13:40 22.02.2020
2302 Clouds 15 1034 62 10000 3.1 310 13:18 22.02.2020
2303 Clouds 14 1034 62 10000 3.1 270 12:42 22.02.2020
2304 -273 0 0 0 0 0 12:23 22.02.2020
2305 Clouds 13 1034 71 10000 3.1 230 11:47 22.02.2020
2306 Clouds 11 1034 76 10000 1.5 240 11:28 22.02.2020
2307 Clouds 9 1034 76 10000 1.5 250 10:57 22.02.2020
2308 Clouds 9 1034 76 10000 1.5 250 10:39 22.02.2020
2309 Clouds 8 1033 81 10000 1.5 170 10:19 22.02.2020
2310 Clouds 8 1033 81 10000 1.5 170 10:19 22.02.2020
2311 Clouds 6 1033 87 10000 1 0 09:57 22.02.2020
2312 Clouds 6 1033 87 10000 1 0 09:57 22.02.2020
2313 Clouds 5 1033 87 10000 1 0 09:38 22.02.2020
2314 Clouds 4 1033 86 10000 1.5 140 09:20 22.02.2020
2315 Clouds 2 1033 93 10000 0.5 140 08:46 22.02.2020
2316 Clouds 1 1032 100 10000 0.5 110 08:27 22.02.2020
2317 Clouds 2 1032 100 10000 0.5 110 08:27 22.02.2020
2318 Clouds 1 1032 93 10000 1.5 130 07:48 22.02.2020
2319 Clouds 2 1031 93 10000 1 0 07:19 22.02.2020
2320 Clouds 2 1031 93 10000 0.22 94 06:47 22.02.2020
2321 Clouds 2 1031 93 10000 1 120 06:27 22.02.2020
2322 Clouds 3 1031 93 10000 1 10 04:32 22.02.2020
2323 Clouds 3 1031 93 10000 1.49 143 03:21 22.02.2020
2324 Clouds 4 1031 93 10000 1.49 143 02:28 22.02.2020
2325 Clouds 4 1032 86 10000 1 30 01:41 22.02.2020
2326 Clouds 4 1032 93 10000 0.5 0 01:23 22.02.2020
2327 Clouds 4 1032 93 10000 1.4 105 00:41 22.02.2020
2328 Clouds 5 1032 86 10000 1.4 105 00:21 22.02.2020
2329 Clouds 6 1032 81 10000 1.5 20 23:42 21.02.2020
2330 Clouds 6 1032 75 10000 1.5 40 23:21 21.02.2020
2331 Clouds 6 1032 70 10000 2.6 30 22:43 21.02.2020
2332 Clouds 7 1032 70 10000 3.6 30 22:25 21.02.2020
2333 Clouds 7 1032 70 10000 3.1 40 21:57 21.02.2020
2334 Clouds 7 1032 66 10000 2.6 30 21:37 21.02.2020
2335 Clouds 8 1032 66 10000 2.6 30 21:19 21.02.2020
2336 Clouds 8 1032 70 10000 3.1 30 20:47 21.02.2020
2337 Clouds 8 1032 66 10000 3.1 20 20:27 21.02.2020
2338 Clouds 9 1031 61 10000 2.1 40 19:41 21.02.2020
2339 Clouds 10 1031 57 10000 2.1 50 19:23 21.02.2020
2340 Clouds 11 1031 50 10000 2.6 60 18:55 21.02.2020
2341 Clouds 11 1031 50 10000 2.6 60 18:55 21.02.2020
2342 Clouds 11 1031 50 10000 2.1 50 18:36 21.02.2020
2343 Clouds 12 1031 50 10000 2.1 50 18:18 21.02.2020
2344 Clouds 13 1031 47 10000 1.5 0 17:39 21.02.2020
2345 Clouds 13 1031 47 10000 1.5 0 17:21 21.02.2020
2346 Clouds 13 1032 50 10000 2.1 70 16:57 21.02.2020
2347 Clouds 13 1032 50 10000 2.1 70 16:39 21.02.2020
2348 Clouds 14 1032 50 10000 3.1 30 16:20 21.02.2020
2349 Clouds 14 1032 50 10000 3.1 50 15:44 21.02.2020
2350 Clouds 14 1032 50 10000 1.5 0 15:19 21.02.2020
2351 Clouds 14 1032 47 10000 2.1 0 14:55 21.02.2020
2352 Clouds 14 1033 50 10000 1.5 0 14:37 21.02.2020
2353 Clouds 14 1033 50 10000 1.5 0 14:18 21.02.2020
2354 Clouds 13 1033 50 10000 2.6 60 13:42 21.02.2020
2355 Clouds 13 1033 50 10000 2.6 60 13:21 21.02.2020
2356 Clouds 13 1033 50 10000 1 0 12:47 21.02.2020
2357 Clouds 12 1033 50 10000 2.1 30 12:27 21.02.2020
2358 Clouds 12 1033 53 10000 2.6 50 11:59 21.02.2020
2359 Clouds 11 1033 53 10000 2.6 50 11:40 21.02.2020
2360 Clouds 11 1033 62 10000 1.5 60 11:21 21.02.2020
2361 Clouds 10 1033 71 10000 1.5 70 10:55 21.02.2020
2362 Clouds 9 1033 76 10000 2.1 90 10:36 21.02.2020
2363 Clouds 9 1033 76 10000 2.1 90 10:18 21.02.2020
2364 Clouds 8 1033 81 10000 1.5 50 09:42 21.02.2020
2365 Clouds 7 1033 93 10000 1.7 54 09:23 21.02.2020
2366 Clouds 6 1032 93 10000 1.7 54 08:56 21.02.2020
2367 Clouds 6 1032 86 10000 1.7 54 08:37 21.02.2020
2368 Clouds 6 1032 86 10000 1.86 21 08:19 21.02.2020
2369 Clouds 7 1032 87 10000 1 0 07:43 21.02.2020
2370 Clouds 7 1032 93 10000 2.1 20 07:22 21.02.2020
2371 Clouds 7 1031 93 10000 2.1 360 06:56 21.02.2020
2372 Clouds 8 1031 87 10000 1.5 20 06:33 21.02.2020
2373 Clouds 8 1031 87 10000 2.6 360 05:58 21.02.2020
2374 Clouds 9 1031 81 10000 2.6 360 05:31 21.02.2020
2375 Clouds 9 1031 93 10000 2.1 330 04:26 21.02.2020
2376 Clouds 9 1031 93 10000 1.5 310 03:52 21.02.2020
2377 Clouds 10 1031 87 10000 2.1 330 02:59 21.02.2020
2378 Clouds 10 1031 93 10000 2.1 330 01:43 21.02.2020
2379 Clouds 10 1030 93 10000 2.1 320 01:22 21.02.2020
2380 Clouds 10 1030 93 10000 1 310 00:38 21.02.2020
2381 Clouds 11 1030 93 10000 1.5 320 00:19 21.02.2020
2382 Drizzle 11 1030 87 4800 3.1 320 23:41 20.02.2020
2383 Clouds 11 1029 87 10000 3.6 230 23:22 20.02.2020
2384 Clouds 11 1029 87 10000 3.6 230 22:40 20.02.2020
2385 Clouds 11 1029 87 10000 3.1 230 22:21 20.02.2020
2386 Clouds 10 1028 87 10000 3.1 230 21:57 20.02.2020
2387 Clouds 10 1028 87 10000 3.1 230 21:39 20.02.2020
2388 Clouds 10 1028 87 10000 3.1 230 21:19 20.02.2020
2389 Clouds 11 1028 81 10000 3.6 240 20:56 20.02.2020
2390 Clouds 11 1028 81 10000 3.1 250 20:38 20.02.2020
2391 Clouds 11 1028 81 10000 3.1 250 20:19 20.02.2020
2392 Clouds 11 1027 76 10000 2.6 250 19:58 20.02.2020
2393 Clouds 11 1027 76 10000 2.6 250 19:40 20.02.2020
2394 Clouds 12 1027 71 10000 3.1 280 19:22 20.02.2020
2395 Clear 12 1026 62 10000 4.1 270 18:40 20.02.2020
2396 Clear 13 1026 50 10000 4.6 270 18:21 20.02.2020
2397 Clear 13 1026 50 10000 4.6 270 18:21 20.02.2020
2398 Clear 14 1025 50 10000 5.7 280 17:58 20.02.2020
2399 Clear 14 1025 50 10000 5.7 280 17:39 20.02.2020
2400 Clear 15 1025 47 10000 6.2 270 17:38 20.02.2020
2401 Clear 15 1025 47 10000 6.2 270 17:19 20.02.2020
2402 Clear 16 1025 41 10000 5.7 260 16:56 20.02.2020
2403 Clear 16 1025 44 10000 4.6 280 16:38 20.02.2020
2404 Clear 16 1025 44 10000 4.6 280 16:18 20.02.2020
2405 Clear 16 1024 41 10000 5.7 290 15:42 20.02.2020
2406 Clear 16 1024 39 10000 5.7 290 15:22 20.02.2020
2407 Clear 17 1024 42 10000 5.1 300 14:57 20.02.2020
2408 Clear 16 1024 42 10000 5.1 300 14:39 20.02.2020
2409 Clear 16 1024 41 10000 5.7 300 14:21 20.02.2020
2410 Clear 16 1024 44 10000 2.6 270 13:54 20.02.2020
2411 Clear 15 1024 51 10000 2.1 240 13:36 20.02.2020
2412 Clear 15 1024 51 10000 2.1 240 13:18 20.02.2020
2413 Clear 13 1024 58 10000 2.6 210 12:42 20.02.2020
2414 Clear 13 1024 62 10000 3.1 200 12:21 20.02.2020
2415 Clear 11 1024 66 10000 3.6 170 11:57 20.02.2020
2416 Clear 11 1024 66 10000 3.6 170 11:39 20.02.2020
2417 Clear 11 1024 66 10000 3.6 170 11:39 20.02.2020
2418 Clear 10 1024 71 10000 3.6 160 11:20 20.02.2020
2419 Clear 8 1024 81 10000 3.1 150 10:55 20.02.2020
2420 Clear 7 1024 93 10000 3.1 130 10:37 20.02.2020
2421 Clear 6 1024 93 10000 3.1 130 10:19 20.02.2020
2422 Clear 4 1024 100 8000 1.5 100 09:38 20.02.2020
2423 Clear 4 1024 100 8000 1.5 100 09:19 20.02.2020
2424 Fog 3 1024 100 4200 1.5 100 08:41 20.02.2020
2425 Fog 2 1024 100 1700 2.99 146 08:23 20.02.2020
2426 Fog 2 1023 100 2400 1.5 100 07:47 20.02.2020
2427 Fog 2 1024 100 2900 1.5 100 07:27 20.02.2020
2428 Fog 2 1024 100 2900 1.5 100 07:27 20.02.2020
2429 Fog 3 1024 100 2900 1.5 110 06:57 20.02.2020
2430 Fog 2 1024 100 1100 1.5 110 06:37 20.02.2020
2431 Fog 3 1024 100 3800 1.5 110 05:47 20.02.2020
2432 Fog 3 1024 100 1400 1.5 120 05:20 20.02.2020
2433 Fog 3 1024 100 1300 1.5 120 04:37 20.02.2020
2434 Fog 4 1025 100 1100 1.5 120 03:40 20.02.2020
2435 Fog 4 1025 100 750 1.5 120 02:45 20.02.2020
2436 Fog 5 1026 93 3400 1.5 120 01:21 20.02.2020
2437 Fog 5 1027 100 7000 1.5 110 00:35 20.02.2020
2438 Fog 6 1027 93 5000 0.5 170 23:55 19.02.2020
2439 Fog 6 1028 93 7000 0.5 190 23:24 19.02.2020
2440 Clouds 7 1028 93 8000 1.68 222 22:56 19.02.2020
2441 Clouds 6 1028 93 8000 1.68 222 22:38 19.02.2020
2442 Fog 7 1028 93 10000 1 210 22:20 19.02.2020
2443 Clouds 7 1028 93 10000 1 0 21:56 19.02.2020
2444 Clouds 8 1028 87 10000 1.5 210 21:38 19.02.2020
2445 Clouds 8 1028 87 10000 1.5 210 21:18 19.02.2020
2446 Clouds 8 1029 87 10000 1 190 20:55 19.02.2020
2447 Clouds 9 1029 87 10000 1.5 240 20:36 19.02.2020
2448 Clouds 9 1029 87 10000 1.5 240 20:18 19.02.2020
2449 Clouds 9 1029 81 10000 1.5 240 19:56 19.02.2020
2450 Clouds 10 1029 81 10000 1.5 240 19:37 19.02.2020
2451 Clouds 10 1029 81 10000 1.5 240 19:18 19.02.2020
2452 Clouds 11 1029 76 10000 2.1 250 18:56 19.02.2020
2453 Clouds 11 1029 76 10000 2.1 250 18:38 19.02.2020
2454 Clouds 12 1029 71 10000 3.1 260 18:19 19.02.2020
2455 Clouds 12 1029 76 10000 3.6 290 17:42 19.02.2020
2456 Clouds 13 1030 71 10000 5.1 290 17:19 19.02.2020
2457 Rain 13 1030 62 10000 5.7 260 16:44 19.02.2020
2458 Clouds 14 1030 58 10000 6.7 260 16:20 19.02.2020
2459 Clouds 14 1030 54 10000 5.1 250 15:58 19.02.2020
2460 Clouds 14 1030 54 10000 5.1 250 15:39 19.02.2020
2461 Clouds 14 1031 71 10000 3.1 300 15:20 19.02.2020
2462 Clouds 14 1031 71 10000 5.7 290 14:42 19.02.2020
2463 Clouds 14 1031 66 10000 4.6 270 14:23 19.02.2020
2464 Clouds 14 1031 66 10000 5.7 260 13:59 19.02.2020
2465 Clouds 14 1031 66 10000 5.7 260 13:40 19.02.2020
2466 Rain 13 1032 76 10000 2.6 250 13:20 19.02.2020
2467 Rain 13 1032 66 10000 4.1 260 12:41 19.02.2020
2468 Clouds 13 1033 71 10000 4.6 270 12:19 19.02.2020
2469 Clouds 12 1033 81 10000 3.6 240 11:58 19.02.2020
2470 Clouds 12 1033 81 10000 3.6 240 11:37 19.02.2020
2471 Clouds 12 1033 76 10000 4.1 250 11:19 19.02.2020
2472 Clouds 11 1033 87 10000 3.6 230 10:57 19.02.2020
2473 Clouds 11 1033 87 10000 3.1 220 10:38 19.02.2020
2474 Clouds 10 1033 87 10000 3.1 220 10:19 19.02.2020
2475 Clouds 9 1033 93 10000 2.6 220 09:56 19.02.2020
2476 Clouds 9 1033 93 10000 2.6 220 09:37 19.02.2020
2477 Clouds 8 1033 93 10000 3.1 210 09:18 19.02.2020
2478 Clouds 7 1032 93 10000 3.1 210 08:44 19.02.2020
2479 Clouds 7 1032 93 10000 2.6 200 08:23 19.02.2020
2480 Clouds 7 1032 93 10000 2.6 210 07:41 19.02.2020
2481 Clouds 7 1032 100 10000 2.6 240 07:20 19.02.2020
2482 Clouds 7 1032 93 10000 3.6 250 06:53 19.02.2020
2483 Clouds 7 1032 93 10000 2.6 230 06:20 19.02.2020
2484 Clouds 7 1032 93 10000 3.1 230 04:20 19.02.2020
2485 Clouds 7 1032 93 10000 3.1 200 02:54 19.02.2020
2486 Clouds 7 1032 93 10000 3.1 210 02:29 19.02.2020
2487 Clouds 7 1032 93 10000 3.1 210 01:23 19.02.2020
2488 Clouds 7 1033 93 10000 3.1 210 00:47 19.02.2020
2489 Rain 7 1033 100 10000 3.6 220 00:28 19.02.2020
2490 Clouds 7 1033 93 10000 3.1 220 23:42 18.02.2020
2491 Clouds 7 1033 93 10000 3.6 230 23:20 18.02.2020
2492 Clouds 7 1033 93 10000 3.6 210 22:56 18.02.2020
2493 Rain 7 1033 93 10000 3.1 200 22:37 18.02.2020
2494 Rain 7 1033 93 10000 3.1 200 22:37 18.02.2020
2495 Rain 8 1033 93 10000 3.1 200 22:19 18.02.2020
2496 Rain 8 1033 93 10000 3.1 200 22:19 18.02.2020
2497 Rain 7 1033 87 10000 2.6 200 21:55 18.02.2020
2498 Rain 7 1033 87 10000 2.6 200 21:37 18.02.2020
2499 Clouds 7 1033 81 10000 1.5 220 21:37 18.02.2020
2500 Clouds 8 1033 81 10000 1.5 220 21:18 18.02.2020
2501 Clouds 8 1033 87 10000 3.1 230 20:56 18.02.2020
2502 Clouds 8 1033 81 10000 3.1 240 20:37 18.02.2020
2503 Clouds 8 1033 81 10000 3.1 240 20:37 18.02.2020
2504 Clouds 8 1033 81 10000 3.1 240 20:18 18.02.2020
2505 Clouds 9 1033 76 10000 2.6 240 19:42 18.02.2020
2506 Rain 9 1033 71 10000 2.1 280 19:20 18.02.2020
2507 Rain 10 1033 66 10000 3.1 260 18:58 18.02.2020
2508 Rain 10 1033 66 10000 3.1 260 18:40 18.02.2020
2509 Clouds 11 1032 62 10000 4.6 270 18:19 18.02.2020
2510 Clouds 11 1032 66 10000 3.1 290 17:42 18.02.2020
2511 Clouds 12 1032 62 10000 5.7 300 17:20 18.02.2020
2512 Clouds 13 1032 50 10000 6.2 290 16:41 18.02.2020
2513 Clouds 12 1032 58 10000 4.6 290 16:22 18.02.2020
2514 Clouds 12 1032 54 10000 5.1 270 15:59 18.02.2020
2515 Clouds 12 1032 54 10000 5.1 270 15:40 18.02.2020
2516 Clouds 12 1033 54 10000 5.7 260 15:19 18.02.2020
2517 Clouds 13 1033 50 10000 4.1 270 14:56 18.02.2020
2518 Clouds 13 1033 50 10000 4.1 270 14:56 18.02.2020
2519 Clouds 13 1033 50 10000 4.1 270 14:38 18.02.2020
2520 Rain 13 1033 47 10000 4.6 270 14:19 18.02.2020
2521 Rain 12 1033 58 10000 4.6 220 13:41 18.02.2020
2522 Rain 12 1034 66 10000 4.6 250 13:22 18.02.2020
2523 Rain 12 1034 66 10000 3.6 280 12:55 18.02.2020
2524 Clouds 12 1034 66 10000 3.6 240 12:37 18.02.2020
2525 Clouds 12 1034 66 10000 3.6 240 12:19 18.02.2020
2526 Rain 11 1034 76 10000 2.6 210 11:42 18.02.2020
2527 Clouds 11 1034 71 10000 2.6 240 11:24 18.02.2020
2528 Clouds 10 1034 76 10000 2.1 230 10:55 18.02.2020
2529 Clouds 8 1034 87 10000 1 160 10:36 18.02.2020
2530 Clouds 8 1034 87 10000 1 160 10:18 18.02.2020
2531 Clouds 7 1034 93 10000 1.5 0 09:55 18.02.2020
2532 Clouds 6 1034 100 10000 1.5 170 09:36 18.02.2020
2533 Clouds 6 1034 100 10000 1.5 170 09:18 18.02.2020
2534 Clouds 4 1034 100 10000 2.1 220 08:41 18.02.2020
2535 Rain 4 1033 93 10000 2.1 200 08:20 18.02.2020
2536 Clouds 4 1033 100 10000 1.5 0 07:56 18.02.2020
2537 Clouds 4 1033 100 10000 1.5 180 07:30 18.02.2020
2538 Clouds 4 1033 93 10000 1 0 06:56 18.02.2020
2539 Clouds 4 1033 93 10000 1 280 06:36 18.02.2020
2540 Rain 4 1033 100 10000 1.5 190 05:56 18.02.2020
2541 Clear 4 1033 93 10000 1.5 190 05:27 18.02.2020
2542 Clear 6 1033 93 10000 2.1 210 03:58 18.02.2020
2543 Clouds 7 1033 87 10000 1.5 220 02:58 18.02.2020
2544 Clouds 6 1033 93 10000 2.1 220 01:58 18.02.2020
2545 Clouds 6 1033 93 10000 2.1 210 00:45 18.02.2020
2546 Clear 7 1033 87 10000 2.1 210 00:19 18.02.2020
2547 Clouds 7 1033 87 10000 2.6 220 23:44 17.02.2020
2548 Clouds 7 1032 87 10000 2.1 200 23:25 17.02.2020
2549 Clouds 8 1032 93 10000 1.5 200 22:59 17.02.2020
2550 Clouds 8 1032 93 10000 1.5 200 22:41 17.02.2020
2551 Clouds 8 1032 87 10000 1 0 22:20 17.02.2020
2552 Clouds 9 1032 87 10000 2.6 220 21:40 17.02.2020
2553 Clouds 9 1031 87 10000 3.1 240 21:19 17.02.2020
2554 Clouds 9 1031 81 10000 2.6 240 20:57 17.02.2020
2555 Clouds 9 1031 81 10000 2.6 240 20:38 17.02.2020
2556 Clouds 9 1031 81 10000 3.1 240 20:20 17.02.2020
2557 Clouds 10 1030 81 10000 3.6 260 19:44 17.02.2020
2558 Clouds 10 1030 81 10000 3.6 250 19:22 17.02.2020
2559 Clouds 10 1029 76 10000 4.1 260 18:59 17.02.2020
2560 Clouds 11 1029 71 10000 5.1 270 18:37 17.02.2020
2561 Clouds 11 1029 71 10000 5.1 270 18:19 17.02.2020
2562 Rain 12 1028 71 10000 4.6 280 17:54 17.02.2020
2563 Rain 12 1028 66 10000 7.7 280 17:36 17.02.2020
2564 Rain 12 1028 66 10000 7.7 280 17:18 17.02.2020
2565 Rain 12 1028 66 10000 7.7 280 17:18 17.02.2020
2566 Rain 13 1028 62 10000 8.7 270 16:42 17.02.2020
2567 Rain 13 1027 62 10000 7.2 270 16:22 17.02.2020
2568 Clouds 13 1027 76 10000 7.2 240 15:57 17.02.2020
2569 Clouds 12 1027 76 10000 7.2 240 15:39 17.02.2020
2570 Clouds 12 1027 76 10000 7.2 240 15:39 17.02.2020
2571 Rain 12 1027 76 10000 6.2 250 15:21 17.02.2020
2572 Rain 12 1027 76 8000 7.7 260 14:44 17.02.2020
2573 Rain 13 1027 71 10000 9.3 260 14:25 17.02.2020
2574 Rain 12 1027 76 10000 8.2 250 13:58 17.02.2020
2575 Rain 12 1027 76 10000 8.2 250 13:39 17.02.2020
2576 -273 0 0 0 0 0 13:19 17.02.2020
2577 Clouds 12 1027 87 10000 5.1 240 12:44 17.02.2020
2578 Clouds 11 1026 93 10000 4.6 230 12:25 17.02.2020
2579 Clouds 11 1026 93 10000 4.6 230 11:58 17.02.2020
2580 Rain 11 1026 100 10000 3.1 210 11:39 17.02.2020
2581 Rain 10 1026 100 10000 3.1 210 11:20 17.02.2020
2582 Clouds 10 1026 93 10000 3.6 250 10:55 17.02.2020
2583 Rain 10 1025 93 10000 3.6 270 10:37 17.02.2020
2584 Rain 10 1025 93 10000 3.6 270 10:18 17.02.2020
2585 Rain 10 1025 93 10000 3.1 280 09:41 17.02.2020
2586 Rain 10 1024 93 10000 4.1 280 09:21 17.02.2020
2587 Rain 10 1024 100 10000 2.1 260 08:58 17.02.2020
2588 Rain 10 1024 100 10000 2.1 260 08:39 17.02.2020
2589 Drizzle 10 1023 93 7000 2.6 300 08:19 17.02.2020
2590 Rain 10 1022 93 4000 2.1 310 07:44 17.02.2020
2591 Drizzle 10 1022 93 3700 3.1 340 07:23 17.02.2020
2592 Drizzle 10 1022 87 9000 3.1 340 06:52 17.02.2020
2593 Drizzle 10 1021 93 10000 5.1 350 06:32 17.02.2020
2594 Clouds 12 1021 81 10000 4.1 340 05:56 17.02.2020
2595 Clouds 12 1021 81 10000 4.1 340 05:37 17.02.2020
2596 Clouds 12 1020 81 10000 3.1 360 03:21 17.02.2020
2597 Clouds 13 1020 82 10000 1.5 160 01:47 17.02.2020
2598 Clouds 12 1020 82 10000 1.5 160 01:47 17.02.2020
2599 Clouds 13 1019 82 10000 3.1 170 00:42 17.02.2020
2600 Clouds 13 1019 76 10000 4.1 160 00:19 17.02.2020
2601 Clouds 13 1019 76 10000 4.6 160 23:53 16.02.2020
2602 Clouds 13 1019 72 10000 4.1 150 23:30 16.02.2020
2603 Clouds 14 1019 62 10000 4.6 160 22:57 16.02.2020
2604 Clouds 14 1019 62 10000 4.6 160 22:38 16.02.2020
2605 Clouds 14 1019 62 10000 5.1 170 22:20 16.02.2020
2606 Clouds 14 1019 62 10000 4.1 160 21:56 16.02.2020
2607 Clouds 14 1019 62 10000 4.1 160 21:38 16.02.2020
2608 Clouds 14 1019 62 10000 3.6 180 21:20 16.02.2020
2609 Clouds 14 1019 62 10000 3.6 180 20:56 16.02.2020
2610 Clouds 15 1019 62 10000 2.6 180 20:38 16.02.2020
2611 Clouds 14 1019 62 10000 2.6 180 20:20 16.02.2020
2612 Clouds 15 1018 62 10000 2.1 210 19:56 16.02.2020
2613 Clouds 15 1018 62 10000 2.1 200 19:37 16.02.2020
2614 Clouds 15 1018 62 10000 2.1 200 19:18 16.02.2020
2615 Clouds 16 1018 59 10000 2.6 230 18:42 16.02.2020
2616 Clouds 16 1018 59 10000 2.6 230 18:42 16.02.2020
2617 Clouds 17 1018 55 10000 3.1 240 18:23 16.02.2020
2618 Clouds 18 1018 48 10000 4.6 250 17:46 16.02.2020
2619 Clouds 19 1018 42 10000 5.1 260 17:21 16.02.2020
2620 Clouds 20 1018 35 10000 7.7 250 16:58 16.02.2020
2621 Clouds 20 1018 35 10000 7.7 250 16:39 16.02.2020
2622 Clouds 21 1017 33 10000 6.7 230 16:21 16.02.2020
2623 Clouds 21 1017 33 10000 6.7 230 16:21 16.02.2020
2624 Clouds 21 1017 30 10000 9.8 230 15:59 16.02.2020
2625 Clouds 21 1017 30 10000 9.3 230 15:38 16.02.2020
2626 Clouds 21 1017 30 10000 9.3 230 15:20 16.02.2020
2627 Clouds 21 1017 33 10000 8.2 230 14:41 16.02.2020
2628 Clouds 21 1017 33 10000 8.2 220 14:23 16.02.2020
2629 Clouds 20 1017 40 10000 5.1 220 13:48 16.02.2020
2630 Clouds 19 1017 40 10000 5.7 200 13:25 16.02.2020
2631 Clouds 18 1018 48 10000 4.6 180 12:58 16.02.2020
2632 Clouds 17 1018 59 10000 4.6 180 12:38 16.02.2020
2633 Clouds 17 1018 59 10000 4.6 180 12:19 16.02.2020
2634 Clouds 15 1018 62 10000 4.1 160 11:39 16.02.2020
2635 Clouds 13 1018 71 10000 3.1 150 11:19 16.02.2020
2636 Clouds 12 1018 76 10000 3.1 140 10:57 16.02.2020
2637 Clouds 12 1018 76 10000 3.1 140 10:39 16.02.2020
2638 Clouds 12 1018 76 10000 4.1 140 10:21 16.02.2020
2639 Clouds 11 1018 76 10000 3.6 140 09:57 16.02.2020
2640 Clouds 11 1018 76 10000 3.6 140 09:37 16.02.2020
2641 Clouds 10 1018 81 10000 4.1 140 09:19 16.02.2020
2642 Clouds 9 1018 81 10000 3.1 140 08:46 16.02.2020
2643 Clouds 10 1018 81 10000 4.1 150 08:22 16.02.2020
2644 Clouds 10 1018 81 10000 4.1 150 08:21 16.02.2020
2645 Clouds 10 1018 81 10000 5.1 140 07:55 16.02.2020
2646 Clouds 10 1018 81 10000 4.1 150 07:34 16.02.2020
2647 Clouds 10 1018 81 10000 5.1 140 06:35 16.02.2020
2648 Clouds 10 1018 81 10000 3.6 150 04:57 16.02.2020
2649 Clouds 10 1018 76 10000 5.7 150 03:34 16.02.2020
2650 Clouds 11 1019 76 10000 4.1 150 02:32 16.02.2020
2651 Clouds 11 1019 76 10000 3.6 150 01:44 16.02.2020
2652 Clouds 12 1019 71 10000 4.6 150 01:44 16.02.2020
2653 Clouds 11 1019 76 10000 3.6 150 01:44 16.02.2020
2654 Clouds 12 1019 71 10000 4.6 150 01:26 16.02.2020
2655 Clouds 12 1020 76 10000 4.1 160 00:58 16.02.2020
2656 Clouds 12 1020 76 10000 3.6 150 00:34 16.02.2020
2657 Clouds 13 1021 71 10000 3.1 160 23:58 15.02.2020
2658 Clouds 13 1021 71 10000 3.1 160 23:40 15.02.2020
2659 Clouds 13 1020 71 10000 4.6 150 23:22 15.02.2020
2660 Clouds 13 1021 71 10000 4.1 160 22:56 15.02.2020
2661 Clouds 12 1021 71 10000 4.1 160 22:37 15.02.2020
2662 Clouds 12 1021 71 10000 4.1 160 22:18 15.02.2020
2663 Clouds 12 1021 71 10000 4.6 160 21:42 15.02.2020
2664 Clouds 12 1021 71 10000 3.6 150 21:23 15.02.2020
2665 Clouds 12 1021 66 10000 3.1 140 20:42 15.02.2020
2666 Clouds 12 1021 66 10000 3.1 140 20:42 15.02.2020
2667 Clouds 13 1021 66 10000 1.5 130 20:21 15.02.2020
2668 Clouds 13 1021 66 10000 1.5 130 20:21 15.02.2020
2669 Clouds 13 1021 62 10000 1 140 19:57 15.02.2020
2670 Clouds 13 1021 62 10000 1 140 19:39 15.02.2020
2671 Clouds 13 1021 58 10000 1.5 160 19:20 15.02.2020
2672 Clouds 14 1021 58 10000 2.1 170 18:40 15.02.2020
2673 Clouds 15 1020 55 10000 1.5 200 18:20 15.02.2020
2674 Clouds 16 1020 55 10000 2.6 220 17:44 15.02.2020
2675 Clouds 16 1020 51 10000 3.1 210 17:24 15.02.2020
2676 Clouds 16 1020 55 10000 3.6 200 16:59 15.02.2020
2677 Clouds 17 1020 55 10000 3.6 200 16:39 15.02.2020
2678 Clouds 17 1020 48 10000 5.1 210 16:20 15.02.2020
2679 Clouds 17 1020 52 10000 4.6 200 15:49 15.02.2020
2680 Clouds 18 1021 55 10000 3.6 220 15:30 15.02.2020
2681 Clouds 17 1021 52 10000 5.1 210 14:46 15.02.2020
2682 Clear 17 1020 52 10000 5.7 180 14:24 15.02.2020
2683 Clear 17 1022 59 10000 4.1 190 13:58 15.02.2020
2684 Clear 17 1022 59 10000 4.1 190 13:40 15.02.2020
2685 Clouds 16 1022 59 10000 4.1 160 13:21 15.02.2020
2686 Clouds 15 1023 67 10000 3.1 170 12:44 15.02.2020
2687 Clouds 14 1023 67 10000 2.6 170 12:26 15.02.2020
2688 Clouds 13 1023 71 10000 2.1 150 11:56 15.02.2020
2689 Clouds 11 1023 76 10000 2.6 140 11:36 15.02.2020
2690 Clouds 11 1023 76 10000 2.6 140 11:18 15.02.2020
2691 Clouds 9 1023 81 10000 2.6 150 10:46 15.02.2020
2692 Clouds 8 1024 81 10000 2.1 150 10:27 15.02.2020
2693 Clouds 8 1024 81 10000 2.1 150 10:27 15.02.2020
2694 Clouds 6 1023 93 10000 2.6 140 09:45 15.02.2020
2695 Clouds 5 1023 93 10000 3.1 140 09:25 15.02.2020
2696 Clouds 4 1023 100 10000 2.1 120 08:59 15.02.2020
2697 Clouds 4 1023 100 10000 2.1 120 08:59 15.02.2020
2698 Clouds 4 1023 93 7000 1.5 120 08:39 15.02.2020
2699 Clouds 4 1023 93 7000 1.5 120 08:20 15.02.2020
2700 Fog 4 1023 93 10000 2.74 131 07:41 15.02.2020
2701 Clouds 4 1023 93 10000 1.5 100 07:22 15.02.2020
2702 Clouds 4 1023 93 10000 2.6 120 06:38 15.02.2020
2703 Clouds 4 1023 93 9000 3.1 130 06:20 15.02.2020
2704 Fog 4 1023 93 5000 1.78 134 04:51 15.02.2020
2705 Clear 4 1024 100 6000 0.5 90 04:26 15.02.2020
2706 Clear 5 1024 93 7000 1.5 110 02:59 15.02.2020
2707 Clear 5 1024 93 8000 0.5 130 02:28 15.02.2020
2708 Clouds 5 1025 93 10000 1.74 131 01:58 15.02.2020
2709 Fog 6 1025 100 8000 1.74 131 01:36 15.02.2020
2710 Clouds 6 1025 100 7000 2.13 138 00:30 15.02.2020
2711 Clouds 6 1026 93 7000 2.13 138 23:48 14.02.2020
2712 Clouds 7 1025 93 10000 1 120 23:21 14.02.2020
2713 Clouds 7 1026 87 10000 0.23 174 22:58 14.02.2020
2714 Clouds 7 1026 87 10000 0.23 174 22:40 14.02.2020
2715 Clouds 7 1026 93 10000 0.5 0 22:21 14.02.2020
2716 Clouds 8 1026 87 10000 0.5 0 21:49 14.02.2020
2717 Clouds 8 1026 93 10000 1.5 0 21:30 14.02.2020
2718 Clouds 9 1026 87 10000 0.23 174 20:48 14.02.2020
2719 Clouds 9 1026 81 10000 0.78 272 20:21 14.02.2020
2720 Clouds 10 1026 76 10000 0.5 0 19:59 14.02.2020
2721 Clouds 11 1026 76 10000 0.5 0 19:41 14.02.2020
2722 Clouds 11 1026 76 10000 0.5 0 19:41 14.02.2020
2723 Clouds 11 1026 76 10000 0.5 0 19:41 14.02.2020
2724 Clouds 11 1026 71 10000 1.5 0 19:22 14.02.2020
2725 Clouds 12 1025 66 10000 2.1 270 18:56 14.02.2020
2726 Clouds 13 1025 62 10000 3.1 270 18:38 14.02.2020
2727 Clouds 13 1025 62 10000 3.1 270 18:19 14.02.2020
2728 Clouds 14 1026 67 10000 2.1 290 17:44 14.02.2020
2729 Clouds 15 1026 58 10000 3.1 270 17:22 14.02.2020
2730 Clouds 15 1026 62 10000 1.5 0 16:59 14.02.2020
2731 Clouds 15 1026 62 10000 1.5 0 16:59 14.02.2020
2732 Clouds 15 1026 62 10000 1.5 0 16:40 14.02.2020
2733 Clouds 15 1026 59 10000 2.6 240 16:22 14.02.2020
2734 Clouds 15 1026 62 10000 3.1 270 15:56 14.02.2020
2735 Clouds 15 1026 62 10000 3.1 270 15:37 14.02.2020
2736 Clouds 15 1026 58 10000 3.1 270 15:37 14.02.2020
2737 Clouds 15 1026 58 10000 3.1 270 15:19 14.02.2020
2738 Clouds 15 1026 62 10000 1.5 240 14:58 14.02.2020
2739 Clouds 15 1026 62 10000 1.5 240 14:40 14.02.2020
2740 Clouds 15 1026 67 10000 3.6 290 14:21 14.02.2020
2741 Clouds 15 1027 58 10000 2.6 260 13:54 14.02.2020
2742 Clouds 14 1027 71 10000 2.6 230 13:36 14.02.2020
2743 Clouds 14 1027 71 10000 2.6 230 13:18 14.02.2020
2744 Clouds 14 1027 67 10000 3.6 200 12:54 14.02.2020
2745 Clouds 13 1027 71 10000 3.1 210 12:36 14.02.2020
2746 Clouds 13 1027 71 10000 3.1 210 12:36 14.02.2020
2747 Clouds 13 1027 71 10000 3.1 210 12:18 14.02.2020
2748 Clouds 13 1027 71 10000 2.6 220 11:41 14.02.2020
2749 Clouds 12 1027 81 10000 1.5 0 11:21 14.02.2020
2750 Clouds 11 1027 93 10000 1.5 180 10:56 14.02.2020
2751 Clouds 9 1027 93 8000 1 0 10:38 14.02.2020
2752 Clouds 9 1027 93 8000 1 0 10:20 14.02.2020
2753 Clouds 8 1027 100 7000 1.5 0 09:43 14.02.2020
2754 Clouds 7 1027 100 7000 2.6 180 09:22 14.02.2020
2755 Mist 7 1026 93 5000 0.5 0 08:55 14.02.2020
2756 Fog 7 1026 100 3800 2.1 210 08:37 14.02.2020
2757 Fog 6 1026 100 3800 2.1 210 08:18 14.02.2020
2758 Clouds 6 1026 93 6000 1 190 07:43 14.02.2020
2759 Fog 6 1025 93 6000 2.1 190 07:24 14.02.2020
2760 Clouds 7 1025 93 7000 2.1 200 06:32 14.02.2020
2761 Clouds 8 1025 93 7000 2.1 210 05:48 14.02.2020
2762 Clouds 8 1024 93 8000 1.5 220 04:47 14.02.2020
2763 Clouds 9 1024 93 9000 3.6 190 03:30 14.02.2020
2764 Rain 9 1024 93 7000 2.1 220 02:32 14.02.2020
2765 Clouds 9 1024 87 10000 2.6 230 01:28 14.02.2020
2766 Clouds 9 1024 87 10000 2.6 230 00:43 14.02.2020
2767 Clouds 9 1024 87 10000 2.6 230 00:43 14.02.2020
2768 Clouds 9 1024 87 10000 3.6 230 00:23 14.02.2020
2769 Clouds 9 1024 81 10000 3.1 230 23:45 13.02.2020
2770 Clouds 10 1023 81 10000 3.1 240 23:22 13.02.2020
2771 Clouds 10 1023 76 10000 3.1 240 22:44 13.02.2020
2772 Clouds 10 1023 81 10000 4.1 260 22:20 13.02.2020
2773 Clouds 10 1023 81 10000 4.1 260 22:20 13.02.2020
2774 Clouds 11 1023 76 10000 3.6 260 21:59 13.02.2020
2775 Clouds 11 1023 76 10000 3.6 260 21:40 13.02.2020
2776 Clouds 11 1022 76 10000 4.1 270 21:22 13.02.2020
2777 Clouds 11 1022 76 10000 4.6 280 20:58 13.02.2020
2778 Clouds 11 1022 76 10000 4.6 280 20:39 13.02.2020
2779 Clouds 11 1021 76 10000 5.1 260 20:21 13.02.2020
2780 Clouds 11 1020 76 10000 3.6 250 19:56 13.02.2020
2781 Clouds 11 1020 76 10000 6.7 270 19:37 13.02.2020
2782 Clouds 11 1020 76 10000 6.7 270 19:18 13.02.2020
2783 Clouds 11 1020 76 10000 6.7 270 19:18 13.02.2020
2784 Clouds 12 1019 71 10000 8.7 280 18:44 13.02.2020
2785 Clouds 12 1019 71 10000 9.3 270 18:24 13.02.2020
2786 Clouds 13 1019 66 10000 8.7 270 17:59 13.02.2020
2787 Clouds 13 1019 66 10000 8.7 270 17:40 13.02.2020
2788 Clouds 13 1018 62 10000 8.7 280 17:20 13.02.2020
2789 Clouds 13 1018 62 10000 10.3 270 16:58 13.02.2020
2790 Clouds 14 1018 62 10000 10.3 270 16:37 13.02.2020
2791 Rain 14 1018 82 10000 8.2 270 16:19 13.02.2020
2792 Rain 13 1017 82 10000 10.8 280 15:56 13.02.2020
2793 Rain 13 1017 82 10000 10.8 280 15:37 13.02.2020
2794 Clouds 14 1017 82 10000 13.9 260 15:19 13.02.2020
2795 Clouds 15 1016 77 10000 12.3 260 14:55 13.02.2020
2796 Clouds 15 1016 77 10000 12.3 260 14:37 13.02.2020
2797 Clouds 15 1016 77 10000 11.8 260 14:19 13.02.2020
2798 Clouds 15 1016 77 10000 11.3 250 13:42 13.02.2020
2799 Rain 15 1017 82 10000 10.8 260 13:18 13.02.2020
2800 Rain 15 1017 82 10000 10.8 260 13:18 13.02.2020
2801 Clouds 15 1017 77 10000 10.8 250 12:54 13.02.2020
2802 Clouds 15 1017 77 10000 10.8 250 12:54 13.02.2020
2803 Clouds 15 1016 77 10000 11.3 250 12:36 13.02.2020
2804 Clouds 16 1016 77 10000 11.3 250 12:18 13.02.2020
2805 Clouds 14 1016 82 10000 8.7 240 11:43 13.02.2020
2806 Clouds 15 1017 77 10000 9.8 240 11:43 13.02.2020
2807 Clouds 13 1016 82 10000 8.7 240 11:20 13.02.2020
2808 Clouds 13 1016 82 10000 8.7 240 11:20 13.02.2020
2809 Clouds 13 1017 93 10000 6.7 230 10:46 13.02.2020
2810 Drizzle 12 1017 93 10000 5.1 210 10:27 13.02.2020
2811 Rain 12 1016 93 10000 5.7 210 09:51 13.02.2020
2812 Rain 11 1016 93 10000 4.6 200 09:28 13.02.2020
2813 Rain 11 1016 93 10000 5.1 190 08:54 13.02.2020
2814 Rain 10 1016 93 10000 3.6 200 08:36 13.02.2020
2815 Rain 10 1016 93 10000 3.6 200 08:18 13.02.2020
2816 Rain 10 1016 93 10000 3.6 200 07:39 13.02.2020
2817 Rain 9 1016 93 9000 3.6 210 07:20 13.02.2020
2818 Rain 9 1016 93 10000 4.6 200 06:44 13.02.2020
2819 Rain 9 1016 93 10000 3.6 200 06:18 13.02.2020
2820 Rain 8 1016 93 10000 4.6 170 05:30 13.02.2020
2821 Clouds 9 1016 81 10000 4.1 170 04:25 13.02.2020
2822 Clouds 9 1017 81 10000 4.1 160 03:47 13.02.2020
2823 Clouds 9 1017 81 10000 4.1 160 03:18 13.02.2020
2824 Clouds 8 1017 81 10000 4.1 160 02:48 13.02.2020
2825 Clouds 8 1017 81 10000 4.1 150 02:19 13.02.2020
2826 Clouds 8 1018 87 10000 3.6 160 01:28 13.02.2020
2827 Clouds 7 1019 87 10000 4.6 140 00:32 13.02.2020
2828 Clouds 7 1019 87 10000 4.1 140 23:58 12.02.2020
2829 Clouds 7 1019 87 10000 4.1 140 23:38 12.02.2020
2830 Clouds 7 1020 93 10000 3.1 140 23:19 12.02.2020
2831 Clouds 7 1021 87 10000 2.6 160 22:44 12.02.2020
2832 Clouds 7 1021 87 10000 2.6 140 22:24 12.02.2020
2833 Clouds 7 1020 87 10000 3.1 150 21:58 12.02.2020
2834 Clouds 7 1020 87 10000 3.1 150 21:58 12.02.2020
2835 Clouds 7 1020 87 10000 3.1 150 21:39 12.02.2020
2836 Clouds 8 1021 81 10000 3.1 140 21:19 12.02.2020
2837 Clouds 8 1021 81 10000 3.1 150 20:56 12.02.2020
2838 Clouds 8 1021 81 10000 3.1 150 20:37 12.02.2020
2839 Clouds 8 1022 81 10000 2.1 160 20:18 12.02.2020
2840 Clouds 8 1022 81 10000 2.1 160 20:18 12.02.2020
2841 Clouds 9 1022 71 10000 2.1 180 19:44 12.02.2020
2842 Clouds 9 1022 66 10000 2.6 170 19:23 12.02.2020
2843 Clouds 10 1022 58 10000 1.5 240 18:54 12.02.2020
2844 Clouds 11 1022 50 10000 2.6 240 18:36 12.02.2020
2845 Clouds 12 1022 50 10000 2.6 240 18:18 12.02.2020
2846 Clouds 12 1022 54 10000 2.1 230 17:42 12.02.2020
2847 Clouds 13 1023 50 10000 2.6 240 17:20 12.02.2020
2848 Clouds 13 1023 50 10000 1.5 200 16:58 12.02.2020
2849 Clouds 13 1023 50 10000 1.5 200 16:37 12.02.2020
2850 Clouds 13 1023 54 10000 2.6 20 16:18 12.02.2020
2851 Clouds 14 1024 54 10000 1 0 15:40 12.02.2020
2852 Clouds 14 1024 51 10000 3.1 0 15:20 12.02.2020
2853 Clouds 13 1025 54 10000 3.1 170 14:54 12.02.2020
2854 Clouds 13 1025 54 10000 3.1 170 14:36 12.02.2020
2855 Clouds 13 1025 44 10000 2.6 230 14:18 12.02.2020
2856 Clouds 13 1025 54 10000 2.1 170 13:55 12.02.2020
2857 Clouds 13 1025 54 10000 2.1 170 13:37 12.02.2020
2858 Clouds 12 1026 58 10000 2.1 210 13:18 12.02.2020
2859 Clouds 12 1026 58 10000 1 0 12:55 12.02.2020
2860 Rain 12 1026 66 10000 2.1 200 12:36 12.02.2020
2861 Rain 11 1026 66 10000 2.1 200 12:18 12.02.2020
2862 Rain 11 1026 76 10000 2.1 180 11:42 12.02.2020
2863 Clouds 10 1027 76 10000 1 0 11:21 12.02.2020
2864 Clouds 9 1027 87 10000 1.5 150 10:59 12.02.2020
2865 Clouds 9 1027 87 10000 1.5 150 10:40 12.02.2020
2866 Clouds 8 1027 93 10000 1.5 110 10:21 12.02.2020
2867 Clouds 6 1027 100 10000 1 100 09:56 12.02.2020
2868 Clouds 6 1027 100 10000 1 100 09:56 12.02.2020
2869 Clouds 6 1027 100 10000 1 100 09:38 12.02.2020
2870 Clouds 5 1027 100 10000 1.5 140 09:19 12.02.2020
2871 Clouds 5 1027 100 10000 1.5 140 09:19 12.02.2020
2872 Rain 5 1026 100 10000 1.5 330 08:55 12.02.2020
2873 Clouds 6 1026 100 10000 1 0 08:36 12.02.2020
2874 Clouds 5 1026 100 10000 1 0 08:18 12.02.2020
2875 Clouds 5 1026 100 10000 1.5 280 07:42 12.02.2020
2876 Clouds 5 1026 93 10000 2.6 180 07:22 12.02.2020
2877 Clouds 5 1026 93 10000 1.98 262 06:52 12.02.2020
2878 Clouds 4 1026 93 10000 2.1 210 06:20 12.02.2020
2879 Clouds 5 1026 93 10000 2.6 210 05:33 12.02.2020
2880 Clouds 5 1026 100 9000 2.08 246 04:43 12.02.2020
2881 Clouds 5 1026 100 10000 1 170 04:24 12.02.2020
2882 Clouds 6 1026 93 10000 1 160 03:31 12.02.2020
2883 Clouds 6 1026 93 10000 1.5 130 02:54 12.02.2020
2884 Clouds 6 1026 93 10000 1.57 254 02:27 12.02.2020
2885 Clouds 7 1026 93 10000 1.53 249 01:34 12.02.2020
2886 Clouds 6 1026 100 10000 2.1 210 00:42 12.02.2020
2887 Clouds 7 1027 100 10000 1.53 249 00:23 12.02.2020
2888 Clouds 7 1027 100 9000 1.5 220 23:52 11.02.2020
2889 Clouds 7 1027 93 9000 1.5 230 23:33 11.02.2020
2890 Clouds 7 1026 93 10000 1.5 200 22:58 11.02.2020
2891 Clouds 7 1026 93 10000 1.5 200 22:40 11.02.2020
2892 Clouds 8 1026 93 10000 2.6 200 22:20 11.02.2020
2893 Clouds 8 1027 93 10000 1.5 210 21:57 11.02.2020
2894 Clouds 9 1027 87 10000 1.5 270 21:39 11.02.2020
2895 Clouds 9 1027 87 10000 1.5 270 21:18 11.02.2020
2896 Clouds 9 1027 87 10000 2.1 280 20:58 11.02.2020
2897 Clouds 9 1027 87 10000 2.1 280 20:39 11.02.2020
2898 Clouds 9 1027 87 10000 2.1 280 20:39 11.02.2020
2899 Clouds 9 1026 87 10000 2.6 260 20:19 11.02.2020
2900 Clouds 10 1026 87 10000 2.6 240 19:57 11.02.2020
2901 Clouds 10 1026 87 10000 2.6 240 19:39 11.02.2020
2902 Clouds 10 1026 87 10000 2.6 230 19:20 11.02.2020
2903 Clouds 10 1026 87 10000 2.6 240 18:45 11.02.2020
2904 Clouds 11 1025 81 10000 3.1 250 18:26 11.02.2020
2905 Clouds 11 1025 81 10000 3.6 260 17:57 11.02.2020
2906 Clouds 11 1025 81 10000 3.6 260 17:38 11.02.2020
2907 Clouds 11 1025 87 10000 3.6 270 17:19 11.02.2020
2908 Clouds 11 1025 87 10000 3.1 280 16:58 11.02.2020
2909 Clouds 11 1025 87 10000 3.1 280 16:38 11.02.2020
2910 Clouds 11 1025 87 10000 4.1 280 16:20 11.02.2020
2911 Clouds 12 1025 87 10000 3.1 270 15:57 11.02.2020
2912 Clouds 11 1025 87 10000 4.1 310 15:38 11.02.2020
2913 Clouds 11 1025 87 10000 4.1 310 15:18 11.02.2020
2914 Rain 11 1025 93 4400 6.2 280 14:41 11.02.2020
2915 Rain 12 1025 81 10000 6.2 260 14:19 11.02.2020
2916 Clouds 13 1025 81 10000 4.6 250 13:42 11.02.2020
2917 Rain 12 1025 87 10000 5.1 270 13:23 11.02.2020
2918 Clouds 13 1026 93 10000 5.1 270 12:59 11.02.2020
2919 Clouds 13 1026 93 10000 5.1 270 12:41 11.02.2020
2920 Clouds 13 1026 93 10000 5.1 270 12:41 11.02.2020
2921 -273 0 0 0 0 0 12:21 11.02.2020
2922 Rain 13 1025 76 10000 8.2 260 11:56 11.02.2020
2923 Rain 13 1025 76 10000 8.2 260 11:38 11.02.2020
2924 Rain 13 1025 82 10000 8.2 260 11:19 11.02.2020
2925 Clouds 13 1025 82 10000 6.2 260 10:40 11.02.2020
2926 Clouds 12 1025 82 10000 6.2 260 10:21 11.02.2020
2927 Clouds 12 1025 93 9000 5.1 250 09:57 11.02.2020
2928 Clouds 12 1025 93 10000 4.6 260 09:39 11.02.2020
2929 Clouds 11 1025 93 10000 4.6 260 09:21 11.02.2020
2930 Rain 11 1024 87 10000 5.1 270 08:49 11.02.2020
2931 Rain 11 1024 87 10000 8.2 290 08:25 11.02.2020
2932 Rain 11 1024 87 10000 8.2 290 08:25 11.02.2020
2933 Clouds 12 1024 87 9000 6.2 260 07:54 11.02.2020
2934 Clouds 12 1024 82 10000 6.2 260 07:33 11.02.2020
2935 Clouds 12 1024 76 10000 7.2 260 06:57 11.02.2020
2936 Clouds 12 1024 76 10000 7.2 260 06:38 11.02.2020
2937 Clouds 12 1024 87 9000 6.7 250 06:20 11.02.2020
2938 Clouds 12 1024 87 9000 6.7 250 06:20 11.02.2020
2939 Clouds 12 1024 81 10000 5.1 250 05:39 11.02.2020
2940 Clouds 12 1024 81 10000 5.1 250 05:19 11.02.2020
2941 Clouds 12 1024 81 10000 5.1 260 03:27 11.02.2020
2942 Clouds 12 1025 81 9000 7.7 270 02:34 11.02.2020
2943 Clouds 13 1025 76 9000 6.7 260 01:39 11.02.2020
2944 Clouds 13 1025 76 9000 7.7 270 00:58 11.02.2020
2945 Clouds 13 1025 82 9000 8.2 260 00:23 11.02.2020
2946 Rain 13 1025 82 8000 7.7 260 23:40 10.02.2020
2947 Clouds 13 1025 76 10000 7.2 260 23:21 10.02.2020
2948 Clouds 13 1025 76 10000 8.7 260 22:43 10.02.2020
2949 Clouds 13 1025 76 10000 10.8 260 22:21 10.02.2020
2950 Clouds 13 1025 76 10000 10.8 260 22:21 10.02.2020
2951 Clouds 13 1025 76 10000 9.8 260 21:58 10.02.2020
2952 Clouds 13 1025 76 10000 9.8 260 21:40 10.02.2020
2953 Clouds 13 1025 82 10000 9.8 250 21:22 10.02.2020
2954 Clouds 13 1025 82 9000 7.7 250 20:55 10.02.2020
2955 Clouds 13 1025 82 9000 7.7 250 20:37 10.02.2020
2956 Clouds 13 1024 82 10000 7.2 240 20:19 10.02.2020
2957 Clouds 13 1025 76 10000 6.2 240 19:57 10.02.2020
2958 Clouds 13 1025 76 10000 7.7 260 19:36 10.02.2020
2959 Clouds 13 1025 76 10000 7.7 260 19:18 10.02.2020
2960 Clouds 13 1025 76 10000 8.2 260 18:55 10.02.2020
2961 Clouds 13 1024 76 10000 9.3 260 18:37 10.02.2020
2962 Clouds 13 1024 76 10000 9.3 260 18:18 10.02.2020
2963 Clouds 14 1024 71 10000 8.2 260 17:40 10.02.2020
2964 Clouds 14 1024 76 10000 9.3 260 17:22 10.02.2020
2965 Clouds 14 1024 76 10000 9.3 260 16:59 10.02.2020
2966 Clouds 15 1024 77 10000 7.2 260 16:40 10.02.2020
2967 Clouds 15 1024 77 10000 7.2 260 16:20 10.02.2020
2968 Clouds 15 1024 77 10000 8.7 270 15:59 10.02.2020
2969 Clouds 15 1024 77 10000 8.7 270 15:59 10.02.2020
2970 Clouds 15 1024 77 10000 8.7 270 15:40 10.02.2020
2971 Clouds 15 1024 82 10000 8.7 270 15:21 10.02.2020
2972 Clouds 15 1024 82 10000 8.2 260 14:57 10.02.2020
2973 Clouds 15 1024 82 10000 8.2 260 14:39 10.02.2020
2974 Clouds 15 1024 82 10000 8.7 250 14:19 10.02.2020
2975 Clouds 15 1024 82 10000 7.7 240 13:44 10.02.2020
2976 Clouds 15 1025 77 10000 7.7 260 13:25 10.02.2020
2977 Clouds 15 1026 82 9000 7.2 250 12:57 10.02.2020
2978 Clouds 15 1026 82 9000 7.2 250 12:38 10.02.2020
2979 Clouds 14 1026 76 10000 6.7 260 12:20 10.02.2020
2980 Rain 14 1025 76 10000 8.2 260 11:45 10.02.2020
2981 Clouds 14 1025 87 10000 6.2 250 11:21 10.02.2020
2982 Rain 14 1025 87 9000 7.7 250 10:49 10.02.2020
2983 Rain 14 1025 82 10000 7.2 250 10:31 10.02.2020
2984 Rain 13 1025 87 10000 7.2 250 09:56 10.02.2020
2985 Rain 13 1024 87 10000 7.7 250 09:37 10.02.2020
2986 Rain 13 1024 87 10000 7.7 250 09:18 10.02.2020
2987 Clouds 13 1024 93 10000 3.6 260 08:40 10.02.2020
2988 Drizzle 13 1024 93 9000 4.6 270 08:21 10.02.2020
2989 Rain 13 1024 93 4900 8.7 290 07:55 10.02.2020
2990 Rain 13 1024 93 4900 8.7 290 07:55 10.02.2020
2991 Drizzle 13 1023 87 9000 8.2 270 07:32 10.02.2020
2992 Clouds 13 1023 82 10000 10.3 270 06:49 10.02.2020
2993 Clouds 15 1022 82 10000 13.4 270 04:59 10.02.2020
2994 Clouds 15 1021 82 10000 12.3 260 03:54 10.02.2020
2995 Clouds 15 1021 82 10000 9.8 250 02:58 10.02.2020
2996 Clouds 15 1021 82 10000 9.8 250 02:40 10.02.2020
2997 Clouds 16 1021 63 10000 8.7 250 01:23 10.02.2020
2998 Clouds 16 1021 63 10000 5.7 220 00:37 10.02.2020
2999 Clouds 16 1021 63 10000 5.7 220 00:19 10.02.2020
3000 Clouds 16 1020 63 10000 6.2 220 23:41 09.02.2020
3001 Clouds 16 1020 63 10000 7.2 220 23:23 09.02.2020
3002 Clouds 16 1021 63 10000 6.7 220 22:44 09.02.2020
3003 Clouds 16 1021 63 10000 6.2 210 22:22 09.02.2020
3004 Clouds 16 1021 63 10000 7.7 210 21:55 09.02.2020
3005 Clouds 16 1021 63 10000 8.2 220 21:36 09.02.2020
3006 Clouds 16 1021 63 10000 8.2 220 21:18 09.02.2020
3007 Clouds 15 1021 59 10000 7.7 220 20:44 09.02.2020
3008 Clouds 15 1021 59 10000 6.2 220 20:21 09.02.2020
3009 Clouds 15 1021 59 10000 6.2 210 19:54 09.02.2020
3010 Clouds 15 1021 59 10000 6.2 220 19:36 09.02.2020
3011 Clouds 15 1021 59 10000 6.2 220 19:18 09.02.2020
3012 Clouds 15 1021 59 10000 6.2 220 18:41 09.02.2020
3013 Clouds 16 1021 59 10000 5.7 220 18:23 09.02.2020
3014 Clouds 16 1021 55 10000 7.2 220 17:44 09.02.2020
3015 Clouds 16 1021 51 10000 6.7 220 17:23 09.02.2020
3016 Clouds 17 1021 55 10000 6.2 220 16:59 09.02.2020
3017 Clouds 17 1021 55 10000 6.2 220 16:40 09.02.2020
3018 Clouds 17 1021 51 10000 5.1 220 16:21 09.02.2020
3019 Clouds 17 1021 51 10000 7.2 210 15:57 09.02.2020
3020 Clouds 17 1021 51 10000 7.2 210 15:39 09.02.2020
3021 Clouds 17 1021 51 10000 6.7 220 15:20 09.02.2020
3022 Clouds 16 1021 55 10000 7.7 210 14:55 09.02.2020
3023 Clouds 16 1021 59 10000 8.2 210 14:36 09.02.2020
3024 Clouds 16 1021 59 10000 8.2 210 14:18 09.02.2020
3025 Clouds 16 1022 63 10000 7.2 210 13:41 09.02.2020
3026 Clouds 15 1023 62 10000 6.7 210 13:21 09.02.2020
3027 Clouds 14 1024 71 10000 6.7 200 12:42 09.02.2020
3028 Clouds 13 1024 76 10000 6.2 190 12:20 09.02.2020
3029 Clouds 13 1024 81 10000 5.7 190 11:58 09.02.2020
3030 Clouds 12 1024 81 10000 5.7 190 11:39 09.02.2020
3031 Clouds 11 1024 87 10000 5.7 180 11:19 09.02.2020
3032 Clouds 10 1024 93 10000 5.1 170 10:43 09.02.2020
3033 Clouds 10 1024 93 10000 4.6 170 10:23 09.02.2020
3034 Clouds 9 1024 100 10000 4.6 170 09:57 09.02.2020
3035 Clouds 9 1024 100 10000 4.6 170 09:38 09.02.2020
3036 Clouds 9 1024 100 10000 5.1 170 09:19 09.02.2020
3037 Clouds 9 1024 100 10000 3.6 170 08:40 09.02.2020
3038 Clouds 9 1024 100 10000 3.6 160 08:22 09.02.2020
3039 Clouds 9 1024 100 7000 3.6 160 07:51 09.02.2020
3040 Mist 9 1024 100 2900 5.1 160 07:26 09.02.2020
3041 Fog 8 1024 100 900 4.1 160 06:37 09.02.2020
3042 Mist 7 1024 100 1100 4.6 160 05:55 09.02.2020
3043 Fog 7 1024 100 800 3.1 160 05:33 09.02.2020
3044 Fog 6 1024 100 1100 2.1 130 04:48 09.02.2020
3045 Fog 6 1025 100 1100 1.5 170 02:58 09.02.2020
3046 Fog 7 1025 100 600 1.5 230 02:36 09.02.2020
3047 Fog 7 1025 100 650 1 0 01:39 09.02.2020
3048 Fog 7 1025 100 450 2.1 190 00:56 09.02.2020
3049 Fog 8 1025 93 900 2.6 180 00:30 09.02.2020
3050 Fog 8 1025 100 1300 2.6 200 23:50 08.02.2020
3051 Fog 8 1025 100 650 2.1 210 23:25 08.02.2020
3052 Fog 8 1025 93 700 1.5 210 22:58 08.02.2020
3053 Fog 8 1025 93 700 1.5 210 22:40 08.02.2020
3054 Fog 9 1025 93 500 1.5 250 22:20 08.02.2020
3055 Fog 10 1025 93 10000 2.1 240 21:46 08.02.2020
3056 Clouds 10 1025 93 10000 2.1 250 21:27 08.02.2020
3057 Clouds 10 1025 93 10000 2.6 240 20:59 08.02.2020
3058 Clouds 10 1025 93 10000 2.6 240 20:40 08.02.2020
3059 Clouds 11 1025 100 10000 3.6 240 20:20 08.02.2020
3060 Clouds 11 1025 93 10000 3.6 240 19:58 08.02.2020
3061 Clouds 12 1024 87 10000 3.1 250 19:38 08.02.2020
3062 Clouds 12 1024 87 10000 3.1 250 19:19 08.02.2020
3063 Clouds 12 1024 87 10000 3.1 240 18:56 08.02.2020
3064 Clouds 12 1024 87 10000 3.1 240 18:37 08.02.2020
3065 Drizzle 12 1024 81 10000 2.6 230 18:19 08.02.2020
3066 Clouds 13 1023 76 10000 2.1 250 17:41 08.02.2020
3067 Clouds 13 1023 76 10000 3.6 270 17:19 08.02.2020
3068 Clouds 13 1023 71 10000 2.1 250 16:41 08.02.2020
3069 Clouds 13 1022 71 10000 1.5 230 16:23 08.02.2020
3070 Clouds 13 1022 71 10000 1.5 230 16:23 08.02.2020
3071 Clouds 14 1022 71 10000 1.5 210 15:58 08.02.2020
3072 Clouds 13 1022 71 10000 1.5 210 15:39 08.02.2020
3073 Clouds 13 1022 71 10000 1.5 0 15:18 08.02.2020
3074 Clouds 13 1022 71 10000 1.5 0 15:18 08.02.2020
3075 Clouds 13 1022 71 10000 1 0 14:44 08.02.2020
3076 Clouds 13 1022 66 10000 1 0 14:21 08.02.2020
3077 Clouds 13 1022 66 10000 1.5 0 13:57 08.02.2020
3078 Clouds 13 1022 66 10000 1.5 0 13:38 08.02.2020
3079 Clouds 13 1022 66 10000 1.5 0 13:38 08.02.2020
3080 Clouds 12 1023 71 10000 1.5 200 13:20 08.02.2020
3081 Clouds 12 1023 71 10000 1.5 0 12:40 08.02.2020
3082 Clouds 11 1023 81 10000 1 0 12:21 08.02.2020
3083 Clouds 10 1022 81 10000 2.6 130 11:56 08.02.2020
3084 Clouds 10 1022 81 10000 2.6 130 11:37 08.02.2020
3085 Clouds 9 1022 81 10000 2.1 140 11:18 08.02.2020
3086 Clouds 8 1022 87 10000 2.6 130 10:42 08.02.2020
3087 Clouds 7 1022 87 10000 1.5 140 10:21 08.02.2020
3088 Clouds 7 1022 87 10000 2.1 130 09:51 08.02.2020
3089 Clouds 6 1022 93 10000 1.5 130 09:27 08.02.2020
3090 Clouds 5 1021 93 10000 0.5 0 08:54 08.02.2020
3091 Clouds 5 1021 93 10000 4.1 140 08:36 08.02.2020
3092 Clouds 5 1021 93 10000 4.1 140 08:36 08.02.2020
3093 Clouds 5 1021 93 10000 4.1 140 08:18 08.02.2020
3094 Clouds 5 1021 93 10000 3.1 140 07:43 08.02.2020
3095 Clouds 5 1020 93 10000 5.1 130 07:18 08.02.2020
3096 Clouds 5 1021 93 10000 4.1 130 06:24 08.02.2020
3097 Clouds 5 1021 93 10000 4.1 130 05:47 08.02.2020
3098 Clouds 6 1021 93 10000 3.1 120 05:28 08.02.2020
3099 Clouds 6 1021 93 10000 1.5 140 04:37 08.02.2020
3100 Clouds 5 1021 93 10000 2.6 120 03:41 08.02.2020
3101 Clouds 6 1021 87 10000 3.1 130 02:43 08.02.2020
3102 Clear 7 1022 87 10000 3.1 150 01:37 08.02.2020
3103 Clear 7 1021 87 10000 3.1 140 00:59 08.02.2020
3104 Clear 8 1022 81 10000 3.1 150 00:37 08.02.2020
3105 Clear 8 1022 81 10000 3.1 150 00:37 08.02.2020
3106 Clear 8 1022 81 10000 3.1 150 00:18 08.02.2020
3107 Clear 8 1022 81 10000 3.6 140 23:42 07.02.2020
3108 Clear 8 1022 81 10000 3.1 150 23:20 07.02.2020
3109 Clear 8 1022 81 10000 3.6 140 22:55 07.02.2020
3110 Clear 9 1022 81 10000 2.6 150 22:37 07.02.2020
3111 Clear 9 1022 81 10000 2.6 150 22:18 07.02.2020
3112 Clear 9 1022 81 10000 2.6 150 22:18 07.02.2020
3113 Clear 9 1021 81 10000 2.6 140 21:41 07.02.2020
3114 Clear 9 1021 81 10000 3.1 130 21:21 07.02.2020
3115 Clear 9 1021 81 10000 3.6 120 20:40 07.02.2020
3116 Clouds 10 1022 81 10000 2.6 110 20:21 07.02.2020
3117 Clouds 10 1021 76 10000 2.1 110 19:56 07.02.2020
3118 Clouds 11 1021 71 10000 2.6 120 19:37 07.02.2020
3119 Clouds 11 1021 71 10000 2.6 120 19:19 07.02.2020
3120 Clouds 13 1021 66 10000 2.6 100 18:46 07.02.2020
3121 Clouds 14 1021 62 10000 2.6 120 18:26 07.02.2020
3122 Clouds 15 1021 58 10000 3.1 110 17:57 07.02.2020
3123 Clouds 15 1021 58 10000 3.1 110 17:39 07.02.2020
3124 Clouds 16 1021 55 10000 3.1 120 17:19 07.02.2020
3125 Clouds 16 1021 55 10000 3.1 120 16:50 07.02.2020
3126 Clouds 16 1021 55 10000 3.6 130 16:24 07.02.2020
3127 Clouds 16 1021 51 10000 3.1 130 15:55 07.02.2020
3128 Clouds 16 1021 51 10000 2.6 110 15:29 07.02.2020
3129 Clouds 16 1021 54 10000 2.6 140 14:57 07.02.2020
3130 Clouds 15 1022 58 10000 2.6 130 14:38 07.02.2020
3131 Clouds 15 1022 58 10000 2.6 130 14:19 07.02.2020
3132 Clouds 14 1022 62 10000 2.6 120 13:57 07.02.2020
3133 Clouds 15 1022 62 10000 2.6 120 13:57 07.02.2020
3134 Clouds 14 1022 62 10000 2.6 120 13:38 07.02.2020
3135 Clouds 14 1022 62 10000 2.6 120 13:38 07.02.2020
3136 Clouds 14 1022 66 10000 3.1 110 13:20 07.02.2020
3137 Clouds 13 1022 71 10000 3.1 120 12:42 07.02.2020
3138 Clouds 12 1023 71 10000 1.5 130 12:23 07.02.2020
3139 Clouds 12 1023 71 10000 1.5 130 12:23 07.02.2020
3140 Clouds 11 1023 71 10000 2.1 150 11:45 07.02.2020
3141 Clouds 10 1023 76 10000 2.1 160 11:24 07.02.2020
3142 Clouds 9 1022 81 10000 2.1 130 10:59 07.02.2020
3143 Clouds 9 1022 81 10000 2.1 130 10:39 07.02.2020
3144 Clouds 8 1022 87 10000 3.1 140 10:20 07.02.2020
3145 Clouds 7 1022 87 10000 3.1 150 09:45 07.02.2020
3146 Clouds 6 1022 93 10000 3.6 140 09:25 07.02.2020
3147 Clouds 6 1022 93 10000 3.6 140 08:50 07.02.2020
3148 Clouds 6 1021 100 10000 3.6 140 08:24 07.02.2020
3149 Clouds 6 1021 100 10000 3.6 140 08:24 07.02.2020
3150 Clouds 5 1021 93 10000 3.1 140 07:55 07.02.2020
3151 Clouds 5 1021 93 10000 3.1 140 07:37 07.02.2020
3152 Clouds 6 1021 93 10000 2.6 130 07:18 07.02.2020
3153 Clouds 6 1021 93 10000 3.1 140 06:42 07.02.2020
3154 Clouds 6 1021 93 10000 3.1 140 06:21 07.02.2020
3155 Clouds 6 1021 93 10000 3.1 140 05:43 07.02.2020
3156 Clouds 6 1021 87 10000 5.1 140 03:55 07.02.2020
3157 Clear 6 1022 87 10000 3.1 150 02:24 07.02.2020
3158 Clear 6 1022 75 10000 2.6 150 01:22 07.02.2020
3159 Clear 7 1022 75 10000 3.6 140 00:37 07.02.2020
3160 Clear 6 1022 75 10000 4.1 140 23:39 06.02.2020
3161 Clear 7 1022 70 10000 4.6 140 23:20 06.02.2020
3162 Clear 7 1022 65 10000 5.1 150 22:56 06.02.2020
3163 Clear 7 1022 65 10000 5.1 150 22:38 06.02.2020
3164 Clear 7 1022 65 10000 4.1 140 22:19 06.02.2020
3165 Clear 7 1022 65 10000 4.1 130 21:37 06.02.2020
3166 Clear 7 1022 65 10000 4.1 130 21:37 06.02.2020
3167 Clear 8 1022 65 10000 4.1 130 21:19 06.02.2020
3168 Clear 8 1022 65 10000 2.6 130 20:56 06.02.2020
3169 Clear 8 1022 61 10000 4.1 110 20:37 06.02.2020
3170 Clear 8 1022 61 10000 4.1 110 20:18 06.02.2020
3171 Clear 9 1022 57 10000 5.1 120 19:57 06.02.2020
3172 Clear 9 1022 57 10000 5.1 120 19:37 06.02.2020
3173 Clear 9 1022 53 10000 4.6 120 19:19 06.02.2020
3174 Clear 10 1022 50 10000 4.1 110 18:43 06.02.2020
3175 Clear 11 1022 72 10000 5.1 110 18:25 06.02.2020
3176 Clear 12 1022 72 10000 6.2 110 17:59 06.02.2020
3177 Clear 13 1022 72 10000 6.2 110 17:41 06.02.2020
3178 Clear 12 1022 43 10000 4.6 110 17:20 06.02.2020
3179 Clear 13 1022 47 10000 5.1 110 16:43 06.02.2020
3180 Clear 13 1022 47 10000 4.6 90 16:25 06.02.2020
3181 Clear 13 1022 43 10000 4.6 110 15:44 06.02.2020
3182 Clear 13 1022 47 10000 4.1 90 15:24 06.02.2020
3183 Clear 13 1022 50 10000 4.1 110 14:59 06.02.2020
3184 Clear 12 1022 50 10000 4.1 110 14:41 06.02.2020
3185 Clear 12 1023 46 10000 4.1 100 14:22 06.02.2020
3186 Clear 12 1023 50 10000 4.6 120 13:43 06.02.2020
3187 Clear 11 1023 50 10000 5.7 120 13:25 06.02.2020
3188 Clear 10 1024 51 10000 5.7 120 12:45 06.02.2020
3189 Clear 10 1024 51 10000 5.7 120 12:45 06.02.2020
3190 Clear 10 1024 51 10000 6.7 120 12:20 06.02.2020
3191 Clear 9 1024 57 10000 3.6 100 11:59 06.02.2020
3192 Clear 8 1024 57 10000 3.6 100 11:40 06.02.2020
3193 Clear 7 1025 63 10000 4.6 100 11:21 06.02.2020
3194 Clear 6 1025 63 10000 5.1 100 10:58 06.02.2020
3195 Clear 5 1025 63 10000 5.1 100 10:39 06.02.2020
3196 Clear 4 1024 63 10000 3.6 110 10:21 06.02.2020
3197 Clear 3 1024 69 10000 3.1 100 09:57 06.02.2020
3198 Clear 3 1024 69 10000 3.1 100 09:38 06.02.2020
3199 Clear 2 1025 74 10000 3.6 90 09:19 06.02.2020
3200 Clear 1 1024 80 10000 2.6 90 08:42 06.02.2020
3201 Clear 1 1025 76 10000 2.6 80 08:22 06.02.2020
3202 Clear 1 1025 73 10000 2.6 80 08:22 06.02.2020
3203 Clear 1 1024 76 10000 3.1 70 07:51 06.02.2020
3204 Clear 2 1025 76 10000 2.1 70 07:28 06.02.2020
3205 Clear 2 1025 76 10000 2.6 60 06:46 06.02.2020
3206 Clear 2 1025 76 10000 2.6 50 06:18 06.02.2020
3207 Clear 2 1026 78 10000 2.6 60 04:54 06.02.2020
3208 Clear 3 1027 80 10000 2.6 60 03:21 06.02.2020
3209 Clear 3 1027 80 10000 2.6 60 03:21 06.02.2020
3210 Clear 4 1027 75 10000 3.1 70 02:44 06.02.2020
3211 Clear 4 1028 75 10000 3.6 70 01:41 06.02.2020
3212 Clear 4 1029 75 10000 3.1 70 00:59 06.02.2020
3213 Clear 5 1029 75 10000 3.1 70 00:26 06.02.2020
3214 Clear 5 1030 75 10000 3.1 60 23:48 05.02.2020
3215 Clear 5 1030 70 10000 3.1 70 23:29 05.02.2020
3216 Clear 6 1030 70 10000 3.6 70 22:58 05.02.2020
3217 Clear 6 1030 70 10000 3.6 70 22:40 05.02.2020
3218 Clear 6 1030 70 10000 3.1 60 22:22 05.02.2020
3219 Clear 6 1030 70 10000 3.1 60 22:22 05.02.2020
3220 Clear 6 1030 70 10000 2.6 70 21:54 05.02.2020
3221 Clear 6 1030 70 10000 2.6 70 21:36 05.02.2020
3222 Clear 7 1031 65 10000 3.1 50 21:18 05.02.2020
3223 Clear 7 1031 61 10000 3.1 60 20:39 05.02.2020
3224 Clear 7 1031 61 10000 3.1 60 20:39 05.02.2020
3225 Clear 7 1031 61 10000 3.1 60 20:39 05.02.2020
3226 Clear 8 1031 61 10000 3.1 60 20:19 05.02.2020
3227 Clear 8 1031 61 10000 2.6 50 19:57 05.02.2020
3228 Clear 8 1031 57 10000 3.6 60 19:38 05.02.2020
3229 Clear 8 1031 57 10000 3.6 60 19:19 05.02.2020
3230 Clear 8 1031 57 10000 3.6 60 19:19 05.02.2020
3231 Clear 9 1031 53 10000 3.6 60 18:45 05.02.2020
3232 Clear 10 1031 57 10000 4.6 60 18:22 05.02.2020
3233 Clear 10 1031 50 10000 5.1 60 17:59 05.02.2020
3234 Clear 11 1032 53 10000 4.1 70 17:37 05.02.2020
3235 Clear 11 1032 53 10000 4.1 70 17:37 05.02.2020
3236 Clear 11 1032 53 10000 4.1 70 17:18 05.02.2020
3237 Clear 12 1032 50 10000 5.1 70 16:55 05.02.2020
3238 Clear 12 1032 46 10000 4.6 70 16:37 05.02.2020
3239 Clear 12 1032 46 10000 4.6 70 16:18 05.02.2020
3240 Clear 12 1033 50 10000 4.6 50 15:41 05.02.2020
3241 Clear 12 1033 50 10000 4.1 60 15:19 05.02.2020
3242 Clouds 12 1034 50 10000 5.1 60 14:55 05.02.2020
3243 Clouds 12 1034 50 10000 5.1 70 14:37 05.02.2020
3244 Clouds 12 1034 50 10000 5.1 70 14:19 05.02.2020
3245 Clouds 11 1035 50 10000 5.1 60 13:40 05.02.2020
3246 Clear 11 1035 50 10000 4.6 70 13:22 05.02.2020
3247 Clear 11 1036 57 10000 4.6 40 12:44 05.02.2020
3248 Clear 10 1036 61 10000 4.1 50 12:25 05.02.2020
3249 Clear 9 1036 61 10000 4.6 50 11:57 05.02.2020
3250 Clear 9 1036 61 10000 4.6 50 11:38 05.02.2020
3251 Clear 8 1036 66 10000 1.5 70 11:20 05.02.2020
3252 Clear 7 1036 75 10000 1.5 40 10:43 05.02.2020
3253 Clouds 5 1036 87 10000 2.1 70 10:24 05.02.2020
3254 Clouds 4 1036 93 10000 2.1 80 09:58 05.02.2020
3255 Clouds 4 1036 93 10000 2.1 80 09:37 05.02.2020
3256 Clouds 3 1036 100 10000 1 0 09:19 05.02.2020
3257 Clear 2 1036 93 10000 1.5 20 08:43 05.02.2020
3258 Clear 2 1035 93 10000 2.1 50 08:23 05.02.2020
3259 Clear 1 1035 100 10000 1.5 0 07:54 05.02.2020
3260 Clear 1 1035 100 10000 0.5 0 07:33 05.02.2020
3261 Clear 2 1035 100 10000 1.86 44 06:49 05.02.2020
3262 Clear 1 1035 100 10000 1.86 44 06:23 05.02.2020
3263 Clear 2 1035 93 10000 1.86 44 05:52 05.02.2020
3264 Clear 2 1035 93 10000 1.25 7 05:18 05.02.2020
3265 Clear 2 1035 93 10000 1.25 7 04:45 05.02.2020
3266 Clear 3 1035 100 10000 1 290 03:48 05.02.2020
3267 Clear 3 1035 93 10000 1 270 02:25 05.02.2020
3268 Clear 3 1035 93 10000 0.5 0 01:36 05.02.2020
3269 Clear 4 1035 93 10000 0.5 270 00:42 05.02.2020
3270 Clear 5 1035 86 10000 2.1 270 23:44 04.02.2020
3271 Clear 5 1035 93 10000 1.5 290 23:23 04.02.2020
3272 Clear 5 1035 87 10000 2.1 280 22:59 04.02.2020
3273 Clear 5 1035 87 10000 2.1 280 22:41 04.02.2020
3274 Clear 6 1035 87 10000 2.1 310 22:21 04.02.2020
3275 Clear 6 1034 87 10000 2.1 320 21:59 04.02.2020
3276 Clear 6 1034 87 10000 2.1 320 21:40 04.02.2020
3277 Clear 7 1034 81 10000 2.1 310 21:19 04.02.2020
3278 Clear 7 1034 81 10000 2.1 310 21:19 04.02.2020
3279 Clear 7 1034 81 10000 2.1 300 20:58 04.02.2020
3280 Clear 8 1034 75 10000 2.6 290 20:38 04.02.2020
3281 Clouds 8 1034 75 10000 2.6 290 20:20 04.02.2020
3282 Clouds 8 1034 75 10000 3.1 320 19:56 04.02.2020
3283 Clouds 9 1034 75 10000 3.1 320 19:38 04.02.2020
3284 Clouds 9 1033 70 10000 4.1 310 19:19 04.02.2020
3285 Clouds 10 1033 71 10000 4.1 310 18:54 04.02.2020
3286 Clouds 10 1032 71 10000 5.7 300 18:36 04.02.2020
3287 Clouds 10 1032 71 10000 5.7 300 18:18 04.02.2020
3288 Clouds 11 1032 66 10000 6.2 300 17:41 04.02.2020
3289 Clouds 11 1032 66 10000 4.1 310 17:20 04.02.2020
3290 Clouds 12 1032 54 10000 6.7 340 16:40 04.02.2020
3291 Clouds 12 1032 54 10000 7.2 340 16:21 04.02.2020
3292 Clouds 13 1031 50 10000 7.2 330 15:58 04.02.2020
3293 Clouds 13 1031 50 10000 7.2 330 15:58 04.02.2020
3294 Clouds 13 1031 50 10000 7.2 330 15:40 04.02.2020
3295 Clouds 13 1032 50 10000 8.7 330 15:20 04.02.2020
3296 Clouds 13 1032 50 10000 7.2 320 14:57 04.02.2020
3297 Clouds 13 1032 50 10000 7.2 320 14:39 04.02.2020
3298 Clouds 13 1032 50 10000 7.7 320 14:20 04.02.2020
3299 Clouds 12 1032 54 10000 5.1 310 13:41 04.02.2020
3300 Clouds 13 1032 58 10000 6.7 340 13:23 04.02.2020
3301 Clouds 13 1032 54 10000 6.2 340 12:58 04.02.2020
3302 Clouds 12 1032 58 10000 6.2 340 12:39 04.02.2020
3303 Clouds 12 1032 58 10000 6.2 340 12:20 04.02.2020
3304 Clouds 12 1032 71 10000 4.6 340 11:56 04.02.2020
3305 Clouds 11 1032 71 10000 4.6 340 11:37 04.02.2020
3306 Clouds 11 1032 76 10000 3.1 330 11:18 04.02.2020
3307 Clouds 11 1031 76 10000 1.5 310 10:44 04.02.2020
3308 Clouds 10 1031 81 10000 1.5 320 10:25 04.02.2020
3309 Clouds 10 1031 87 10000 2.6 340 09:56 04.02.2020
3310 Clouds 10 1031 93 10000 3.1 340 09:37 04.02.2020
3311 Clouds 10 1031 93 10000 3.1 340 09:19 04.02.2020
3312 Clouds 9 1030 87 10000 2.1 310 08:44 04.02.2020
3313 Clouds 9 1030 87 10000 2.6 330 08:26 04.02.2020
3314 Clouds 9 1029 87 10000 3.1 280 07:50 04.02.2020
3315 Clouds 9 1029 87 10000 3.1 300 07:24 04.02.2020
3316 Clouds 10 1029 81 10000 2.6 310 06:48 04.02.2020
3317 Clouds 10 1029 81 10000 3.1 310 06:30 04.02.2020
3318 Clouds 11 1028 76 10000 5.7 330 05:33 04.02.2020
3319 Clouds 11 1027 81 10000 3.6 320 04:27 04.02.2020
3320 Clouds 12 1027 76 10000 4.6 310 03:43 04.02.2020
3321 Clouds 12 1026 76 10000 3.6 300 03:25 04.02.2020
3322 Clouds 13 1026 87 10000 9.3 320 02:34 04.02.2020
3323 Clouds 14 1025 87 10000 8.7 300 01:56 04.02.2020
3324 Clouds 14 1025 87 10000 8.2 280 01:36 04.02.2020
3325 Clouds 14 1025 82 10000 7.7 280 00:49 04.02.2020
3326 Clouds 14 1024 76 10000 6.2 280 00:22 04.02.2020
3327 Clouds 14 1024 76 10000 6.2 280 00:22 04.02.2020
3328 Clouds 15 1024 76 10000 5.1 250 23:41 03.02.2020
3329 Clear 15 1023 76 10000 4.6 250 23:22 03.02.2020
3330 Clear 15 1023 76 10000 4.1 240 22:40 03.02.2020
3331 Clear 15 1023 72 10000 4.6 250 22:40 03.02.2020
3332 Clear 15 1023 72 10000 4.6 250 22:21 03.02.2020
3333 Clear 15 1023 72 10000 3.6 270 21:59 03.02.2020
3334 Clear 14 1023 67 10000 2.6 250 21:39 03.02.2020
3335 Clear 14 1023 67 10000 2.6 250 21:19 03.02.2020
3336 Clear 14 1023 71 10000 1.5 240 20:42 03.02.2020
3337 Clear 16 1023 63 10000 3.6 280 20:20 03.02.2020
3338 Clear 16 1023 63 10000 5.1 300 19:58 03.02.2020
3339 Clear 16 1023 63 10000 5.1 300 19:58 03.02.2020
3340 Clear 16 1023 63 10000 5.1 300 19:40 03.02.2020
3341 Clear 16 1022 59 10000 2.1 230 19:20 03.02.2020
3342 Clear 17 1022 55 10000 3.1 180 18:56 03.02.2020
3343 Clear 18 1022 49 10000 2.1 180 18:36 03.02.2020
3344 Clear 18 1022 49 10000 2.1 180 18:36 03.02.2020
3345 Clear 18 1022 49 10000 2.1 180 18:18 03.02.2020
3346 Clear 20 1022 43 10000 2.1 170 17:40 03.02.2020
3347 Clouds 21 1023 40 10000 1.5 180 17:20 03.02.2020
3348 Clouds 21 1023 38 10000 3.1 180 16:59 03.02.2020
3349 Clouds 22 1023 38 10000 3.1 180 16:39 03.02.2020
3350 Clouds 21 1023 35 10000 2.6 180 16:20 03.02.2020
3351 Clouds 22 1024 35 10000 2.6 180 15:55 03.02.2020
3352 Clouds 22 1024 35 10000 2.6 180 15:37 03.02.2020
3353 Clouds 22 1024 35 10000 2.6 190 15:18 03.02.2020
3354 Clouds 22 1025 40 10000 3.1 220 14:41 03.02.2020
3355 Clouds 21 1025 46 10000 3.1 200 14:23 03.02.2020
3356 Clouds 20 1026 52 10000 2.6 180 13:56 03.02.2020
3357 Clouds 19 1026 56 10000 3.6 190 13:37 03.02.2020
3358 Clouds 19 1026 56 10000 3.6 190 13:19 03.02.2020
3359 Clouds 19 1027 59 10000 3.1 180 12:41 03.02.2020
3360 Clouds 18 1027 63 10000 4.6 170 12:23 03.02.2020
3361 Clouds 17 1027 67 10000 4.1 170 11:59 03.02.2020
3362 Clouds 15 1027 77 10000 3.1 160 11:38 03.02.2020
3363 Clouds 15 1027 77 10000 3.1 160 11:19 03.02.2020
3364 Clouds 14 1028 82 10000 2.1 160 10:54 03.02.2020
3365 Clouds 13 1028 87 10000 2.6 150 10:36 03.02.2020
3366 Clouds 12 1028 87 10000 2.6 150 10:18 03.02.2020
3367 Clouds 12 1028 87 10000 2.6 150 10:18 03.02.2020
3368 Clouds 10 1028 93 10000 1.5 180 09:38 03.02.2020
3369 Clouds 10 1028 93 10000 1.5 180 09:19 03.02.2020
3370 Clouds 10 1027 87 10000 2.6 190 08:40 03.02.2020
3371 Clouds 10 1027 81 10000 2.6 210 08:22 03.02.2020
3372 Clouds 10 1027 76 10000 3.6 230 07:42 03.02.2020
3373 Clouds 10 1027 76 10000 4.1 230 07:22 03.02.2020
3374 Clouds 10 1027 76 10000 4.1 230 06:56 03.02.2020
3375 Clouds 10 1027 87 10000 4.6 230 06:31 03.02.2020
3376 Clouds 10 1027 93 10000 3.1 240 05:51 03.02.2020
3377 Clouds 10 1027 100 10000 2.6 230 05:31 03.02.2020
3378 Clouds 11 1026 93 10000 3.1 230 04:44 03.02.2020
3379 Clouds 13 1026 87 10000 2.6 260 02:42 03.02.2020
3380 Clouds 14 1026 82 10000 4.6 260 02:20 03.02.2020
3381 Clouds 14 1025 77 10000 3.6 220 00:49 03.02.2020
3382 Clouds 14 1025 82 10000 4.1 210 00:26 03.02.2020
3383 Clouds 13 1025 82 10000 3.6 210 23:55 02.02.2020
3384 Clouds 13 1025 82 10000 3.1 200 23:36 02.02.2020
3385 Clouds 13 1025 82 10000 3.1 200 23:18 02.02.2020
3386 Clouds 13 1024 87 10000 3.6 190 22:39 02.02.2020
3387 Clouds 14 1024 87 10000 4.6 190 22:21 02.02.2020
3388 Clouds 13 1025 93 10000 2.1 190 21:57 02.02.2020
3389 Clouds 13 1025 93 10000 2.6 190 21:38 02.02.2020
3390 Clouds 13 1025 93 10000 2.6 190 21:20 02.02.2020
3391 Clouds 13 1025 93 10000 1.5 190 20:57 02.02.2020
3392 Clouds 13 1025 93 10000 1.5 190 20:57 02.02.2020
3393 Clouds 13 1024 93 10000 2.1 170 20:39 02.02.2020
3394 Clouds 13 1024 93 10000 2.1 170 20:20 02.02.2020
3395 Clouds 14 1024 87 10000 1.5 160 19:56 02.02.2020
3396 Clouds 14 1024 87 10000 1.5 140 19:38 02.02.2020
3397 Clouds 14 1024 87 10000 1.5 140 19:38 02.02.2020
3398 Clouds 15 1024 87 10000 1.5 140 19:19 02.02.2020
3399 Clouds 16 1024 82 10000 1.5 200 18:54 02.02.2020
3400 Clouds 16 1024 82 10000 2.6 230 18:36 02.02.2020
3401 Clouds 16 1024 82 10000 2.6 230 18:36 02.02.2020
3402 Clouds 17 1024 82 10000 2.6 230 18:18 02.02.2020
3403 Clouds 17 1024 72 10000 2.6 230 17:55 02.02.2020
3404 Clouds 18 1024 72 10000 1.5 0 17:36 02.02.2020
3405 Clouds 18 1024 72 10000 1.5 0 17:18 02.02.2020
3406 Clouds 18 1024 72 10000 2.1 260 16:54 02.02.2020
3407 Clouds 19 1024 72 10000 3.1 260 16:36 02.02.2020
3408 Clouds 19 1024 72 10000 3.1 260 16:18 02.02.2020
3409 Clouds 19 1024 72 10000 3.1 260 16:18 02.02.2020
3410 Clouds 19 1024 72 10000 5.1 290 15:40 02.02.2020
3411 Clouds 19 1024 72 10000 5.1 290 15:20 02.02.2020
3412 Clouds 19 1024 68 10000 5.1 280 14:59 02.02.2020
3413 Clouds 19 1024 68 10000 5.1 250 14:40 02.02.2020
3414 Clouds 19 1024 68 10000 5.1 250 14:18 02.02.2020
3415 Clouds 19 1024 72 10000 4.1 270 13:55 02.02.2020
3416 Clouds 19 1024 72 10000 4.6 280 13:37 02.02.2020
3417 Clouds 19 1024 72 10000 4.6 280 13:19 02.02.2020
3418 Clouds 18 1024 77 10000 5.7 270 12:45 02.02.2020
3419 Clouds 18 1024 77 10000 5.7 280 12:23 02.02.2020
3420 Clouds 17 1024 82 10000 3.6 260 11:59 02.02.2020
3421 Clouds 17 1024 82 10000 3.6 260 11:40 02.02.2020
3422 Rain 16 1024 77 10000 4.1 240 11:19 02.02.2020
3423 Rain 15 1024 82 10000 4.1 240 10:56 02.02.2020
3424 Rain 15 1024 87 10000 3.6 230 10:37 02.02.2020
3425 Rain 15 1024 87 10000 3.6 230 10:19 02.02.2020
3426 Rain 14 1023 87 10000 3.1 230 09:55 02.02.2020
3427 Rain 13 1023 93 10000 2.6 230 09:36 02.02.2020
3428 Rain 13 1023 93 10000 2.6 230 09:36 02.02.2020
3429 Rain 13 1023 93 10000 2.6 230 09:18 02.02.2020
3430 Rain 13 1022 93 10000 2.6 220 08:41 02.02.2020
3431 Rain 13 1022 93 10000 2.6 230 08:22 02.02.2020
3432 Rain 13 1022 87 10000 2.6 210 07:46 02.02.2020
3433 Rain 13 1022 87 10000 2.6 210 07:46 02.02.2020
3434 Rain 13 1021 87 10000 2.6 210 07:28 02.02.2020
3435 Rain 13 1022 87 10000 2.6 200 06:43 02.02.2020
3436 Rain 13 1021 87 10000 3.1 190 06:25 02.02.2020
3437 Rain 13 1021 87 10000 3.6 180 05:47 02.02.2020
3438 Clouds 13 1021 93 10000 2.6 190 04:38 02.02.2020
3439 Clouds 13 1022 100 10000 4.1 180 03:25 02.02.2020
3440 Clouds 13 1022 93 10000 3.6 180 02:27 02.02.2020
3441 Clouds 13 1022 93 10000 2.6 170 01:52 02.02.2020
3442 Clouds 13 1022 93 10000 2.6 170 01:52 02.02.2020
3443 Clouds 13 1022 93 10000 2.1 180 01:19 02.02.2020
3444 Clouds 13 1022 93 10000 3.1 170 00:43 02.02.2020
3445 Clouds 13 1023 100 10000 2.6 180 00:20 02.02.2020
3446 Clouds 13 1023 100 10000 2.6 190 23:45 01.02.2020
3447 Clouds 13 1023 100 10000 2.6 200 23:21 01.02.2020
3448 Clouds 13 1023 100 10000 2.1 200 22:48 01.02.2020
3449 Clouds 13 1023 100 10000 2.6 200 22:19 01.02.2020
3450 Clouds 13 1023 100 10000 2.6 200 22:19 01.02.2020
3451 Clouds 13 1023 100 10000 3.1 200 21:44 01.02.2020
3452 Rain 13 1023 93 7000 3.1 210 21:20 01.02.2020
3453 Rain 13 1023 93 10000 3.6 220 20:58 01.02.2020
3454 Clouds 13 1022 93 10000 3.1 200 20:39 01.02.2020
3455 Clouds 13 1022 93 10000 3.1 200 20:20 01.02.2020
3456 Clouds 13 1022 93 10000 2.1 210 19:56 01.02.2020
3457 Clouds 13 1022 93 10000 2.1 210 19:38 01.02.2020
3458 Clouds 14 1022 87 10000 3.1 230 19:19 01.02.2020
3459 Clouds 14 1022 87 10000 4.6 240 18:56 01.02.2020
3460 Clouds 14 1022 87 10000 4.6 240 18:37 01.02.2020
3461 Clouds 14 1022 87 10000 4.6 240 18:19 01.02.2020
3462 Clouds 14 1021 87 10000 3.6 230 17:55 01.02.2020
3463 Clouds 14 1021 87 10000 4.1 230 17:37 01.02.2020
3464 Clouds 14 1021 87 10000 4.1 230 17:18 01.02.2020
3465 Clouds 14 1021 87 10000 4.1 230 16:41 01.02.2020
3466 Clouds 15 1021 87 10000 4.1 240 16:21 01.02.2020
3467 Clouds 15 1022 87 10000 5.1 240 15:47 01.02.2020
3468 Clouds 15 1021 82 10000 4.6 250 15:29 01.02.2020
3469 Clouds 15 1021 82 10000 5.1 250 15:00 01.02.2020
3470 Clouds 15 1021 82 10000 5.1 250 14:40 01.02.2020
3471 Clouds 15 1021 87 10000 4.6 260 14:20 01.02.2020
3472 Clouds 15 1021 87 10000 6.2 240 13:45 01.02.2020
3473 Clouds 14 1021 87 10000 5.1 260 13:22 01.02.2020
3474 Clouds 14 1021 87 10000 6.7 260 12:48 01.02.2020
3475 Clouds 14 1021 87 10000 6.2 270 12:30 01.02.2020
3476 Clouds 14 1020 93 10000 6.2 280 11:58 01.02.2020
3477 Clouds 14 1020 93 10000 6.2 280 11:38 01.02.2020
3478 Drizzle 13 1019 100 3200 5.1 270 11:19 01.02.2020
3479 Clouds 13 1019 93 7000 6.2 260 10:57 01.02.2020
3480 Clouds 13 1019 93 7000 6.2 260 10:38 01.02.2020
3481 Drizzle 13 1018 93 6000 7.2 270 10:20 01.02.2020
3482 Rain 13 1018 93 7000 6.7 260 09:57 01.02.2020
3483 Rain 13 1017 100 8000 8.2 270 09:38 01.02.2020
3484 Rain 13 1017 100 8000 8.2 270 09:19 01.02.2020
3485 Drizzle 14 1016 93 7000 6.7 260 08:41 01.02.2020
3486 Drizzle 14 1015 93 10000 7.7 250 07:48 01.02.2020
3487 Rain 13 1015 100 4500 6.2 240 07:26 01.02.2020
3488 Rain 13 1015 100 4100 5.1 230 06:55 01.02.2020
3489 Rain 12 1015 93 6000 4.6 220 06:32 01.02.2020
3490 Rain 12 1015 93 10000 4.1 220 05:51 01.02.2020
3491 Clouds 11 1015 93 10000 3.1 170 03:48 01.02.2020
3492 Clouds 11 1015 87 10000 4.1 170 03:21 01.02.2020
3493 Clouds 11 1014 93 10000 4.6 160 02:44 01.02.2020
3494 Clouds 12 1015 93 10000 4.6 160 02:25 01.02.2020
3495 Clouds 12 1015 93 10000 5.1 150 01:50 01.02.2020
3496 Clouds 12 1016 93 10000 4.1 150 01:30 01.02.2020
3497 Clouds 12 1016 93 10000 4.1 160 00:29 01.02.2020
3498 Clouds 12 1016 93 10000 4.6 150 23:43 31.01.2020
3499 Clouds 12 1017 93 10000 4.6 150 23:20 31.01.2020
3500 Clouds 12 1017 93 10000 4.6 150 22:59 31.01.2020
3501 Clouds 12 1017 93 10000 4.6 150 22:40 31.01.2020
3502 Clouds 12 1017 93 10000 3.6 150 22:21 31.01.2020
3503 Clouds 12 1018 93 10000 2.6 140 21:56 31.01.2020
3504 Clouds 13 1018 93 10000 2.6 150 21:37 31.01.2020
3505 Clouds 13 1018 93 10000 2.6 150 21:19 31.01.2020
3506 Clouds 13 1018 93 10000 3.1 150 20:56 31.01.2020
3507 Clouds 13 1018 93 10000 3.1 150 20:37 31.01.2020
3508 Clouds 14 1018 93 10000 2.6 140 20:18 31.01.2020
3509 Clouds 14 1018 87 10000 2.1 130 19:55 31.01.2020
3510 Clouds 14 1018 87 10000 2.32 218 19:37 31.01.2020
3511 Clouds 14 1018 87 10000 2.32 218 19:18 31.01.2020
3512 Clouds 15 1018 87 10000 1 140 18:40 31.01.2020
3513 Clouds 15 1018 87 10000 1.5 120 18:22 31.01.2020
3514 Clouds 15 1018 82 10000 1 0 17:47 31.01.2020
3515 Clouds 16 1018 82 10000 1.5 170 17:28 31.01.2020
3516 Clouds 16 1019 82 10000 2.6 190 16:59 31.01.2020
3517 Clouds 16 1019 82 10000 2.6 190 16:39 31.01.2020
3518 Clouds 15 1019 87 10000 2.1 220 16:19 31.01.2020
3519 Clouds 16 1019 87 10000 2.1 210 15:59 31.01.2020
3520 Clouds 16 1019 87 10000 2.1 210 15:59 31.01.2020
3521 Clouds 16 1019 87 10000 2.1 210 15:40 31.01.2020
3522 Clouds 15 1019 87 10000 3.6 240 15:20 31.01.2020
3523 Clouds 15 1019 87 10000 3.1 250 14:45 31.01.2020
3524 Clouds 15 1020 87 10000 3.6 260 14:25 31.01.2020
3525 Clouds 15 1020 87 10000 3.6 260 13:57 31.01.2020
3526 Clouds 14 1020 93 10000 4.1 250 13:38 31.01.2020
3527 Clouds 14 1020 93 10000 4.1 250 13:20 31.01.2020
3528 Clouds 14 1021 93 10000 5.1 260 12:45 31.01.2020
3529 Mist 14 1021 93 4800 4.6 250 12:24 31.01.2020
3530 Clouds 14 1021 93 6000 4.6 260 11:55 31.01.2020
3531 Clouds 14 1021 93 6000 4.6 260 11:37 31.01.2020
3532 Clouds 14 1020 93 7000 5.1 250 11:19 31.01.2020
3533 Drizzle 13 1020 100 8000 5.1 250 10:43 31.01.2020
3534 Drizzle 13 1020 100 6000 5.1 250 10:23 31.01.2020
3535 Drizzle 13 1020 100 5000 5.7 240 09:58 31.01.2020
3536 Drizzle 13 1020 100 5000 5.7 240 09:39 31.01.2020
3537 Drizzle 13 1020 100 3200 5.1 240 09:19 31.01.2020
3538 Drizzle 13 1020 100 4600 4.6 230 08:53 31.01.2020
3539 Drizzle 13 1019 100 6000 5.1 240 08:28 31.01.2020
3540 Drizzle 13 1019 100 5000 5.1 230 07:54 31.01.2020
3541 Drizzle 13 1019 100 7000 4.6 220 07:26 31.01.2020
3542 Mist 13 1019 100 5000 5.1 230 06:59 31.01.2020
3543 Drizzle 13 1019 100 9000 4.6 240 06:20 31.01.2020
3544 Clouds 13 1019 100 10000 5.1 230 05:50 31.01.2020
3545 Drizzle 13 1019 100 5000 5.1 240 04:56 31.01.2020
3546 Rain 13 1019 100 7000 5.7 240 02:58 31.01.2020
3547 Drizzle 13 1019 93 10000 4.1 220 01:39 31.01.2020
3548 Drizzle 13 1019 93 10000 6.7 240 00:46 31.01.2020
3549 Drizzle 13 1019 93 6000 6.7 240 00:27 31.01.2020
3550 Drizzle 13 1019 93 8000 6.2 240 23:57 30.01.2020
3551 Clouds 13 1019 93 10000 5.7 230 23:26 30.01.2020
3552 Drizzle 13 1019 93 6000 6.2 230 22:57 30.01.2020
3553 Drizzle 13 1019 93 6000 6.2 230 22:37 30.01.2020
3554 Drizzle 13 1019 93 5000 6.2 240 22:18 30.01.2020
3555 Drizzle 13 1019 93 6000 4.6 240 21:55 30.01.2020
3556 Drizzle 13 1018 93 6000 3.6 220 21:37 30.01.2020
3557 Drizzle 13 1018 93 6000 3.6 220 21:18 30.01.2020
3558 Drizzle 13 1018 93 6000 3.6 220 21:18 30.01.2020
3559 Drizzle 13 1018 93 5000 4.6 230 20:40 30.01.2020
3560 Clouds 13 1018 93 10000 4.1 230 20:22 30.01.2020
3561 Clouds 13 1018 93 10000 4.1 230 20:22 30.01.2020
3562 Rain 13 1018 93 10000 5.1 230 19:56 30.01.2020
3563 Rain 13 1018 93 8000 4.6 230 19:38 30.01.2020
3564 Rain 13 1018 93 8000 4.6 230 19:18 30.01.2020
3565 Clouds 13 1017 93 10000 4.6 210 18:41 30.01.2020
3566 Rain 13 1017 93 10000 4.6 190 18:21 30.01.2020
3567 Rain 13 1017 87 7000 4.1 230 17:56 30.01.2020
3568 Rain 14 1017 77 10000 7.2 260 17:37 30.01.2020
3569 Rain 15 1017 77 10000 7.2 260 17:18 30.01.2020
3570 Clouds 15 1017 67 10000 4.6 220 16:56 30.01.2020
3571 Clouds 15 1017 67 10000 4.6 220 16:56 30.01.2020
3572 Clouds 15 1017 67 10000 4.6 220 16:37 30.01.2020
3573 Clouds 15 1016 77 10000 4.1 220 16:19 30.01.2020
3574 Clouds 16 1016 77 10000 5.1 230 15:43 30.01.2020
3575 Clouds 16 1016 82 10000 4.6 200 15:19 30.01.2020
3576 Clouds 16 1016 82 10000 3.6 180 14:50 30.01.2020
3577 Clouds 16 1016 82 10000 3.6 180 14:50 30.01.2020
3578 Rain 15 1017 87 10000 3.6 190 14:27 30.01.2020
3579 Clouds 15 1017 93 10000 3.6 210 13:54 30.01.2020
3580 Rain 15 1017 87 10000 4.1 210 13:36 30.01.2020
3581 Rain 15 1017 87 10000 4.1 210 13:18 30.01.2020
3582 Rain 15 1017 93 10000 3.1 210 12:41 30.01.2020
3583 Clouds 14 1018 93 10000 4.1 210 12:22 30.01.2020
3584 Clouds 14 1018 93 10000 4.1 210 11:54 30.01.2020
3585 Rain 14 1017 93 10000 3.1 200 11:36 30.01.2020
3586 Rain 13 1017 93 10000 3.1 200 11:18 30.01.2020
3587 Rain 13 1017 100 10000 3.6 210 10:42 30.01.2020
3588 Rain 13 1017 100 10000 3.6 210 10:21 30.01.2020
3589 Rain 13 1017 100 10000 2.6 210 09:47 30.01.2020
3590 Clouds 13 1017 93 10000 2.6 220 09:29 30.01.2020
3591 Clouds 13 1017 93 10000 3.6 220 08:58 30.01.2020
3592 Clouds 13 1017 93 10000 3.6 220 08:38 30.01.2020
3593 Clouds 13 1017 93 10000 4.1 220 08:19 30.01.2020
3594 Drizzle 13 1016 93 10000 5.1 220 07:48 30.01.2020
3595 Drizzle 13 1016 93 10000 5.1 210 07:22 30.01.2020
3596 Rain 13 1016 93 10000 5.1 210 06:47 30.01.2020
3597 Rain 13 1016 93 10000 5.1 210 06:47 30.01.2020
3598 Rain 12 1016 93 10000 4.6 210 06:27 30.01.2020
3599 Rain 12 1016 93 7000 4.6 200 05:43 30.01.2020
3600 Rain 12 1017 100 5000 3.6 210 05:19 30.01.2020
3601 Rain 12 1017 100 5000 3.6 210 03:52 30.01.2020
3602 Rain 12 1017 100 5000 4.1 210 03:34 30.01.2020
3603 Rain 11 1017 93 4100 3.1 170 01:57 30.01.2020
3604 Clouds 11 1018 81 10000 4.1 160 00:38 30.01.2020
3605 Clouds 11 1018 81 10000 4.1 160 00:19 30.01.2020
3606 Clouds 11 1018 81 10000 4.1 160 23:45 29.01.2020
3607 Clouds 11 1018 81 10000 4.1 160 23:21 29.01.2020
3608 Clouds 11 1018 81 10000 4.1 160 23:21 29.01.2020
3609 Clouds 11 1018 81 10000 4.1 160 23:21 29.01.2020
3610 Clouds 11 1018 81 10000 4.1 160 23:21 29.01.2020
3611 Clouds 11 1018 81 10000 3.1 150 22:56 29.01.2020
3612 Clouds 11 1018 81 10000 2.6 140 22:38 29.01.2020
3613 Clouds 11 1018 81 10000 2.6 140 22:19 29.01.2020
3614 Clouds 11 1019 81 10000 2.1 140 21:57 29.01.2020
3615 Clouds 11 1019 81 10000 2.1 140 21:38 29.01.2020
3616 Clouds 11 1018 76 10000 2.6 140 21:18 29.01.2020
3617 Clouds 11 1018 76 10000 2.6 150 20:57 29.01.2020
3618 Clouds 11 1018 76 10000 2.6 150 20:57 29.01.2020
3619 Clouds 11 1018 76 10000 3.1 130 20:37 29.01.2020
3620 Clouds 11 1018 76 10000 3.1 130 20:37 29.01.2020
3621 Clouds 11 1018 76 10000 3.1 130 20:18 29.01.2020
3622 Clouds 11 1018 76 10000 3.1 130 20:18 29.01.2020
3623 Clouds 11 1019 76 10000 2.1 150 19:55 29.01.2020
3624 Clouds 12 1018 71 10000 3.1 140 19:36 29.01.2020
3625 Clouds 12 1018 71 10000 3.1 140 19:18 29.01.2020
3626 Clouds 12 1018 71 10000 2.6 140 18:40 29.01.2020
3627 Clouds 12 1018 71 10000 2.6 140 18:19 29.01.2020
3628 Clouds 12 1018 66 10000 2.1 130 17:41 29.01.2020
3629 Clouds 13 1019 62 10000 2.1 150 17:23 29.01.2020
3630 Clouds 13 1019 62 10000 2.6 190 16:57 29.01.2020
3631 Clouds 13 1019 62 10000 2.6 190 16:39 29.01.2020
3632 Clouds 13 1019 66 10000 2.6 190 16:19 29.01.2020
3633 Clouds 14 1019 62 10000 2.6 210 15:39 29.01.2020
3634 Clouds 14 1019 62 10000 2.6 220 15:21 29.01.2020
3635 Clouds 14 1020 67 10000 3.1 250 14:55 29.01.2020
3636 Clouds 14 1020 67 10000 3.1 250 14:37 29.01.2020
3637 Clouds 14 1020 66 10000 4.6 230 14:18 29.01.2020
3638 Clouds 13 1020 71 10000 4.1 240 13:40 29.01.2020
3639 Clouds 13 1021 71 10000 3.6 230 13:22 29.01.2020
3640 Clouds 13 1021 76 10000 3.1 230 12:56 29.01.2020
3641 Clouds 12 1021 76 10000 3.1 230 12:38 29.01.2020
3642 Clouds 12 1021 76 10000 3.1 230 12:20 29.01.2020
3643 Clouds 11 1021 81 10000 2.1 220 11:47 29.01.2020
3644 Clouds 10 1021 87 10000 2.6 220 11:24 29.01.2020
3645 Clouds 9 1021 93 10000 2.6 220 10:56 29.01.2020
3646 Clouds 9 1021 93 10000 2.6 220 10:37 29.01.2020
3647 Clouds 8 1021 93 10000 2.6 220 10:19 29.01.2020
3648 Clouds 8 1020 93 10000 3.1 220 09:40 29.01.2020
3649 Clouds 8 1020 93 10000 3.1 220 09:40 29.01.2020
3650 Clouds 7 1020 93 10000 3.1 220 09:21 29.01.2020
3651 Clouds 7 1020 93 10000 3.1 210 08:57 29.01.2020
3652 Clouds 7 1020 100 10000 3.1 210 08:39 29.01.2020
3653 Clouds 7 1020 100 10000 3.1 210 08:20 29.01.2020
3654 Clouds 7 1020 93 10000 2.1 210 07:44 29.01.2020
3655 Clouds 7 1019 93 10000 1 240 07:24 29.01.2020
3656 Clouds 7 1019 93 10000 2.1 280 06:54 29.01.2020
3657 Clouds 7 1019 93 10000 2.1 210 06:36 29.01.2020
3658 Clouds 7 1019 93 10000 2.1 210 06:18 29.01.2020
3659 Rain 8 1019 93 10000 3.1 200 05:43 29.01.2020
3660 Clouds 8 1019 93 10000 3.1 220 05:25 29.01.2020
3661 Clouds 8 1019 93 10000 3.6 220 04:37 29.01.2020
3662 Clouds 8 1019 93 10000 2.1 220 02:43 29.01.2020
3663 Clouds 8 1019 87 10000 3.1 250 02:18 29.01.2020
3664 Clouds 8 1019 87 10000 4.1 230 00:43 29.01.2020
3665 Clouds 8 1018 87 10000 4.1 230 00:24 29.01.2020
3666 Clouds 8 1018 87 10000 4.1 230 23:56 28.01.2020
3667 Clouds 9 1018 87 10000 3.6 230 23:37 28.01.2020
3668 Clouds 9 1018 87 10000 3.6 230 23:18 28.01.2020
3669 Clouds 9 1018 87 10000 3.6 230 22:40 28.01.2020
3670 Clouds 9 1018 81 10000 4.1 230 22:21 28.01.2020
3671 Clouds 9 1018 81 10000 3.6 240 21:42 28.01.2020
3672 Clouds 9 1018 81 10000 4.1 230 21:22 28.01.2020
3673 Clouds 9 1018 81 10000 4.1 230 20:57 28.01.2020
3674 Clouds 10 1018 81 10000 4.1 230 20:39 28.01.2020
3675 Clouds 10 1018 81 10000 4.1 230 20:39 28.01.2020
3676 Clouds 10 1018 81 10000 4.1 240 20:21 28.01.2020
3677 Clouds 10 1018 76 10000 4.6 260 19:39 28.01.2020
3678 Clouds 10 1018 76 10000 4.6 260 19:20 28.01.2020
3679 Clouds 10 1017 76 10000 4.6 260 18:58 28.01.2020
3680 Clouds 11 1017 76 10000 4.6 260 18:39 28.01.2020
3681 Clouds 11 1017 76 10000 4.6 260 18:21 28.01.2020
3682 Clouds 11 1017 71 10000 6.2 260 17:57 28.01.2020
3683 Clouds 11 1017 71 10000 6.2 260 17:37 28.01.2020
3684 Clouds 12 1017 66 10000 8.7 270 17:19 28.01.2020
3685 Clouds 12 1017 66 10000 8.7 270 17:19 28.01.2020
3686 Clouds 12 1016 71 10000 6.7 260 16:46 28.01.2020
3687 Clouds 12 1016 62 10000 9.8 280 16:27 28.01.2020
3688 Rain 12 1016 71 10000 10.8 270 15:59 28.01.2020
3689 Rain 12 1016 71 10000 10.8 270 15:40 28.01.2020
3690 Rain 12 1016 71 10000 10.3 270 15:18 28.01.2020
3691 Clouds 12 1016 76 10000 8.7 260 14:45 28.01.2020
3692 Rain 12 1016 81 10000 8.7 270 14:20 28.01.2020
3693 Rain 12 1017 87 6000 8.2 290 13:46 28.01.2020
3694 Clouds 12 1016 81 10000 5.1 260 13:25 28.01.2020
3695 Drizzle 12 1017 81 10000 5.1 280 12:59 28.01.2020
3696 Drizzle 11 1017 81 10000 5.1 280 12:41 28.01.2020
3697 Rain 11 1017 76 10000 7.7 270 12:22 28.01.2020
3698 Clouds 12 1016 76 10000 6.2 250 11:43 28.01.2020
3699 Clouds 11 1016 81 10000 6.2 250 11:23 28.01.2020
3700 Clouds 11 1016 87 10000 6.2 240 10:56 28.01.2020
3701 Clouds 10 1016 81 10000 6.2 260 10:38 28.01.2020
3702 Clouds 10 1016 81 10000 6.2 260 10:18 28.01.2020
3703 Rain 10 1015 87 10000 6.7 250 09:42 28.01.2020
3704 Rain 10 1015 87 10000 5.1 250 09:21 28.01.2020
3705 Rain 10 1014 87 10000 5.1 260 08:47 28.01.2020
3706 Rain 10 1014 87 10000 5.1 270 08:27 28.01.2020
3707 Rain 10 1013 87 10000 7.2 240 07:57 28.01.2020
3708 Clouds 10 1013 81 10000 7.2 260 07:36 28.01.2020
3709 Rain 10 1013 76 10000 8.2 270 06:49 28.01.2020
3710 Rain 10 1013 76 10000 8.2 270 06:25 28.01.2020
3711 Clouds 11 1012 76 10000 7.2 260 05:42 28.01.2020
3712 Rain 11 1012 66 10000 10.3 260 05:24 28.01.2020
3713 Rain 11 1011 87 10000 6.7 250 03:51 28.01.2020
3714 Rain 10 1011 93 10000 6.2 240 02:55 28.01.2020
3715 Rain 10 1011 87 10000 6.2 280 02:25 28.01.2020
3716 Rain 10 1011 93 10000 7.2 250 01:56 28.01.2020
3717 Rain 11 1011 93 10000 8.7 250 01:22 28.01.2020
3718 Rain 11 1011 93 10000 8.2 230 00:45 28.01.2020
3719 Rain 10 1011 100 10000 6.2 230 00:24 28.01.2020
3720 Rain 10 1011 87 10000 7.2 230 23:46 27.01.2020
3721 Rain 10 1011 93 10000 6.7 220 23:28 27.01.2020
3722 Rain 10 1011 93 10000 6.7 220 23:28 27.01.2020
3723 Rain 10 1012 93 10000 7.7 250 22:46 27.01.2020
3724 Rain 10 1011 93 8000 5.7 210 22:22 27.01.2020
3725 Rain 10 1011 93 8000 5.7 210 22:22 27.01.2020
3726 Rain 10 1011 87 10000 5.1 200 21:59 27.01.2020
3727 Rain 10 1011 87 10000 5.1 200 21:39 27.01.2020
3728 Rain 10 1012 93 10000 3.1 230 21:19 27.01.2020
3729 Rain 10 1011 81 10000 5.1 220 20:59 27.01.2020
3730 Rain 10 1011 87 10000 5.1 200 20:38 27.01.2020
3731 Rain 10 1011 87 10000 5.1 200 20:20 27.01.2020
3732 Rain 10 1011 87 10000 5.7 190 19:57 27.01.2020
3733 Rain 10 1011 87 10000 5.7 190 19:39 27.01.2020
3734 Rain 10 1011 87 10000 5.7 190 19:21 27.01.2020
3735 Clouds 10 1011 93 10000 5.7 190 18:54 27.01.2020
3736 Clouds 10 1011 93 10000 4.6 200 18:36 27.01.2020
3737 Clouds 11 1011 93 10000 4.6 200 18:18 27.01.2020
3738 Rain 10 1012 93 10000 5.1 190 17:39 27.01.2020
3739 Rain 11 1012 93 10000 4.6 210 17:39 27.01.2020
3740 Rain 10 1012 93 10000 5.1 190 17:19 27.01.2020
3741 Rain 10 1012 93 10000 5.1 190 16:56 27.01.2020
3742 Rain 10 1012 93 10000 4.1 200 16:37 27.01.2020
3743 Rain 10 1012 93 10000 4.1 200 16:19 27.01.2020
3744 Rain 10 1013 100 10000 3.1 200 15:41 27.01.2020
3745 Rain 10 1013 93 10000 3.1 200 15:20 27.01.2020
3746 Rain 10 1014 93 10000 3.6 200 14:57 27.01.2020
3747 Rain 9 1014 100 10000 3.6 190 14:39 27.01.2020
3748 Rain 9 1014 100 10000 3.6 190 14:20 27.01.2020
3749 Rain 9 1014 93 7000 4.6 180 13:42 27.01.2020
3750 Rain 9 1015 93 10000 5.7 200 13:23 27.01.2020
3751 Rain 9 1015 93 10000 6.2 190 12:58 27.01.2020
3752 Rain 9 1015 93 10000 6.2 190 12:39 27.01.2020
3753 Rain 9 1015 93 10000 6.2 200 12:21 27.01.2020
3754 Rain 8 1015 93 7000 5.1 170 11:43 27.01.2020
3755 Rain 8 1016 87 9000 3.6 180 11:22 27.01.2020
3756 Rain 8 1016 81 10000 2.6 180 10:56 27.01.2020
3757 Rain 8 1016 81 10000 1.5 170 10:37 27.01.2020
3758 Rain 8 1016 81 10000 1.5 170 10:18 27.01.2020
3759 Rain 7 1015 75 10000 2.6 150 09:39 27.01.2020
3760 Rain 7 1015 75 10000 2.6 150 09:19 27.01.2020
3761 Rain 8 1015 75 10000 3.6 160 08:48 27.01.2020
3762 Clouds 7 1016 75 10000 3.6 170 08:23 27.01.2020
3763 Clouds 7 1016 81 10000 3.1 160 07:56 27.01.2020
3764 Clouds 8 1016 81 10000 3.1 160 07:37 27.01.2020
3765 Rain 8 1016 81 10000 3.1 170 07:19 27.01.2020
3766 Clouds 7 1016 81 10000 4.1 180 06:37 27.01.2020
3767 Clouds 8 1016 75 10000 3.6 190 06:37 27.01.2020
3768 Clouds 7 1017 81 10000 3.6 170 05:38 27.01.2020
3769 Clouds 7 1017 81 10000 3.6 170 05:38 27.01.2020
3770 Rain 8 1018 87 10000 3.6 190 04:37 27.01.2020
3771 Clouds 8 1018 81 10000 5.1 180 03:35 27.01.2020
3772 Clouds 7 1019 87 10000 4.6 180 01:47 27.01.2020
3773 Clouds 7 1019 93 10000 4.6 170 01:22 27.01.2020
3774 Clouds 7 1019 93 10000 3.6 180 00:40 27.01.2020
3775 Clouds 7 1020 93 10000 3.6 180 00:21 27.01.2020
3776 Clouds 7 1020 100 10000 2.6 200 23:43 26.01.2020
3777 Clouds 7 1020 100 10000 3.6 180 23:21 26.01.2020
3778 Clouds 7 1020 100 7000 2.6 180 22:57 26.01.2020
3779 Clouds 7 1020 93 7000 2.6 190 22:37 26.01.2020
3780 Clouds 7 1020 93 7000 2.6 190 22:19 26.01.2020
3781 Clouds 7 1020 93 7000 2.6 190 22:19 26.01.2020
3782 Clouds 8 1020 93 10000 2.6 180 21:57 26.01.2020
3783 Clouds 8 1020 93 10000 2.6 180 21:38 26.01.2020
3784 Clouds 8 1020 93 10000 2.6 200 21:20 26.01.2020
3785 Clouds 9 1020 93 10000 2.1 200 20:56 26.01.2020
3786 Clouds 9 1020 93 10000 2.1 180 20:38 26.01.2020
3787 Clouds 9 1020 93 10000 2.1 180 20:18 26.01.2020
3788 Clouds 9 1020 87 10000 2.1 200 19:57 26.01.2020
3789 Clouds 10 1020 87 10000 2.6 210 19:37 26.01.2020
3790 Clouds 10 1020 87 10000 2.6 210 19:18 26.01.2020
3791 Clouds 10 1020 87 10000 2.6 210 18:41 26.01.2020
3792 Clouds 11 1020 81 10000 2.6 220 18:22 26.01.2020
3793 Clouds 11 1020 76 10000 3.6 240 17:59 26.01.2020
3794 Clouds 12 1020 76 10000 3.6 240 17:59 26.01.2020
3795 Clouds 12 1020 76 10000 3.6 240 17:39 26.01.2020
3796 Clear 13 1020 71 10000 4.6 240 17:20 26.01.2020
3797 Clouds 13 1020 71 10000 5.1 240 16:58 26.01.2020
3798 Clouds 13 1020 71 10000 5.1 240 16:40 26.01.2020
3799 Clouds 13 1020 67 10000 6.2 240 16:21 26.01.2020
3800 Clouds 14 1020 67 10000 5.7 240 15:58 26.01.2020
3801 Clear 14 1017 75 0 2.24 257 15:39 26.01.2020
3802 Clear 14 1017 76 0 1.79 232 15:19 26.01.2020
3803 Clear 14 1017 73 0 2.24 256 14:41 26.01.2020
3804 Clouds 14 1017 76 0 2.24 247 14:21 26.01.2020
3805 Clouds 13 1017 80 0 1.79 238 13:57 26.01.2020
3806 Clouds 13 1017 79 0 2.24 253 13:37 26.01.2020
3807 Clouds 13 1017 79 0 2.24 253 13:37 26.01.2020
3808 Clouds 13 1017 79 0 2.68 241 13:18 26.01.2020
3809 Clouds 13 1017 79 0 2.68 241 13:18 26.01.2020
3810 Clouds 13 1018 86 0 1.79 233 12:42 26.01.2020
3811 Clouds 12 1018 89 0 2.24 238 12:23 26.01.2020
3812 Clouds 11 1018 91 0 1.79 229 11:57 26.01.2020
3813 Clouds 11 1018 92 0 1.34 243 11:39 26.01.2020
3814 Clouds 10 1020 100 9000 2.1 220 11:19 26.01.2020
3815 Clouds 9 1020 100 9000 2.1 220 10:58 26.01.2020
3816 Clouds 9 1020 100 9000 2.1 220 10:38 26.01.2020
3817 Clouds 9 1020 100 9000 2.1 220 10:20 26.01.2020
3818 Mist 8 1020 100 5000 2.6 210 09:57 26.01.2020
3819 Fog 6 1019 100 650 2.1 210 09:39 26.01.2020
3820 Fog 6 1019 100 650 2.1 210 09:39 26.01.2020
3821 Fog 7 1019 100 650 2.1 210 09:20 26.01.2020
3822 Fog 7 1019 93 500 2.1 220 08:43 26.01.2020
3823 Fog 7 1019 100 1200 1.5 240 08:22 26.01.2020
3824 Rain 7 1018 100 4300 1 0 07:57 26.01.2020
3825 Rain 7 1018 100 4300 1 0 07:39 26.01.2020
3826 Clouds 8 1018 93 6000 1.5 190 07:20 26.01.2020
3827 Clouds 8 1018 93 10000 2.1 210 06:30 26.01.2020
3828 Rain 8 1017 100 5000 1 0 05:31 26.01.2020
3829 Rain 8 1017 100 4700 1.5 220 04:45 26.01.2020
3830 Drizzle 8 1017 93 5000 1.28 181 02:42 26.01.2020
3831 Mist 8 1017 100 3500 1.5 220 01:48 26.01.2020
3832 Fog 8 1017 93 1300 0.64 75 01:24 26.01.2020
3833 Fog 8 1017 93 6000 0.5 130 00:44 26.01.2020
3834 Clouds 8 1017 93 8000 1.5 220 00:26 26.01.2020
3835 Clouds 9 1015 90 0 1.1 103 23:40 25.01.2020
3836 Clouds 9 1015 89 0 1.75 160 23:21 25.01.2020
3837 Clouds 9 1015 89 0 1.75 160 22:58 25.01.2020
3838 Clouds 9 1015 89 0 1.75 160 22:39 25.01.2020
3839 Clouds 9 1015 89 0 1.75 160 22:18 25.01.2020
3840 Clouds 9 1015 89 0 0.45 315 21:56 25.01.2020
3841 Clouds 9 1015 88 0 0.89 90 21:38 25.01.2020
3842 Clouds 9 1018 90 0 1.75 160 21:19 25.01.2020
3843 Clouds 10 1015 88 0 1.75 160 20:43 25.01.2020
3844 Clouds 9 1017 89 0 1.37 141 20:25 25.01.2020
3845 Clouds 9 1017 89 0 1.37 141 19:54 25.01.2020
3846 Clouds 10 1015 87 0 1.63 156 19:36 25.01.2020
3847 Clouds 11 1014 86 0 1.37 141 19:18 25.01.2020
3848 Clouds 10 1014 87 0 1.37 141 18:41 25.01.2020
3849 Clouds 11 1014 86 0 1.37 141 18:21 25.01.2020
3850 Clouds 11 1014 86 0 1.37 141 18:21 25.01.2020
3851 Clouds 11 1014 85 0 1.37 141 17:57 25.01.2020
3852 Clouds 11 993 70 0 0.45 108 17:37 25.01.2020
3853 Clouds 11 1014 84 0 0.45 112 17:18 25.01.2020
3854 Clouds 12 1014 83 0 0.45 134 16:42 25.01.2020
3855 Clouds 12 1014 83 0 0.45 134 16:42 25.01.2020
3856 Clouds 12 1014 83 0 0.89 113 16:23 25.01.2020
3857 Clouds 13 1014 82 0 0.89 103 15:56 25.01.2020
3858 Clouds 13 1014 82 0 0.89 107 15:38 25.01.2020
3859 Clouds 12 1014 82 0 1.34 84 15:19 25.01.2020
3860 Clouds 12 1015 83 0 1.34 90 14:42 25.01.2020
3861 Clouds 12 1015 86 0 0.89 86 14:19 25.01.2020
3862 Clouds 11 1015 88 0 1.34 100 13:45 25.01.2020
3863 Clouds 11 1015 90 0 0.89 137 13:26 25.01.2020
3864 Clouds 10 1019 87 10000 3.1 120 12:51 25.01.2020
3865 Clouds 9 1019 87 10000 3.1 120 12:31 25.01.2020
3866 Clouds 9 1019 87 10000 3.1 120 11:57 25.01.2020
3867 Clouds 9 1019 87 10000 3.1 120 11:39 25.01.2020
3868 Clouds 8 1019 100 10000 2.6 120 11:19 25.01.2020
3869 Clouds 7 1019 100 9000 2.1 130 10:42 25.01.2020
3870 Clouds 6 1019 100 8000 2.6 130 10:21 25.01.2020
3871 Clouds 5 1019 100 7000 2.6 120 09:59 25.01.2020
3872 Clouds 6 1019 100 7000 2.6 120 09:38 25.01.2020
3873 Clouds 5 1019 100 6000 2.6 120 09:19 25.01.2020
3874 Rain 5 1018 100 6000 2.6 120 08:42 25.01.2020
3875 Rain 5 1018 100 6000 2.6 120 08:42 25.01.2020
3876 Clouds 5 1018 100 7000 2.6 110 07:57 25.01.2020
3877 Clouds 5 1018 100 8000 2.1 110 07:28 25.01.2020
3878 Clouds 5 1018 100 6000 2.6 120 06:31 25.01.2020
3879 Mist 6 1018 100 5000 1.5 130 05:52 25.01.2020
3880 Mist 5 1018 100 4900 3.1 120 05:32 25.01.2020
3881 Fog 5 1018 100 1400 2.6 120 03:58 25.01.2020
3882 Fog 5 1018 100 1400 2.6 120 03:39 25.01.2020
3883 Fog 6 1019 100 4200 1.5 90 02:36 25.01.2020
3884 Fog 6 1019 100 4900 2.1 90 01:56 25.01.2020
3885 Fog 6 1019 100 5000 1.5 90 01:21 25.01.2020
3886 Fog 6 1019 100 6000 2.1 110 00:37 25.01.2020
3887 Fog 6 1020 100 6000 1 130 00:18 25.01.2020
3888 Clouds 7 1020 93 7000 1.5 130 23:41 24.01.2020
3889 Clouds 7 1020 93 7000 1.5 130 23:41 24.01.2020
3890 Clouds 7 1020 100 8000 1.5 150 23:23 24.01.2020
3891 Clouds 7 1020 93 9000 2.6 120 22:46 24.01.2020
3892 Clouds 7 1020 100 9000 2.6 130 22:27 24.01.2020
3893 Clouds 7 1020 93 9000 2.1 130 21:58 24.01.2020
3894 Clouds 7 1020 93 9000 2.1 130 21:39 24.01.2020
3895 Clouds 8 1020 93 10000 2.6 130 21:18 24.01.2020
3896 Clouds 8 1020 93 10000 2.6 110 20:43 24.01.2020
3897 Clouds 9 1020 93 10000 2.6 110 20:22 24.01.2020
3898 Clouds 9 1020 87 10000 2.1 130 19:58 24.01.2020
3899 Clouds 10 1020 87 10000 2.1 130 19:40 24.01.2020
3900 Clouds 10 1019 87 10000 3.1 110 19:21 24.01.2020
3901 Clouds 10 1019 93 10000 2.1 110 18:54 24.01.2020
3902 Clouds 11 1019 87 10000 1.5 110 18:36 24.01.2020
3903 Clouds 11 1019 87 10000 1.5 110 18:18 24.01.2020
3904 Clouds 12 1019 81 10000 2.1 130 17:42 24.01.2020
3905 Clouds 13 1019 76 10000 3.1 130 17:21 24.01.2020
3906 Clouds 13 1019 76 10000 2.6 120 16:43 24.01.2020
3907 Clouds 13 1019 81 10000 3.1 110 16:21 24.01.2020
3908 Clouds 13 1019 81 10000 2.6 120 15:56 24.01.2020
3909 Clouds 12 1019 81 10000 2.6 110 15:38 24.01.2020
3910 Clouds 12 1019 81 10000 2.6 110 15:19 24.01.2020
3911 Clouds 12 1020 76 10000 2.1 130 14:41 24.01.2020
3912 Clouds 12 1020 76 10000 3.1 130 14:23 24.01.2020
3913 Clouds 12 1020 76 10000 3.1 130 14:23 24.01.2020
3914 Clouds 12 1020 81 10000 2.6 130 13:45 24.01.2020
3915 Clouds 12 1021 81 10000 3.6 140 13:24 24.01.2020
3916 Clouds 11 1021 81 10000 2.6 140 12:55 24.01.2020
3917 Clouds 11 1021 87 10000 3.1 140 12:37 24.01.2020
3918 Clouds 10 1021 87 10000 3.1 140 12:18 24.01.2020
3919 Clouds 10 1021 87 10000 3.1 140 12:18 24.01.2020
3920 Clouds 10 1021 87 10000 3.6 140 11:42 24.01.2020
3921 Clouds 9 1021 87 10000 4.1 140 11:19 24.01.2020
3922 Clouds 9 1021 87 10000 3.6 130 10:43 24.01.2020
3923 Clouds 8 1021 93 10000 3.1 140 10:22 24.01.2020
3924 Clouds 8 1021 93 10000 2.6 120 09:56 24.01.2020
3925 Clouds 7 1021 93 10000 2.6 120 09:38 24.01.2020
3926 Clouds 7 1021 93 10000 2.6 120 09:38 24.01.2020
3927 Clouds 7 1020 100 10000 2.1 110 09:20 24.01.2020
3928 Clouds 7 1020 100 10000 3.1 120 08:40 24.01.2020
3929 Clouds 7 1020 100 10000 2.1 130 08:19 24.01.2020
3930 Clouds 7 1020 100 10000 2.6 110 07:50 24.01.2020
3931 Clouds 7 1020 100 10000 2.1 120 07:28 24.01.2020
3932 Clouds 7 1020 100 10000 2.1 120 06:48 24.01.2020
3933 Clouds 7 1020 100 10000 2.1 120 06:28 24.01.2020
3934 Clouds 7 1020 100 10000 2.1 130 05:57 24.01.2020
3935 Clouds 7 1020 100 10000 3.1 130 04:52 24.01.2020
3936 Clouds 8 1020 93 10000 1.5 180 02:53 24.01.2020
3937 Clouds 8 1020 93 10000 2.1 140 02:23 24.01.2020
3938 Clouds 8 1020 93 9000 1.5 150 01:40 24.01.2020
3939 Clouds 8 1020 100 10000 2.6 160 01:19 24.01.2020
3940 Clouds 9 1020 93 10000 2.6 180 00:19 24.01.2020
3941 Clouds 9 1020 93 10000 2.6 190 23:45 23.01.2020
3942 Mist 9 1020 100 5000 2.6 160 23:27 23.01.2020
3943 Clouds 9 1020 100 6000 1.5 170 22:59 23.01.2020
3944 Drizzle 10 1020 100 9000 1.5 180 22:37 23.01.2020
3945 Drizzle 10 1020 100 9000 1.5 180 22:18 23.01.2020
3946 Rain 10 1020 93 10000 1.5 0 21:55 23.01.2020
3947 Rain 10 1020 87 7000 1 109 21:37 23.01.2020
3948 Rain 10 1020 87 7000 1 109 21:19 23.01.2020
3949 Rain 11 1019 93 10000 1.5 200 20:56 23.01.2020
3950 Rain 11 1019 81 10000 1 0 20:37 23.01.2020
3951 Rain 11 1019 93 10000 1.5 200 20:37 23.01.2020
3952 Rain 11 1019 81 10000 1 0 20:18 23.01.2020
3953 Rain 11 1019 81 10000 2.1 50 19:44 23.01.2020
3954 Rain 11 1019 81 10000 1.5 0 19:24 23.01.2020
3955 Rain 11 1019 81 10000 1 0 18:58 23.01.2020
3956 Rain 11 1019 81 10000 1 0 18:39 23.01.2020
3957 Clouds 12 1019 81 10000 2.1 190 18:20 23.01.2020
3958 Rain 12 1019 71 10000 1.5 150 17:56 23.01.2020
3959 Rain 13 1019 71 10000 4.1 90 17:37 23.01.2020
3960 Rain 13 1019 71 10000 4.1 90 17:18 23.01.2020
3961 Clouds 13 1018 62 10000 4.6 80 16:39 23.01.2020
3962 Clouds 13 1018 62 10000 4.6 80 16:20 23.01.2020
3963 Clouds 14 1018 62 10000 5.1 80 15:58 23.01.2020
3964 Clouds 14 1018 62 10000 5.1 80 15:40 23.01.2020
3965 Clouds 14 1018 62 10000 5.1 80 15:19 23.01.2020
3966 Clouds 14 1018 62 10000 4.1 80 14:59 23.01.2020
3967 Clouds 14 1018 62 10000 4.1 80 14:41 23.01.2020
3968 Clouds 14 1019 62 10000 4.1 70 14:22 23.01.2020
3969 Clouds 14 1019 62 10000 5.7 90 13:56 23.01.2020
3970 Clouds 14 1019 62 10000 5.7 90 13:37 23.01.2020
3971 Clouds 14 1020 62 10000 5.7 90 13:18 23.01.2020
3972 Clouds 13 1020 62 10000 6.7 90 12:43 23.01.2020
3973 Clouds 13 1020 62 10000 6.7 90 12:24 23.01.2020
3974 Clouds 13 1020 62 10000 5.1 80 11:56 23.01.2020
3975 Clouds 13 1020 66 10000 4.1 80 11:37 23.01.2020
3976 Clouds 13 1020 66 10000 4.1 80 11:37 23.01.2020
3977 Clouds 12 1020 66 10000 4.1 80 11:18 23.01.2020
3978 Clouds 12 1020 66 10000 4.1 80 11:18 23.01.2020
3979 Rain 12 1020 71 10000 3.6 90 10:42 23.01.2020
3980 Clouds 12 1020 66 10000 4.1 90 10:19 23.01.2020
3981 Clouds 12 1020 66 10000 4.1 90 09:42 23.01.2020
3982 Rain 12 1020 71 10000 5.1 90 09:24 23.01.2020
3983 Clouds 11 1020 66 10000 4.1 90 08:58 23.01.2020
3984 Clouds 12 1020 66 10000 4.1 90 08:58 23.01.2020
3985 Rain 11 1020 66 10000 4.1 90 08:40 23.01.2020
3986 Rain 11 1020 66 10000 4.1 90 08:21 23.01.2020
3987 Clouds 11 1020 71 10000 3.1 90 07:44 23.01.2020
3988 Clouds 11 1020 66 10000 1.5 70 07:24 23.01.2020
3989 Clouds 11 1020 66 10000 2.6 60 06:51 23.01.2020
3990 Clouds 11 1020 66 10000 2.6 60 06:20 23.01.2020
3991 Clouds 11 1020 66 10000 3.6 70 04:58 23.01.2020
3992 Clouds 11 1021 66 10000 3.6 70 04:22 23.01.2020
3993 Clouds 11 1021 62 10000 6.2 70 02:31 23.01.2020
3994 Clouds 10 1021 81 10000 3.1 50 00:56 23.01.2020
3995 Clouds 10 1021 87 10000 3.6 40 00:26 23.01.2020
3996 Clouds 10 1021 81 10000 4.1 40 23:47 22.01.2020
3997 Clouds 10 1021 93 10000 4.1 40 23:29 22.01.2020
3998 Clouds 10 1022 87 10000 4.6 40 22:56 22.01.2020
3999 Clouds 10 1022 87 10000 4.6 40 22:38 22.01.2020
4000 Clouds 10 1022 87 10000 4.6 40 22:20 22.01.2020
4001 Rain 10 1022 87 8000 5.1 30 21:39 22.01.2020
4002 Rain 10 1022 87 8000 5.1 30 21:21 22.01.2020
4003 Rain 10 1023 93 8000 4.6 20 20:56 22.01.2020
4004 Rain 10 1023 93 5000 3.6 20 20:36 22.01.2020
4005 Rain 10 1023 93 5000 3.6 20 20:36 22.01.2020
4006 Rain 10 1023 93 5000 3.6 20 20:18 22.01.2020
4007 Rain 10 1023 93 4900 3.1 30 19:55 22.01.2020
4008 Rain 10 1023 93 4900 3.1 30 19:36 22.01.2020
4009 Rain 10 1023 93 7000 3.1 30 19:18 22.01.2020
4010 Rain 10 1023 93 7000 3.1 30 18:54 22.01.2020
4011 Rain 11 1023 87 9000 2.6 90 18:36 22.01.2020
4012 Rain 11 1023 87 9000 2.6 90 18:18 22.01.2020
4013 Rain 11 1023 81 10000 2.6 90 17:39 22.01.2020
4014 Rain 11 1023 81 10000 3.1 70 17:20 22.01.2020
4015 Rain 11 1023 71 10000 2.6 60 16:56 22.01.2020
4016 Clouds 11 1023 66 10000 3.6 60 16:37 22.01.2020
4017 Clouds 11 1023 66 10000 3.6 60 16:37 22.01.2020
4018 Clouds 12 1023 66 10000 3.6 60 16:18 22.01.2020
4019 Clouds 12 1024 66 10000 4.6 50 15:43 22.01.2020
4020 Clouds 11 1024 71 10000 4.1 50 15:24 22.01.2020
4021 Clouds 11 1024 71 10000 4.1 40 14:59 22.01.2020
4022 Clouds 11 1024 71 10000 4.1 40 14:38 22.01.2020
4023 Clouds 11 1024 76 10000 5.7 30 14:20 22.01.2020
4024 Clouds 10 1025 87 10000 6.2 40 13:56 22.01.2020
4025 Rain 10 1025 93 10000 5.1 30 13:37 22.01.2020
4026 Clouds 10 1025 93 10000 5.1 30 13:19 22.01.2020
4027 Rain 10 1026 87 10000 4.1 60 12:56 22.01.2020
4028 Rain 10 1026 87 10000 4.1 60 12:56 22.01.2020
4029 Rain 10 1026 81 10000 4.1 50 12:38 22.01.2020
4030 Rain 10 1026 81 10000 4.1 50 12:19 22.01.2020
4031 Rain 10 1027 70 10000 5.1 60 11:56 22.01.2020
4032 Clouds 9 1027 58 10000 3.6 60 11:38 22.01.2020
4033 Clear 9 1027 58 10000 3.6 60 11:19 22.01.2020
4034 Clear 8 1026 52 10000 3.6 30 10:45 22.01.2020
4035 Clear 7 1026 60 10000 3.6 20 10:21 22.01.2020
4036 Clear 7 1026 56 10000 3.1 50 09:57 22.01.2020
4037 Clear 7 1026 56 10000 3.1 50 09:39 22.01.2020
4038 Clouds 7 1027 56 10000 3.1 50 09:20 22.01.2020
4039 Clear 6 1027 56 10000 4.1 50 08:54 22.01.2020
4040 Clear 6 1027 56 10000 4.1 50 08:36 22.01.2020
4041 Clear 6 1027 56 10000 4.1 50 08:18 22.01.2020
4042 Clear 6 1027 60 10000 3.6 40 07:40 22.01.2020
4043 Clear 6 1027 60 10000 3.6 40 07:21 22.01.2020
4044 Clear 6 1027 60 10000 3.6 40 07:21 22.01.2020
4045 Clear 5 1027 65 10000 3.6 40 06:33 22.01.2020
4046 Clear 5 1027 65 10000 3.6 30 05:42 22.01.2020
4047 Clear 5 1027 65 10000 3.6 30 05:42 22.01.2020
4048 Clear 6 1029 75 10000 3.1 30 04:24 22.01.2020
4049 Clear 5 1029 80 10000 2.1 20 03:26 22.01.2020
4050 Clear 5 1029 80 10000 2.6 360 02:38 22.01.2020
4051 Clouds 6 1030 75 10000 3.1 30 00:46 22.01.2020
4052 Clouds 7 1030 75 10000 4.1 30 00:27 22.01.2020
4053 Clouds 7 1030 75 10000 5.1 30 23:55 21.01.2020
4054 Clouds 7 1030 75 10000 5.7 30 23:37 21.01.2020
4055 Clouds 7 1030 75 10000 5.7 30 23:18 21.01.2020
4056 Clouds 7 1030 75 10000 5.7 30 23:18 21.01.2020
4057 Clouds 7 1030 75 10000 5.7 30 23:18 21.01.2020
4058 Clouds 8 1030 70 10000 5.7 20 22:40 21.01.2020
4059 Clouds 8 1030 75 10000 5.7 20 22:20 21.01.2020
4060 Clouds 9 1030 70 10000 5.1 20 21:57 21.01.2020
4061 Clouds 9 1030 66 10000 5.1 30 21:38 21.01.2020
4062 Clouds 9 1030 66 10000 5.1 30 21:20 21.01.2020
4063 Clouds 9 1030 66 10000 5.1 30 20:56 21.01.2020
4064 Clouds 9 1030 66 10000 5.1 30 20:37 21.01.2020
4065 Clouds 9 1030 66 10000 5.7 30 20:19 21.01.2020
4066 Clouds 9 1030 66 10000 6.2 30 19:56 21.01.2020
4067 Clouds 9 1030 66 10000 5.1 30 19:37 21.01.2020
4068 Clouds 10 1030 66 10000 5.1 30 19:19 21.01.2020
4069 Clouds 10 1030 66 10000 3.6 20 18:55 21.01.2020
4070 Clouds 10 1030 61 10000 3.1 20 18:37 21.01.2020
4071 Clouds 10 1030 61 10000 3.1 20 18:18 21.01.2020
4072 Clouds 11 1030 57 10000 5.7 40 17:44 21.01.2020
4073 Clear 12 1030 54 10000 5.7 40 17:20 21.01.2020
4074 Clear 12 1030 54 10000 6.2 50 16:58 21.01.2020
4075 Clear 12 1031 54 10000 5.7 60 16:37 21.01.2020
4076 Clear 12 1031 54 10000 5.7 60 16:18 21.01.2020
4077 Clear 12 1031 54 10000 6.2 50 15:42 21.01.2020
4078 Clear 12 1031 54 10000 6.2 50 15:21 21.01.2020
4079 Clouds 12 1032 57 10000 5.7 40 14:59 21.01.2020
4080 Clouds 11 1032 57 10000 5.1 50 14:37 21.01.2020
4081 Clouds 11 1032 57 10000 5.1 50 14:19 21.01.2020
4082 Clouds 9 1033 57 10000 5.1 50 13:40 21.01.2020
4083 Clouds 9 1033 57 10000 5.1 50 13:19 21.01.2020
4084 Clouds 8 1034 57 10000 5.1 40 12:43 21.01.2020
4085 Clouds 6 1034 65 10000 4.1 40 12:25 21.01.2020
4086 Clouds 5 1034 69 10000 4.1 40 11:57 21.01.2020
4087 Clouds 5 1034 69 10000 4.6 40 11:38 21.01.2020
4088 Clouds 5 1034 69 10000 4.6 40 11:20 21.01.2020
4089 Clouds 4 1034 74 10000 5.7 40 10:44 21.01.2020
4090 Clouds 3 1034 74 10000 4.6 40 10:23 21.01.2020
4091 Clouds 3 1034 74 10000 4.6 40 10:23 21.01.2020
4092 Clouds 3 1034 74 10000 4.1 30 09:59 21.01.2020
4093 Clouds 3 1034 74 10000 4.1 30 09:40 21.01.2020
4094 Clouds 3 1034 80 10000 3.6 40 09:22 21.01.2020
4095 Clouds 3 1034 80 10000 3.6 40 09:22 21.01.2020
4096 Clouds 3 1034 80 10000 3.6 20 08:48 21.01.2020
4097 Clouds 2 1034 80 10000 3.6 30 08:28 21.01.2020
4098 Clouds 2 1034 80 10000 3.6 40 07:57 21.01.2020
4099 Clouds 2 1034 80 10000 3.6 40 07:38 21.01.2020
4100 Clouds 3 1034 80 10000 3.1 40 07:20 21.01.2020
4101 Clouds 3 1034 80 10000 3.6 30 06:45 21.01.2020
4102 Clouds 3 1034 80 10000 3.6 30 06:23 21.01.2020
4103 Clouds 3 1034 80 10000 3.6 30 06:23 21.01.2020
4104 Clouds 3 1034 80 10000 3.6 30 05:41 21.01.2020
4105 Clouds 2 1035 74 10000 3.1 40 04:39 21.01.2020
4106 Clouds 2 1035 74 10000 3.6 30 02:54 21.01.2020
4107 Clear 3 1036 69 10000 2.6 20 01:47 21.01.2020
4108 Clear 2 1036 74 10000 3.6 30 00:52 21.01.2020
4109 Clear 3 1037 69 10000 3.6 30 00:29 21.01.2020
4110 Clear 3 1037 69 10000 3.1 50 23:57 20.01.2020
4111 Clear 3 1037 69 10000 3.1 50 23:36 20.01.2020
4112 Clear 3 1036 69 10000 3.6 50 23:18 20.01.2020
4113 Clear 3 1037 69 10000 4.1 50 22:55 20.01.2020
4114 Clear 3 1037 69 10000 4.1 50 22:36 20.01.2020
4115 Clear 4 1037 69 10000 4.1 40 22:18 20.01.2020
4116 Clear 4 1037 64 10000 4.1 40 21:55 20.01.2020
4117 Clear 4 1037 64 10000 4.6 40 21:36 20.01.2020
4118 Clear 4 1037 64 10000 4.6 40 21:18 20.01.2020
4119 Clouds 5 1037 60 10000 5.1 30 20:43 20.01.2020
4120 Clear 5 1037 60 10000 5.7 30 20:20 20.01.2020
4121 Clouds 5 1037 60 10000 5.1 40 19:59 20.01.2020
4122 Clouds 5 1037 60 10000 5.1 40 19:59 20.01.2020
4123 Clouds 5 1037 60 10000 5.1 40 19:41 20.01.2020
4124 Clear 5 1036 56 10000 5.1 40 19:19 20.01.2020
4125 Clear 6 1036 56 10000 5.1 40 18:56 20.01.2020
4126 Clear 6 1036 52 10000 4.6 40 18:38 20.01.2020
4127 Clear 6 1036 52 10000 4.6 40 18:19 20.01.2020
4128 Clear 7 1036 48 10000 5.1 40 17:39 20.01.2020
4129 Clear 8 1036 45 10000 6.7 50 17:19 20.01.2020
4130 Clear 8 1036 45 10000 6.2 50 16:47 20.01.2020
4131 Clear 8 1036 49 10000 7.2 40 16:26 20.01.2020
4132 Clear 8 1036 49 10000 7.2 40 15:59 20.01.2020
4133 Clear 8 1036 49 10000 7.2 40 15:40 20.01.2020
4134 Clear 8 1036 45 10000 6.7 40 15:22 20.01.2020
4135 Clear 8 1036 52 10000 5.7 50 14:59 20.01.2020
4136 Clear 8 1036 52 10000 5.7 50 14:40 20.01.2020
4137 Clear 8 1036 52 10000 6.7 50 14:21 20.01.2020
4138 Clear 7 1037 56 10000 7.2 40 13:56 20.01.2020
4139 Clear 7 1037 60 10000 6.7 60 13:38 20.01.2020
4140 Clear 7 1037 60 10000 6.7 60 13:38 20.01.2020
4141 Clear 7 1037 60 10000 6.7 60 13:18 20.01.2020
4142 Clear 6 1037 56 10000 6.7 50 12:42 20.01.2020
4143 Clear 6 1037 60 10000 7.7 50 12:23 20.01.2020
4144 Clear 6 1038 65 10000 7.2 40 11:55 20.01.2020
4145 Clear 5 1038 45 10000 6.2 40 11:36 20.01.2020
4146 Clear 5 1038 62 10000 6.2 40 11:18 20.01.2020
4147 Clear 4 1037 62 10000 7.7 40 10:41 20.01.2020
4148 Clear 3 1037 62 10000 7.2 30 10:20 20.01.2020
4149 Clear 3 1037 62 10000 7.2 30 09:42 20.01.2020
4150 Clear 2 1037 62 10000 6.7 30 09:24 20.01.2020
4151 Clear 2 1037 62 10000 6.7 30 08:55 20.01.2020
4152 Clear 2 1037 62 10000 6.2 20 08:34 20.01.2020
4153 Clouds 2 1037 76 10000 7.2 20 07:56 20.01.2020
4154 Clear 2 1037 76 10000 7.2 20 07:38 20.01.2020
4155 Clear 2 1037 76 10000 7.2 20 07:19 20.01.2020
4156 Clear 2 1037 76 10000 7.2 30 06:40 20.01.2020
4157 Clear 2 1037 76 10000 7.2 30 06:20 20.01.2020
4158 Clear 2 1037 76 10000 6.7 20 05:38 20.01.2020
4159 Clear 2 1037 77 10000 6.7 20 05:19 20.01.2020
4160 Clear 3 1038 77 10000 6.2 20 03:55 20.01.2020
4161 Clear 4 1038 75 10000 7.7 20 01:58 20.01.2020
4162 Clear 4 1038 75 10000 7.7 20 01:39 20.01.2020
4163 Clear 4 1039 78 10000 6.7 20 00:56 20.01.2020
4164 Clear 4 1039 78 10000 5.7 30 00:37 20.01.2020
4165 Clear 4 1039 78 10000 5.7 30 00:19 20.01.2020
4166 Clear 4 1039 78 10000 4.6 20 23:37 19.01.2020
4167 Clear 4 1039 71 10000 4.6 20 23:18 19.01.2020
4168 Clear 5 1039 71 10000 5.1 30 22:55 19.01.2020
4169 Clear 4 1038 71 10000 4.6 30 22:37 19.01.2020
4170 Clear 4 1038 71 10000 4.6 30 22:18 19.01.2020
4171 Clear 5 1038 71 10000 4.6 30 21:55 19.01.2020
4172 Clear 5 1038 71 10000 4.6 30 21:37 19.01.2020
4173 Clear 5 1038 71 10000 5.7 30 21:19 19.01.2020
4174 Clear 5 1038 71 10000 5.7 30 20:55 19.01.2020
4175 Clear 5 1038 71 10000 5.7 30 20:55 19.01.2020
4176 Clear 5 1038 71 10000 5.7 20 20:37 19.01.2020
4177 Clear 5 1038 71 10000 5.7 30 20:37 19.01.2020
4178 Clear 5 1038 71 10000 5.7 20 20:18 19.01.2020
4179 Clear 5 1038 71 10000 6.7 30 19:54 19.01.2020
4180 Clear 6 1037 60 10000 7.2 20 19:36 19.01.2020
4181 Clear 6 1037 60 10000 7.2 20 19:18 19.01.2020
4182 Clear 6 1037 60 10000 8.2 30 18:54 19.01.2020
4183 Clear 6 1037 60 10000 6.2 30 18:36 19.01.2020
4184 Clear 6 1037 60 10000 6.2 30 18:18 19.01.2020
4185 Clear 7 1036 56 10000 9.3 30 17:56 19.01.2020
4186 Clear 7 1036 56 10000 9.3 30 17:38 19.01.2020
4187 Clear 7 1036 56 10000 7.7 30 17:18 19.01.2020
4188 Clear 8 1035 52 10000 8.7 30 16:55 19.01.2020
4189 Clear 8 1035 52 10000 8.7 30 16:36 19.01.2020
4190 Clear 8 1035 52 10000 8.7 30 16:18 19.01.2020
4191 Clear 9 1035 52 10000 8.2 20 15:41 19.01.2020
4192 Clear 9 1035 57 10000 7.7 20 15:22 19.01.2020
4193 Clear 9 1035 57 10000 8.2 20 14:59 19.01.2020
4194 Clear 9 1035 57 10000 8.2 20 14:40 19.01.2020
4195 Clear 9 1035 61 10000 8.2 20 14:19 19.01.2020
4196 Clear 8 1035 53 10000 8.7 30 13:58 19.01.2020
4197 Clear 8 1035 61 10000 8.2 30 13:39 19.01.2020
4198 Clear 8 1035 61 10000 8.2 30 13:21 19.01.2020
4199 Clear 8 1035 55 10000 8.2 30 12:58 19.01.2020
4200 Clear 8 1035 55 10000 8.2 30 12:58 19.01.2020
4201 Clear 8 1035 55 10000 8.2 30 12:40 19.01.2020
4202 Clear 8 1035 55 10000 8.2 30 12:40 19.01.2020
4203 Clear 7 1035 55 10000 9.3 30 12:21 19.01.2020
4204 Clear 7 1035 70 10000 8.7 30 11:56 19.01.2020
4205 Clear 6 1035 75 10000 8.7 20 11:37 19.01.2020
4206 Clouds 6 1035 75 10000 8.7 20 11:18 19.01.2020
4207 Clouds 6 1034 75 10000 8.2 30 10:39 19.01.2020
4208 Clouds 5 1033 75 10000 8.7 30 10:20 19.01.2020
4209 Clouds 5 1033 75 10000 7.7 30 09:57 19.01.2020
4210 Clouds 5 1033 75 10000 7.7 30 09:57 19.01.2020
4211 Clouds 5 1033 75 10000 7.7 30 09:38 19.01.2020
4212 Clouds 4 1032 68 10000 7.2 20 09:19 19.01.2020
4213 Clouds 4 1031 80 10000 5.7 20 08:54 19.01.2020
4214 Clouds 5 1031 75 10000 6.7 30 08:31 19.01.2020
4215 Clouds 5 1030 75 10000 6.7 30 07:49 19.01.2020
4216 Clouds 5 1030 75 10000 5.7 30 07:28 19.01.2020
4217 Clouds 5 1029 75 10000 6.2 20 06:54 19.01.2020
4218 Clouds 5 1028 75 10000 6.2 20 06:21 19.01.2020
4219 Clouds 6 1026 75 10000 4.1 30 03:52 19.01.2020
4220 Clouds 7 1026 75 10000 5.1 20 02:32 19.01.2020
4221 Rain 7 1025 70 10000 5.1 20 01:39 19.01.2020
4222 Clouds 7 1025 75 10000 5.7 20 01:18 19.01.2020
4223 Clouds 7 1024 81 10000 5.7 20 00:41 19.01.2020
4224 Clouds 7 1024 81 10000 4.6 30 00:19 19.01.2020
4225 Clouds 7 1024 81 10000 4.6 40 23:42 18.01.2020
4226 Rain 7 1023 81 10000 5.1 40 23:24 18.01.2020
4227 Rain 7 1023 93 10000 5.1 40 22:58 18.01.2020
4228 Rain 6 1023 93 10000 5.1 40 22:40 18.01.2020
4229 Rain 7 1024 93 9000 4.1 30 22:21 18.01.2020
4230 Rain 7 1024 87 8000 3.6 40 21:57 18.01.2020
4231 Rain 7 1024 87 6000 5.7 40 21:38 18.01.2020
4232 Rain 7 1024 87 6000 5.7 40 21:20 18.01.2020
4233 Rain 7 1023 87 8000 6.2 30 20:44 18.01.2020
4234 Drizzle 8 1023 81 10000 5.1 20 20:22 18.01.2020
4235 Clouds 8 1022 81 10000 3.6 50 19:59 18.01.2020
4236 Clouds 8 1022 81 10000 3.6 50 19:41 18.01.2020
4237 Rain 8 1022 81 10000 5.1 50 19:22 18.01.2020
4238 Rain 8 1022 81 10000 5.13 77 18:43 18.01.2020
4239 Clouds 8 1021 81 10000 4.1 100 18:24 18.01.2020
4240 Clouds 8 1021 75 10000 4.1 100 17:56 18.01.2020
4241 Clouds 8 1022 75 10000 7.2 90 17:38 18.01.2020
4242 Clouds 8 1022 75 10000 7.2 90 17:19 18.01.2020
4243 Clouds 8 1021 75 10000 6.7 90 16:55 18.01.2020
4244 Clouds 8 1021 75 10000 6.7 90 16:55 18.01.2020
4245 Clouds 8 1022 75 10000 7.7 100 16:36 18.01.2020
4246 Clouds 8 1022 75 10000 7.7 100 16:18 18.01.2020
4247 Clouds 8 1022 75 10000 7.7 100 15:41 18.01.2020
4248 Clouds 8 1022 81 10000 6.7 110 15:23 18.01.2020
4249 Clouds 9 1023 81 10000 7.7 120 14:57 18.01.2020
4250 Clouds 9 1023 76 10000 7.2 120 14:39 18.01.2020
4251 Clouds 9 1023 76 10000 7.2 120 14:18 18.01.2020
4252 Clouds 9 1023 76 10000 7.7 110 13:43 18.01.2020
4253 Clouds 9 1023 76 10000 7.7 110 13:43 18.01.2020
4254 Clouds 10 1025 76 10000 7.2 120 13:24 18.01.2020
4255 Clouds 9 1026 87 10000 6.2 110 12:57 18.01.2020
4256 Clouds 9 1026 87 10000 6.2 110 12:38 18.01.2020
4257 Clouds 9 1026 87 10000 6.2 110 12:38 18.01.2020
4258 Clouds 8 1026 87 10000 5.1 110 12:19 18.01.2020
4259 Clouds 7 1027 87 10000 4.1 100 11:44 18.01.2020
4260 Clouds 6 1027 93 10000 3.6 100 11:21 18.01.2020
4261 Clouds 6 1027 93 10000 4.6 100 10:56 18.01.2020
4262 Clouds 6 1027 93 10000 4.6 100 10:38 18.01.2020
4263 Clouds 5 1028 100 10000 3.1 110 10:19 18.01.2020
4264 Clouds 5 1028 93 10000 2.6 100 09:42 18.01.2020
4265 Clouds 4 1028 100 10000 2.6 100 09:24 18.01.2020
4266 Clouds 4 1028 100 10000 2.1 110 08:55 18.01.2020
4267 Clouds 4 1029 100 10000 1 130 08:37 18.01.2020
4268 Clouds 4 1029 100 10000 1 130 08:18 18.01.2020
4269 Clouds 4 1029 100 10000 2.1 130 07:40 18.01.2020
4270 Clouds 4 1029 100 10000 2.1 110 07:21 18.01.2020
4271 Clouds 4 1029 100 10000 1 0 06:45 18.01.2020
4272 Clouds 4 1030 100 10000 1.5 180 05:55 18.01.2020
4273 Clouds 4 1030 93 10000 3.1 180 04:29 18.01.2020
4274 Clouds 4 1031 93 10000 0.5 0 02:49 18.01.2020
4275 Clear 4 1031 93 10000 3.1 190 01:47 18.01.2020
4276 Clouds 5 1031 93 10000 3.1 190 00:40 18.01.2020
4277 Clouds 5 1031 93 10000 3.1 190 00:21 18.01.2020
4278 Clouds 5 1031 93 10000 1.5 200 23:59 17.01.2020
4279 Clouds 5 1031 93 10000 1.5 200 23:40 17.01.2020
4280 Clouds 5 1031 93 10000 1.5 200 23:40 17.01.2020
4281 Clear 6 1031 93 10000 1 180 23:18 17.01.2020
4282 Clear 6 1031 86 10000 2.1 210 22:42 17.01.2020
4283 Clear 7 1031 87 10000 3.1 230 22:20 17.01.2020
4284 Clear 7 1031 81 10000 3.6 250 21:57 17.01.2020
4285 Clear 7 1031 81 10000 3.6 250 21:38 17.01.2020
4286 Clear 7 1031 87 10000 2.6 230 21:38 17.01.2020
4287 Clear 7 1031 87 10000 2.6 230 21:20 17.01.2020
4288 Clear 8 1031 81 10000 2.6 260 20:55 17.01.2020
4289 Clouds 8 1030 81 10000 3.6 250 20:36 17.01.2020
4290 Clouds 8 1030 81 10000 3.6 250 20:18 17.01.2020
4291 Rain 8 1030 87 10000 3.6 260 19:54 17.01.2020
4292 Clear 8 1030 81 10000 2.1 280 19:36 17.01.2020
4293 Clear 8 1030 81 10000 2.1 280 19:18 17.01.2020
4294 Clouds 9 1029 81 10000 2.6 240 18:41 17.01.2020
4295 Clouds 9 1029 81 10000 3.1 280 18:23 17.01.2020
4296 Clouds 10 1028 76 10000 4.1 290 17:54 17.01.2020
4297 Clear 10 1028 71 10000 5.1 270 17:36 17.01.2020
4298 Rain 10 1028 71 10000 5.1 270 17:18 17.01.2020
4299 Rain 11 1027 81 10000 5.1 280 16:41 17.01.2020
4300 Rain 11 1027 71 10000 5.1 270 16:19 17.01.2020
4301 Rain 10 1027 81 10000 3.6 280 15:48 17.01.2020
4302 Rain 10 1027 71 10000 5.1 290 15:26 17.01.2020
4303 Rain 11 1026 81 10000 4.1 270 14:54 17.01.2020
4304 Rain 11 1026 81 10000 4.1 300 14:36 17.01.2020
4305 Rain 11 1026 81 10000 4.1 300 14:18 17.01.2020
4306 Rain 11 1026 81 10000 4.1 300 14:18 17.01.2020
4307 Rain 11 1026 87 10000 4.1 270 13:38 17.01.2020
4308 Rain 11 1026 76 10000 5.7 250 13:19 17.01.2020
4309 Clouds 11 1026 76 10000 5.1 250 12:45 17.01.2020
4310 Rain 10 1026 76 10000 5.1 240 12:22 17.01.2020
4311 Rain 10 1025 87 10000 3.6 230 11:40 17.01.2020
4312 Rain 10 1025 87 10000 5.1 270 11:19 17.01.2020
4313 Rain 10 1024 87 10000 4.6 220 10:45 17.01.2020
4314 Clouds 10 1024 87 10000 4.1 200 10:23 17.01.2020
4315 Rain 10 1024 93 10000 4.6 220 09:59 17.01.2020
4316 Rain 10 1024 93 10000 4.6 220 09:41 17.01.2020
4317 Rain 10 1023 93 10000 3.6 230 09:20 17.01.2020
4318 Rain 10 1023 93 10000 3.6 230 08:46 17.01.2020
4319 Rain 10 1022 93 10000 3.6 210 08:25 17.01.2020
4320 Clouds 10 1022 93 10000 4.1 220 07:56 17.01.2020
4321 Clouds 10 1022 93 10000 4.1 220 07:56 17.01.2020
4322 Clouds 10 1022 93 10000 3.6 210 07:32 17.01.2020
4323 Rain 10 1022 93 10000 3.1 200 06:59 17.01.2020
4324 Rain 10 1022 93 10000 3.1 200 06:41 17.01.2020
4325 Rain 10 1021 93 10000 3.1 210 05:56 17.01.2020
4326 Rain 11 1020 76 10000 1.5 180 03:39 17.01.2020
4327 Rain 11 1020 76 10000 2.6 170 02:53 17.01.2020
4328 Clouds 11 1018 79 0 0.89 126 01:47 17.01.2020
4329 Rain 11 1016 79 0 1.79 148 01:29 17.01.2020
4330 Rain 11 1016 79 0 1.79 147 00:51 17.01.2020
4331 Rain 11 1019 71 10000 5.7 150 00:28 17.01.2020
4332 Rain 11 1019 71 10000 5.7 150 23:46 16.01.2020
4333 Clear 11 1019 71 10000 5.7 150 23:26 16.01.2020
4334 Clear 11 1019 71 10000 5.1 150 22:58 16.01.2020
4335 Clear 11 1019 71 10000 5.1 150 22:40 16.01.2020
4336 Clear 11 1019 71 10000 6.7 140 22:20 16.01.2020
4337 Clear 11 1019 71 10000 6.2 140 21:55 16.01.2020
4338 Clear 12 1019 71 10000 7.2 150 21:37 16.01.2020
4339 Clear 12 1019 71 10000 7.2 150 21:18 16.01.2020
4340 Clear 12 1019 71 10000 7.2 150 21:18 16.01.2020
4341 Clear 12 1019 71 10000 7.2 150 20:41 16.01.2020
4342 Clouds 12 1019 71 10000 6.2 140 20:21 16.01.2020
4343 Clouds 13 1019 71 10000 7.2 140 19:59 16.01.2020
4344 Clouds 13 1019 71 10000 7.2 140 19:41 16.01.2020
4345 Clouds 13 1019 71 10000 6.7 150 19:22 16.01.2020
4346 Clouds 13 1019 71 10000 6.7 150 19:22 16.01.2020
4347 Clouds 13 1019 67 10000 6.7 140 18:57 16.01.2020
4348 Clouds 14 1019 67 10000 6.2 140 18:38 16.01.2020
4349 Clouds 14 1019 67 10000 6.2 140 18:20 16.01.2020
4350 Clouds 14 1019 58 10000 5.7 140 17:59 16.01.2020
4351 Clouds 14 1019 58 10000 5.7 140 17:40 16.01.2020
4352 Clouds 15 1019 55 10000 5.1 150 17:20 16.01.2020
4353 Clouds 16 1019 51 10000 6.2 140 16:42 16.01.2020
4354 Clouds 17 1019 51 10000 5.1 150 16:24 16.01.2020
4355 Clouds 17 1019 51 10000 4.6 160 15:58 16.01.2020
4356 Clouds 17 1019 51 10000 4.6 160 15:39 16.01.2020
4357 Clouds 17 1019 51 10000 4.6 160 15:39 16.01.2020
4358 Clouds 17 1020 51 10000 5.7 160 15:20 16.01.2020
4359 Clouds 17 1020 51 10000 5.7 160 14:44 16.01.2020
4360 Clouds 16 1021 55 10000 5.1 150 14:24 16.01.2020
4361 Clouds 16 1021 55 10000 5.1 150 14:24 16.01.2020
4362 Clouds 16 1021 59 10000 5.7 140 13:56 16.01.2020
4363 Clouds 16 1021 59 10000 5.7 140 13:37 16.01.2020
4364 Clouds 15 1021 62 10000 5.1 140 13:19 16.01.2020
4365 Clouds 14 1022 62 10000 6.7 140 12:42 16.01.2020
4366 Clouds 13 1022 66 10000 5.7 140 12:22 16.01.2020
4367 Clouds 12 1022 71 10000 5.7 130 11:43 16.01.2020
4368 Clouds 11 1022 71 10000 6.2 130 11:24 16.01.2020
4369 Clouds 10 1023 76 10000 5.7 130 10:59 16.01.2020
4370 Clouds 10 1023 76 10000 5.7 130 10:38 16.01.2020
4371 Clouds 9 1023 76 10000 5.7 130 10:20 16.01.2020
4372 Clouds 8 1022 81 10000 5.7 130 09:54 16.01.2020
4373 Clouds 8 1022 81 10000 5.1 130 09:36 16.01.2020
4374 Clouds 8 1022 81 10000 5.1 130 09:18 16.01.2020
4375 Clouds 7 1022 87 10000 4.6 130 08:42 16.01.2020
4376 Clouds 7 1022 87 10000 4.1 120 08:22 16.01.2020
4377 Clouds 7 1022 87 10000 4.1 120 07:43 16.01.2020
4378 Clouds 7 1022 87 10000 4.6 120 07:25 16.01.2020
4379 Clouds 7 1022 87 10000 4.6 130 06:55 16.01.2020
4380 Clouds 7 1022 81 10000 4.1 130 06:35 16.01.2020
4381 Clouds 7 1023 81 10000 4.1 120 05:56 16.01.2020
4382 Clouds 8 1023 81 10000 4.6 130 05:30 16.01.2020
4383 Clouds 8 1023 81 10000 4.6 130 04:23 16.01.2020
4384 Clouds 8 1024 87 10000 4.1 130 03:27 16.01.2020
4385 Clouds 8 1023 87 10000 4.1 130 02:23 16.01.2020
4386 Clouds 9 1024 87 10000 3.1 130 00:44 16.01.2020
4387 Clouds 9 1024 93 10000 3.1 120 00:23 16.01.2020
4388 Clouds 10 1024 93 10000 2.1 120 23:45 15.01.2020
4389 Clouds 10 1025 93 10000 1.5 130 23:22 15.01.2020
4390 Clouds 11 1024 93 10000 1.5 140 22:57 15.01.2020
4391 Clouds 11 1024 93 10000 1.5 150 22:39 15.01.2020
4392 Clouds 11 1024 93 10000 1.5 150 22:18 15.01.2020
4393 Clouds 11 1024 87 10000 2.1 150 21:56 15.01.2020
4394 Clouds 11 1024 87 10000 2.1 150 21:56 15.01.2020
4395 Clouds 11 1024 93 10000 2.1 180 21:37 15.01.2020
4396 Clouds 11 1024 93 10000 2.1 180 21:19 15.01.2020
4397 Clouds 12 1024 87 10000 1.5 0 20:55 15.01.2020
4398 Clouds 12 1024 87 10000 1 200 20:37 15.01.2020
4399 Clouds 12 1024 87 10000 1 200 20:19 15.01.2020
4400 Clouds 12 1024 87 10000 1.5 200 19:54 15.01.2020
4401 Clouds 12 1023 87 10000 2.1 220 19:36 15.01.2020
4402 Clouds 12 1023 87 10000 2.1 220 19:18 15.01.2020
4403 Clouds 12 1023 87 10000 2.1 220 19:18 15.01.2020
4404 Clouds 12 1023 82 10000 2.6 230 18:56 15.01.2020
4405 Clouds 12 1022 82 10000 2.6 210 18:37 15.01.2020
4406 Clouds 13 1022 82 10000 2.6 210 18:19 15.01.2020
4407 Clouds 13 1021 82 10000 2.6 220 17:42 15.01.2020
4408 Clouds 13 1021 82 10000 2.6 220 17:23 15.01.2020
4409 Rain 14 1021 82 10000 4.1 240 16:59 15.01.2020
4410 Rain 14 1021 82 10000 4.1 240 16:39 15.01.2020
4411 Clouds 14 1020 76 10000 3.6 230 16:21 15.01.2020
4412 Rain 14 1020 76 10000 4.6 230 15:44 15.01.2020
4413 Clouds 15 1019 59 10000 5.7 230 15:21 15.01.2020
4414 Clouds 15 1018 55 10000 5.7 210 14:59 15.01.2020
4415 Clouds 15 1018 55 10000 5.7 210 14:41 15.01.2020
4416 Clouds 15 1019 51 10000 6.7 210 14:18 15.01.2020
4417 Clouds 15 1019 48 10000 6.7 200 13:45 15.01.2020
4418 Clouds 15 1018 51 10000 5.7 190 13:26 15.01.2020
4419 Clouds 14 1018 54 10000 6.2 180 12:58 15.01.2020
4420 Clouds 14 1018 58 10000 5.1 170 12:39 15.01.2020
4421 Clouds 13 1018 58 10000 5.1 170 12:19 15.01.2020
4422 Clouds 12 1018 62 10000 4.1 170 11:56 15.01.2020
4423 Clouds 11 1017 66 10000 5.1 170 11:36 15.01.2020
4424 Clouds 11 1017 66 10000 5.1 170 11:18 15.01.2020
4425 Clouds 11 1017 66 10000 5.1 170 11:18 15.01.2020
4426 Clouds 10 1016 66 10000 6.2 160 10:41 15.01.2020
4427 Clouds 9 1016 70 10000 6.2 150 10:21 15.01.2020
4428 Clouds 8 1016 70 10000 5.7 150 09:42 15.01.2020
4429 Clouds 8 1016 75 10000 5.1 150 09:22 15.01.2020
4430 Clouds 8 1015 75 10000 5.1 150 08:46 15.01.2020
4431 Clear 8 1015 75 10000 5.7 150 08:28 15.01.2020
4432 Clear 8 1015 75 10000 6.2 150 07:59 15.01.2020
4433 Clear 8 1015 75 10000 6.2 150 07:41 15.01.2020
4434 Clear 8 1015 75 10000 5.1 150 07:21 15.01.2020
4435 Clear 8 1015 70 10000 5.7 160 06:43 15.01.2020
4436 Clear 7 1014 70 10000 4.6 160 05:52 15.01.2020
4437 Clear 8 1015 70 10000 3.6 150 03:44 15.01.2020
4438 Clear 8 1015 70 10000 5.1 150 01:50 15.01.2020
4439 Clear 8 1015 70 10000 5.7 150 01:22 15.01.2020
4440 Clear 8 1016 70 10000 5.1 150 00:38 15.01.2020
4441 Clear 8 1016 70 10000 4.6 150 00:20 15.01.2020
4442 Clear 8 1016 70 10000 5.7 150 23:47 14.01.2020
4443 Clear 8 1016 66 10000 5.7 150 23:28 14.01.2020
4444 Clear 9 1016 66 10000 5.7 150 22:58 14.01.2020
4445 Clear 9 1016 66 10000 5.7 150 22:40 14.01.2020
4446 Clear 9 1016 71 10000 5.7 160 22:19 14.01.2020
4447 Clear 9 1015 71 10000 6.2 160 21:57 14.01.2020
4448 Clear 9 1015 71 10000 6.2 150 21:39 14.01.2020
4449 Clear 10 1015 71 10000 6.2 150 21:19 14.01.2020
4450 Clear 10 1015 76 10000 4.6 150 20:54 14.01.2020
4451 Clear 10 1015 76 10000 5.1 150 20:36 14.01.2020
4452 Clear 10 1015 76 10000 5.1 150 20:36 14.01.2020
4453 Clouds 10 1015 76 10000 5.1 150 20:18 14.01.2020
4454 Clouds 10 1015 76 10000 5.1 150 20:18 14.01.2020
4455 Clouds 11 1015 76 10000 5.1 150 19:55 14.01.2020
4456 Clouds 11 1015 71 10000 4.6 140 19:36 14.01.2020
4457 Clouds 11 1015 71 10000 4.6 140 19:18 14.01.2020
4458 Clouds 11 1015 66 10000 3.6 140 18:40 14.01.2020
4459 Clouds 12 1015 51 10000 3.1 150 18:20 14.01.2020
4460 Clouds 13 1015 51 10000 3.1 150 17:55 14.01.2020
4461 Clouds 14 1015 48 10000 3.1 170 17:36 14.01.2020
4462 Clouds 14 1015 48 10000 3.1 170 17:18 14.01.2020
4463 Clouds 14 1015 48 10000 3.1 160 16:42 14.01.2020
4464 Clouds 15 1015 48 10000 3.6 160 16:22 14.01.2020
4465 Clouds 15 1015 51 10000 4.1 150 15:56 14.01.2020
4466 Clouds 15 1015 47 10000 4.6 170 15:38 14.01.2020
4467 Clouds 14 1015 47 10000 4.6 170 15:18 14.01.2020
4468 Clouds 14 1015 47 10000 4.6 170 15:18 14.01.2020
4469 Clouds 14 1015 47 10000 4.1 160 14:43 14.01.2020
4470 Clouds 14 1015 47 10000 4.1 160 14:20 14.01.2020
4471 Clouds 14 1015 50 10000 4.1 160 13:54 14.01.2020
4472 Clouds 13 1015 50 10000 5.1 140 13:36 14.01.2020
4473 Clouds 13 1015 50 10000 5.1 140 13:18 14.01.2020
4474 Clouds 13 1016 58 10000 4.1 140 12:40 14.01.2020
4475 Clouds 12 1016 62 10000 4.1 150 12:20 14.01.2020
4476 Clouds 12 1016 62 10000 4.1 150 12:20 14.01.2020
4477 Clouds 12 1016 62 10000 4.1 150 12:20 14.01.2020
4478 Clouds 11 1016 62 10000 4.1 150 11:43 14.01.2020
4479 Clouds 10 1016 70 10000 4.6 150 11:23 14.01.2020
4480 Clouds 9 1016 70 10000 5.1 140 10:59 14.01.2020
4481 Clouds 8 1016 81 10000 4.6 140 10:39 14.01.2020
4482 Clouds 8 1016 81 10000 4.6 140 10:20 14.01.2020
4483 Clouds 7 1016 81 10000 4.1 150 09:57 14.01.2020
4484 Clouds 7 1016 81 10000 4.1 150 09:39 14.01.2020
4485 Clouds 7 1015 81 10000 4.6 140 09:20 14.01.2020
4486 Clouds 6 1016 81 10000 4.1 140 08:44 14.01.2020
4487 Clouds 6 1015 81 10000 4.1 130 08:23 14.01.2020
4488 Clouds 6 1015 81 10000 5.1 140 07:53 14.01.2020
4489 Clouds 6 1015 81 10000 4.1 150 07:31 14.01.2020
4490 Clouds 6 1015 75 10000 4.1 140 06:50 14.01.2020
4491 Clouds 6 1015 75 10000 4.1 150 06:23 14.01.2020
4492 Clouds 6 1015 81 10000 4.1 150 05:21 14.01.2020
4493 Clouds 6 1015 75 10000 5.1 150 03:51 14.01.2020
4494 Clouds 6 1015 75 10000 5.7 160 02:42 14.01.2020
4495 Clouds 6 1015 81 10000 3.6 150 01:35 14.01.2020
4496 Clouds 6 1016 81 10000 4.1 150 00:49 14.01.2020
4497 Clouds 6 1016 81 10000 4.1 160 00:27 14.01.2020
4498 Clouds 6 1016 81 10000 3.1 150 23:47 13.01.2020
4499 Clouds 6 1016 86 10000 4.6 140 23:19 13.01.2020
4500 Clouds 5 1016 93 10000 4.1 150 22:59 13.01.2020
4501 Clouds 5 1016 93 10000 4.1 150 22:40 13.01.2020
4502 Clouds 5 1016 93 10000 3.1 160 22:20 13.01.2020
4503 Clouds 5 1016 93 8000 4.1 140 21:56 13.01.2020
4504 Clouds 5 1017 93 8000 2.6 140 21:37 13.01.2020
4505 Clouds 5 1016 93 8000 4.1 140 21:37 13.01.2020
4506 Clouds 5 1017 93 8000 2.6 140 21:18 13.01.2020
4507 Clouds 6 1017 93 8000 2.1 150 20:56 13.01.2020
4508 Clouds 6 1017 93 8000 3.1 140 20:38 13.01.2020
4509 Clouds 6 1017 93 8000 3.1 140 20:19 13.01.2020
4510 Clouds 6 1017 87 9000 3.6 140 19:42 13.01.2020
4511 Clouds 6 1017 87 9000 3.6 140 19:42 13.01.2020
4512 Clouds 6 1017 87 10000 3.6 130 19:22 13.01.2020
4513 Clouds 7 1017 87 10000 3.6 130 18:59 13.01.2020
4514 Clouds 7 1017 87 10000 3.6 130 18:40 13.01.2020
4515 Clouds 7 1017 81 10000 4.1 130 18:20 13.01.2020
4516 Clouds 7 1017 81 10000 4.1 130 18:20 13.01.2020
4517 Clouds 8 1017 81 10000 3.6 130 17:59 13.01.2020
4518 Clouds 9 1017 81 10000 3.6 130 17:40 13.01.2020
4519 Clouds 9 1018 75 10000 3.6 110 17:21 13.01.2020
4520 Clouds 10 1018 76 10000 3.6 110 16:55 13.01.2020
4521 Clouds 9 1015 78 0 1.79 119 16:36 13.01.2020
4522 Clouds 9 1015 78 0 1.79 119 16:36 13.01.2020
4523 Clouds 9 1015 77 0 1.34 105 16:18 13.01.2020
4524 Clouds 10 1016 75 0 1.79 115 15:42 13.01.2020
4525 Clouds 10 1016 75 0 1.79 89 15:22 13.01.2020
4526 Clouds 11 1016 75 0 1.34 130 14:56 13.01.2020
4527 Clouds 11 1016 75 0 1.79 113 14:36 13.01.2020
4528 Clouds 10 1016 76 0 1.79 147 14:18 13.01.2020
4529 Clouds 10 1017 79 0 0.89 120 13:40 13.01.2020
4530 Clouds 9 1018 81 0 2.68 148 13:22 13.01.2020
4531 Clouds 7 1023 87 10000 2.1 130 12:58 13.01.2020
4532 Clouds 7 1023 87 10000 2.1 130 12:40 13.01.2020
4533 Clouds 7 1023 87 10000 2.1 130 12:21 13.01.2020
4534 Clouds 7 1023 87 10000 2.1 130 11:54 13.01.2020
4535 Clouds 6 1023 87 10000 3.1 140 11:36 13.01.2020
4536 Clouds 6 1023 87 10000 3.1 140 11:18 13.01.2020
4537 Clouds 6 1023 87 10000 3.1 140 11:18 13.01.2020
4538 Clouds 6 1023 87 10000 3.1 140 11:18 13.01.2020
4539 Clouds 6 1023 86 10000 3.6 130 10:55 13.01.2020
4540 Clouds 5 1023 86 10000 3.1 130 10:36 13.01.2020
4541 Clouds 5 1023 86 10000 3.1 130 10:18 13.01.2020
4542 Clouds 5 1023 86 10000 2.1 140 09:40 13.01.2020
4543 Clouds 4 1023 93 10000 2.1 150 09:22 13.01.2020
4544 Clouds 4 1023 93 10000 1.5 130 08:41 13.01.2020
4545 Clouds 5 1023 86 10000 3.1 140 08:21 13.01.2020
4546 Clouds 5 1024 86 10000 2.1 140 07:52 13.01.2020
4547 Clouds 5 1024 86 10000 2.1 150 07:33 13.01.2020
4548 Clouds 5 1024 93 10000 3.1 140 06:44 13.01.2020
4549 Clouds 5 1024 87 10000 2.6 150 06:22 13.01.2020
4550 Clouds 6 1025 87 10000 3.1 150 05:36 13.01.2020
4551 Clouds 6 1027 87 10000 2.1 160 03:57 13.01.2020
4552 Clouds 7 1027 87 10000 3.1 170 03:25 13.01.2020
4553 Clouds 7 1027 81 10000 3.6 170 02:47 13.01.2020
4554 Clouds 8 1027 81 10000 3.1 170 02:28 13.01.2020
4555 Clouds 8 1028 76 10000 3.6 170 01:21 13.01.2020
4556 Clouds 8 1028 81 10000 3.6 170 00:41 13.01.2020
4557 Clouds 9 1029 76 10000 3.6 180 00:22 13.01.2020
4558 Clouds 9 1029 76 10000 3.1 180 23:42 12.01.2020
4559 Clouds 9 1029 81 10000 2.6 180 23:24 12.01.2020
4560 Clouds 9 1029 81 10000 3.6 180 22:58 12.01.2020
4561 Clouds 9 1029 81 10000 3.6 180 22:39 12.01.2020
4562 Clouds 9 1029 81 10000 3.6 180 22:21 12.01.2020
4563 Clouds 9 1029 81 10000 3.6 190 21:56 12.01.2020
4564 Clouds 9 1029 81 10000 3.6 190 21:38 12.01.2020
4565 Clouds 9 1029 81 10000 3.1 180 21:19 12.01.2020
4566 Clouds 9 1030 76 10000 3.1 180 20:56 12.01.2020
4567 Clouds 9 1030 76 10000 3.6 170 20:37 12.01.2020
4568 Clouds 10 1030 76 10000 3.6 170 20:19 12.01.2020
4569 Clouds 10 1030 76 10000 3.6 170 20:19 12.01.2020
4570 Clouds 10 1030 81 10000 3.1 170 19:55 12.01.2020
4571 Clouds 10 1030 76 10000 2.6 170 19:37 12.01.2020
4572 Clouds 10 1030 76 10000 2.6 170 19:18 12.01.2020
4573 Clouds 10 1030 76 10000 2.6 170 19:18 12.01.2020
4574 Clouds 10 1030 81 10000 2.1 180 18:57 12.01.2020
4575 Clouds 10 1030 81 10000 2.1 180 18:38 12.01.2020
4576 Clouds 10 1030 81 10000 2.1 180 18:20 12.01.2020
4577 Clouds 10 1030 76 10000 2.6 180 17:42 12.01.2020
4578 Clouds 10 1030 71 10000 2.6 180 17:22 12.01.2020
4579 Clouds 11 1030 71 10000 2.6 190 16:58 12.01.2020
4580 Clouds 11 1030 71 10000 2.6 190 16:39 12.01.2020
4581 Clouds 11 1030 71 10000 2.1 180 16:20 12.01.2020
4582 Clouds 11 1030 71 10000 2.6 170 15:56 12.01.2020
4583 Clouds 11 1030 66 10000 2.6 180 15:38 12.01.2020
4584 Clouds 11 1030 66 10000 2.6 180 15:20 12.01.2020
4585 Clouds 11 1030 71 10000 2.6 180 14:42 12.01.2020
4586 Clouds 10 1030 76 10000 2.6 190 14:23 12.01.2020
4587 Clouds 9 1031 71 10000 2.1 180 13:57 12.01.2020
4588 Clouds 9 1031 71 10000 2.1 180 13:39 12.01.2020
4589 Clouds 9 1031 76 10000 2.1 160 13:20 12.01.2020
4590 Clouds 8 1032 75 10000 2.1 150 12:56 12.01.2020
4591 Clouds 8 1032 81 10000 3.1 160 12:37 12.01.2020
4592 Clouds 8 1032 75 10000 2.1 150 12:37 12.01.2020
4593 Clouds 8 1032 81 10000 3.1 160 12:18 12.01.2020
4594 Clouds 5 1032 86 10000 2.1 150 11:41 12.01.2020
4595 Clouds 5 1032 86 10000 2.1 150 11:22 12.01.2020
4596 Clouds 4 1032 93 10000 2.1 150 10:56 12.01.2020
4597 Clouds 3 1032 93 10000 1.5 0 10:37 12.01.2020
4598 Clouds 3 1032 93 10000 1.5 0 10:18 12.01.2020
4599 Clouds 2 1031 93 10000 1.5 140 09:41 12.01.2020
4600 Clouds 1 1031 100 10000 1.5 140 09:22 12.01.2020
4601 Clouds 1 1031 100 10000 2.1 140 08:48 12.01.2020
4602 Clouds 0 1031 88 10000 2.1 130 08:22 12.01.2020
4603 Clouds 0 1031 88 9000 1.5 110 07:47 12.01.2020
4604 Clouds 0 1031 100 9000 1 130 07:26 12.01.2020
4605 Clouds 0 1031 100 9000 1 130 07:26 12.01.2020
4606 Clouds 0 1031 88 8000 1 140 06:54 12.01.2020
4607 Clouds 0 1031 88 7000 1 130 06:36 12.01.2020
4608 Clouds 0 1031 88 6000 1 130 05:50 12.01.2020
4609 Clouds 0 1030 88 6000 0.5 140 04:54 12.01.2020
4610 Clouds 0 1030 88 6000 1 120 03:35 12.01.2020
4611 Mist 1 1030 88 5000 1.86 176 02:43 12.01.2020
4612 Mist 1 1030 87 5000 1.45 162 02:24 12.01.2020
4613 Clouds 1 1031 87 6000 0.5 120 01:31 12.01.2020
4614 Clouds 2 1031 87 6000 1.3 156 00:46 12.01.2020
4615 Clouds 2 1031 93 6000 1.3 156 00:22 12.01.2020
4616 Clouds 2 1031 93 10000 1.3 156 23:56 11.01.2020
4617 Clouds 2 1031 93 10000 1.3 156 23:38 11.01.2020
4618 Clouds 3 1031 93 10000 0.5 110 23:18 11.01.2020
4619 Clouds 3 1031 93 10000 1.05 128 22:56 11.01.2020
4620 Clouds 3 1031 93 10000 1.5 240 22:37 11.01.2020
4621 Clouds 4 1031 93 10000 1.5 240 22:19 11.01.2020
4622 Clouds 4 1031 93 10000 0.5 250 21:44 11.01.2020
4623 Clouds 5 1031 86 10000 1.05 128 21:19 11.01.2020
4624 Clouds 5 1031 86 10000 1.05 128 21:19 11.01.2020
4625 Clouds 5 1031 86 10000 1.05 128 20:56 11.01.2020
4626 Clouds 5 1031 86 10000 1.05 128 20:38 11.01.2020
4627 Clouds 5 1031 86 10000 1.53 112 20:19 11.01.2020
4628 Clouds 6 1031 86 10000 1.53 112 19:55 11.01.2020
4629 Clouds 6 1031 81 10000 0.5 0 19:37 11.01.2020
4630 Clouds 6 1031 81 10000 0.5 0 19:19 11.01.2020
4631 Clouds 6 1031 81 10000 0.5 0 19:19 11.01.2020
4632 Clouds 7 1031 70 10000 1 120 18:55 11.01.2020
4633 Clouds 8 1031 65 10000 1.5 100 18:36 11.01.2020
4634 Clouds 8 1031 65 10000 1.5 100 18:18 11.01.2020
4635 Clouds 9 1031 61 10000 1.5 0 17:56 11.01.2020
4636 Clouds 9 1031 61 10000 1.5 0 17:37 11.01.2020
4637 Clouds 10 1031 57 10000 1 120 17:18 11.01.2020
4638 Clouds 10 1031 57 10000 1 120 17:18 11.01.2020
4639 Clouds 11 1031 53 10000 1.5 0 16:43 11.01.2020
4640 Clouds 11 1031 50 10000 1.5 0 16:23 11.01.2020
4641 Clouds 11 1032 50 10000 1 0 15:43 11.01.2020
4642 Clouds 11 1032 53 10000 1.5 150 15:24 11.01.2020
4643 Clouds 12 1032 50 10000 2.6 140 14:59 11.01.2020
4644 Clouds 12 1032 50 10000 2.6 140 14:41 11.01.2020
4645 Clouds 11 1032 53 10000 2.6 180 14:22 11.01.2020
4646 Clouds 11 1033 57 10000 2.1 150 13:55 11.01.2020
4647 Clouds 10 1033 57 10000 2.6 170 13:37 11.01.2020
4648 Clouds 10 1033 57 10000 2.6 170 13:18 11.01.2020
4649 Clouds 10 1034 57 10000 2.1 140 12:44 11.01.2020
4650 Clouds 9 1034 71 10000 1.5 0 12:25 11.01.2020
4651 Clouds 8 1034 76 10000 1.5 140 11:54 11.01.2020
4652 Clouds 8 1035 81 10000 1 0 11:36 11.01.2020
4653 Clear 7 1035 81 10000 1 0 11:18 11.01.2020
4654 Clear 7 1035 81 10000 1 0 11:18 11.01.2020
4655 Clear 6 1035 87 10000 1.51 120 10:42 11.01.2020
4656 Clear 5 1034 100 9000 1 140 10:23 11.01.2020
4657 Mist 3 1034 100 5000 1.5 120 09:39 11.01.2020
4658 Clear 2 1034 93 9000 2.1 100 09:21 11.01.2020
4659 Clear 3 1034 100 6000 1.51 120 08:43 11.01.2020
4660 Clouds 3 1034 93 10000 0.5 0 08:22 11.01.2020
4661 Clouds 3 1034 93 10000 0.5 130 07:44 11.01.2020
4662 Clouds 3 1034 100 10000 1.67 110 07:26 11.01.2020
4663 Clouds 3 1034 100 10000 1.67 110 06:52 11.01.2020
4664 Clouds 4 1034 100 10000 1.67 110 06:19 11.01.2020
4665 Clouds 4 1034 100 10000 2.32 84 04:48 11.01.2020
4666 Clouds 3 1034 100 10000 1.5 210 04:29 11.01.2020
4667 Clouds 4 1034 100 10000 0.5 250 03:28 11.01.2020
4668 Clouds 5 1034 100 10000 2.32 84 02:40 11.01.2020
4669 Clouds 5 1034 93 10000 1.85 27 01:44 11.01.2020
4670 Clouds 5 1034 93 10000 1.46 38 01:20 11.01.2020
4671 Clouds 5 1034 93 10000 1 260 00:43 11.01.2020
4672 Clouds 5 1034 93 10000 1.46 38 00:18 11.01.2020
4673 Clouds 5 1034 93 10000 1.46 38 23:40 10.01.2020
4674 Clouds 6 1034 87 10000 1 220 23:22 10.01.2020
4675 Clouds 6 1034 87 10000 1 260 22:59 10.01.2020
4676 Clouds 6 1034 87 10000 1 260 22:40 10.01.2020
4677 Clouds 6 1034 87 10000 0.5 240 22:20 10.01.2020
4678 Clouds 6 1034 93 10000 1 0 21:57 10.01.2020
4679 Clouds 6 1034 87 10000 1 0 21:37 10.01.2020
4680 Clouds 6 1034 87 10000 1 0 21:19 10.01.2020
4681 Clouds 6 1033 87 10000 0.5 0 20:43 10.01.2020
4682 Clouds 7 1033 81 10000 1.5 240 20:24 10.01.2020
4683 Clouds 7 1033 75 10000 1 0 19:59 10.01.2020
4684 Clouds 7 1032 81 10000 1.5 0 19:38 10.01.2020
4685 Clouds 7 1032 81 10000 1.5 0 19:19 10.01.2020
4686 Clouds 8 1032 75 10000 2.1 290 18:43 10.01.2020
4687 Clouds 8 1032 75 10000 1 0 18:19 10.01.2020
4688 Clouds 9 1032 70 10000 1.5 0 17:58 10.01.2020
4689 Clouds 10 1031 61 10000 2.6 360 17:39 10.01.2020
4690 Clouds 10 1031 61 10000 2.6 360 17:20 10.01.2020
4691 Clouds 11 1031 62 10000 2.1 360 16:58 10.01.2020
4692 Clouds 11 1031 62 10000 2.1 360 16:39 10.01.2020
4693 Clouds 11 1031 61 10000 3.6 350 16:20 10.01.2020
4694 Clouds 12 1030 57 10000 3.6 10 15:56 10.01.2020
4695 Clouds 11 1030 57 10000 3.6 10 15:37 10.01.2020
4696 Clouds 11 1030 57 10000 3.6 10 15:18 10.01.2020
4697 Clouds 12 1030 57 10000 4.6 10 14:55 10.01.2020
4698 Clouds 12 1030 57 10000 4.6 10 14:37 10.01.2020
4699 Clouds 11 1030 62 10000 5.1 360 14:18 10.01.2020
4700 Clouds 11 1030 66 10000 4.6 350 13:44 10.01.2020
4701 Clouds 11 1030 62 10000 5.1 10 13:26 10.01.2020
4702 Clouds 11 1030 62 10000 6.2 360 12:59 10.01.2020
4703 Clouds 11 1029 66 10000 4.6 350 12:39 10.01.2020
4704 Clouds 11 1029 66 10000 4.6 350 12:19 10.01.2020
4705 Clouds 11 1029 66 10000 4.6 340 11:56 10.01.2020
4706 Clouds 11 1029 71 10000 4.1 350 11:38 10.01.2020
4707 Clouds 11 1029 71 10000 4.1 350 11:38 10.01.2020
4708 Clouds 11 1029 71 10000 4.1 350 11:38 10.01.2020
4709 Rain 11 1029 71 10000 4.1 350 11:18 10.01.2020
4710 Rain 10 1028 87 10000 2.6 340 10:58 10.01.2020
4711 Clouds 10 1028 93 10000 2.1 280 10:36 10.01.2020
4712 Clouds 10 1028 93 10000 2.1 280 10:18 10.01.2020
4713 Clouds 9 1027 93 10000 3.1 290 09:43 10.01.2020
4714 Clouds 9 1027 93 10000 2.6 250 09:24 10.01.2020
4715 Rain 9 1026 93 10000 2.1 310 08:43 10.01.2020
4716 Drizzle 9 1026 93 10000 3.6 300 08:24 10.01.2020
4717 Rain 9 1026 93 7000 4.1 300 07:48 10.01.2020
4718 Rain 9 1025 93 10000 2.6 240 07:30 10.01.2020
4719 Rain 10 1025 87 10000 3.6 270 06:56 10.01.2020
4720 Rain 10 1024 87 10000 5.1 270 06:27 10.01.2020
4721 Rain 10 1024 93 10000 3.6 260 05:52 10.01.2020
4722 Rain 10 1023 87 10000 5.1 260 03:50 10.01.2020
4723 Clouds 10 1023 87 10000 5.7 270 03:31 10.01.2020
4724 Rain 11 1022 87 10000 5.7 250 02:51 10.01.2020
4725 Rain 11 1022 87 10000 5.7 250 01:52 10.01.2020
4726 Rain 11 1022 87 10000 6.7 250 01:29 10.01.2020
4727 Clouds 11 1022 87 10000 7.7 260 00:48 10.01.2020
4728 Rain 11 1022 81 10000 8.7 270 00:30 10.01.2020
4729 Rain 11 1022 76 10000 7.7 240 23:40 09.01.2020
4730 Clouds 11 1022 81 10000 7.7 240 23:21 09.01.2020
4731 Clouds 11 1021 87 10000 8.7 240 22:58 09.01.2020
4732 Clouds 11 1021 87 10000 8.7 240 22:39 09.01.2020
4733 Clouds 11 1021 76 10000 8.2 240 22:19 09.01.2020
4734 Clouds 11 1021 76 10000 8.2 240 22:19 09.01.2020
4735 Clouds 11 1021 76 10000 7.2 240 21:57 09.01.2020
4736 Clouds 11 1021 76 10000 7.2 240 21:57 09.01.2020
4737 Clouds 11 1021 76 10000 7.2 240 21:39 09.01.2020
4738 Rain 11 1021 87 10000 6.2 240 21:20 09.01.2020
4739 Rain 11 1021 87 10000 5.7 220 20:58 09.01.2020
4740 Clouds 11 1020 87 10000 4.6 200 20:39 09.01.2020
4741 Rain 11 1020 87 10000 4.1 220 20:20 09.01.2020
4742 Clouds 11 1020 87 10000 4.6 200 20:20 09.01.2020
4743 Rain 11 1020 87 10000 4.1 220 19:59 09.01.2020
4744 Rain 11 1020 87 10000 5.1 240 19:39 09.01.2020
4745 Rain 11 1020 87 10000 5.1 240 19:20 09.01.2020
4746 Rain 11 1020 93 10000 5.7 250 18:56 09.01.2020
4747 Rain 11 1020 93 10000 5.7 250 18:56 09.01.2020
4748 Rain 12 1020 87 6000 8.2 280 18:38 09.01.2020
4749 Rain 12 1020 87 6000 8.2 280 18:20 09.01.2020
4750 Clouds 14 1018 67 10000 5.1 220 17:41 09.01.2020
4751 Clouds 14 1018 67 10000 5.1 220 17:19 09.01.2020
4752 Clouds 15 1018 55 10000 4.6 230 16:56 09.01.2020
4753 Clouds 15 1018 55 10000 3.6 200 16:37 09.01.2020
4754 Clouds 16 1017 55 10000 4.1 190 16:19 09.01.2020
4755 Clouds 16 1018 59 10000 5.1 210 15:41 09.01.2020
4756 Clouds 16 1018 59 10000 5.1 210 15:21 09.01.2020
4757 Clouds 16 1018 55 10000 6.2 220 14:55 09.01.2020
4758 Clouds 15 1019 62 10000 4.6 200 14:37 09.01.2020
4759 Clouds 15 1019 62 10000 5.7 210 14:18 09.01.2020
4760 Clouds 14 1019 62 10000 5.7 210 13:55 09.01.2020
4761 Clouds 14 1019 62 10000 5.7 210 13:55 09.01.2020
4762 Clouds 15 1020 62 10000 4.6 200 13:36 09.01.2020
4763 Clouds 14 1021 71 10000 4.1 180 13:18 09.01.2020
4764 Clouds 12 1021 76 10000 3.6 180 12:42 09.01.2020
4765 Clouds 12 1021 76 10000 3.6 180 12:23 09.01.2020
4766 Clouds 11 1022 81 10000 3.1 200 11:59 09.01.2020
4767 Clouds 11 1022 81 10000 3.1 160 11:41 09.01.2020
4768 Clouds 10 1022 81 10000 3.1 160 11:22 09.01.2020
4769 Clouds 9 1022 93 10000 1 180 10:45 09.01.2020
4770 Clouds 9 1022 93 10000 1 180 10:23 09.01.2020
4771 Clouds 9 1022 93 9000 3.6 160 09:59 09.01.2020
4772 Clouds 9 1022 93 8000 3.6 150 09:40 09.01.2020
4773 Clouds 9 1022 93 8000 3.6 150 09:21 09.01.2020
4774 Clouds 9 1023 93 7000 2.6 160 08:55 09.01.2020
4775 Clouds 9 1023 93 7000 2.6 160 08:37 09.01.2020
4776 Clouds 9 1023 93 7000 2.6 160 08:19 09.01.2020
4777 Clouds 8 1023 93 7000 2.6 150 07:42 09.01.2020
4778 Clouds 8 1023 93 7000 2.6 150 07:24 09.01.2020
4779 Clouds 8 1023 93 6000 1.5 120 06:39 09.01.2020
4780 Clouds 7 1024 93 7000 2.1 140 06:20 09.01.2020
4781 Clouds 8 1024 93 10000 2.84 150 05:50 09.01.2020
4782 Clouds 8 1024 93 10000 2.84 150 05:50 09.01.2020
4783 Clouds 9 1024 100 10000 3.1 140 04:44 09.01.2020
4784 Clouds 9 1025 93 10000 3.1 140 03:54 09.01.2020
4785 Clouds 9 1025 93 10000 1.5 0 02:55 09.01.2020
4786 Clouds 9 1026 93 10000 1.96 147 02:30 09.01.2020
4787 Clouds 9 1026 87 10000 3.1 150 01:40 09.01.2020
4788 Clouds 9 1027 93 10000 1.5 170 00:44 09.01.2020
4789 Clouds 9 1027 93 10000 1.5 170 00:21 09.01.2020
4790 Clouds 9 1027 93 10000 1.5 170 23:55 08.01.2020
4791 Clouds 9 1027 93 10000 3.1 150 23:37 08.01.2020
4792 Clouds 9 1027 93 10000 2.6 140 23:18 08.01.2020
4793 Clouds 9 1028 93 10000 0.5 0 22:39 08.01.2020
4794 Clouds 10 1028 87 10000 2.1 130 22:21 08.01.2020
4795 Clouds 10 1028 87 10000 2.1 130 21:57 08.01.2020
4796 Clouds 10 1028 93 10000 2.6 130 21:38 08.01.2020
4797 Clouds 10 1028 93 10000 2.6 130 21:20 08.01.2020
4798 Clouds 10 1028 93 10000 1.5 140 20:58 08.01.2020
4799 Clouds 10 1028 93 10000 1.5 140 20:39 08.01.2020
4800 Clouds 10 1029 87 10000 1.5 120 20:20 08.01.2020
4801 Clouds 10 1029 87 10000 1.5 120 19:56 08.01.2020
4802 Clouds 10 1029 93 10000 1.5 130 19:37 08.01.2020
4803 Clouds 11 1029 87 10000 1.5 120 19:19 08.01.2020
4804 Clouds 11 1029 87 10000 1.5 120 18:55 08.01.2020
4805 Clouds 12 1029 82 10000 2.1 110 18:37 08.01.2020
4806 Clouds 12 1029 76 10000 2.1 110 18:18 08.01.2020
4807 Clouds 13 1029 72 10000 1.5 130 17:48 08.01.2020
4808 Clouds 14 1029 72 10000 1.5 130 17:24 08.01.2020
4809 Clouds 14 1029 72 10000 1.5 130 17:24 08.01.2020
4810 Clouds 15 1029 72 10000 1.5 120 16:57 08.01.2020
4811 Clouds 15 1029 72 10000 1 0 16:39 08.01.2020
4812 Clouds 15 1029 72 10000 1.5 150 16:19 08.01.2020
4813 Clouds 15 1029 72 10000 1.5 150 15:58 08.01.2020
4814 Clouds 15 1029 72 10000 1.5 150 15:39 08.01.2020
4815 Clouds 15 1029 72 10000 1.15 159 15:19 08.01.2020
4816 Clouds 15 1029 72 10000 1.15 159 14:55 08.01.2020
4817 Clouds 14 1030 76 10000 4.6 170 14:37 08.01.2020
4818 Clouds 14 1030 76 10000 4.6 170 14:19 08.01.2020
4819 Clouds 13 1030 82 10000 3.6 160 13:39 08.01.2020
4820 Clouds 13 1031 76 10000 3.6 160 13:18 08.01.2020
4821 Clouds 12 1031 81 10000 2.6 150 12:41 08.01.2020
4822 Clouds 11 1031 81 10000 2.6 150 12:19 08.01.2020
4823 Clouds 11 1031 81 10000 2.6 150 12:19 08.01.2020
4824 Clouds 11 1031 81 10000 2.6 150 11:55 08.01.2020
4825 Clouds 10 1031 93 10000 2.1 150 11:55 08.01.2020
4826 Clouds 10 1031 93 10000 2.1 150 11:37 08.01.2020
4827 Clouds 10 1031 87 10000 2.1 150 11:18 08.01.2020
4828 Clouds 9 1031 93 10000 3.1 140 10:42 08.01.2020
4829 Clouds 9 1031 93 10000 3.1 140 10:22 08.01.2020
4830 Clouds 8 1031 93 10000 2.1 130 09:59 08.01.2020
4831 Clouds 7 1031 100 10000 1.5 140 09:41 08.01.2020
4832 Clouds 7 1031 100 10000 1.5 140 09:19 08.01.2020
4833 Clouds 7 1031 100 10000 1.5 140 09:19 08.01.2020
4834 Clouds 6 1031 100 10000 2.6 140 08:55 08.01.2020
4835 Clouds 7 1031 100 6000 2.1 140 08:36 08.01.2020
4836 Clouds 7 1031 93 7000 1.5 110 08:18 08.01.2020
4837 Fog 6 1031 100 7000 1.5 130 07:43 08.01.2020
4838 Fog 6 1031 100 7000 1.5 130 07:23 08.01.2020
4839 Fog 7 1030 100 4800 1 150 06:44 08.01.2020
4840 Fog 7 1030 100 4000 1.5 140 05:59 08.01.2020
4841 Fog 7 1031 100 700 1.54 183 05:28 08.01.2020
4842 Fog 8 1031 93 8000 1.45 187 04:46 08.01.2020
4843 Clouds 8 1031 93 10000 1.5 200 03:32 08.01.2020
4844 Clouds 9 1031 93 10000 2.1 190 02:44 08.01.2020
4845 Clouds 10 1031 93 10000 1.5 200 02:19 08.01.2020
4846 Clouds 10 1031 87 10000 1.5 210 01:39 08.01.2020
4847 Clouds 10 1031 87 10000 2.1 210 00:53 08.01.2020
4848 Clouds 11 1032 93 10000 1.5 220 00:26 08.01.2020
4849 Clouds 11 1032 93 10000 2.1 210 23:46 07.01.2020
4850 Clouds 11 1032 93 10000 2.1 210 23:22 07.01.2020
4851 Clouds 11 1032 93 7000 1.5 200 22:58 07.01.2020
4852 Clouds 11 1032 93 7000 1.5 200 22:38 07.01.2020
4853 Clouds 11 1032 93 7000 1.5 200 22:19 07.01.2020
4854 Clouds 11 1032 93 7000 1.5 200 22:19 07.01.2020
4855 Clouds 11 1032 100 9000 1.5 200 21:42 07.01.2020
4856 Clouds 11 1032 100 7000 2.1 220 21:23 07.01.2020
4857 Clouds 11 1032 100 7000 2.1 220 20:59 07.01.2020
4858 Mist 11 1032 100 4200 2.6 190 20:41 07.01.2020
4859 Mist 11 1032 100 4200 2.6 190 20:22 07.01.2020
4860 Mist 11 1032 100 4800 2.6 190 19:58 07.01.2020
4861 Mist 11 1032 93 5000 1.5 210 19:38 07.01.2020
4862 Clouds 11 1031 93 7000 1.5 180 19:19 07.01.2020
4863 Clouds 11 1031 93 7000 1.5 180 18:56 07.01.2020
4864 Mist 12 1031 93 4200 1.5 170 18:38 07.01.2020
4865 Mist 12 1032 93 5000 1.5 220 18:18 07.01.2020
4866 Mist 12 1032 93 5000 1.5 220 17:56 07.01.2020
4867 Clouds 12 1031 93 10000 2.6 250 17:37 07.01.2020
4868 Clouds 12 1031 87 10000 2.6 260 17:18 07.01.2020
4869 Clouds 12 1031 87 10000 2.6 260 16:55 07.01.2020
4870 Clouds 12 1031 87 10000 2.1 260 16:37 07.01.2020
4871 Clouds 12 1031 87 10000 2.1 260 16:18 07.01.2020
4872 Clouds 12 1031 87 10000 3.1 270 15:42 07.01.2020
4873 Clouds 12 1031 87 10000 3.1 270 15:24 07.01.2020
4874 Clouds 12 1031 100 10000 2.6 250 14:58 07.01.2020
4875 Clouds 12 1031 93 10000 1.5 220 14:40 07.01.2020
4876 Clouds 12 1031 93 10000 1.5 220 14:20 07.01.2020
4877 Drizzle 11 1032 100 2500 1.5 230 13:46 07.01.2020
4878 Drizzle 11 1032 100 2500 1.5 230 13:20 07.01.2020
4879 Drizzle 11 1032 100 2500 1.5 230 13:20 07.01.2020
4880 Mist 11 1033 93 5000 2.1 210 12:56 07.01.2020
4881 Mist 11 1033 93 5000 2.1 210 12:37 07.01.2020
4882 Mist 10 1033 93 5000 2.1 210 12:18 07.01.2020
4883 Clouds 10 1033 100 7000 2.1 190 11:41 07.01.2020
4884 Clouds 10 1033 100 7000 2.1 190 11:22 07.01.2020
4885 Mist 9 1033 100 5000 1 170 10:56 07.01.2020
4886 Mist 9 1033 93 3100 1 160 10:37 07.01.2020
4887 Mist 9 1033 93 3100 1 160 10:37 07.01.2020
4888 Mist 9 1033 93 5000 1 0 10:19 07.01.2020
4889 Mist 8 1032 100 3300 3.1 170 09:39 07.01.2020
4890 Mist 8 1032 100 3300 3.1 170 09:20 07.01.2020
4891 Mist 8 1032 100 4800 1.5 160 08:57 07.01.2020
4892 Clouds 8 1032 100 6000 1.5 140 08:37 07.01.2020
4893 Clouds 8 1032 100 6000 1.5 140 08:37 07.01.2020
4894 Clouds 8 1032 100 7000 1 150 08:18 07.01.2020
4895 Clouds 8 1032 100 6000 1 160 07:42 07.01.2020
4896 Clouds 8 1032 100 6000 1 160 07:42 07.01.2020
4897 Clouds 8 1032 100 6000 1.5 170 06:57 07.01.2020
4898 Clouds 8 1031 93 7000 1 180 06:35 07.01.2020
4899 Clouds 7 1031 93 7000 1.5 170 05:59 07.01.2020
4900 Clouds 7 1031 93 7000 1.5 210 05:40 07.01.2020
4901 Clouds 7 1032 93 9000 1.5 190 03:44 07.01.2020
4902 Clouds 6 1032 100 7000 1.5 170 02:38 07.01.2020
4903 Clouds 6 1032 100 7000 1.5 170 01:59 07.01.2020
4904 Clouds 6 1031 100 6000 1.5 0 01:35 07.01.2020
4905 Mist 5 1031 100 4400 1 190 00:51 07.01.2020
4906 Clouds 6 1031 93 7000 1.5 170 00:20 07.01.2020
4907 Clouds 6 1031 93 7000 1.5 170 23:56 06.01.2020
4908 Clouds 6 1031 93 7000 2.6 160 23:36 06.01.2020
4909 Clouds 6 1031 93 7000 2.6 160 23:18 06.01.2020
4910 Clouds 6 1031 93 7000 2.6 160 23:18 06.01.2020
4911 Clouds 6 1031 100 7000 1.5 160 22:43 06.01.2020
4912 Clouds 6 1031 100 7000 1.5 160 22:23 06.01.2020
4913 Clouds 6 1031 100 7000 1.5 0 21:58 06.01.2020
4914 Clouds 6 1031 100 7000 1.5 0 21:39 06.01.2020
4915 Clouds 6 1031 100 7000 1.5 0 21:20 06.01.2020
4916 Clouds 6 1031 100 7000 1.5 0 21:20 06.01.2020
4917 Clouds 6 1031 100 7000 1.5 0 21:20 06.01.2020
4918 Clouds 6 1030 93 6000 2.1 160 20:57 06.01.2020
4919 Clouds 5 1030 93 6000 2.6 170 20:38 06.01.2020
4920 Mist 5 1031 100 5000 2.1 150 20:20 06.01.2020
4921 Mist 5 1031 100 5000 2.1 150 19:56 06.01.2020
4922 Mist 5 1031 100 5000 2.1 150 19:56 06.01.2020
4923 Mist 5 1031 100 5000 1 180 19:37 06.01.2020
4924 Mist 5 1031 100 5000 1 180 19:19 06.01.2020
4925 Mist 5 1031 100 5000 1 180 19:19 06.01.2020
4926 Clouds 5 1029 93 7000 2.1 140 18:46 06.01.2020
4927 Clouds 5 1029 93 8000 1.5 150 18:21 06.01.2020
4928 Clouds 5 1029 93 8000 1.5 150 17:57 06.01.2020
4929 Clouds 5 1029 93 10000 1 0 17:37 06.01.2020
4930 Clouds 5 1029 93 10000 1 0 17:18 06.01.2020
4931 Clouds 5 1028 93 10000 2.1 150 16:44 06.01.2020
4932 Clouds 5 1028 93 10000 2.1 150 16:24 06.01.2020
4933 Clouds 5 1028 100 10000 2.1 140 15:59 06.01.2020
4934 Clouds 4 1028 93 7000 2.1 120 15:38 06.01.2020
4935 Clouds 4 1028 93 7000 2.1 120 15:18 06.01.2020
4936 Fog 3 1028 100 800 1.5 150 14:42 06.01.2020
4937 Fog 3 1028 100 800 1.5 150 14:23 06.01.2020
4938 Fog 3 1029 100 800 1.5 170 13:59 06.01.2020
4939 Fog 3 1029 57 1500 2.6 220 13:40 06.01.2020
4940 Fog 3 1029 58 1500 2.6 220 13:22 06.01.2020
4941 Fog 2 1029 58 4100 3.1 230 12:58 06.01.2020
4942 Clouds 2 1029 58 10000 3.6 230 12:39 06.01.2020
4943 Clouds 2 1029 58 10000 3.1 230 12:20 06.01.2020
4944 Clouds 1 1029 100 10000 2.6 190 11:43 06.01.2020
4945 Clouds 1 1029 100 10000 2.6 190 11:24 06.01.2020
4946 Mist 1 1028 74 4600 2.1 170 11:00 06.01.2020
4947 Fog 1 1028 74 1000 3.6 130 10:41 06.01.2020
4948 Fog 1 1028 74 1000 3.6 130 10:21 06.01.2020
4949 Fog 0 1028 100 900 1.5 150 09:42 06.01.2020
4950 Fog 0 1028 100 900 1.5 150 09:23 06.01.2020
4951 Mist 0 1028 100 1900 1 0 08:55 06.01.2020
4952 Mist 0 1028 100 3300 2.6 140 08:37 06.01.2020
4953 Mist 0 1028 100 3300 2.6 140 07:58 06.01.2020
4954 Mist 0 1027 100 2900 2.1 140 07:39 06.01.2020
4955 Fog 0 1027 100 1000 4.1 140 06:51 06.01.2020
4956 Fog 0 1027 100 750 3.6 120 06:32 06.01.2020
4957 Fog -1 1027 100 1400 2.6 150 05:48 06.01.2020
4958 Fog -1 1028 100 1800 2.1 150 04:58 06.01.2020
4959 Mist -1 1027 100 5000 2.6 120 04:22 06.01.2020
4960 Mist 0 1028 100 4800 1.5 0 03:26 06.01.2020
4961 Fog 0 1028 100 4200 1 160 02:26 06.01.2020
4962 Fog 0 1028 89 5000 1.46 101 01:49 06.01.2020
4963 Clouds 0 1028 89 6000 0.5 250 01:29 06.01.2020
4964 Clear 0 1029 90 6000 0.5 260 00:45 06.01.2020
4965 Clear 1 1029 90 6000 0.5 260 00:26 06.01.2020
4966 Mist 1 1030 100 5000 1 260 23:57 05.01.2020
4967 Mist 1 1030 93 4900 1.5 260 23:37 05.01.2020
4968 Clear 1 1030 93 9000 2.6 240 23:19 05.01.2020
4969 Clear 2 1030 93 8000 1.5 250 22:40 05.01.2020
4970 Clear 2 1030 93 10000 1.63 36 22:20 05.01.2020
4971 Clear 2 1030 93 10000 1.63 36 21:56 05.01.2020
4972 Clear 2 1030 93 10000 1.63 36 21:38 05.01.2020
4973 Clear 2 1030 93 10000 1.63 36 21:20 05.01.2020
4974 Clear 3 1030 86 10000 1.63 36 20:56 05.01.2020
4975 Clear 3 1031 86 10000 1 0 20:38 05.01.2020
4976 Clear 3 1031 86 10000 1 0 20:19 05.01.2020
4977 Clear 4 1031 86 10000 2.1 50 19:57 05.01.2020
4978 Clear 4 1031 75 10000 1.5 50 19:38 05.01.2020
4979 Clear 5 1031 75 10000 2.1 40 19:19 05.01.2020
4980 Clear 5 1031 75 10000 2.1 40 18:55 05.01.2020
4981 Clear 6 1031 70 10000 1.5 50 18:36 05.01.2020
4982 Clear 7 1031 65 10000 2.1 70 18:18 05.01.2020
4983 Clear 7 1031 65 10000 2.1 70 17:57 05.01.2020
4984 Clear 8 1031 61 10000 3.1 60 17:37 05.01.2020
4985 Clear 8 1031 61 10000 3.1 60 17:19 05.01.2020
4986 Clear 8 1031 61 10000 3.1 60 17:19 05.01.2020
4987 Clear 9 1031 61 10000 2.6 60 16:55 05.01.2020
4988 Clear 9 1031 61 10000 2.6 60 16:37 05.01.2020
4989 Clear 9 1031 61 10000 3.6 60 16:19 05.01.2020
4990 Clear 9 1031 61 10000 3.6 60 16:19 05.01.2020
4991 Clear 9 1031 57 10000 3.6 60 15:37 05.01.2020
4992 Clear 9 1032 65 10000 3.6 50 15:18 05.01.2020
4993 Clear 9 1032 65 10000 3.6 50 14:55 05.01.2020
4994 Clear 9 1032 65 10000 3.6 80 14:36 05.01.2020
4995 Clear 9 1032 65 10000 3.6 80 14:18 05.01.2020
4996 Clear 8 1033 70 10000 3.6 50 13:40 05.01.2020
4997 Clear 8 1033 70 10000 3.6 50 13:21 05.01.2020
4998 Clear 7 1034 70 10000 2.6 70 12:58 05.01.2020
4999 Clear 6 1035 75 10000 2.6 70 12:39 05.01.2020
5000 Clear 6 1035 75 10000 2.6 70 12:21 05.01.2020
5001 Clear 6 1035 75 10000 2.6 70 12:21 05.01.2020
5002 Clear 5 1035 80 10000 3.1 70 11:58 05.01.2020
5003 Clear 5 1035 80 10000 2.6 60 11:39 05.01.2020
5004 Clear 4 1035 80 10000 2.6 60 11:19 05.01.2020
5005 Clear 4 1035 93 10000 1 0 10:56 05.01.2020
5006 Clear 3 1036 100 10000 2.03 40 10:36 05.01.2020
5007 Clear 3 1036 100 10000 2.03 40 10:36 05.01.2020
5008 Clear 1 1036 100 6000 2.03 40 10:18 05.01.2020
5009 Fog 0 1036 88 7000 1.5 40 09:41 05.01.2020
5010 Fog 0 1036 88 7000 1.5 40 09:21 05.01.2020
5011 Mist 0 1036 88 5000 1.5 20 08:46 05.01.2020
5012 Mist 0 1036 89 5000 1.5 20 08:27 05.01.2020
5013 Fog 1 1036 100 8000 1 0 07:55 05.01.2020
5014 Clear 1 1036 100 8000 1.5 40 07:35 05.01.2020
5015 Clear 1 1036 100 8000 1 0 06:58 05.01.2020
5016 Mist 1 1036 100 5000 1 0 05:55 05.01.2020
5017 Fog 1 1036 100 6000 2.1 10 05:28 05.01.2020
5018 Fog 1 1037 100 1700 0.5 330 04:24 05.01.2020
5019 Clear 1 1037 100 6000 0.5 0 03:47 05.01.2020
5020 Fog 1 1036 93 4000 2.76 25 02:43 05.01.2020
5021 Fog 2 1036 93 4000 2.44 31 02:20 05.01.2020
5022 Fog 2 1037 100 10000 1.5 40 01:39 05.01.2020
5023 Clear 2 1037 93 6000 1 20 01:18 05.01.2020
5024 Fog 3 1037 93 6000 1 30 00:40 05.01.2020
5025 Fog 3 1037 93 6000 1 30 00:21 05.01.2020
5026 Clear 3 1038 100 10000 1.5 20 23:59 04.01.2020
5027 Clear 3 1038 100 8000 1 360 23:39 04.01.2020
5028 Fog 3 1038 100 6000 1.5 10 23:18 04.01.2020
5029 Clouds 3 1038 93 10000 1 0 22:39 04.01.2020
5030 Clouds 3 1038 93 10000 1 0 22:39 04.01.2020
5031 Clouds 4 1038 93 10000 1 0 22:21 04.01.2020
5032 Clouds 4 1038 93 10000 1 0 21:57 04.01.2020
5033 Clouds 4 1038 93 10000 1 0 21:57 04.01.2020
5034 Clear 4 1038 93 10000 1.5 0 21:38 04.01.2020
5035 Clear 4 1038 93 10000 1.5 0 21:19 04.01.2020
5036 Clouds 5 1038 93 10000 2.1 20 20:56 04.01.2020
5037 Clear 5 1038 87 10000 1.5 0 20:37 04.01.2020
5038 Clouds 6 1037 87 10000 3.1 30 20:19 04.01.2020
5039 Clouds 6 1037 81 10000 3.1 30 19:42 04.01.2020
5040 Clouds 6 1037 81 10000 3.1 30 19:42 04.01.2020
5041 Clouds 7 1037 81 10000 2.6 10 19:23 04.01.2020
5042 Clouds 7 1037 81 10000 2.6 10 18:58 04.01.2020
5043 Clouds 7 1037 81 10000 2.6 360 18:39 04.01.2020
5044 Clouds 8 1037 81 10000 2.6 360 18:20 04.01.2020
5045 Clouds 9 1037 76 10000 3.6 360 17:58 04.01.2020
5046 Clouds 9 1036 71 10000 3.1 10 17:40 04.01.2020
5047 Clouds 10 1036 66 10000 2.1 20 17:21 04.01.2020
5048 Clouds 10 1036 66 10000 2.1 20 16:42 04.01.2020
5049 Clouds 10 1036 71 10000 3.1 340 16:24 04.01.2020
5050 Clouds 11 1036 71 10000 3.1 340 15:57 04.01.2020
5051 Clouds 10 1036 76 10000 2.1 320 15:39 04.01.2020
5052 Clouds 10 1036 76 10000 2.1 320 15:39 04.01.2020
5053 Clouds 10 1036 76 10000 2.6 350 15:19 04.01.2020
5054 Clouds 11 1036 76 10000 2.6 350 14:57 04.01.2020
5055 Clouds 10 1037 76 10000 1.5 330 14:39 04.01.2020
5056 Clouds 10 1037 87 10000 1.5 350 14:19 04.01.2020
5057 Clouds 10 1037 87 10000 1.5 350 13:55 04.01.2020
5058 Clouds 10 1037 87 10000 2.6 360 13:37 04.01.2020
5059 Clouds 10 1037 87 10000 2.6 360 13:37 04.01.2020
5060 Clouds 10 1037 87 10000 2.6 360 13:18 04.01.2020
5061 Clouds 10 1038 93 10000 2.1 10 12:41 04.01.2020
5062 Clouds 9 1038 93 10000 2.1 10 12:20 04.01.2020
5063 Clouds 9 1038 87 10000 3.1 10 11:59 04.01.2020
5064 Clouds 9 1038 93 10000 3.1 20 11:40 04.01.2020
5065 Clouds 9 1038 93 10000 3.1 10 11:19 04.01.2020
5066 Clouds 9 1038 93 10000 3.1 10 10:55 04.01.2020
5067 Clouds 9 1038 93 10000 3.1 10 10:55 04.01.2020
5068 Clouds 9 1037 93 10000 3.1 360 10:36 04.01.2020
5069 Clouds 9 1037 93 10000 2.6 360 10:18 04.01.2020
5070 Clouds 9 1036 93 10000 2.6 360 09:41 04.01.2020
5071 Clouds 9 1036 93 10000 2.6 360 09:22 04.01.2020
5072 Mist 9 1036 100 5000 3.1 360 08:42 04.01.2020
5073 Mist 9 1036 100 5000 3.1 360 08:21 04.01.2020
5074 Clouds 9 1035 100 7000 3.6 360 07:44 04.01.2020
5075 Mist 8 1035 100 3400 2.6 350 07:21 04.01.2020
5076 Mist 8 1035 100 3900 1.5 300 06:33 04.01.2020
5077 Clouds 8 1035 100 10000 1.5 240 05:39 04.01.2020
5078 Mist 7 1035 100 1100 2.1 230 04:44 04.01.2020
5079 Mist 7 1035 100 1100 2.1 230 04:25 04.01.2020
5080 Fog 8 1034 100 700 1.5 240 03:19 04.01.2020
5081 Fog 9 1034 100 350 1.5 240 02:23 04.01.2020
5082 Fog 9 1034 100 2500 1.5 280 01:56 04.01.2020
5083 Clouds 9 1034 100 10000 1.5 0 01:32 04.01.2020
5084 Drizzle 9 1034 100 2700 2.1 270 00:46 04.01.2020
5085 Drizzle 9 1034 100 2700 2.1 270 00:27 04.01.2020
5086 Clouds 9 1034 100 10000 2.6 260 23:48 03.01.2020
5087 Clouds 9 1034 100 10000 2.1 240 23:26 03.01.2020
5088 Drizzle 10 1034 93 8000 2.6 270 22:54 03.01.2020
5089 Clouds 9 1034 93 10000 2.6 230 22:36 03.01.2020
5090 Clouds 9 1034 93 10000 3.1 260 22:18 03.01.2020
5091 Clouds 9 1034 93 10000 3.1 260 22:18 03.01.2020
5092 Clouds 9 1034 93 10000 3.1 260 21:54 03.01.2020
5093 Mist 9 1033 100 5000 3.1 230 21:36 03.01.2020
5094 Fog 9 1033 100 2500 3.1 240 21:18 03.01.2020
5095 Clouds 9 1033 93 6000 3.1 230 20:42 03.01.2020
5096 Clouds 10 1032 93 10000 2.6 220 20:19 03.01.2020
5097 Clouds 10 1032 93 10000 2.6 220 19:58 03.01.2020
5098 Clouds 11 1032 93 10000 2.6 240 19:39 03.01.2020
5099 Clouds 11 1032 93 10000 2.6 240 19:21 03.01.2020
5100 Clouds 11 1032 93 10000 2.1 240 18:44 03.01.2020
5101 Clouds 11 1032 93 10000 2.1 240 18:44 03.01.2020
5102 Clouds 12 1032 87 10000 3.1 260 18:26 03.01.2020
5103 Clouds 12 1032 87 10000 3.1 260 17:57 03.01.2020
5104 Clouds 12 1031 87 10000 2.6 260 17:39 03.01.2020
5105 Clouds 12 1031 87 10000 3.6 260 17:19 03.01.2020
5106 Clouds 13 1031 87 10000 4.6 240 16:43 03.01.2020
5107 Clouds 13 1031 87 10000 4.6 240 16:24 03.01.2020
5108 Clouds 13 1031 87 10000 5.1 240 15:58 03.01.2020
5109 Clouds 13 1031 87 10000 5.1 240 15:58 03.01.2020
5110 Clouds 12 1031 87 10000 5.1 240 15:40 03.01.2020
5111 Clouds 13 1031 87 10000 5.1 230 15:18 03.01.2020
5112 Clouds 12 1031 93 10000 5.1 240 14:39 03.01.2020
5113 Clouds 12 1031 93 10000 5.1 240 14:20 03.01.2020
5114 Clouds 12 1031 93 10000 5.1 230 13:56 03.01.2020
5115 Clouds 11 1031 100 10000 4.6 220 13:37 03.01.2020
5116 Clouds 11 1031 93 8000 4.6 220 13:19 03.01.2020
5117 Drizzle 11 1031 93 4000 4.6 220 12:39 03.01.2020
5118 Drizzle 11 1031 93 4000 4.6 220 12:21 03.01.2020
5119 Drizzle 10 1031 100 4400 3.6 220 11:48 03.01.2020
5120 Drizzle 10 1031 100 4400 3.6 220 11:29 03.01.2020
5121 Drizzle 9 1031 100 3700 3.1 210 10:47 03.01.2020
5122 Drizzle 9 1031 100 3700 3.1 210 10:28 03.01.2020
5123 Drizzle 9 1030 100 4200 3.1 210 09:59 03.01.2020
5124 Clouds 9 1030 93 10000 3.1 210 09:40 03.01.2020
5125 Clouds 9 1030 93 10000 3.1 210 09:22 03.01.2020
5126 Clouds 8 1030 93 10000 3.1 220 08:57 03.01.2020
5127 Clouds 8 1030 93 10000 3.6 210 08:38 03.01.2020
5128 Clouds 8 1030 93 10000 3.6 210 08:19 03.01.2020
5129 Clouds 7 1029 93 10000 3.6 210 07:40 03.01.2020
5130 Clouds 7 1029 93 10000 3.6 210 07:19 03.01.2020
5131 Clouds 7 1029 100 10000 3.1 210 06:50 03.01.2020
5132 Clouds 7 1029 100 10000 3.1 200 06:32 03.01.2020
5133 Clouds 6 1029 100 7000 2.6 200 05:46 03.01.2020
5134 Fog 5 1028 100 5000 0.5 0 04:24 03.01.2020
5135 Fog 5 1028 100 5000 2.1 180 02:57 03.01.2020
5136 Mist 5 1028 100 4800 1.5 190 02:33 03.01.2020
5137 Mist 6 1028 93 3700 1 220 01:45 03.01.2020
5138 Clouds 6 1028 93 6000 1.5 240 00:50 03.01.2020
5139 Clouds 6 1028 93 7000 1.5 0 00:31 03.01.2020
5140 Clouds 7 1028 100 10000 1.5 210 23:57 02.01.2020
5141 Clouds 7 1028 93 9000 1.5 220 23:38 02.01.2020
5142 Clouds 6 1028 100 8000 1.5 200 23:19 02.01.2020
5143 Clouds 6 1028 100 8000 1.5 200 22:57 02.01.2020
5144 Clouds 6 1027 93 7000 2.6 190 22:38 02.01.2020
5145 Clouds 6 1027 93 7000 1.5 180 22:18 02.01.2020
5146 Clouds 6 1027 93 7000 1 170 21:41 02.01.2020
5147 Clouds 6 1027 93 7000 1 170 21:23 02.01.2020
5148 Clouds 6 1027 93 9000 2.08 169 20:59 02.01.2020
5149 Clouds 6 1027 93 9000 2.08 169 20:59 02.01.2020
5150 Clouds 6 1027 93 9000 2.08 169 20:59 02.01.2020
5151 Clouds 7 1027 87 10000 1 160 20:39 02.01.2020
5152 Clouds 7 1027 87 10000 1 160 20:21 02.01.2020
5153 Clouds 7 1027 93 10000 1 140 19:56 02.01.2020
5154 Clouds 7 1027 93 10000 1 140 19:56 02.01.2020
5155 Clouds 7 1027 93 10000 1 140 19:56 02.01.2020
5156 Clouds 7 1027 93 10000 1 0 19:37 02.01.2020
5157 Clouds 8 1027 87 10000 1 160 19:19 02.01.2020
5158 Clouds 8 1027 87 10000 1 160 18:57 02.01.2020
5159 Clouds 8 1027 87 10000 1 130 18:38 02.01.2020
5160 Clouds 9 1027 81 10000 1.5 130 18:20 02.01.2020
5161 Clouds 9 1027 81 10000 1.5 130 17:56 02.01.2020
5162 Clouds 10 1027 81 10000 2.1 140 17:37 02.01.2020
5163 Clouds 10 1027 76 10000 2.1 130 17:18 02.01.2020
5164 Clouds 10 1027 76 10000 2.1 130 16:56 02.01.2020
5165 Clouds 11 1026 76 10000 3.1 130 16:38 02.01.2020
5166 Clouds 11 1026 76 10000 3.1 130 16:19 02.01.2020
5167 Clouds 11 1026 71 10000 3.6 130 15:45 02.01.2020
5168 Clouds 11 1026 71 10000 4.1 110 15:24 02.01.2020
5169 Clouds 11 1026 71 10000 4.1 110 14:58 02.01.2020
5170 Clouds 11 1027 71 10000 4.1 120 14:38 02.01.2020
5171 Clouds 11 1027 71 10000 4.1 120 14:20 02.01.2020
5172 Clouds 11 1027 76 10000 4.1 120 13:58 02.01.2020
5173 Clouds 10 1028 76 10000 3.6 120 13:40 02.01.2020
5174 Clouds 10 1028 71 10000 3.1 120 13:19 02.01.2020
5175 Clouds 10 1029 76 10000 2.6 120 12:42 02.01.2020
5176 Clouds 9 1029 76 10000 3.6 130 12:21 02.01.2020
5177 Clouds 9 1029 76 10000 3.6 130 11:42 02.01.2020
5178 Clear 9 1029 76 10000 3.6 130 11:22 02.01.2020
5179 Clear 7 1029 81 10000 3.1 130 10:46 02.01.2020
5180 Clear 7 1029 81 10000 3.1 130 10:28 02.01.2020
5181 Clear 6 1029 87 10000 2.6 140 09:58 02.01.2020
5182 Clear 6 1029 93 10000 2.1 140 09:36 02.01.2020
5183 Clouds 6 1029 87 10000 2.6 160 08:59 02.01.2020
5184 Clouds 7 1029 81 10000 3.6 160 08:40 02.01.2020
5185 Clouds 7 1029 76 10000 3.1 160 08:21 02.01.2020
5186 Clouds 7 1029 81 10000 2.1 160 07:47 02.01.2020
5187 Clouds 8 1029 81 10000 1.5 150 07:27 02.01.2020
5188 Clouds 9 1029 81 10000 1.5 160 06:41 02.01.2020
5189 Clouds 9 1029 87 10000 1 0 05:40 02.01.2020
5190 Clouds 9 1029 87 10000 1 180 04:35 02.01.2020
5191 Clouds 9 1030 87 10000 3.1 180 03:44 02.01.2020
5192 Clouds 10 1030 81 10000 2.1 200 02:21 02.01.2020
5193 Clouds 9 1030 81 10000 2.1 190 01:53 02.01.2020
5194 Clouds 10 1030 81 10000 2.1 200 01:53 02.01.2020
5195 Clouds 9 1030 81 10000 2.1 190 01:25 02.01.2020
5196 Clouds 10 1030 81 10000 2.6 190 00:45 02.01.2020
5197 Clouds 10 1030 81 10000 2.6 190 00:26 02.01.2020
5198 Clouds 10 1031 81 10000 3.1 180 23:43 01.01.2020
5199 Clouds 10 1031 81 10000 3.6 180 23:23 01.01.2020
5200 Clouds 10 1031 81 10000 3.1 170 22:39 01.01.2020
5201 Clouds 10 1031 81 10000 3.1 170 22:39 01.01.2020
5202 Clouds 10 1031 81 10000 3.1 170 22:39 01.01.2020
5203 Clouds 10 1031 81 10000 3.1 170 22:20 01.01.2020
5204 Clouds 10 1031 87 10000 3.1 170 22:20 01.01.2020
5205 Clouds 10 1031 87 10000 2.1 160 21:58 01.01.2020
5206 Clouds 10 1031 87 10000 2.1 160 21:39 01.01.2020
5207 Clouds 10 1031 87 10000 2.1 160 21:20 01.01.2020
5208 Clouds 10 1031 87 10000 1.5 150 20:57 01.01.2020
5209 Clouds 10 1031 87 10000 1.5 150 20:38 01.01.2020
5210 Clouds 10 1031 87 10000 1.5 170 20:20 01.01.2020
5211 Clouds 10 1031 87 10000 1.5 220 19:56 01.01.2020
5212 Clouds 10 1031 87 10000 1.5 220 19:37 01.01.2020
5213 Clouds 10 1031 87 10000 1.5 220 19:19 01.01.2020
5214 Clouds 10 1031 87 10000 2.1 220 18:56 01.01.2020
5215 Clouds 10 1031 87 10000 2.1 220 18:37 01.01.2020
5216 Clouds 10 1031 87 10000 2.1 220 18:37 01.01.2020
5217 Clouds 10 1031 87 10000 1.5 200 18:19 01.01.2020
5218 Clouds 10 1031 87 10000 1.5 200 17:57 01.01.2020
5219 Rain 11 1031 81 10000 2.6 230 17:39 01.01.2020
5220 Rain 11 1031 81 10000 2.6 230 17:19 01.01.2020
5221 Clouds 11 1031 81 10000 2.6 220 16:56 01.01.2020
5222 Clouds 11 1031 81 10000 2.6 220 16:56 01.01.2020
5223 Clouds 11 1031 81 10000 2.6 220 16:37 01.01.2020
5224 Clouds 11 1031 81 10000 2.6 220 16:18 01.01.2020
5225 Clouds 11 1030 87 10000 4.1 230 15:54 01.01.2020
5226 Clouds 11 1031 81 10000 3.6 220 15:36 01.01.2020
5227 Clouds 11 1031 81 10000 4.6 230 15:18 01.01.2020
5228 Clouds 11 1031 81 10000 4.6 220 14:41 01.01.2020
5229 Clouds 11 1031 81 10000 4.1 220 14:22 01.01.2020
5230 Clouds 11 1031 81 10000 4.1 220 13:56 01.01.2020
5231 Clouds 11 1031 81 10000 4.1 220 13:56 01.01.2020
5232 Clouds 11 1031 81 10000 4.1 220 13:56 01.01.2020
5233 Clouds 11 1032 81 10000 4.1 220 13:37 01.01.2020
5234 Clouds 11 1032 81 10000 4.1 220 13:19 01.01.2020
5235 Clouds 11 1032 81 10000 4.1 220 12:57 01.01.2020
5236 Clouds 11 1032 81 10000 3.6 210 12:39 01.01.2020
5237 Clouds 11 1032 81 10000 3.6 210 12:19 01.01.2020
5238 Clouds 11 1032 81 10000 3.6 210 12:19 01.01.2020
5239 Clouds 10 1033 81 10000 4.1 200 11:56 01.01.2020
5240 Clouds 10 1033 87 10000 3.6 200 11:37 01.01.2020
5241 Clouds 10 1032 87 10000 3.1 200 11:18 01.01.2020
5242 Clouds 10 1032 87 10000 3.1 190 10:41 01.01.2020
5243 Clouds 10 1032 87 10000 3.1 190 10:21 01.01.2020
5244 Clouds 9 1032 93 10000 3.1 190 09:59 01.01.2020
5245 Clouds 9 1032 93 10000 3.1 190 09:38 01.01.2020
5246 Clouds 9 1032 93 10000 3.1 200 09:19 01.01.2020
5247 Clouds 9 1032 93 10000 3.1 200 08:55 01.01.2020
5248 Clouds 9 1032 93 10000 3.1 200 08:37 01.01.2020
5249 Clouds 9 1032 93 10000 3.1 200 08:37 01.01.2020
5250 Clouds 9 1032 93 10000 3.1 200 08:18 01.01.2020
5251 Clouds 9 1032 93 10000 3.1 190 07:54 01.01.2020
5252 Clouds 9 1031 93 10000 2.1 200 07:36 01.01.2020
5253 Clouds 9 1031 93 10000 1 0 06:45 01.01.2020
5254 Clouds 9 1031 93 10000 1 0 06:21 01.01.2020
5255 Clouds 10 1031 87 10000 1.5 190 05:22 01.01.2020
5256 Clouds 9 1031 93 10000 2.6 180 03:45 01.01.2020
5257 Clouds 9 1031 93 10000 2.6 180 03:23 01.01.2020
5258 Clouds 9 1031 93 10000 1.5 170 02:57 01.01.2020
5259 Clouds 9 1031 93 10000 2.1 180 02:35 01.01.2020
5260 Clouds 9 1031 93 10000 2.6 180 01:56 01.01.2020
5261 Clouds 9 1032 93 10000 1.5 180 01:38 01.01.2020
5262 Clouds 9 1032 93 10000 2.1 180 01:19 01.01.2020
5263 Clouds 9 1032 93 10000 2.6 180 00:44 01.01.2020
5264 Clouds 9 1032 93 10000 2.6 180 00:25 01.01.2020
5265 Clouds 9 1032 87 10000 2.6 190 23:41 31.12.2019
5266 Clouds 9 1032 87 10000 2.6 190 23:21 31.12.2019
5267 Clouds 9 1032 87 10000 2.1 210 22:57 31.12.2019
5268 Clouds 8 1032 93 10000 1.5 210 22:39 31.12.2019
5269 Clouds 8 1032 93 10000 1.5 210 22:20 31.12.2019
5270 Clouds 8 1032 93 10000 1.5 180 21:57 31.12.2019
5271 Clouds 8 1032 93 10000 2.1 190 21:38 31.12.2019
5272 Clouds 8 1032 93 10000 2.1 190 21:20 31.12.2019
5273 Clouds 8 1032 93 9000 1.5 210 20:55 31.12.2019
5274 Clouds 8 1032 93 8000 1.5 190 20:36 31.12.2019
5275 Clouds 8 1032 93 7000 1.5 140 20:18 31.12.2019
5276 Clouds 9 1032 87 7000 1.5 140 19:42 31.12.2019
5277 Clouds 9 1032 87 7000 1 150 19:24 31.12.2019
5278 Clouds 9 1032 87 7000 1.5 120 18:59 31.12.2019
5279 Clouds 9 1032 87 7000 1.5 120 18:40 31.12.2019
5280 Clouds 9 1032 87 10000 1 130 18:20 31.12.2019
5281 Clouds 9 1032 87 10000 1 130 17:57 31.12.2019
5282 Clouds 9 1032 87 9000 1 120 17:38 31.12.2019
5283 Clouds 9 1031 87 10000 1.5 100 17:19 31.12.2019
5284 Clouds 9 1031 87 10000 1.5 100 16:57 31.12.2019
5285 Clouds 10 1031 93 10000 2.1 90 16:38 31.12.2019
5286 Clouds 10 1031 93 10000 0.45 211 16:19 31.12.2019
5287 Clouds 10 1031 93 10000 0.45 211 15:56 31.12.2019
5288 Clouds 10 1031 93 10000 1 0 15:38 31.12.2019
5289 Clouds 10 1031 93 10000 1 0 15:20 31.12.2019
5290 Clouds 10 1031 93 8000 1 0 14:58 31.12.2019
5291 Clouds 9 1031 93 7000 1 0 14:38 31.12.2019
5292 Clouds 9 1031 93 7000 1 0 14:19 31.12.2019
5293 Clouds 9 1032 93 6000 1 0 14:19 31.12.2019
5294 Clouds 9 1032 93 6000 1 0 13:57 31.12.2019
5295 Clouds 8 1032 100 6000 1 0 13:39 31.12.2019
5296 Clouds 8 1032 100 6000 1 0 13:20 31.12.2019
5297 Clouds 7 1033 93 6000 1.85 161 12:56 31.12.2019
5298 Mist 8 1032 100 5000 0.5 0 12:38 31.12.2019
5299 Mist 7 1032 100 5000 0.5 0 12:19 31.12.2019
5300 Mist 7 1033 100 5000 1 0 11:56 31.12.2019
5301 Mist 7 1033 100 5000 1 0 11:56 31.12.2019
5302 Mist 7 1033 100 5000 1 0 11:56 31.12.2019
5303 Mist 7 1033 100 5000 1 0 11:56 31.12.2019
5304 Mist 6 1032 100 4000 1.5 150 11:38 31.12.2019
5305 Mist 5 1032 100 4000 1.5 150 11:19 31.12.2019
5306 Mist 4 1032 100 2900 2.6 120 10:57 31.12.2019
5307 Mist 4 1032 100 2900 2.6 120 10:57 31.12.2019
5308 Mist 3 1032 100 1500 1.5 150 10:38 31.12.2019
5309 Fog 3 1032 100 1900 1.5 140 10:19 31.12.2019
5310 Fog 2 1032 100 1900 1.5 140 09:58 31.12.2019
5311 Fog 2 1032 100 1400 1 150 09:39 31.12.2019
5312 Fog 2 1031 100 1800 0.5 130 09:19 31.12.2019
5313 Fog 2 1031 100 2300 1.5 130 08:43 31.12.2019
5314 Fog 1 1031 100 2300 1.5 130 08:24 31.12.2019
5315 Fog 1 1031 100 700 2.1 120 07:59 31.12.2019
5316 Fog 2 1031 93 750 1 150 07:41 31.12.2019
5317 Fog 2 1031 100 2100 1.5 130 07:19 31.12.2019
5318 Fog 2 1031 100 2300 1 170 06:42 31.12.2019
5319 Fog 2 1030 100 2900 2.1 140 05:54 31.12.2019
5320 Fog 2 1031 100 1000 2.6 130 04:27 31.12.2019
5321 Fog 2 1031 100 1500 1 100 03:27 31.12.2019
5322 Fog 2 1031 100 600 1 110 02:39 31.12.2019
5323 Fog 2 1031 100 550 1.81 122 01:53 31.12.2019
5324 Fog 3 1031 100 900 0.5 10 01:34 31.12.2019
5325 Fog 3 1031 100 700 1.83 120 00:56 31.12.2019
5326 Fog 3 1031 93 1800 0.5 120 00:37 31.12.2019
5327 Fog 4 1031 93 4800 1.83 120 00:18 31.12.2019
5328 Fog 4 1031 93 4800 1.83 120 23:55 30.12.2019
5329 Mist 4 1031 100 5000 2.1 110 23:37 30.12.2019
5330 Fog 4 1031 100 5000 2.1 110 23:18 30.12.2019
5331 Fog 4 1031 100 5000 2.1 110 22:55 30.12.2019
5332 Clouds 4 1031 93 6000 1.5 100 22:37 30.12.2019
5333 Clouds 4 1031 93 6000 1.5 100 22:18 30.12.2019
5334 Clouds 5 1031 93 6000 2.6 100 21:55 30.12.2019
5335 Clouds 5 1031 93 8000 2.1 100 21:37 30.12.2019
5336 Clouds 5 1031 93 8000 2.1 100 21:18 30.12.2019
5337 Clouds 5 1031 93 10000 1 0 20:54 30.12.2019
5338 Clouds 5 1031 93 10000 1 0 20:36 30.12.2019
5339 Clear 6 1031 87 10000 2.1 100 20:18 30.12.2019
5340 Clear 6 1031 87 10000 2.1 100 19:55 30.12.2019
5341 Clear 7 1031 87 10000 1.5 100 19:36 30.12.2019
5342 Clear 7 1031 81 10000 1 120 19:18 30.12.2019
5343 Clear 7 1031 81 10000 1 120 19:18 30.12.2019
5344 Clear 9 1031 76 10000 1.5 110 18:41 30.12.2019
5345 Clear 9 1031 76 10000 1.5 110 18:21 30.12.2019
5346 Clear 10 1030 76 10000 1.5 100 17:59 30.12.2019
5347 Clear 11 1030 66 10000 2.1 120 17:41 30.12.2019
5348 Clear 11 1030 66 10000 2.1 120 17:20 30.12.2019
5349 Clear 12 1030 66 10000 2.6 110 16:59 30.12.2019
5350 Clear 12 1030 62 10000 1.5 120 16:40 30.12.2019
5351 Clear 12 1030 62 10000 3.1 110 16:20 30.12.2019
5352 Clear 12 1030 62 10000 3.1 110 15:56 30.12.2019
5353 Clear 12 1030 62 10000 3.1 110 15:38 30.12.2019
5354 Clear 12 1030 62 10000 3.6 100 15:19 30.12.2019
5355 Clear 11 1030 66 10000 2.6 90 14:43 30.12.2019
5356 Clear 11 1030 66 10000 2.6 90 14:21 30.12.2019
5357 Clear 10 1031 71 10000 2.1 110 13:59 30.12.2019
5358 Clear 10 1031 76 10000 3.1 120 13:41 30.12.2019
5359 Clear 9 1031 76 10000 3.1 120 13:22 30.12.2019
5360 Clear 9 1031 76 10000 2.6 110 12:57 30.12.2019
5361 Clear 8 1032 81 10000 3.1 120 12:38 30.12.2019
5362 Clear 7 1032 81 10000 3.1 120 12:18 30.12.2019
5363 Clear 7 1032 81 10000 3.1 120 12:18 30.12.2019
5364 Clear 5 1032 93 10000 2.1 120 11:46 30.12.2019
5365 Clear 5 1032 93 10000 2.1 120 11:22 30.12.2019
5366 Clouds 4 1032 100 7000 2.6 110 10:59 30.12.2019
5367 Fog 4 1032 100 3500 2.1 90 10:40 30.12.2019
5368 Fog 3 1032 100 3500 2.1 90 10:19 30.12.2019
5369 Fog 3 1032 100 3500 2.1 90 10:19 30.12.2019
5370 Fog 3 1031 100 450 2.6 90 09:42 30.12.2019
5371 Fog 3 1031 100 450 2.6 90 09:21 30.12.2019
5372 Fog 3 1031 100 550 3.1 110 08:57 30.12.2019
5373 Fog 3 1031 100 550 2.6 100 08:38 30.12.2019
5374 Fog 3 1031 100 550 2.6 100 08:19 30.12.2019
5375 Fog 3 1031 100 500 2.6 100 07:44 30.12.2019
5376 Fog 3 1031 100 500 2.6 100 07:18 30.12.2019
5377 Fog 4 1031 100 450 2.6 80 06:29 30.12.2019
5378 Fog 4 1031 100 450 1.5 110 04:23 30.12.2019
5379 Fog 5 1031 100 500 1.5 0 03:42 30.12.2019
5380 Fog 5 1031 100 500 2.1 120 02:41 30.12.2019
5381 Fog 5 1031 100 500 2.1 120 02:21 30.12.2019
5382 Fog 4 1032 100 500 2.1 110 01:26 30.12.2019
5383 Fog 4 1032 100 800 2.6 130 00:47 30.12.2019
5384 Fog 4 1032 100 800 2.6 130 00:26 30.12.2019
5385 Mist 5 1031 100 1500 2.6 100 23:40 29.12.2019
5386 Mist 5 1032 100 2000 3.1 120 23:22 29.12.2019
5387 Mist 5 1032 100 2000 3.1 120 22:57 29.12.2019
5388 Mist 5 1032 100 2200 2.1 70 22:38 29.12.2019
5389 Mist 5 1032 100 2200 2.1 70 22:38 29.12.2019
5390 Mist 5 1032 100 2200 2.1 70 22:20 29.12.2019
5391 Mist 5 1032 100 3700 3.1 110 21:54 29.12.2019
5392 Mist 5 1032 100 3400 2.6 80 21:36 29.12.2019
5393 Mist 5 1032 100 3200 3.6 120 21:18 29.12.2019
5394 Mist 5 1032 100 3100 3.1 110 20:40 29.12.2019
5395 Mist 5 1032 100 3100 3.1 110 20:22 29.12.2019
5396 Mist 5 1032 100 3600 3.6 120 19:59 29.12.2019
5397 Mist 5 1032 93 4700 3.6 80 19:40 29.12.2019
5398 Mist 5 1032 93 4700 3.6 80 19:21 29.12.2019
5399 Mist 5 1032 100 4900 2.6 60 18:58 29.12.2019
5400 Mist 5 1031 93 4300 3.1 70 18:40 29.12.2019
5401 Mist 5 1031 93 4300 3.1 70 18:20 29.12.2019
5402 Mist 5 1031 93 4500 3.1 80 17:58 29.12.2019
5403 Mist 5 1031 100 5000 3.1 80 17:39 29.12.2019
5404 Mist 5 1031 100 5000 3.1 80 17:20 29.12.2019
5405 Clouds 5 1031 100 7000 3.1 70 16:57 29.12.2019
5406 Clouds 5 1031 100 6000 3.1 70 16:57 29.12.2019
5407 Clouds 5 1031 100 7000 3.1 70 16:39 29.12.2019
5408 Clouds 5 1031 100 6000 3.6 110 16:21 29.12.2019
5409 Clouds 5 1031 100 6000 2.6 80 15:58 29.12.2019
5410 Clouds 5 1031 100 6000 2.6 80 15:39 29.12.2019
5411 Clouds 5 1031 100 6000 2.6 80 15:20 29.12.2019
5412 Clouds 5 1031 100 6000 2.6 80 15:20 29.12.2019
5413 Mist 5 1031 100 4100 3.6 90 14:58 29.12.2019
5414 Fog 5 1032 100 1000 2.6 90 14:39 29.12.2019
5415 Fog 4 1032 100 500 2.6 90 14:18 29.12.2019
5416 Fog 4 1032 100 350 2.6 110 13:58 29.12.2019
5417 Fog 4 1032 100 350 2.6 110 13:39 29.12.2019
5418 Fog 4 1032 100 350 2.6 110 13:21 29.12.2019
5419 Fog 4 1032 100 350 2.6 120 12:56 29.12.2019
5420 Fog 3 1033 100 350 2.1 110 12:37 29.12.2019
5421 Fog 3 1033 100 350 2.6 100 12:19 29.12.2019
5422 Fog 2 1033 100 500 2.1 120 11:40 29.12.2019
5423 Fog 3 1032 100 400 2.6 150 11:20 29.12.2019
5424 Fog 2 1032 100 400 2.6 150 10:55 29.12.2019
5425 Fog 2 1032 100 300 2.1 140 10:37 29.12.2019
5426 Fog 2 1032 100 300 2.1 140 10:18 29.12.2019
5427 Mist 1 1032 100 1300 2.6 110 09:43 29.12.2019
5428 Mist 1 1032 100 1300 2.6 110 09:25 29.12.2019
5429 Fog 1 1032 100 450 1.5 100 08:50 29.12.2019
5430 Fog 1 1032 100 550 1.5 50 08:29 29.12.2019
5431 Fog 1 1032 100 550 1.5 50 07:59 29.12.2019
5432 Fog 1 1032 100 500 1.5 0 07:31 29.12.2019
5433 Fog 1 1032 100 600 2.1 40 06:57 29.12.2019
5434 Fog 1 1031 90 4300 0.5 20 06:27 29.12.2019
5435 Fog 1 1031 90 4300 0.5 20 05:54 29.12.2019
5436 Fog 2 1032 100 800 1.18 91 04:42 29.12.2019
5437 Fog 2 1032 100 800 1.18 91 04:21 29.12.2019
5438 Fog 2 1031 100 3600 1 20 03:21 29.12.2019
5439 Fog 2 1031 93 750 1.45 80 02:22 29.12.2019
5440 Fog 3 1032 93 5000 0.5 30 01:42 29.12.2019
5441 Fog 3 1032 93 5000 0.5 30 01:22 29.12.2019
5442 Mist 4 1032 100 3700 1.75 80 00:42 29.12.2019
5443 Mist 4 1032 100 3700 1.75 80 00:23 29.12.2019
5444 Clouds 5 1032 93 7000 1 10 23:44 28.12.2019
5445 Fog 5 1032 100 7000 1.5 0 23:18 28.12.2019
5446 Clouds 5 1032 93 10000 1.56 71 22:40 28.12.2019
5447 Clouds 5 1032 93 10000 1.56 71 22:21 28.12.2019
5448 Clouds 5 1032 93 10000 2.1 30 21:58 28.12.2019
5449 Fog 6 1032 93 10000 0.5 0 21:40 28.12.2019
5450 Fog 6 1032 93 10000 0.5 0 21:22 28.12.2019
5451 Clouds 6 1032 93 10000 1 0 20:59 28.12.2019
5452 Clouds 7 1032 93 10000 1 0 20:38 28.12.2019
5453 Clouds 7 1032 93 10000 1 0 20:20 28.12.2019
5454 Clouds 7 1032 93 10000 1 0 19:58 28.12.2019
5455 Clouds 8 1032 87 10000 1.5 40 19:39 28.12.2019
5456 Clouds 8 1032 87 10000 1.5 40 19:21 28.12.2019
5457 Clouds 8 1032 87 10000 1.5 60 18:58 28.12.2019
5458 Clouds 9 1032 81 10000 1.5 70 18:40 28.12.2019
5459 Clouds 9 1032 81 10000 1.5 70 18:19 28.12.2019
5460 Clouds 10 1032 76 10000 2.1 60 17:55 28.12.2019
5461 Clouds 10 1032 76 10000 2.6 60 17:36 28.12.2019
5462 Clouds 11 1031 71 10000 3.6 50 17:18 28.12.2019
5463 Clouds 12 1031 66 10000 2.6 70 16:46 28.12.2019
5464 Clouds 12 1031 71 10000 2.6 60 16:26 28.12.2019
5465 Clouds 12 1031 71 10000 2.6 90 15:46 28.12.2019
5466 Clouds 12 1031 71 10000 2.6 90 15:24 28.12.2019
5467 Clouds 12 1031 66 10000 2.1 60 14:59 28.12.2019
5468 Clouds 12 1032 71 10000 2.1 70 14:39 28.12.2019
5469 Clouds 12 1032 71 10000 2.6 50 14:20 28.12.2019
5470 Clouds 11 1032 76 10000 2.6 70 13:43 28.12.2019
5471 Clouds 11 1032 76 10000 2.6 70 13:24 28.12.2019
5472 Clouds 11 1033 76 10000 2.6 80 12:59 28.12.2019
5473 Clouds 11 1033 76 10000 2.6 90 12:41 28.12.2019
5474 Clouds 10 1033 76 10000 2.6 90 12:23 28.12.2019
5475 Clouds 9 1033 81 10000 3.1 70 11:56 28.12.2019
5476 Clouds 9 1034 81 10000 3.6 60 11:37 28.12.2019
5477 Clouds 9 1033 87 10000 3.1 60 11:18 28.12.2019
5478 Clouds 8 1033 93 10000 3.1 40 10:43 28.12.2019
5479 Clouds 7 1033 93 10000 2.6 30 10:21 28.12.2019
5480 Clouds 7 1033 93 10000 2.1 50 09:57 28.12.2019
5481 Clouds 7 1033 93 10000 2.1 50 09:39 28.12.2019
5482 Clouds 6 1033 100 10000 2.1 60 09:19 28.12.2019
5483 Clouds 7 1033 93 10000 2.6 50 08:44 28.12.2019
5484 Clouds 7 1033 93 10000 2.6 50 08:26 28.12.2019
5485 Clouds 7 1033 93 10000 2.6 40 07:49 28.12.2019
5486 Clouds 8 1032 87 10000 2.6 60 07:27 28.12.2019
5487 Clouds 10 1032 93 10000 2.6 50 06:21 28.12.2019
5488 Clouds 11 1033 87 10000 2.6 40 03:59 28.12.2019
5489 Clouds 11 1033 87 10000 1.5 60 03:38 28.12.2019
5490 Clouds 11 1033 81 10000 2.1 60 02:48 28.12.2019
5491 Clouds 11 1033 87 10000 1 0 01:59 28.12.2019
5492 Clouds 11 1033 87 10000 1 0 01:29 28.12.2019
5493 Clouds 11 1033 87 10000 1 80 00:54 28.12.2019
5494 Clouds 11 1033 87 10000 1.5 0 00:36 28.12.2019
5495 Clouds 11 1033 87 10000 2.6 70 00:18 28.12.2019
5496 Clouds 11 1033 87 10000 3.1 70 23:42 27.12.2019
5497 Clouds 11 1033 87 10000 3.6 60 23:19 27.12.2019
5498 Clouds 11 1033 87 10000 3.6 60 23:19 27.12.2019
5499 Clouds 11 1033 87 10000 3.6 60 23:19 27.12.2019
5500 Clouds 11 1033 87 10000 3.6 60 22:57 27.12.2019
5501 Clouds 11 1033 87 10000 3.1 40 22:38 27.12.2019
5502 Clouds 11 1033 93 10000 3.1 30 22:20 27.12.2019
5503 Clouds 11 1033 93 10000 3.1 30 21:54 27.12.2019
5504 Clouds 11 1033 87 10000 2.6 30 21:36 27.12.2019
5505 Clouds 11 1033 87 10000 2.6 30 21:18 27.12.2019
5506 Clouds 11 1033 87 10000 2.6 30 20:40 27.12.2019
5507 Clouds 11 1033 87 10000 2.6 30 20:21 27.12.2019
5508 Clouds 11 1033 87 10000 3.1 20 19:42 27.12.2019
5509 Clouds 11 1032 87 10000 3.1 10 19:20 27.12.2019
5510 Clouds 11 1032 87 10000 3.1 10 18:59 27.12.2019
5511 Clouds 12 1032 76 10000 1.5 350 18:38 27.12.2019
5512 Clouds 12 1032 76 10000 1.5 0 18:20 27.12.2019
5513 Clouds 12 1032 76 10000 1.5 0 17:57 27.12.2019
5514 Clouds 13 1032 76 10000 2.6 340 17:39 27.12.2019
5515 Clouds 13 1032 76 10000 2.6 340 17:19 27.12.2019
5516 Clouds 13 1032 71 10000 1.5 350 16:58 27.12.2019
5517 Clouds 13 1032 71 10000 2.1 320 16:38 27.12.2019
5518 Clouds 14 1032 71 10000 2.6 330 16:19 27.12.2019
5519 Clouds 14 1032 71 10000 2.6 330 16:19 27.12.2019
5520 Clouds 14 1032 71 10000 3.6 350 15:43 27.12.2019
5521 Clouds 14 1032 71 10000 3.6 350 15:20 27.12.2019
5522 Clouds 14 1032 71 10000 2.1 320 14:57 27.12.2019
5523 Clear 13 1031 71 10000 2.6 280 14:39 27.12.2019
5524 Clouds 13 1031 71 10000 2.6 280 14:20 27.12.2019
5525 Clouds 12 1031 76 10000 3.1 280 13:48 27.12.2019
5526 Clouds 12 1031 76 10000 3.1 280 13:25 27.12.2019
5527 Clouds 12 1031 76 10000 3.1 280 13:25 27.12.2019
5528 Clouds 12 1032 76 10000 2.1 280 12:58 27.12.2019
5529 Clouds 11 1032 87 10000 2.1 280 12:39 27.12.2019
5530 Clouds 11 1032 87 10000 2.1 280 12:21 27.12.2019
5531 Clouds 9 1032 100 10000 1 0 11:43 27.12.2019
5532 Clouds 9 1032 100 10000 1 0 11:24 27.12.2019
5533 Clouds 8 1032 100 7000 1.5 230 10:55 27.12.2019
5534 Mist 7 1032 100 5000 2.1 230 10:37 27.12.2019
5535 Fog 6 1032 100 1000 1.5 220 10:19 27.12.2019
5536 Fog 6 1031 100 650 2.1 230 09:42 27.12.2019
5537 Fog 5 1031 100 650 2.1 230 09:21 27.12.2019
5538 Fog 5 1031 100 1100 2.1 220 08:56 27.12.2019
5539 Fog 6 1031 93 1200 1.5 220 08:36 27.12.2019
5540 Fog 5 1031 100 1100 3.1 220 07:51 27.12.2019
5541 Fog 5 1031 100 1100 3.1 220 07:31 27.12.2019
5542 Fog 6 1031 100 1100 3.1 220 06:37 27.12.2019
5543 Fog 6 1031 100 3500 3.1 210 05:28 27.12.2019
5544 Fog 6 1032 100 3400 1 220 03:40 27.12.2019
5545 Fog 6 1031 100 3400 0.5 200 02:20 27.12.2019
5546 Mist 6 1031 100 3000 1.5 210 01:37 27.12.2019
5547 Mist 7 1031 100 4400 2.6 220 01:18 27.12.2019
5548 Clouds 7 1031 93 6000 1.5 210 00:41 27.12.2019
5549 Clouds 7 1031 93 6000 1.5 210 00:23 27.12.2019
5550 Fog 8 1031 100 7000 2.1 210 23:41 26.12.2019
5551 Fog 8 1031 100 7000 2.1 210 23:22 26.12.2019
5552 Clouds 8 1031 93 9000 2.6 220 22:47 26.12.2019
5553 Clouds 8 1031 93 9000 2.6 220 22:23 26.12.2019
5554 Clouds 9 1031 93 8000 2.1 210 21:59 26.12.2019
5555 Clouds 9 1031 93 10000 2.6 210 21:38 26.12.2019
5556 Clouds 9 1031 93 10000 2.6 210 21:20 26.12.2019
5557 Clouds 10 1031 87 10000 2.6 230 20:46 26.12.2019
5558 Clouds 10 1031 87 10000 2.6 230 20:23 26.12.2019
5559 Clouds 10 1031 87 10000 3.1 230 19:59 26.12.2019
5560 Clouds 11 1031 87 10000 2.6 230 19:40 26.12.2019
5561 Clouds 11 1031 87 10000 2.6 230 19:21 26.12.2019
5562 Clouds 11 1030 87 10000 2.6 220 18:58 26.12.2019
5563 Clouds 11 1030 81 10000 2.6 230 18:39 26.12.2019
5564 Clouds 11 1030 81 10000 2.6 230 18:19 26.12.2019
5565 Clouds 12 1030 71 10000 3.6 270 17:43 26.12.2019
5566 Clouds 13 1030 71 10000 3.6 270 17:22 26.12.2019
5567 Clouds 13 1030 67 10000 5.1 270 16:59 26.12.2019
5568 Clouds 13 1030 67 10000 4.6 270 16:41 26.12.2019
5569 Clouds 14 1029 71 10000 6.7 280 16:22 26.12.2019
5570 Clouds 14 1029 71 10000 6.7 280 15:55 26.12.2019
5571 Clouds 14 1029 76 10000 5.1 250 15:37 26.12.2019
5572 Clouds 14 1029 71 10000 4.6 270 15:18 26.12.2019
5573 Clouds 15 1029 67 10000 4.6 280 14:39 26.12.2019
5574 Clouds 15 1029 67 10000 5.7 270 14:21 26.12.2019
5575 Clouds 14 1029 71 10000 5.1 280 13:43 26.12.2019
5576 Clouds 15 1029 71 10000 5.1 280 13:21 26.12.2019
5577 Clouds 14 1029 82 10000 5.1 280 12:58 26.12.2019
5578 Rain 14 1029 82 10000 3.6 250 12:39 26.12.2019
5579 Rain 14 1029 82 10000 3.6 250 12:20 26.12.2019
5580 Clouds 14 1029 82 10000 1.5 220 11:57 26.12.2019
5581 Clouds 13 1029 87 10000 2.6 210 11:38 26.12.2019
5582 Clouds 12 1029 81 10000 3.1 230 11:20 26.12.2019
5583 Clouds 12 1028 87 10000 3.1 250 10:42 26.12.2019
5584 Clouds 11 1028 93 10000 3.1 260 10:18 26.12.2019
5585 Clouds 11 1028 93 10000 3.1 260 09:49 26.12.2019
5586 Clouds 11 1027 93 10000 3.1 260 09:31 26.12.2019
5587 Clouds 11 1025 87 10000 2.6 250 08:43 26.12.2019
5588 Clouds 11 1025 87 10000 2.6 250 08:24 26.12.2019
5589 Clouds 11 1025 93 10000 2.6 290 07:53 26.12.2019
5590 Clouds 11 1024 93 10000 2.6 290 07:27 26.12.2019
5591 Clouds 11 1023 100 10000 3.1 280 06:53 26.12.2019
5592 Clouds 11 1023 100 10000 3.1 280 06:32 26.12.2019
5593 Clouds 10 1022 100 7000 1 250 05:45 26.12.2019
5594 Clouds 9 1021 100 6000 1.98 123 04:57 26.12.2019
5595 Clouds 8 1021 100 10000 1.5 240 04:30 26.12.2019
5596 Clouds 9 1021 93 10000 2.1 110 02:56 26.12.2019
5597 Clouds 9 1021 93 10000 2.6 100 02:34 26.12.2019
5598 Clouds 9 1021 93 10000 2.6 100 02:34 26.12.2019
5599 Clouds 9 1021 93 10000 2.6 100 01:50 26.12.2019
5600 Clouds 8 1021 93 10000 2.6 110 01:32 26.12.2019
5601 Clouds 8 1021 93 10000 2.1 120 00:50 26.12.2019
5602 Clouds 9 1021 100 10000 1.5 140 00:27 26.12.2019
5603 Clouds 9 1021 93 10000 3.6 120 23:58 25.12.2019
5604 Clouds 9 1021 93 10000 3.6 110 23:39 25.12.2019
5605 Clouds 9 1021 93 10000 3.6 110 23:21 25.12.2019
5606 Clouds 9 1021 93 10000 2.6 110 22:59 25.12.2019
5607 Clouds 10 1021 93 10000 2.6 110 22:39 25.12.2019
5608 Clouds 10 1021 93 10000 2.6 110 22:20 25.12.2019
5609 Clouds 9 1022 100 10000 3.1 90 21:58 25.12.2019
5610 Clouds 9 1022 100 10000 3.1 90 21:39 25.12.2019
5611 Clouds 9 1022 100 10000 2.6 100 21:20 25.12.2019
5612 Clouds 9 1022 100 10000 2.6 100 20:54 25.12.2019
5613 Clouds 10 1022 93 10000 3.1 110 20:36 25.12.2019
5614 Clouds 10 1022 93 10000 3.6 100 20:18 25.12.2019
5615 Clouds 10 1022 93 10000 3.1 120 19:43 25.12.2019
5616 Clouds 10 1022 93 10000 3.1 120 19:22 25.12.2019
5617 Clouds 10 1022 93 10000 3.1 120 19:22 25.12.2019
5618 Clouds 11 1022 93 10000 3.6 110 18:56 25.12.2019
5619 Clouds 11 1022 93 10000 3.1 110 18:36 25.12.2019
5620 Clouds 12 1023 87 10000 3.1 100 18:18 25.12.2019
5621 Clouds 12 1023 87 10000 3.6 100 17:40 25.12.2019
5622 Clouds 13 1023 82 10000 4.1 90 17:19 25.12.2019
5623 Clouds 13 1023 82 10000 4.1 90 16:56 25.12.2019
5624 Clouds 13 1023 82 10000 3.1 100 16:37 25.12.2019
5625 Clouds 13 1023 82 10000 3.6 90 16:18 25.12.2019
5626 Clouds 13 1023 82 10000 3.6 90 15:56 25.12.2019
5627 Clouds 13 1023 87 10000 3.1 90 15:37 25.12.2019
5628 Clouds 12 1024 93 10000 3.6 110 15:18 25.12.2019
5629 Clouds 13 1023 87 10000 3.1 90 15:18 25.12.2019
5630 Clouds 12 1024 93 10000 3.6 110 14:55 25.12.2019
5631 Clouds 12 1024 93 10000 3.1 130 14:37 25.12.2019
5632 Clouds 12 1024 93 10000 3.1 130 14:18 25.12.2019
5633 Clouds 12 1024 93 10000 3.1 140 13:42 25.12.2019
5634 Clouds 11 1025 100 10000 3.1 130 13:21 25.12.2019
5635 Mist 11 1025 100 4100 3.1 130 12:44 25.12.2019
5636 Mist 11 1025 100 4100 3.1 130 12:22 25.12.2019
5637 Clouds 11 1025 100 10000 3.1 130 11:58 25.12.2019
5638 Clouds 11 1025 100 10000 3.1 120 11:40 25.12.2019
5639 Clouds 11 1025 100 10000 3.1 120 11:21 25.12.2019
5640 Mist 11 1025 100 1900 3.6 100 10:39 25.12.2019
5641 Mist 11 1025 100 1900 3.6 100 10:21 25.12.2019
5642 Mist 11 1025 100 4700 2.6 110 09:59 25.12.2019
5643 Fog 11 1025 100 2600 2.1 110 09:40 25.12.2019
5644 Mist 11 1025 100 5000 2.1 110 09:22 25.12.2019
5645 Clouds 11 1025 93 8000 2.1 90 08:43 25.12.2019
5646 Clouds 11 1025 93 8000 2.1 90 08:23 25.12.2019
5647 Clouds 11 1025 100 10000 1.5 0 07:43 25.12.2019
5648 Clouds 11 1025 100 10000 1.5 0 07:22 25.12.2019
5649 Fog 12 1025 100 700 1.52 69 06:24 25.12.2019
5650 Fog 12 1025 100 600 0.5 60 05:50 25.12.2019
5651 Fog 12 1025 100 400 1 0 04:44 25.12.2019
5652 Fog 12 1025 100 400 1 0 04:24 25.12.2019
5653 Clouds 12 1025 100 7000 2.1 250 03:44 25.12.2019
5654 Clouds 12 1025 100 7000 2.1 250 03:44 25.12.2019
5655 Mist 11 1025 100 3900 2.1 240 02:59 25.12.2019
5656 Mist 12 1025 100 4500 3.1 240 02:29 25.12.2019
5657 Fog 12 1026 100 1200 3.1 230 01:44 25.12.2019
5658 Fog 12 1026 100 750 3.1 220 01:19 25.12.2019
5659 Mist 12 1026 100 2300 3.1 220 00:41 25.12.2019
5660 Mist 12 1026 100 2300 3.1 220 00:23 25.12.2019
5661 Mist 12 1026 100 2300 3.1 220 00:23 25.12.2019
5662 Fog 12 1026 100 450 2.1 230 23:39 24.12.2019
5663 Fog 12 1026 100 1300 2.6 230 23:20 24.12.2019
5664 Clouds 12 1026 100 10000 3.6 240 22:42 24.12.2019
5665 Clouds 12 1026 100 10000 3.6 240 22:24 24.12.2019
5666 Fog 12 1026 100 3100 3.1 240 21:59 24.12.2019
5667 Fog 12 1026 100 1000 2.1 250 21:41 24.12.2019
5668 Fog 12 1026 100 1000 2.1 250 21:20 24.12.2019
5669 Clouds 13 1026 93 9000 3.1 230 20:42 24.12.2019
5670 Clouds 13 1026 93 9000 3.1 230 20:23 24.12.2019
5671 Clouds 13 1026 100 10000 2.6 250 19:55 24.12.2019
5672 Clouds 13 1026 93 10000 2.1 280 19:37 24.12.2019
5673 Clouds 13 1025 100 10000 2.6 220 19:18 24.12.2019
5674 Clouds 13 1025 100 10000 2.1 230 18:42 24.12.2019
5675 Clouds 13 1025 93 10000 2.1 260 18:18 24.12.2019
5676 Clouds 13 1025 93 10000 2.1 250 17:44 24.12.2019
5677 Clouds 14 1025 93 10000 2.1 250 17:22 24.12.2019
5678 Clouds 14 1025 93 10000 3.1 250 16:58 24.12.2019
5679 Clouds 14 1025 93 10000 3.6 260 16:39 24.12.2019
5680 Clouds 14 1025 93 10000 3.6 260 16:21 24.12.2019
5681 Clouds 15 1025 93 10000 5.1 260 15:57 24.12.2019
5682 Clouds 15 1024 93 10000 4.6 260 15:37 24.12.2019
5683 Clouds 15 1024 93 10000 4.6 260 15:19 24.12.2019
5684 Clouds 14 1024 100 10000 4.6 260 14:58 24.12.2019
5685 Drizzle 15 1024 93 4400 4.1 250 14:39 24.12.2019
5686 Drizzle 14 1024 93 4400 4.1 250 14:21 24.12.2019
5687 Drizzle 14 1024 93 4000 6.2 250 13:56 24.12.2019
5688 Drizzle 14 1024 93 4000 6.2 250 13:38 24.12.2019
5689 Drizzle 14 1024 93 4000 6.2 250 13:19 24.12.2019
5690 Rain 15 1025 93 4000 5.7 250 12:56 24.12.2019
5691 Rain 15 1025 93 4000 5.7 250 12:56 24.12.2019
5692 Drizzle 15 1024 87 7000 5.7 240 12:37 24.12.2019
5693 Drizzle 15 1024 87 7000 5.7 240 12:19 24.12.2019
5694 Clouds 15 1024 87 10000 6.2 250 11:56 24.12.2019
5695 Clouds 15 1024 87 10000 5.7 240 11:37 24.12.2019
5696 Clouds 15 1024 87 10000 5.7 240 11:37 24.12.2019
5697 Clouds 14 1024 93 10000 5.7 250 11:19 24.12.2019
5698 Drizzle 14 1024 93 7000 6.2 250 10:56 24.12.2019
5699 Drizzle 14 1024 93 7000 6.2 250 10:37 24.12.2019
5700 Drizzle 14 1024 93 7000 6.2 250 10:19 24.12.2019
5701 Rain 14 1024 87 10000 5.7 260 09:55 24.12.2019
5702 Rain 14 1023 82 10000 5.1 250 09:37 24.12.2019
5703 Rain 14 1023 82 10000 5.1 250 09:19 24.12.2019
5704 Clouds 14 1023 87 10000 3.6 220 08:45 24.12.2019
5705 Clouds 14 1023 87 10000 3.6 220 08:24 24.12.2019
5706 Clouds 14 1022 82 10000 3.1 210 07:46 24.12.2019
5707 Clouds 14 1022 82 10000 3.1 210 07:26 24.12.2019
5708 Clouds 14 1022 82 10000 2.6 230 06:59 24.12.2019
5709 Clouds 13 1022 87 10000 3.1 210 06:38 24.12.2019
5710 Clouds 13 1021 87 10000 3.6 210 06:19 24.12.2019
5711 Clouds 13 1022 87 10000 3.1 210 05:40 24.12.2019
5712 Clouds 13 1022 87 10000 4.1 220 05:18 24.12.2019
5713 Clouds 14 1022 82 10000 4.1 210 03:50 24.12.2019
5714 Clouds 13 1022 87 10000 4.1 200 03:23 24.12.2019
5715 Clouds 13 1022 87 10000 3.6 210 02:25 24.12.2019
5716 Clouds 13 1022 87 10000 3.6 210 02:25 24.12.2019
5717 Clouds 13 1022 82 10000 3.6 220 01:51 24.12.2019
5718 Clouds 13 1022 82 10000 4.1 220 01:23 24.12.2019
5719 Clouds 12 1022 81 10000 3.6 220 00:46 24.12.2019
5720 Clouds 12 1022 81 10000 3.6 220 00:26 24.12.2019
5721 Clouds 12 1022 81 10000 4.1 220 23:59 23.12.2019
5722 Clouds 12 1022 76 10000 4.6 220 23:41 23.12.2019
5723 Clouds 12 1022 76 10000 4.6 220 23:23 23.12.2019
5724 Clouds 11 1022 81 10000 4.6 200 22:56 23.12.2019
5725 Clouds 11 1022 81 10000 4.6 200 22:37 23.12.2019
5726 Clouds 11 1022 87 10000 4.6 190 22:19 23.12.2019
5727 Clouds 11 1022 87 10000 4.6 190 21:55 23.12.2019
5728 Clouds 10 1022 100 10000 4.1 190 21:36 23.12.2019
5729 Clouds 10 1022 93 10000 2.1 180 21:18 23.12.2019
5730 Clouds 11 1022 93 10000 2.1 180 20:56 23.12.2019
5731 Clouds 11 1022 93 10000 2.1 180 20:38 23.12.2019
5732 Drizzle 11 1022 93 8000 2.6 200 20:18 23.12.2019
5733 Drizzle 11 1022 93 8000 2.6 200 19:55 23.12.2019
5734 Drizzle 11 1023 93 8000 4.6 220 19:37 23.12.2019
5735 Drizzle 11 1023 93 8000 4.6 220 19:19 23.12.2019
5736 Rain 11 1022 93 9000 3.6 190 18:55 23.12.2019
5737 Drizzle 11 1023 93 10000 1.5 180 18:37 23.12.2019
5738 Rain 11 1023 93 10000 2.1 200 18:19 23.12.2019
5739 Rain 11 1022 93 10000 2.6 210 17:55 23.12.2019
5740 Rain 11 1023 93 10000 2.1 200 17:55 23.12.2019
5741 Rain 11 1022 93 10000 2.6 210 17:37 23.12.2019
5742 Rain 11 1023 100 10000 3.6 230 17:18 23.12.2019
5743 Rain 12 1023 87 10000 3.6 220 16:42 23.12.2019
5744 Rain 12 1023 87 10000 3.6 220 16:19 23.12.2019
5745 Rain 12 1023 93 10000 2.1 210 15:58 23.12.2019
5746 Rain 12 1023 87 10000 3.1 230 15:38 23.12.2019
5747 Rain 12 1023 87 10000 3.1 230 15:20 23.12.2019
5748 Rain 12 1023 87 10000 3.1 240 14:58 23.12.2019
5749 Rain 12 1023 87 10000 3.6 240 14:39 23.12.2019
5750 Clouds 12 1023 87 10000 3.6 240 14:21 23.12.2019
5751 Rain 12 1023 87 3700 3.6 280 13:58 23.12.2019
5752 Clouds 12 1023 82 10000 3.6 240 13:40 23.12.2019
5753 Clouds 12 1023 82 10000 3.6 240 13:22 23.12.2019
5754 Clouds 12 1023 82 10000 3.1 240 12:56 23.12.2019
5755 Clouds 12 1023 87 10000 2.6 230 12:37 23.12.2019
5756 Clouds 12 1024 81 10000 2.6 260 12:19 23.12.2019
5757 Clouds 12 1024 87 10000 1.5 0 11:44 23.12.2019
5758 Clouds 11 1024 87 10000 1.5 0 11:25 23.12.2019
5759 Clouds 11 1023 87 10000 3.1 290 10:57 23.12.2019
5760 Clouds 10 1023 87 10000 2.1 230 10:39 23.12.2019
5761 Clouds 10 1023 87 10000 2.1 230 10:20 23.12.2019
5762 Clear 10 1022 76 10000 3.6 260 09:59 23.12.2019
5763 Clear 10 1022 76 10000 3.6 260 09:39 23.12.2019
5764 Clear 10 1022 76 10000 3.6 260 09:20 23.12.2019
5765 Clouds 9 1022 81 10000 4.1 270 08:55 23.12.2019
5766 Clouds 9 1021 76 10000 4.1 270 08:37 23.12.2019
5767 Clouds 9 1021 81 10000 3.6 250 08:19 23.12.2019
5768 Clouds 9 1020 87 10000 3.6 270 07:43 23.12.2019
5769 Rain 10 1020 87 10000 4.1 270 07:20 23.12.2019
5770 Rain 10 1020 87 10000 4.1 270 06:52 23.12.2019
5771 Clouds 10 1020 81 10000 5.1 270 06:25 23.12.2019
5772 Rain 10 1020 81 10000 7.2 270 05:50 23.12.2019
5773 Rain 10 1020 76 10000 7.7 290 05:26 23.12.2019
5774 Rain 10 1019 81 10000 5.1 290 04:27 23.12.2019
5775 Rain 11 1017 71 10000 6.7 280 02:56 23.12.2019
5776 Rain 11 1017 71 10000 3.6 300 02:32 23.12.2019
5777 Clouds 11 1016 71 10000 6.7 280 01:56 23.12.2019
5778 Clouds 11 1016 71 10000 6.7 280 01:38 23.12.2019
5779 Clouds 11 1016 71 10000 6.7 280 01:19 23.12.2019
5780 Clouds 12 1016 66 10000 7.7 290 00:41 23.12.2019
5781 Clouds 11 1016 66 10000 7.7 290 00:19 23.12.2019
5782 Clouds 12 1014 71 10000 7.2 280 23:39 22.12.2019
5783 Clouds 12 1014 71 10000 7.2 280 23:20 22.12.2019
5784 Clouds 12 1013 71 10000 6.7 280 22:58 22.12.2019
5785 Clouds 12 1013 71 10000 7.7 280 22:39 22.12.2019
5786 Clouds 11 1013 71 10000 7.7 280 22:19 22.12.2019
5787 Clouds 11 1012 76 10000 7.2 290 21:57 22.12.2019
5788 Clouds 11 1011 76 10000 8.7 290 21:39 22.12.2019
5789 Clouds 11 1011 76 10000 8.7 290 21:20 22.12.2019
5790 Clouds 12 1011 76 10000 8.2 290 20:56 22.12.2019
5791 Clouds 11 1010 87 10000 7.2 290 20:38 22.12.2019
5792 Rain 11 1010 76 10000 7.7 280 20:18 22.12.2019
5793 Rain 11 1010 76 10000 7.7 280 19:54 22.12.2019
5794 Rain 11 1009 87 10000 5.7 270 19:36 22.12.2019
5795 Rain 11 1008 81 10000 5.7 250 19:18 22.12.2019
5796 Clouds 10 1008 81 10000 6.2 260 18:39 22.12.2019
5797 Clouds 10 1008 81 10000 6.2 260 18:39 22.12.2019
5798 Rain 9 1008 87 10000 6.7 260 18:21 22.12.2019
5799 Rain 9 1008 87 10000 6.7 260 17:55 22.12.2019
5800 Rain 10 1006 87 10000 7.7 250 17:37 22.12.2019
5801 Rain 10 1007 87 10000 8.7 280 17:18 22.12.2019
5802 Rain 10 1007 87 10000 8.7 280 16:56 22.12.2019
5803 Rain 10 1007 87 10000 8.7 280 16:56 22.12.2019
5804 Rain 10 1006 87 10000 7.7 260 16:37 22.12.2019
5805 Rain 10 1006 87 10000 7.7 260 16:19 22.12.2019
5806 Rain 10 1005 93 5000 9.8 260 15:54 22.12.2019
5807 Rain 10 1004 87 6000 10.8 240 15:36 22.12.2019
5808 Rain 10 1004 87 8000 8.7 250 15:18 22.12.2019
5809 Rain 11 1004 87 10000 10.3 260 14:39 22.12.2019
5810 Rain 11 1004 87 10000 10.3 260 14:20 22.12.2019
5811 Rain 11 1003 82 6000 8.2 260 13:56 22.12.2019
5812 Rain 12 1002 76 10000 6.7 250 13:38 22.12.2019
5813 Clouds 12 1003 76 10000 5.7 250 13:20 22.12.2019
5814 Clouds 12 1003 76 10000 5.7 250 12:57 22.12.2019
5815 Clouds 13 1004 76 10000 7.7 260 12:39 22.12.2019
5816 Rain 13 1004 71 10000 7.7 270 12:20 22.12.2019
5817 Clouds 13 1004 76 10000 7.7 260 12:20 22.12.2019
5818 Rain 13 1004 71 10000 7.7 270 11:59 22.12.2019
5819 Rain 13 1005 71 10000 8.7 270 11:39 22.12.2019
5820 Rain 13 1004 71 10000 7.7 270 11:20 22.12.2019
5821 Rain 13 1004 71 10000 7.7 270 10:58 22.12.2019
5822 Rain 12 1004 76 10000 11.3 270 10:40 22.12.2019
5823 Rain 12 1004 76 10000 9.3 270 10:19 22.12.2019
5824 Rain 12 1004 76 10000 9.3 270 09:58 22.12.2019
5825 Rain 12 1003 71 10000 10.8 270 09:39 22.12.2019
5826 Rain 12 1003 71 10000 10.8 270 09:21 22.12.2019
5827 Rain 11 1002 81 10000 9.3 270 08:45 22.12.2019
5828 Rain 11 1002 81 10000 9.3 270 08:45 22.12.2019
5829 Rain 11 1002 81 10000 9.3 270 08:23 22.12.2019
5830 Rain 11 1002 76 10000 8.7 290 07:50 22.12.2019
5831 Rain 11 1001 87 10000 8.7 280 07:22 22.12.2019
5832 Rain 12 1001 76 7000 12.9 280 06:57 22.12.2019
5833 Rain 12 999 76 10000 12.9 270 06:27 22.12.2019
5834 Drizzle 12 998 81 10000 12.9 270 05:43 22.12.2019
5835 Drizzle 12 998 81 10000 12.9 270 05:21 22.12.2019
5836 Rain 12 996 71 10000 13.4 280 04:26 22.12.2019
5837 Rain 12 992 81 6000 15.4 270 02:56 22.12.2019
5838 Rain 12 992 81 6000 15.4 270 02:34 22.12.2019
5839 Rain 13 990 71 10000 17 260 01:32 22.12.2019
5840 Rain 13 990 76 9000 15.9 250 00:57 22.12.2019
5841 Clouds 13 990 76 10000 14.9 250 00:38 22.12.2019
5842 Rain 12 990 81 10000 14.4 250 00:20 22.12.2019
5843 Thunderstorm 12 990 81 10000 14.9 260 23:41 21.12.2019
5844 Thunderstorm 12 990 81 10000 14.9 260 23:21 21.12.2019
5845 Rain 13 989 67 10000 13.4 240 22:57 21.12.2019
5846 Clouds 14 989 62 10000 15.4 240 22:39 21.12.2019
5847 Rain 14 990 71 10000 10.3 240 22:18 21.12.2019
5848 Rain 14 990 71 10000 10.3 240 22:18 21.12.2019
5849 Rain 14 990 71 10000 10.3 240 21:55 21.12.2019
5850 Clouds 13 991 71 10000 10.8 240 21:36 21.12.2019
5851 Clouds 13 990 71 10000 10.8 250 21:18 21.12.2019
5852 Clouds 13 990 66 10000 9.8 250 20:56 21.12.2019
5853 Clouds 13 990 66 10000 9.8 250 20:37 21.12.2019
5854 Clouds 13 990 66 10000 9.8 250 20:19 21.12.2019
5855 Rain 13 990 62 10000 11.8 260 19:55 21.12.2019
5856 Rain 12 990 71 10000 7.7 250 19:36 21.12.2019
5857 Clouds 12 989 71 10000 8.2 260 19:18 21.12.2019
5858 Clouds 12 989 87 10000 4.1 220 18:41 21.12.2019
5859 Clouds 12 989 87 10000 4.1 220 18:23 21.12.2019
5860 Rain 11 989 81 10000 6.2 250 17:56 21.12.2019
5861 Rain 11 989 81 10000 6.2 250 17:37 21.12.2019
5862 Rain 12 989 71 10000 11.3 270 17:18 21.12.2019
5863 Rain 12 989 71 10000 11.3 270 16:54 21.12.2019
5864 Rain 13 989 87 10000 9.8 230 16:36 21.12.2019
5865 Rain 13 989 87 10000 9.8 230 16:36 21.12.2019
5866 Rain 12 988 87 10000 4.6 180 16:18 21.12.2019
5867 Rain 12 988 87 10000 4.6 180 15:55 21.12.2019
5868 Rain 11 989 87 10000 2.1 180 15:36 21.12.2019
5869 Rain 11 989 87 4300 5.1 150 15:18 21.12.2019
5870 Rain 12 989 76 10000 6.7 140 14:41 21.12.2019
5871 Clouds 12 989 76 10000 6.7 140 14:22 21.12.2019
5872 Clouds 12 990 76 10000 6.7 140 13:58 21.12.2019
5873 Rain 12 992 76 10000 5.1 150 13:39 21.12.2019
5874 Rain 12 992 76 10000 4.6 150 13:19 21.12.2019
5875 Rain 11 992 76 10000 4.6 150 12:56 21.12.2019
5876 Rain 11 993 76 10000 5.7 150 12:38 21.12.2019
5877 Rain 11 993 76 10000 5.7 150 12:19 21.12.2019
5878 Rain 10 995 93 10000 4.1 160 11:46 21.12.2019
5879 Rain 10 995 93 10000 4.1 160 11:27 21.12.2019
5880 Clouds 9 996 93 10000 4.6 160 10:58 21.12.2019
5881 Clouds 9 996 93 10000 4.1 170 10:39 21.12.2019
5882 Clouds 8 996 93 10000 3.1 150 10:21 21.12.2019
5883 Clouds 8 997 93 10000 4.1 170 09:57 21.12.2019
5884 Clouds 8 997 93 10000 4.1 170 09:39 21.12.2019
5885 Clouds 8 997 93 10000 4.1 170 09:39 21.12.2019
5886 Clouds 8 997 87 10000 3.6 180 09:19 21.12.2019
5887 Clouds 9 997 93 10000 3.1 190 08:46 21.12.2019
5888 Clouds 9 997 93 10000 3.1 190 08:26 21.12.2019
5889 Clouds 9 998 93 10000 3.6 200 07:47 21.12.2019
5890 Clouds 9 998 93 10000 3.6 200 07:23 21.12.2019
5891 Clouds 9 997 93 10000 3.6 190 06:46 21.12.2019
5892 Clouds 9 997 93 10000 3.6 190 06:28 21.12.2019
5893 Clouds 9 997 93 10000 3.6 210 05:58 21.12.2019
5894 Clouds 9 997 93 10000 3.6 210 04:59 21.12.2019
5895 Rain 10 996 87 10000 3.6 220 04:19 21.12.2019
5896 Clouds 10 996 87 10000 4.6 240 03:56 21.12.2019
5897 Rain 10 996 87 9000 9.3 260 02:19 21.12.2019
5898 Clouds 11 995 87 10000 3.1 200 01:41 21.12.2019
5899 Clouds 11 995 87 10000 3.1 200 01:23 21.12.2019
5900 Rain 10 994 93 10000 4.6 230 00:39 21.12.2019
5901 Rain 10 994 93 10000 4.6 230 00:19 21.12.2019
5902 Rain 9 994 87 10000 3.6 180 23:38 20.12.2019
5903 Rain 9 994 87 10000 3.6 180 23:19 20.12.2019
5904 Rain 9 993 93 10000 2.1 150 22:57 20.12.2019
5905 Rain 9 993 87 10000 2.6 160 22:36 20.12.2019
5906 Rain 9 993 87 10000 3.6 160 22:18 20.12.2019
5907 Rain 9 993 93 10000 3.1 150 21:40 20.12.2019
5908 Rain 9 993 93 10000 4.1 150 21:20 20.12.2019
5909 Rain 9 993 93 10000 4.1 150 20:57 20.12.2019
5910 Clouds 9 993 87 10000 4.1 160 20:38 20.12.2019
5911 Clouds 9 993 87 10000 4.1 160 20:18 20.12.2019
5912 Rain 9 994 87 10000 3.1 160 19:42 20.12.2019
5913 Rain 9 994 81 10000 2.1 170 19:21 20.12.2019
5914 Rain 9 994 81 10000 2.1 170 18:58 20.12.2019
5915 Rain 10 994 81 10000 2.6 160 18:39 20.12.2019
5916 Rain 10 994 81 10000 2.6 160 18:21 20.12.2019
5917 Rain 10 994 71 10000 2.6 180 17:55 20.12.2019
5918 Clouds 11 994 66 10000 3.6 200 17:37 20.12.2019
5919 Clouds 12 994 66 10000 3.6 200 17:18 20.12.2019
5920 Rain 12 995 66 10000 3.1 210 16:41 20.12.2019
5921 Clouds 13 995 66 10000 5.7 230 16:21 20.12.2019
5922 Clouds 13 995 66 10000 5.7 250 15:57 20.12.2019
5923 Clouds 13 995 66 10000 8.7 240 15:39 20.12.2019
5924 Clouds 13 995 66 10000 8.7 240 15:20 20.12.2019
5925 Clouds 14 995 62 10000 8.7 250 14:59 20.12.2019
5926 Clouds 14 995 62 10000 8.7 250 14:59 20.12.2019
5927 Clouds 14 995 62 10000 8.7 250 14:40 20.12.2019
5928 Rain 14 995 62 10000 8.7 230 14:22 20.12.2019
5929 Rain 13 995 71 10000 7.2 250 13:55 20.12.2019
5930 Clouds 13 996 67 10000 8.7 240 13:36 20.12.2019
5931 Clouds 14 996 67 10000 8.7 240 13:18 20.12.2019
5932 Clouds 13 996 67 10000 8.7 250 12:42 20.12.2019
5933 Clouds 13 996 66 10000 7.2 250 12:20 20.12.2019
5934 Rain 12 996 71 10000 5.7 250 11:59 20.12.2019
5935 Rain 12 996 71 10000 5.7 250 11:40 20.12.2019
5936 Clouds 12 996 71 10000 6.2 250 11:21 20.12.2019
5937 Clouds 12 995 81 10000 4.1 220 10:59 20.12.2019
5938 Clouds 11 995 87 10000 4.6 240 10:41 20.12.2019
5939 Clouds 11 995 87 10000 4.6 240 10:22 20.12.2019
5940 Rain 11 994 87 10000 5.1 240 09:58 20.12.2019
5941 Clouds 11 993 87 10000 4.1 230 09:40 20.12.2019
5942 Clouds 11 993 87 10000 4.1 230 09:20 20.12.2019
5943 Rain 11 993 87 10000 6.2 260 08:44 20.12.2019
5944 Clouds 11 992 87 10000 6.2 250 08:26 20.12.2019
5945 Clouds 11 992 93 10000 4.1 240 07:59 20.12.2019
5946 Clouds 11 992 93 10000 4.1 240 07:41 20.12.2019
5947 Drizzle 12 991 87 10000 5.7 240 07:20 20.12.2019
5948 Rain 12 990 87 10000 6.2 240 06:52 20.12.2019
5949 Clouds 12 990 93 10000 5.7 230 06:33 20.12.2019
5950 Clouds 12 989 93 10000 4.6 230 05:56 20.12.2019
5951 Clouds 12 989 93 10000 4.1 250 05:37 20.12.2019
5952 Clouds 12 989 93 10000 4.1 250 05:37 20.12.2019
5953 Rain 12 988 93 3400 4.6 240 04:33 20.12.2019
5954 Rain 12 986 93 10000 6.2 140 03:30 20.12.2019
5955 Rain 12 986 93 10000 6.2 140 02:44 20.12.2019
5956 Rain 13 988 87 10000 7.7 140 01:54 20.12.2019
5957 Rain 13 988 82 10000 8.2 140 01:33 20.12.2019
5958 Rain 13 989 82 10000 8.7 140 00:48 20.12.2019
5959 Rain 13 990 82 10000 8.2 140 00:29 20.12.2019
5960 Rain 13 990 87 10000 8.2 130 23:54 19.12.2019
5961 Rain 13 991 87 10000 8.2 130 23:36 19.12.2019
5962 Rain 13 991 87 10000 8.2 130 23:18 19.12.2019
5963 Rain 13 994 87 10000 8.2 130 22:37 19.12.2019
5964 Rain 13 994 87 10000 8.2 130 22:19 19.12.2019
5965 Rain 13 994 87 10000 8.2 130 22:19 19.12.2019
5966 Rain 13 995 87 10000 6.7 140 21:55 19.12.2019
5967 Rain 14 995 76 10000 6.7 140 21:37 19.12.2019
5968 Rain 14 995 76 10000 6.7 140 21:18 19.12.2019
5969 Rain 14 996 76 10000 6.2 140 20:55 19.12.2019
5970 Rain 14 997 76 10000 6.2 140 20:36 19.12.2019
5971 Rain 14 997 76 10000 6.2 140 20:18 19.12.2019
5972 Rain 14 997 76 10000 6.2 140 19:56 19.12.2019
5973 Rain 14 997 72 10000 7.7 140 19:37 19.12.2019
5974 Rain 14 997 72 10000 7.7 140 19:19 19.12.2019
5975 Rain 14 998 76 10000 7.2 140 18:41 19.12.2019
5976 Rain 14 998 76 10000 7.2 140 18:22 19.12.2019
5977 Rain 14 999 76 10000 7.2 140 17:58 19.12.2019
5978 Rain 14 999 76 10000 7.2 140 17:39 19.12.2019
5979 Clouds 14 999 76 10000 6.2 140 17:19 19.12.2019
5980 Clouds 14 1000 76 10000 5.7 140 16:58 19.12.2019
5981 Clouds 14 1000 77 10000 5.1 150 16:40 19.12.2019
5982 Clouds 14 1000 77 10000 5.1 150 16:22 19.12.2019
5983 Clouds 14 1001 72 10000 5.7 150 15:59 19.12.2019
5984 Clouds 15 1001 72 10000 7.2 140 15:39 19.12.2019
5985 Clouds 15 1001 72 10000 7.2 140 15:20 19.12.2019
5986 Clouds 15 1001 72 10000 7.2 140 15:20 19.12.2019
5987 Clouds 15 1002 72 10000 4.6 160 14:59 19.12.2019
5988 Clouds 14 1002 72 10000 4.6 160 14:41 19.12.2019
5989 Rain 15 1003 72 10000 5.1 150 14:19 19.12.2019
5990 Rain 14 1003 72 10000 6.7 150 13:57 19.12.2019
5991 Rain 14 1004 76 10000 6.2 140 13:37 19.12.2019
5992 Rain 14 1004 76 10000 6.2 140 13:18 19.12.2019
5993 Clouds 13 1004 82 10000 7.2 130 12:55 19.12.2019
5994 Rain 14 1006 71 10000 5.7 150 12:36 19.12.2019
5995 Rain 14 1006 71 10000 5.7 150 12:18 19.12.2019
5996 Rain 14 1006 71 10000 5.7 150 12:18 19.12.2019
5997 Rain 14 1006 71 10000 5.7 150 12:18 19.12.2019
5998 Rain 14 1006 71 10000 5.7 150 11:56 19.12.2019
5999 Rain 14 1006 71 10000 6.7 150 11:38 19.12.2019
6000 Clouds 14 1006 71 10000 6.7 150 11:18 19.12.2019
6001 Clouds 13 1006 76 10000 5.7 150 10:39 19.12.2019
6002 Clouds 13 1006 76 10000 5.7 150 10:20 19.12.2019
6003 Clouds 12 1005 76 10000 6.7 150 09:59 19.12.2019
6004 Clouds 12 1005 76 10000 7.2 140 09:38 19.12.2019
6005 Clouds 12 1005 76 10000 7.2 140 09:20 19.12.2019
6006 Clouds 12 1005 81 10000 6.7 150 08:56 19.12.2019
6007 Clouds 12 1005 81 10000 6.2 150 08:37 19.12.2019
6008 Rain 12 1005 81 10000 6.2 150 08:18 19.12.2019
6009 Rain 12 1005 87 10000 5.7 140 07:55 19.12.2019
6010 Rain 12 1005 87 10000 5.7 140 07:55 19.12.2019
6011 Rain 12 1005 87 10000 5.7 140 07:37 19.12.2019
6012 Rain 12 1005 87 10000 5.7 140 07:19 19.12.2019
6013 Rain 12 1005 87 10000 5.1 140 06:45 19.12.2019
6014 Rain 12 1006 87 10000 5.7 140 06:26 19.12.2019
6015 Rain 12 1006 87 10000 6.7 140 05:49 19.12.2019
6016 Rain 12 1007 87 10000 5.7 140 05:28 19.12.2019
6017 Clouds 13 1007 82 10000 5.1 150 04:41 19.12.2019
6018 Clouds 12 1008 93 10000 5.7 150 02:30 19.12.2019
6019 Clouds 12 1009 93 10000 4.6 150 01:43 19.12.2019
6020 Clouds 12 1009 87 10000 5.1 150 01:21 19.12.2019
6021 Clouds 12 1009 87 10000 5.7 150 00:39 19.12.2019
6022 Clouds 12 1009 87 10000 5.7 150 00:19 19.12.2019
6023 Clouds 12 1010 87 10000 6.7 150 23:45 18.12.2019
6024 Clouds 12 1010 87 10000 6.2 150 23:19 18.12.2019
6025 Clouds 12 1010 87 10000 6.2 150 23:19 18.12.2019
6026 Clouds 12 1010 87 10000 6.2 150 22:58 18.12.2019
6027 Clouds 12 1010 87 10000 6.2 150 22:40 18.12.2019
6028 Clouds 12 1010 87 10000 7.2 150 22:22 18.12.2019
6029 Clouds 12 1010 87 10000 6.7 160 21:59 18.12.2019
6030 Clouds 12 1010 87 10000 6.7 160 21:41 18.12.2019
6031 Clouds 12 1010 87 10000 5.1 150 21:21 18.12.2019
6032 Clouds 12 1010 87 10000 5.7 160 20:57 18.12.2019
6033 Clouds 12 1010 87 10000 5.7 160 20:57 18.12.2019
6034 Clouds 12 1010 87 10000 5.7 160 20:39 18.12.2019
6035 Clouds 12 1010 82 10000 5.7 140 20:20 18.12.2019
6036 Clouds 12 1010 82 10000 5.7 140 20:20 18.12.2019
6037 Clouds 12 1010 87 10000 5.1 140 19:57 18.12.2019
6038 Clouds 12 1010 87 10000 5.1 140 19:39 18.12.2019
6039 Clouds 12 1010 87 10000 5.1 140 19:19 18.12.2019
6040 Clouds 12 1010 82 10000 5.1 140 18:56 18.12.2019
6041 Clouds 12 1010 82 10000 4.1 140 18:37 18.12.2019
6042 Clouds 12 1010 82 10000 4.1 140 18:18 18.12.2019
6043 Clouds 13 1010 82 10000 3.6 140 17:55 18.12.2019
6044 Clouds 13 1010 76 10000 4.1 130 17:37 18.12.2019
6045 Clouds 13 1010 76 10000 4.1 130 17:37 18.12.2019
6046 Clouds 14 1010 76 10000 4.1 130 17:18 18.12.2019
6047 Clouds 14 1011 72 10000 4.1 140 16:42 18.12.2019
6048 Clouds 15 1010 72 10000 4.6 140 16:24 18.12.2019
6049 Clouds 15 1010 67 10000 4.1 160 15:57 18.12.2019
6050 Clouds 15 1010 67 10000 5.7 140 15:39 18.12.2019
6051 Clouds 15 1010 67 10000 5.7 140 15:21 18.12.2019
6052 Clouds 15 1011 63 10000 5.1 150 14:56 18.12.2019
6053 Clouds 15 1011 63 10000 5.1 150 14:56 18.12.2019
6054 Clouds 15 1011 67 10000 5.7 160 14:38 18.12.2019
6055 Clouds 15 1012 72 10000 5.7 160 14:19 18.12.2019
6056 Clouds 15 1012 72 10000 5.7 160 13:55 18.12.2019
6057 Clouds 14 1012 76 10000 5.7 140 13:36 18.12.2019
6058 Clouds 14 1012 76 10000 5.1 150 13:18 18.12.2019
6059 Clouds 13 1013 82 10000 4.6 150 12:40 18.12.2019
6060 Clouds 13 1013 82 10000 4.6 150 12:21 18.12.2019
6061 Clouds 11 1013 93 10000 5.1 150 11:57 18.12.2019
6062 Clouds 11 1013 93 10000 5.1 150 11:39 18.12.2019
6063 Clouds 10 1013 93 10000 4.6 150 11:20 18.12.2019
6064 Clouds 10 1013 93 10000 4.6 150 10:58 18.12.2019
6065 Clouds 10 1013 93 10000 4.1 150 10:39 18.12.2019
6066 Clouds 10 1013 93 10000 4.1 150 10:21 18.12.2019
6067 Clouds 9 1013 93 10000 4.1 150 09:59 18.12.2019
6068 Clouds 9 1013 93 10000 4.1 150 09:59 18.12.2019
6069 Mist 9 1013 100 4600 5.7 150 09:20 18.12.2019
6070 Mist 9 1013 100 4600 5.7 150 08:55 18.12.2019
6071 Clouds 9 1013 93 10000 4.6 150 08:37 18.12.2019
6072 Clouds 9 1013 93 10000 4.6 150 08:19 18.12.2019
6073 Clouds 8 1013 100 10000 3.6 130 07:42 18.12.2019
6074 Clouds 8 1013 100 10000 3.6 130 07:21 18.12.2019
6075 Clouds 8 1013 93 10000 3.6 130 06:52 18.12.2019
6076 Clouds 8 1013 93 10000 3.6 130 06:26 18.12.2019
6077 Clouds 9 1014 93 10000 2.6 130 05:37 18.12.2019
6078 Clouds 8 1014 93 7000 1.5 130 04:33 18.12.2019
6079 Clouds 9 1013 93 9000 2.36 118 02:48 18.12.2019
6080 Clouds 9 1014 93 10000 1.15 114 02:29 18.12.2019
6081 Clouds 9 1014 93 10000 1.5 150 01:45 18.12.2019
6082 Clouds 9 1014 93 10000 1.5 150 01:27 18.12.2019
6083 Clouds 9 1013 93 10000 1.5 140 00:55 18.12.2019
6084 Clouds 9 1013 93 10000 1.5 130 00:36 18.12.2019
6085 Clouds 9 1013 100 10000 1.5 160 00:18 18.12.2019
6086 Clouds 9 1013 93 10000 1.5 140 23:43 17.12.2019
6087 Clouds 9 1013 93 10000 1.5 140 23:23 17.12.2019
6088 Clouds 10 1013 87 10000 1.5 140 22:57 17.12.2019
6089 Clouds 10 1013 87 10000 0.95 331 22:39 17.12.2019
6090 Clouds 10 1013 93 10000 1 200 22:19 17.12.2019
6091 Clouds 10 1013 93 10000 1 200 21:57 17.12.2019
6092 Clouds 10 1012 93 10000 1.5 280 21:39 17.12.2019
6093 Clouds 10 1012 93 10000 1.5 280 21:20 17.12.2019
6094 Clouds 10 1012 87 10000 1 0 20:59 17.12.2019
6095 Clouds 10 1011 87 10000 1 330 20:40 17.12.2019
6096 Clouds 10 1011 93 10000 3.6 320 20:19 17.12.2019
6097 Clouds 10 1011 93 10000 3.6 320 19:57 17.12.2019
6098 Clouds 10 1010 93 10000 3.6 310 19:39 17.12.2019
6099 Clouds 11 1010 87 10000 4.1 310 19:19 17.12.2019
6100 Clouds 11 1010 87 10000 4.1 310 18:56 17.12.2019
6101 Clouds 11 1009 87 10000 5.1 310 18:37 17.12.2019
6102 Clouds 11 1008 87 10000 3.1 310 18:19 17.12.2019
6103 Clouds 11 1008 87 10000 3.1 310 18:19 17.12.2019
6104 Clouds 11 1008 87 10000 3.6 300 17:42 17.12.2019
6105 Clouds 12 1007 87 10000 3.6 310 17:21 17.12.2019
6106 Clouds 12 1007 87 10000 3.6 310 16:57 17.12.2019
6107 Clouds 12 1006 87 10000 3.6 300 16:38 17.12.2019
6108 Rain 12 1006 87 10000 3.1 300 16:19 17.12.2019
6109 Rain 12 1006 87 10000 3.1 300 15:59 17.12.2019
6110 Rain 13 1005 87 10000 4.1 280 15:38 17.12.2019
6111 Clouds 13 1005 87 10000 3.6 250 15:19 17.12.2019
6112 Clouds 13 1005 87 10000 3.6 250 14:56 17.12.2019
6113 Clouds 14 1004 82 10000 3.6 230 14:38 17.12.2019
6114 Clouds 14 1004 82 10000 4.1 230 14:19 17.12.2019
6115 Clouds 14 1004 76 10000 3.6 220 13:56 17.12.2019
6116 Clouds 14 1004 76 10000 3.6 220 13:38 17.12.2019
6117 Clouds 14 1004 82 10000 3.6 220 13:19 17.12.2019
6118 Clouds 14 1004 82 10000 3.6 220 12:56 17.12.2019
6119 Clouds 14 1004 76 10000 3.1 200 12:37 17.12.2019
6120 Clouds 13 1004 82 10000 2.1 200 12:18 17.12.2019
6121 Clouds 13 1004 82 10000 2.1 200 11:55 17.12.2019
6122 Clouds 13 1004 82 10000 1 0 11:36 17.12.2019
6123 Clouds 12 1003 87 10000 1 0 11:18 17.12.2019
6124 Clouds 12 1003 87 10000 1 0 11:18 17.12.2019
6125 Clouds 12 1003 87 10000 1 0 11:18 17.12.2019
6126 Clouds 12 1003 87 10000 1 0 10:55 17.12.2019
6127 Clouds 11 1002 93 10000 1.07 70 10:36 17.12.2019
6128 Clouds 11 1002 93 10000 1.5 0 10:18 17.12.2019
6129 Clouds 11 1002 93 10000 1 0 09:42 17.12.2019
6130 Clouds 10 1002 93 10000 1 0 09:21 17.12.2019
6131 Clouds 10 1001 93 10000 1.5 130 08:58 17.12.2019
6132 Clouds 10 1001 93 10000 1 0 08:39 17.12.2019
6133 Clouds 10 1000 93 10000 2.1 230 08:21 17.12.2019
6134 Clouds 10 1000 93 10000 2.1 230 07:56 17.12.2019
6135 Clouds 10 1000 93 10000 3.1 260 07:38 17.12.2019
6136 Clouds 10 1000 93 10000 2.1 220 07:18 17.12.2019
6137 Clouds 11 999 93 10000 1.5 190 06:35 17.12.2019
6138 Clouds 11 999 87 10000 2.6 160 05:57 17.12.2019
6139 Clouds 12 999 87 10000 2.1 180 05:38 17.12.2019
6140 Clouds 12 999 82 10000 3.1 190 04:45 17.12.2019
6141 Clouds 13 997 82 10000 5.1 130 02:47 17.12.2019
6142 Clouds 13 997 82 10000 6.2 140 01:56 17.12.2019
6143 Clouds 13 997 82 10000 6.2 140 01:20 17.12.2019
6144 Clouds 13 997 82 10000 6.2 140 00:38 17.12.2019
6145 Clouds 13 997 82 10000 6.2 140 00:38 17.12.2019
6146 Clouds 13 997 82 10000 6.2 140 00:20 17.12.2019
6147 Clouds 13 997 82 10000 5.7 140 23:42 16.12.2019
6148 Clouds 13 997 82 10000 5.7 140 23:42 16.12.2019
6149 Clouds 13 997 82 10000 5.7 140 23:42 16.12.2019
6150 Clouds 13 997 76 10000 6.2 140 23:19 16.12.2019
6151 Clouds 13 997 76 10000 6.2 140 22:58 16.12.2019
6152 Clouds 13 997 76 10000 5.7 140 22:38 16.12.2019
6153 Clouds 14 997 76 10000 5.7 140 22:20 16.12.2019
6154 Clouds 13 997 76 10000 5.7 140 22:20 16.12.2019
6155 Clouds 13 997 76 10000 5.7 140 21:56 16.12.2019
6156 Clouds 13 997 76 10000 6.2 140 21:38 16.12.2019
6157 Clouds 13 997 76 10000 6.2 140 21:38 16.12.2019
6158 Clouds 13 997 76 10000 6.2 140 21:20 16.12.2019
6159 Clouds 13 996 71 10000 5.7 140 20:58 16.12.2019
6160 Clouds 13 996 71 10000 5.7 140 20:38 16.12.2019
6161 Clouds 13 996 71 10000 5.7 140 20:38 16.12.2019
6162 Clouds 13 996 71 10000 5.7 140 20:19 16.12.2019
6163 Clouds 13 996 71 10000 6.7 130 19:56 16.12.2019
6164 Clouds 13 996 76 10000 6.7 140 19:37 16.12.2019
6165 Clouds 13 996 76 10000 6.7 140 19:19 16.12.2019
6166 Clouds 13 996 76 10000 5.1 130 18:56 16.12.2019
6167 Clouds 13 997 82 10000 5.1 120 18:38 16.12.2019
6168 Clouds 13 997 82 10000 5.1 120 18:19 16.12.2019
6169 Clouds 13 997 82 10000 5.1 120 17:57 16.12.2019
6170 Clouds 13 997 82 10000 6.2 120 17:38 16.12.2019
6171 Clouds 13 998 82 10000 5.7 120 17:20 16.12.2019
6172 Clouds 13 998 82 10000 5.7 120 16:57 16.12.2019
6173 Clouds 13 998 82 10000 5.1 120 16:38 16.12.2019
6174 Clouds 13 998 82 10000 5.1 120 16:19 16.12.2019
6175 Clouds 13 998 82 10000 5.1 130 15:57 16.12.2019
6176 Clouds 13 999 82 10000 5.1 130 15:38 16.12.2019
6177 Clouds 13 999 82 10000 5.1 130 15:20 16.12.2019
6178 Clouds 13 999 82 10000 4.6 130 14:55 16.12.2019
6179 Clouds 13 999 82 10000 5.1 120 14:37 16.12.2019
6180 Clouds 13 999 82 10000 5.1 120 14:37 16.12.2019
6181 Clouds 13 999 82 10000 5.1 130 14:18 16.12.2019
6182 Clouds 13 999 82 10000 5.1 130 13:56 16.12.2019
6183 Clouds 13 1000 87 10000 5.1 130 13:56 16.12.2019
6184 Clouds 12 1000 87 10000 5.1 130 13:37 16.12.2019
6185 Clouds 12 1001 87 10000 5.7 130 13:19 16.12.2019
6186 Clouds 12 1001 87 10000 5.7 130 12:56 16.12.2019
6187 Clouds 12 1002 87 10000 5.1 130 12:38 16.12.2019
6188 Clouds 11 1002 93 10000 5.1 130 12:18 16.12.2019
6189 Clouds 11 1002 93 10000 5.1 130 11:57 16.12.2019
6190 Clouds 11 1002 93 10000 5.7 140 11:38 16.12.2019
6191 Clouds 11 1003 93 10000 4.6 140 11:19 16.12.2019
6192 Clouds 11 1003 93 10000 4.6 140 10:54 16.12.2019
6193 Clouds 11 1003 93 10000 4.6 140 10:36 16.12.2019
6194 Clouds 11 1002 93 10000 5.7 140 10:18 16.12.2019
6195 Clouds 10 1003 93 10000 4.1 140 09:43 16.12.2019
6196 Clouds 10 1003 93 10000 4.1 140 09:24 16.12.2019
6197 Clouds 10 1003 93 10000 5.1 140 08:40 16.12.2019
6198 Clouds 10 1003 93 10000 5.1 140 08:20 16.12.2019
6199 Clouds 10 1003 93 10000 4.6 140 07:53 16.12.2019
6200 Clouds 10 1003 93 10000 4.6 140 07:31 16.12.2019
6201 Clouds 10 1003 93 10000 5.1 140 06:58 16.12.2019
6202 Clouds 10 1003 93 10000 5.7 130 06:40 16.12.2019
6203 Clouds 10 1004 93 10000 5.7 140 06:20 16.12.2019
6204 Clouds 10 1004 93 10000 5.7 140 05:41 16.12.2019
6205 Clouds 10 1004 93 10000 5.1 140 05:22 16.12.2019
6206 Clouds 10 1005 87 10000 5.7 140 03:28 16.12.2019
6207 Clouds 12 1006 81 10000 4.1 170 01:46 16.12.2019
6208 Clouds 12 1007 76 10000 4.6 170 01:21 16.12.2019
6209 Clouds 12 1007 76 10000 4.6 180 00:39 16.12.2019
6210 Clouds 12 1007 71 10000 4.6 160 00:19 16.12.2019
6211 Clouds 12 1007 71 10000 2.6 150 23:44 15.12.2019
6212 Clouds 12 1007 71 10000 2.6 150 23:25 15.12.2019
6213 Clouds 13 1007 71 10000 1 0 22:57 15.12.2019
6214 Clouds 13 1007 71 10000 1 0 22:39 15.12.2019
6215 Clouds 13 1007 76 10000 2.1 200 22:19 15.12.2019
6216 Clouds 13 1007 76 10000 2.1 200 21:58 15.12.2019
6217 Clouds 13 1008 76 10000 2.6 240 21:39 15.12.2019
6218 Clouds 13 1008 76 10000 2.6 240 21:20 15.12.2019
6219 Clouds 14 1007 71 10000 2.1 190 20:58 15.12.2019
6220 Clouds 14 1007 71 10000 2.1 190 20:58 15.12.2019
6221 Clouds 14 1007 71 10000 2.6 160 20:40 15.12.2019
6222 Clouds 14 1007 71 10000 2.6 160 20:21 15.12.2019
6223 Rain 13 1007 76 10000 3.6 180 19:58 15.12.2019
6224 Clouds 13 1008 76 10000 2.1 170 19:40 15.12.2019
6225 Clouds 13 1007 82 10000 2.1 170 19:20 15.12.2019
6226 Clouds 13 1007 82 10000 2.1 170 19:20 15.12.2019
6227 Clouds 13 1007 82 10000 2.1 170 18:58 15.12.2019
6228 Clouds 13 1007 82 10000 2.1 160 18:39 15.12.2019
6229 Rain 14 1007 87 10000 2.1 140 18:19 15.12.2019
6230 Clouds 14 1008 87 10000 0.77 135 17:57 15.12.2019
6231 Clouds 14 1008 87 10000 0.77 135 17:38 15.12.2019
6232 Clouds 14 1008 87 10000 0.77 135 17:38 15.12.2019
6233 Rain 14 1008 77 10000 1 130 17:19 15.12.2019
6234 Rain 14 1008 77 10000 1 130 16:58 15.12.2019
6235 Rain 15 1008 77 10000 0.5 0 16:39 15.12.2019
6236 Rain 15 1008 77 10000 1.5 170 16:20 15.12.2019
6237 Clouds 16 1008 77 10000 1.5 170 15:55 15.12.2019
6238 Rain 15 1008 77 10000 1.5 0 15:37 15.12.2019
6239 Clouds 15 1008 77 10000 1.5 0 15:18 15.12.2019
6240 Clouds 16 1008 72 10000 2.1 190 14:55 15.12.2019
6241 Rain 16 1008 77 10000 2.6 190 14:37 15.12.2019
6242 Clouds 16 1008 77 10000 2.1 180 14:18 15.12.2019
6243 Clouds 16 1008 77 10000 2.1 180 13:56 15.12.2019
6244 Clouds 15 1009 77 10000 1.5 210 13:37 15.12.2019
6245 Clouds 15 1009 77 10000 2.6 210 13:19 15.12.2019
6246 Clouds 15 1009 77 10000 2.6 210 13:19 15.12.2019
6247 Clouds 15 1009 77 10000 2.6 220 12:56 15.12.2019
6248 Clouds 15 1009 77 10000 2.6 210 12:56 15.12.2019
6249 Clouds 14 1009 77 10000 2.6 220 12:38 15.12.2019
6250 Clouds 14 1010 87 10000 2.1 210 12:20 15.12.2019
6251 Clouds 13 1009 87 10000 1.5 190 11:39 15.12.2019
6252 Clouds 13 1009 87 10000 1.5 190 11:20 15.12.2019
6253 Clouds 12 1009 87 10000 1.5 190 10:58 15.12.2019
6254 Clouds 12 1009 87 10000 2.1 200 10:40 15.12.2019
6255 Clouds 11 1009 87 10000 1.5 200 10:20 15.12.2019
6256 Clouds 11 1009 87 10000 1.5 200 09:59 15.12.2019
6257 Clouds 10 1009 93 10000 1.5 200 09:38 15.12.2019
6258 Clouds 11 1009 87 10000 2.1 190 09:20 15.12.2019
6259 Clouds 11 1009 87 10000 2.1 190 09:20 15.12.2019
6260 Clouds 11 1009 87 10000 2.1 190 08:55 15.12.2019
6261 Clouds 12 1008 87 10000 2.1 210 08:37 15.12.2019
6262 Clouds 11 1008 87 10000 2.6 200 08:19 15.12.2019
6263 Clouds 12 1008 81 10000 2.1 230 07:53 15.12.2019
6264 Clouds 12 1008 81 10000 2.1 230 07:32 15.12.2019
6265 Rain 12 1008 76 10000 3.1 210 06:30 15.12.2019
6266 Rain 12 1008 76 10000 3.6 210 05:50 15.12.2019
6267 Clouds 13 1008 71 10000 3.6 220 05:23 15.12.2019
6268 Clouds 13 1007 66 10000 5.1 190 04:24 15.12.2019
6269 Clouds 12 1008 66 10000 5.7 200 02:59 15.12.2019
6270 Clouds 12 1008 76 10000 5.1 210 02:32 15.12.2019
6271 Clouds 12 1009 76 10000 4.6 210 01:42 15.12.2019
6272 Clouds 12 1008 76 10000 5.1 180 01:19 15.12.2019
6273 Clouds 12 1008 76 10000 5.1 180 00:51 15.12.2019
6274 Clouds 12 1009 71 10000 5.1 200 00:33 15.12.2019
6275 Clouds 12 1009 76 10000 4.6 200 23:55 14.12.2019
6276 Clouds 12 1009 81 10000 4.6 200 23:37 14.12.2019
6277 Clouds 12 1009 81 10000 4.1 190 23:18 14.12.2019
6278 Clouds 12 1009 81 10000 4.1 190 23:18 14.12.2019
6279 Clouds 12 1009 81 10000 4.1 190 22:56 14.12.2019
6280 Clouds 12 1009 81 10000 4.6 190 22:37 14.12.2019
6281 Clouds 12 1009 81 10000 4.6 190 22:18 14.12.2019
6282 Clouds 12 1009 81 10000 5.1 190 22:18 14.12.2019
6283 Clouds 12 1009 81 10000 5.1 190 21:55 14.12.2019
6284 Clouds 13 1010 82 10000 4.6 200 21:36 14.12.2019
6285 Clouds 12 1009 82 10000 4.1 200 21:18 14.12.2019
6286 Clouds 12 1010 82 10000 3.1 210 20:42 14.12.2019
6287 Clouds 12 1010 82 10000 3.1 210 20:20 14.12.2019
6288 Clouds 13 1010 82 10000 3.1 190 19:59 14.12.2019
6289 Clouds 13 1010 87 10000 3.1 200 19:39 14.12.2019
6290 Clouds 13 1010 87 10000 3.1 200 19:21 14.12.2019
6291 Clouds 13 1010 87 10000 2.6 200 18:56 14.12.2019
6292 Clouds 13 1010 87 10000 3.1 200 18:38 14.12.2019
6293 Clouds 13 1010 93 10000 2.6 200 18:20 14.12.2019
6294 Clouds 13 1010 93 10000 2.6 200 17:54 14.12.2019
6295 Drizzle 13 1010 93 10000 4.1 240 17:36 14.12.2019
6296 Drizzle 13 1010 93 9000 7.2 250 17:18 14.12.2019
6297 Drizzle 13 1010 93 4100 8.2 260 16:40 14.12.2019
6298 Drizzle 13 1010 93 4100 8.2 260 16:19 14.12.2019
6299 Drizzle 14 1010 93 4400 7.7 250 15:54 14.12.2019
6300 Rain 14 1010 93 4000 7.2 260 15:36 14.12.2019
6301 Rain 14 1010 93 4000 7.2 260 15:36 14.12.2019
6302 Rain 14 1010 93 4000 7.2 260 15:36 14.12.2019
6303 Rain 14 1010 93 5000 8.7 250 15:18 14.12.2019
6304 Rain 13 1011 93 5000 8.2 250 14:40 14.12.2019
6305 Clouds 13 1011 82 10000 5.7 240 14:21 14.12.2019
6306 Drizzle 13 1011 100 4900 9.3 250 13:59 14.12.2019
6307 Rain 13 1011 93 4400 7.7 250 13:41 14.12.2019
6308 Rain 14 1011 93 3100 7.7 250 13:19 14.12.2019
6309 Drizzle 14 1011 93 7000 8.2 260 12:56 14.12.2019
6310 Drizzle 14 1011 93 7000 8.2 260 12:37 14.12.2019
6311 Drizzle 14 1011 93 6000 9.8 260 12:19 14.12.2019
6312 Drizzle 14 1011 93 6000 9.8 260 11:56 14.12.2019
6313 Clouds 14 1011 87 10000 10.3 260 11:37 14.12.2019
6314 Clouds 14 1011 87 10000 9.8 270 11:18 14.12.2019
6315 Clouds 14 1011 87 10000 9.8 270 10:56 14.12.2019
6316 Drizzle 14 1010 93 9000 9.8 270 10:38 14.12.2019
6317 Drizzle 14 1010 93 7000 9.3 270 10:19 14.12.2019
6318 Drizzle 13 1010 100 5000 9.8 260 09:42 14.12.2019
6319 Drizzle 13 1010 100 5000 9.8 260 09:21 14.12.2019
6320 Rain 13 1009 100 4600 10.3 270 08:56 14.12.2019
6321 Rain 13 1009 100 4600 10.3 270 08:56 14.12.2019
6322 Rain 13 1010 93 5000 9.3 260 08:37 14.12.2019
6323 Rain 13 1009 100 4300 9.3 260 08:18 14.12.2019
6324 Drizzle 13 1009 100 6000 9.3 260 07:40 14.12.2019
6325 Drizzle 13 1009 93 8000 9.8 260 07:19 14.12.2019
6326 Drizzle 13 1008 93 10000 10.3 260 06:41 14.12.2019
6327 Clouds 14 1008 87 10000 10.8 270 06:22 14.12.2019
6328 Clouds 13 1008 93 10000 9.8 270 05:25 14.12.2019
6329 Rain 13 1007 93 3900 10.8 260 02:51 14.12.2019
6330 Rain 13 1007 93 3900 10.8 260 02:23 14.12.2019
6331 Rain 13 1006 93 4900 11.8 260 01:44 14.12.2019
6332 Rain 13 1006 93 6000 11.8 260 00:58 14.12.2019
6333 Rain 13 1006 93 3800 11.3 260 00:40 14.12.2019
6334 Rain 13 1006 93 3300 12.3 260 00:19 14.12.2019
6335 Rain 13 1006 93 3600 12.3 260 23:41 13.12.2019
6336 Rain 13 1005 93 3700 11.8 270 23:19 13.12.2019
6337 Rain 13 1005 93 3700 11.8 270 23:19 13.12.2019
6338 Rain 13 1005 93 3700 11.8 270 22:55 13.12.2019
6339 Rain 13 1005 93 3600 10.3 270 22:37 13.12.2019
6340 Rain 13 1005 93 3600 10.3 270 22:18 13.12.2019
6341 Rain 13 1005 93 6000 10.8 270 21:42 13.12.2019
6342 Rain 13 1005 93 6000 10.8 270 21:21 13.12.2019
6343 Rain 14 1005 93 4900 10.8 270 20:58 13.12.2019
6344 Rain 14 1004 100 4800 11.8 280 20:39 13.12.2019
6345 Rain 13 1004 100 4300 10.8 280 20:19 13.12.2019
6346 Rain 13 1004 100 4300 10.8 280 19:56 13.12.2019
6347 Rain 14 1004 93 3900 10.8 290 19:38 13.12.2019
6348 Rain 14 1004 93 3900 10.8 290 19:18 13.12.2019
6349 Rain 14 1003 93 3800 12.3 280 18:42 13.12.2019
6350 Rain 14 1003 93 5000 12.9 280 18:20 13.12.2019
6351 Rain 14 1003 93 3900 11.3 280 17:59 13.12.2019
6352 Rain 14 1003 93 5000 11.8 280 17:39 13.12.2019
6353 Rain 14 1003 93 5000 11.8 280 17:18 13.12.2019
6354 Rain 13 1003 93 3500 6.2 270 16:56 13.12.2019
6355 Rain 13 1003 100 2300 7.7 290 16:38 13.12.2019
6356 Rain 12 1003 100 2300 7.7 290 16:19 13.12.2019
6357 Rain 12 1003 93 4200 7.2 300 15:42 13.12.2019
6358 Rain 12 1003 87 4400 8.7 300 15:21 13.12.2019
6359 Clouds 13 1003 76 10000 12.3 290 14:57 13.12.2019
6360 Rain 13 1003 82 10000 12.3 290 14:37 13.12.2019
6361 Rain 13 1003 82 10000 12.3 290 14:18 13.12.2019
6362 Rain 12 1003 87 10000 9.3 290 13:43 13.12.2019
6363 Clouds 12 1003 81 10000 9.8 290 13:24 13.12.2019
6364 Rain 13 1003 81 10000 10.3 300 12:55 13.12.2019
6365 Rain 13 1002 76 10000 10.3 290 12:37 13.12.2019
6366 Rain 13 1002 76 10000 10.3 290 12:18 13.12.2019
6367 Rain 12 1002 81 10000 11.3 290 11:43 13.12.2019
6368 Rain 13 1001 81 10000 9.8 300 11:24 13.12.2019
6369 Rain 12 1001 87 6000 11.8 300 10:56 13.12.2019
6370 Rain 12 999 71 10000 11.8 300 10:38 13.12.2019
6371 Rain 13 999 71 10000 11.8 300 10:19 13.12.2019
6372 Clouds 12 999 71 10000 11.8 300 09:42 13.12.2019
6373 Rain 13 998 71 10000 13.4 300 09:21 13.12.2019
6374 Rain 12 998 76 10000 11.8 290 08:44 13.12.2019
6375 Clouds 12 997 87 10000 11.3 290 08:26 13.12.2019
6376 Rain 12 997 93 10000 11.8 290 07:48 13.12.2019
6377 Rain 12 996 87 6000 15.4 290 07:25 13.12.2019
6378 Rain 13 995 93 9000 12.9 280 06:55 13.12.2019
6379 Rain 13 995 93 6000 14.9 290 06:29 13.12.2019
6380 Rain 14 995 87 9000 15.9 280 05:51 13.12.2019
6381 Drizzle 14 994 87 6000 14.9 280 05:30 13.12.2019
6382 Rain 14 994 87 10000 18 270 04:48 13.12.2019
6383 Rain 14 995 93 8000 13.4 270 03:50 13.12.2019
6384 Rain 14 995 93 4200 10.8 270 02:35 13.12.2019
6385 Drizzle 13 996 87 9000 11.3 270 01:50 13.12.2019
6386 Rain 13 996 100 4900 10.3 270 01:21 13.12.2019
6387 Rain 13 997 93 6000 7.2 270 00:46 13.12.2019
6388 Rain 13 997 93 4800 7.7 280 00:24 13.12.2019
6389 Drizzle 13 997 93 10000 8.7 270 23:41 12.12.2019
6390 Rain 13 998 93 7000 8.2 270 23:22 12.12.2019
6391 Rain 13 998 93 10000 9.3 280 22:56 12.12.2019
6392 Rain 13 998 93 9000 9.3 280 22:38 12.12.2019
6393 Rain 13 998 93 9000 9.3 280 22:19 12.12.2019
6394 Rain 13 998 93 5000 8.7 280 21:55 12.12.2019
6395 Rain 13 998 93 5000 8.7 280 21:55 12.12.2019
6396 Rain 13 998 93 5000 8.7 280 21:55 12.12.2019
6397 Drizzle 12 998 93 10000 7.2 280 21:37 12.12.2019
6398 Drizzle 12 998 93 10000 7.2 280 21:19 12.12.2019
6399 Clouds 13 998 87 10000 7.7 280 20:56 12.12.2019
6400 Rain 13 998 93 10000 7.7 280 20:38 12.12.2019
6401 Rain 13 998 93 10000 7.7 280 20:20 12.12.2019
6402 Rain 13 998 93 4900 6.7 290 19:43 12.12.2019
6403 Rain 13 998 93 4900 6.7 290 19:43 12.12.2019
6404 Rain 13 998 87 9000 8.7 280 19:23 12.12.2019
6405 Drizzle 13 998 87 10000 10.8 290 18:58 12.12.2019
6406 Rain 12 997 93 10000 8.7 280 18:40 12.12.2019
6407 Rain 12 997 93 10000 8.7 280 18:21 12.12.2019
6408 Rain 12 997 100 10000 7.7 270 17:59 12.12.2019
6409 Rain 12 997 100 10000 7.7 270 17:40 12.12.2019
6410 Rain 11 997 100 3300 7.7 230 17:21 12.12.2019
6411 Rain 10 997 93 4000 9.8 220 16:59 12.12.2019
6412 Rain 10 997 93 4000 9.8 220 16:41 12.12.2019
6413 Rain 10 998 93 4600 7.7 220 16:21 12.12.2019
6414 Rain 10 999 93 5000 8.7 210 15:58 12.12.2019
6415 Rain 10 999 93 5000 8.7 210 15:40 12.12.2019
6416 Rain 10 1000 93 4600 7.7 200 15:19 12.12.2019
6417 Rain 10 1001 93 6000 6.7 210 14:56 12.12.2019
6418 Rain 10 1001 93 6000 6.7 210 14:56 12.12.2019
6419 Rain 10 1003 87 8000 9.8 230 14:36 12.12.2019
6420 Rain 10 1003 87 8000 9.8 230 14:18 12.12.2019
6421 Rain 10 1004 93 8000 8.2 230 13:54 12.12.2019
6422 Rain 10 1005 93 8000 5.1 220 13:36 12.12.2019
6423 Rain 10 1005 93 8000 5.1 220 13:18 12.12.2019
6424 Rain 10 1006 93 6000 5.1 210 12:41 12.12.2019
6425 Rain 10 1006 93 6000 5.1 210 12:41 12.12.2019
6426 Rain 10 1007 93 10000 4.1 210 12:22 12.12.2019
6427 Rain 10 1008 93 10000 3.6 200 11:59 12.12.2019
6428 Rain 10 1009 100 8000 3.6 220 11:39 12.12.2019
6429 Rain 10 1008 93 10000 3.6 200 11:39 12.12.2019
6430 Rain 9 1009 100 8000 3.6 220 11:21 12.12.2019
6431 Rain 9 1009 93 5000 4.1 190 10:58 12.12.2019
6432 Rain 9 1009 93 5000 4.1 190 10:40 12.12.2019
6433 Rain 9 1010 93 10000 5.1 190 10:21 12.12.2019
6434 Rain 9 1010 93 9000 4.1 190 09:56 12.12.2019
6435 Rain 9 1011 93 10000 4.1 200 09:38 12.12.2019
6436 Rain 9 1011 93 10000 4.1 200 09:19 12.12.2019
6437 Rain 8 1011 100 10000 3.6 200 08:46 12.12.2019
6438 Rain 8 1012 100 10000 3.6 200 08:28 12.12.2019
6439 Rain 8 1012 100 10000 3.6 210 07:50 12.12.2019
6440 Rain 8 1012 100 9000 3.1 230 07:28 12.12.2019
6441 Rain 8 1012 100 10000 3.6 220 06:57 12.12.2019
6442 Rain 8 1013 93 10000 3.1 220 06:36 12.12.2019
6443 Rain 8 1013 93 10000 3.1 210 05:49 12.12.2019
6444 Rain 8 1013 93 10000 2.6 220 05:25 12.12.2019
6445 Rain 7 1014 93 10000 2.1 200 04:28 12.12.2019
6446 Clouds 7 1015 93 10000 1 0 02:41 12.12.2019
6447 Clouds 7 1015 87 10000 2.1 220 02:22 12.12.2019
6448 Clouds 8 1016 87 10000 2.6 250 01:54 12.12.2019
6449 Clouds 8 1016 87 10000 3.6 280 01:32 12.12.2019
6450 Rain 8 1016 93 10000 2.1 290 00:47 12.12.2019
6451 Rain 8 1016 87 10000 2.1 260 00:21 12.12.2019
6452 Clouds 8 1016 87 10000 3.1 220 23:54 11.12.2019
6453 Clouds 8 1016 87 10000 3.6 270 23:36 11.12.2019
6454 Rain 8 1016 87 10000 3.6 270 23:18 11.12.2019
6455 Rain 9 1016 87 6000 7.7 300 22:54 11.12.2019
6456 Rain 9 1016 81 10000 6.2 280 22:36 11.12.2019
6457 Rain 9 1016 81 10000 6.2 280 22:18 11.12.2019
6458 Rain 9 1016 81 10000 5.7 280 21:39 11.12.2019
6459 Rain 9 1016 81 10000 5.7 280 21:20 11.12.2019
6460 Rain 9 1016 81 10000 5.1 270 20:58 11.12.2019
6461 Clouds 9 1015 93 10000 3.6 250 20:39 11.12.2019
6462 Clouds 9 1015 93 10000 3.6 250 20:19 11.12.2019
6463 Rain 9 1015 87 10000 4.1 260 19:58 11.12.2019
6464 Rain 9 1015 87 10000 4.1 260 19:40 11.12.2019
6465 Rain 9 1015 87 10000 6.2 280 19:20 11.12.2019
6466 Rain 9 1015 87 10000 6.7 250 18:55 11.12.2019
6467 Rain 9 1016 87 10000 6.7 260 18:37 11.12.2019
6468 Rain 9 1016 87 10000 6.7 260 18:37 11.12.2019
6469 Rain 9 1016 87 10000 6.7 260 18:18 11.12.2019
6470 Rain 10 1016 76 10000 5.7 250 17:54 11.12.2019
6471 Rain 10 1016 81 10000 8.7 260 17:36 11.12.2019
6472 Rain 10 1016 81 10000 8.7 260 17:18 11.12.2019
6473 Rain 11 1016 76 10000 6.2 240 16:55 11.12.2019
6474 Rain 11 1016 76 10000 5.7 250 16:36 11.12.2019
6475 Rain 11 1016 76 10000 5.7 250 16:18 11.12.2019
6476 Rain 12 1017 66 10000 5.7 270 15:41 11.12.2019
6477 Rain 12 1017 66 10000 5.7 270 15:23 11.12.2019
6478 Rain 11 1018 76 10000 6.7 300 14:56 11.12.2019
6479 Rain 11 1018 76 10000 6.7 300 14:38 11.12.2019
6480 Rain 12 1017 66 10000 7.7 280 14:20 11.12.2019
6481 Clouds 11 1018 71 10000 5.7 290 13:55 11.12.2019
6482 Clouds 11 1018 76 10000 5.1 280 13:37 11.12.2019
6483 Clouds 11 1018 76 10000 5.1 280 13:18 11.12.2019
6484 Rain 10 1018 93 10000 3.1 250 12:56 11.12.2019
6485 Rain 10 1018 93 10000 3.1 250 12:38 11.12.2019
6486 Rain 10 1018 93 10000 2.1 250 12:18 11.12.2019
6487 Clouds 9 1018 100 10000 2.6 250 11:57 11.12.2019
6488 Rain 9 1018 93 9000 1.5 280 11:38 11.12.2019
6489 Rain 9 1018 93 9000 1.5 280 11:38 11.12.2019
6490 Rain 9 1018 93 9000 1.5 280 11:18 11.12.2019
6491 Rain 9 1018 93 9000 1.5 280 11:18 11.12.2019
6492 Rain 9 1018 100 10000 4.1 330 10:45 11.12.2019
6493 Rain 9 1018 93 10000 2.6 270 10:27 11.12.2019
6494 Rain 9 1017 93 10000 2.6 300 09:59 11.12.2019
6495 Rain 10 1017 93 6000 4.1 310 09:39 11.12.2019
6496 Rain 10 1017 93 6000 4.1 310 09:39 11.12.2019
6497 Rain 10 1017 93 6000 4.1 310 09:20 11.12.2019
6498 Rain 10 1016 93 10000 5.1 320 08:57 11.12.2019
6499 Rain 10 1016 100 8000 6.2 260 08:38 11.12.2019
6500 Rain 10 1016 100 8000 6.2 260 08:19 11.12.2019
6501 Rain 9 1016 87 10000 3.1 220 07:45 11.12.2019
6502 Rain 9 1016 81 10000 2.6 240 07:26 11.12.2019
6503 Clouds 8 1016 87 10000 1.5 180 06:57 11.12.2019
6504 Rain 8 1016 87 10000 2.6 190 06:37 11.12.2019
6505 Rain 8 1016 87 10000 2.6 190 06:18 11.12.2019
6506 Clouds 8 1016 87 10000 1.5 160 05:37 11.12.2019
6507 Clouds 8 1016 87 10000 1.5 160 05:18 11.12.2019
6508 Clouds 8 1018 81 10000 1.5 160 03:50 11.12.2019
6509 Clouds 8 1018 81 10000 2.6 170 02:49 11.12.2019
6510 Clouds 8 1020 81 10000 2.6 180 01:23 11.12.2019
6511 Clouds 8 1020 81 10000 2.6 170 00:46 11.12.2019
6512 Clouds 8 1020 81 10000 4.1 140 00:21 11.12.2019
6513 Clouds 8 1020 81 10000 3.1 150 23:47 10.12.2019
6514 Clouds 8 1020 81 10000 3.1 150 23:28 10.12.2019
6515 Clouds 8 1021 81 10000 2.1 160 22:57 10.12.2019
6516 Clouds 8 1021 81 10000 2.1 160 22:39 10.12.2019
6517 Clouds 8 1021 81 10000 2.1 180 22:21 10.12.2019
6518 Clouds 9 1021 76 10000 3.1 160 21:55 10.12.2019
6519 Clouds 9 1021 76 10000 3.1 160 21:55 10.12.2019
6520 Clouds 9 1022 81 10000 3.1 150 21:37 10.12.2019
6521 Clouds 9 1022 81 10000 3.1 150 21:19 10.12.2019
6522 Clouds 9 1022 81 10000 3.6 150 20:56 10.12.2019
6523 Clouds 9 1023 81 10000 2.6 150 20:37 10.12.2019
6524 Clouds 9 1022 81 10000 3.6 150 20:37 10.12.2019
6525 Clouds 9 1023 81 10000 2.6 150 20:19 10.12.2019
6526 Clouds 9 1023 81 10000 2.6 150 20:19 10.12.2019
6527 Clouds 9 1023 81 10000 2.6 140 19:54 10.12.2019
6528 Clouds 9 1023 87 10000 3.6 130 19:36 10.12.2019
6529 Clouds 9 1023 87 10000 3.6 130 19:18 10.12.2019
6530 Clouds 9 1023 81 10000 3.1 130 18:40 10.12.2019
6531 Clouds 9 1023 81 10000 3.1 130 18:20 10.12.2019
6532 Clouds 9 1024 76 10000 1.5 150 17:57 10.12.2019
6533 Clouds 10 1024 71 10000 2.1 160 17:39 10.12.2019
6534 Clouds 10 1024 71 10000 2.1 160 17:20 10.12.2019
6535 Clouds 11 1024 66 10000 2.6 160 16:43 10.12.2019
6536 Clouds 12 1024 62 10000 2.6 170 16:21 10.12.2019
6537 Clouds 12 1024 58 10000 3.6 160 15:59 10.12.2019
6538 Clouds 13 1025 62 10000 3.6 150 15:37 10.12.2019
6539 Clouds 13 1025 62 10000 3.6 150 15:18 10.12.2019
6540 Clouds 13 1025 58 10000 3.1 170 14:55 10.12.2019
6541 Clouds 13 1026 62 10000 4.1 170 14:37 10.12.2019
6542 Clouds 13 1026 62 10000 4.1 170 14:19 10.12.2019
6543 Clouds 12 1027 66 10000 3.6 160 13:56 10.12.2019
6544 Clouds 12 1027 66 10000 3.6 160 13:56 10.12.2019
6545 Clouds 12 1027 62 10000 4.6 160 13:38 10.12.2019
6546 Clouds 12 1027 62 10000 4.6 160 13:18 10.12.2019
6547 Clouds 10 1028 66 10000 4.1 160 12:40 10.12.2019
6548 Clouds 10 1028 71 10000 3.6 170 12:22 10.12.2019
6549 Clouds 9 1029 71 10000 4.1 160 11:42 10.12.2019
6550 Clouds 9 1030 76 10000 3.1 170 11:24 10.12.2019
6551 Clouds 7 1029 81 10000 2.6 150 10:56 10.12.2019
6552 Clouds 7 1029 81 10000 2.6 150 10:37 10.12.2019
6553 Clouds 6 1029 93 10000 2.1 140 10:37 10.12.2019
6554 Clouds 6 1029 93 10000 2.1 140 10:19 10.12.2019
6555 Clouds 4 1030 100 10000 1.5 130 09:55 10.12.2019
6556 Clouds 4 1030 100 10000 1.5 130 09:55 10.12.2019
6557 Clouds 4 1030 93 10000 1.5 130 09:37 10.12.2019
6558 Clouds 4 1030 93 10000 1.5 130 09:19 10.12.2019
6559 Clouds 4 1030 100 10000 2.1 120 08:54 10.12.2019
6560 Clouds 4 1030 93 10000 1.5 130 08:36 10.12.2019
6561 Clouds 4 1030 93 10000 1.5 130 08:18 10.12.2019
6562 Clouds 4 1030 100 10000 1 0 07:43 10.12.2019
6563 Clouds 4 1030 100 10000 1 0 07:24 10.12.2019
6564 Clouds 4 1030 100 10000 1.5 150 06:46 10.12.2019
6565 Clouds 4 1030 100 10000 1.5 150 06:19 10.12.2019
6566 Clouds 4 1030 100 7000 1 0 05:54 10.12.2019
6567 Clouds 4 1031 100 10000 1 170 04:52 10.12.2019
6568 Clouds 4 1031 100 10000 0.5 160 03:38 10.12.2019
6569 Clouds 5 1031 93 8000 1.1 122 02:46 10.12.2019
6570 Clouds 5 1031 93 10000 1.25 1 01:45 10.12.2019
6571 Clouds 6 1031 86 10000 1 290 01:21 10.12.2019
6572 Clouds 6 1031 87 10000 1 0 00:42 10.12.2019
6573 Clouds 7 1030 87 10000 1.5 330 00:21 10.12.2019
6574 Clouds 8 1030 81 10000 2.6 330 23:41 09.12.2019
6575 Clouds 8 1030 81 10000 2.1 320 23:23 09.12.2019
6576 Clouds 8 1030 81 10000 2.1 320 22:58 09.12.2019
6577 Clouds 8 1030 87 10000 3.1 290 22:40 09.12.2019
6578 Clouds 8 1030 87 10000 3.1 290 22:20 09.12.2019
6579 Clouds 9 1029 87 10000 2.6 290 21:57 09.12.2019
6580 Clouds 9 1029 87 10000 2.6 290 21:38 09.12.2019
6581 Clouds 10 1029 81 10000 3.1 290 21:19 09.12.2019
6582 Clouds 10 1029 81 10000 3.1 300 20:56 09.12.2019
6583 Clouds 10 1028 76 10000 2.6 300 20:38 09.12.2019
6584 Clouds 10 1028 76 10000 2.6 300 20:20 09.12.2019
6585 Clouds 10 1028 81 10000 3.1 300 19:56 09.12.2019
6586 Clouds 10 1027 81 10000 2.6 290 19:37 09.12.2019
6587 Clouds 10 1027 81 10000 2.6 290 19:19 09.12.2019
6588 Clouds 10 1027 81 10000 4.6 310 18:56 09.12.2019
6589 Clouds 10 1027 87 10000 4.1 300 18:38 09.12.2019
6590 Clouds 10 1027 87 10000 4.1 300 18:19 09.12.2019
6591 Rain 10 1026 87 10000 5.7 300 17:57 09.12.2019
6592 Rain 11 1026 71 10000 5.7 300 17:38 09.12.2019
6593 Rain 11 1026 71 10000 5.7 300 17:20 09.12.2019
6594 Rain 11 1025 71 10000 6.7 310 16:56 09.12.2019
6595 Clouds 12 1025 71 10000 6.7 310 16:37 09.12.2019
6596 Clouds 12 1025 71 10000 6.7 310 16:19 09.12.2019
6597 Clouds 12 1024 76 10000 6.7 300 15:55 09.12.2019
6598 Clouds 12 1024 76 10000 6.7 300 15:54 09.12.2019
6599 Rain 12 1024 76 10000 8.2 310 15:36 09.12.2019
6600 Rain 12 1024 76 10000 8.2 310 15:18 09.12.2019
6601 Clouds 12 1024 76 10000 7.7 310 14:41 09.12.2019
6602 Rain 12 1023 81 10000 6.2 310 14:18 09.12.2019
6603 Rain 12 1023 81 10000 6.2 300 13:56 09.12.2019
6604 Rain 11 1023 81 7000 9.3 300 13:38 09.12.2019
6605 Rain 11 1023 81 7000 9.3 300 13:19 09.12.2019
6606 Rain 11 1023 81 10000 6.7 310 12:56 09.12.2019
6607 Rain 11 1023 76 10000 9.3 290 12:37 09.12.2019
6608 Rain 11 1023 76 10000 9.3 290 12:18 09.12.2019
6609 Rain 11 1023 81 10000 7.7 300 11:55 09.12.2019
6610 Rain 11 1023 87 10000 10.3 290 11:36 09.12.2019
6611 Rain 11 1023 87 10000 10.3 290 11:18 09.12.2019
6612 Rain 11 1021 81 10000 9.3 300 10:39 09.12.2019
6613 Rain 12 1021 81 10000 9.3 300 10:20 09.12.2019
6614 Rain 11 1021 81 10000 8.2 280 09:56 09.12.2019
6615 Rain 11 1020 81 10000 7.7 280 09:37 09.12.2019
6616 Rain 11 1020 81 10000 7.7 280 09:19 09.12.2019
6617 Rain 11 1020 76 10000 8.2 280 08:40 09.12.2019
6618 Rain 11 1020 76 10000 8.2 280 08:22 09.12.2019
6619 Clouds 10 1020 81 10000 7.7 280 07:53 09.12.2019
6620 Rain 10 1020 81 10000 10.8 290 07:34 09.12.2019
6621 Rain 10 1019 81 10000 6.7 280 06:59 09.12.2019
6622 Rain 10 1019 76 10000 7.7 280 06:37 09.12.2019
6623 Rain 10 1019 76 10000 7.7 280 06:19 09.12.2019
6624 Rain 11 1019 93 8000 7.2 280 05:25 09.12.2019
6625 Clouds 12 1019 76 10000 8.2 270 04:28 09.12.2019
6626 Rain 12 1019 76 10000 9.3 250 02:46 09.12.2019
6627 Rain 12 1020 76 10000 8.2 260 01:48 09.12.2019
6628 Clouds 12 1020 76 10000 9.3 260 01:23 09.12.2019
6629 Clouds 12 1020 76 10000 7.2 260 00:34 09.12.2019
6630 Rain 12 1020 76 10000 7.2 260 23:58 08.12.2019
6631 Rain 12 1020 76 10000 7.2 260 23:37 08.12.2019
6632 Clouds 12 1020 76 10000 6.2 260 23:19 08.12.2019
6633 Clouds 12 1021 81 10000 7.2 260 22:56 08.12.2019
6634 Clouds 11 1021 81 10000 5.1 240 22:38 08.12.2019
6635 Clouds 11 1021 81 10000 5.1 240 22:18 08.12.2019
6636 Clouds 11 1021 81 10000 5.7 260 21:57 08.12.2019
6637 Clouds 11 1021 87 10000 5.1 260 21:37 08.12.2019
6638 Clouds 11 1021 87 10000 5.1 260 21:19 08.12.2019
6639 Clouds 11 1020 93 10000 4.1 240 20:56 08.12.2019
6640 Clouds 11 1020 93 10000 4.1 240 20:37 08.12.2019
6641 Clouds 11 1020 93 10000 4.1 240 20:19 08.12.2019
6642 Clouds 11 1020 93 10000 3.6 240 19:55 08.12.2019
6643 Clouds 11 1020 87 10000 3.6 250 19:37 08.12.2019
6644 Clouds 11 1020 87 10000 3.6 250 19:37 08.12.2019
6645 Clouds 11 1020 87 10000 3.6 250 19:18 08.12.2019
6646 Clouds 11 1020 87 10000 4.1 270 18:54 08.12.2019
6647 Clouds 12 1019 87 10000 4.1 270 18:36 08.12.2019
6648 Clouds 12 1019 87 10000 4.1 270 18:36 08.12.2019
6649 Clouds 12 1019 87 10000 4.1 270 18:18 08.12.2019
6650 Clouds 12 1019 87 10000 4.6 290 17:55 08.12.2019
6651 Clouds 12 1019 93 10000 5.7 300 17:36 08.12.2019
6652 Clouds 12 1019 93 10000 5.7 300 17:18 08.12.2019
6653 Clouds 13 1018 93 10000 7.2 300 16:55 08.12.2019
6654 Rain 13 1018 93 3800 6.2 300 16:37 08.12.2019
6655 Rain 14 1018 93 3800 6.2 300 16:18 08.12.2019
6656 Rain 13 1017 100 2900 8.2 240 15:37 08.12.2019
6657 Rain 13 1017 100 2900 8.2 240 15:18 08.12.2019
6658 Rain 13 1017 100 7000 8.2 240 14:57 08.12.2019
6659 Rain 13 1017 93 3600 5.1 220 14:37 08.12.2019
6660 Rain 13 1017 93 3600 5.1 220 14:19 08.12.2019
6661 Rain 12 1017 100 10000 5.1 210 13:41 08.12.2019
6662 Rain 12 1018 93 7000 5.1 220 13:22 08.12.2019
6663 Rain 12 1018 93 9000 4.6 210 12:59 08.12.2019
6664 Rain 12 1019 87 10000 5.1 200 12:40 08.12.2019
6665 Rain 12 1019 87 10000 5.1 200 12:20 08.12.2019
6666 Rain 12 1019 87 9000 5.1 210 11:58 08.12.2019
6667 Clouds 12 1019 87 10000 5.1 210 11:38 08.12.2019
6668 Clouds 12 1019 87 10000 5.1 210 11:19 08.12.2019
6669 Clouds 12 1019 87 10000 4.6 210 10:57 08.12.2019
6670 Clouds 11 1019 87 10000 4.1 190 10:38 08.12.2019
6671 Clouds 11 1019 87 10000 4.1 190 10:19 08.12.2019
6672 Clouds 11 1019 87 10000 4.1 190 09:55 08.12.2019
6673 Clouds 11 1019 87 10000 3.6 180 09:36 08.12.2019
6674 Clouds 11 1019 87 10000 3.6 180 09:18 08.12.2019
6675 Clouds 11 1019 93 10000 3.1 200 08:42 08.12.2019
6676 Clouds 11 1019 93 10000 3.1 200 08:23 08.12.2019
6677 Clouds 11 1020 93 10000 3.6 200 07:55 08.12.2019
6678 Clouds 11 1019 93 10000 3.1 190 07:36 08.12.2019
6679 Clouds 11 1019 93 10000 3.1 190 07:18 08.12.2019
6680 Clouds 11 1020 93 10000 3.1 210 06:40 08.12.2019
6681 Clouds 11 1019 93 10000 3.6 200 06:20 08.12.2019
6682 Clouds 11 1020 93 10000 4.1 200 05:23 08.12.2019
6683 Clouds 11 1020 100 10000 3.6 190 04:54 08.12.2019
6684 Clouds 11 1021 93 10000 3.1 210 03:40 08.12.2019
6685 Clouds 11 1021 93 10000 4.1 200 02:43 08.12.2019
6686 Clouds 11 1021 93 10000 3.6 200 02:20 08.12.2019
6687 Clouds 11 1022 100 10000 3.1 210 01:40 08.12.2019
6688 Clouds 12 1022 93 10000 3.1 180 00:54 08.12.2019
6689 Clouds 12 1023 93 10000 2.6 200 00:24 08.12.2019
6690 Clouds 11 1023 93 10000 3.1 200 23:59 07.12.2019
6691 Clouds 11 1023 93 10000 3.1 200 23:38 07.12.2019
6692 Clouds 11 1023 93 10000 2.6 210 23:20 07.12.2019
6693 Clouds 11 1023 100 10000 3.1 200 22:55 07.12.2019
6694 Clouds 11 1023 100 10000 2.6 210 22:37 07.12.2019
6695 Clouds 11 1023 100 10000 2.6 210 22:37 07.12.2019
6696 Clouds 11 1023